<?xml version="1.0" encoding="UTF-8" standalone="no" ?>
<gpx xmlns="http://www.topografix.com/GPX/1/1" xmlns:xsi="http://www.w3.org/2001/XMLSchema-instance" xsi:schemaLocation="http://www.topografix.com/GPX/1/1 http://www.topografix.com/GPX/1/1/gpx.xsd" version="1.1" creator="VisuGPX - https://www.visugpx.com">
  <metadata>
    <name>Copie de Classique Pyrénées Atlantiques</name>
  </metadata>
  <trk>
    <name><![CDATA[Copie de Classique Pyrénées Atlantiques]]></name>
    <trkseg>
      <trkpt lat="43.11324" lon="-0.76283">
        <ele>324.59</ele>
        <time>2024-04-28T09:55:32.000Z</time>
      </trkpt>
      <trkpt lat="43.11327" lon="-0.76261">
        <ele>324.62</ele>
        <time>2024-04-28T09:55:32.002Z</time>
      </trkpt>
      <trkpt lat="43.11327" lon="-0.76242">
        <ele>324.56</ele>
        <time>2024-04-28T09:55:32.005Z</time>
      </trkpt>
      <trkpt lat="43.11325" lon="-0.76209">
        <ele>324.2</ele>
        <time>2024-04-28T09:55:32.011Z</time>
      </trkpt>
      <trkpt lat="43.11325" lon="-0.76168">
        <ele>323.74</ele>
        <time>2024-04-28T09:55:32.020Z</time>
      </trkpt>
      <trkpt lat="43.11324" lon="-0.76111">
        <ele>323.52</ele>
        <time>2024-04-28T09:55:32.034Z</time>
      </trkpt>
      <trkpt lat="43.11324" lon="-0.76059">
        <ele>323.38</ele>
        <time>2024-04-28T09:55:32.052Z</time>
      </trkpt>
      <trkpt lat="43.11326" lon="-0.76036">
        <ele>323.22</ele>
        <time>2024-04-28T09:55:32.072Z</time>
      </trkpt>
      <trkpt lat="43.11336" lon="-0.75981">
        <ele>322.92</ele>
        <time>2024-04-28T09:55:32.097Z</time>
      </trkpt>
      <trkpt lat="43.11334" lon="-0.75948">
        <ele>323.07</ele>
        <time>2024-04-28T09:55:32.124Z</time>
      </trkpt>
      <trkpt lat="43.11328" lon="-0.7593">
        <ele>323.31</ele>
        <time>2024-04-28T09:55:32.153Z</time>
      </trkpt>
      <trkpt lat="43.11321" lon="-0.75918">
        <ele>323.61</ele>
        <time>2024-04-28T09:55:32.183Z</time>
      </trkpt>
      <trkpt lat="43.11294" lon="-0.75893">
        <ele>323.96</ele>
        <time>2024-04-28T09:55:32.217Z</time>
      </trkpt>
      <trkpt lat="43.11288" lon="-0.75887">
        <ele>324.14</ele>
        <time>2024-04-28T09:55:32.252Z</time>
      </trkpt>
      <trkpt lat="43.11256" lon="-0.75853">
        <ele>324.25</ele>
        <time>2024-04-28T09:55:32.291Z</time>
      </trkpt>
      <trkpt lat="43.11245" lon="-0.75832">
        <ele>323.89</ele>
        <time>2024-04-28T09:55:32.332Z</time>
      </trkpt>
      <trkpt lat="43.11238" lon="-0.75805">
        <ele>323.13</ele>
        <time>2024-04-28T09:55:32.376Z</time>
      </trkpt>
      <trkpt lat="43.11235" lon="-0.75786">
        <ele>321.98</ele>
        <time>2024-04-28T09:55:32.421Z</time>
      </trkpt>
      <trkpt lat="43.11236" lon="-0.7576">
        <ele>320.3</ele>
        <time>2024-04-28T09:55:32.468Z</time>
      </trkpt>
      <trkpt lat="43.11244" lon="-0.75714">
        <ele>317.99</ele>
        <time>2024-04-28T09:55:32.519Z</time>
      </trkpt>
      <trkpt lat="43.11265" lon="-0.75615">
        <ele>315.03</ele>
        <time>2024-04-28T09:55:32.579Z</time>
      </trkpt>
      <trkpt lat="43.11271" lon="-0.75567">
        <ele>311.65</ele>
        <time>2024-04-28T09:55:32.643Z</time>
      </trkpt>
      <trkpt lat="43.11272" lon="-0.75505">
        <ele>307.77</ele>
        <time>2024-04-28T09:55:32.712Z</time>
      </trkpt>
      <trkpt lat="43.11271" lon="-0.75261">
        <ele>302.03</ele>
        <time>2024-04-28T09:55:32.801Z</time>
      </trkpt>
      <trkpt lat="43.11273" lon="-0.75155">
        <ele>299.5</ele>
        <time>2024-04-28T09:55:32.898Z</time>
      </trkpt>
      <trkpt lat="43.11273" lon="-0.75155">
        <ele>296.96</ele>
        <time>2024-04-28T09:55:32.995Z</time>
      </trkpt>
      <trkpt lat="43.11274" lon="-0.75016">
        <ele>294.25</ele>
        <time>2024-04-28T09:55:33.103Z</time>
      </trkpt>
      <trkpt lat="43.11268" lon="-0.74951">
        <ele>292.54</ele>
        <time>2024-04-28T09:55:33.217Z</time>
      </trkpt>
      <trkpt lat="43.11268" lon="-0.74951">
        <ele>292.54</ele>
        <time>2024-04-28T09:55:33.331Z</time>
      </trkpt>
      <trkpt lat="43.11266" lon="-0.74927">
        <ele>293.65</ele>
        <time>2024-04-28T09:55:33.447Z</time>
      </trkpt>
      <trkpt lat="43.11235" lon="-0.74783">
        <ele>295.5</ele>
        <time>2024-04-28T09:55:33.575Z</time>
      </trkpt>
      <trkpt lat="43.1123" lon="-0.74718">
        <ele>298.27</ele>
        <time>2024-04-28T09:55:33.708Z</time>
      </trkpt>
      <trkpt lat="43.11239" lon="-0.74645">
        <ele>302.37</ele>
        <time>2024-04-28T09:55:33.847Z</time>
      </trkpt>
      <trkpt lat="43.11262" lon="-0.7457">
        <ele>304.57</ele>
        <time>2024-04-28T09:55:33.993Z</time>
      </trkpt>
      <trkpt lat="43.11299" lon="-0.74419">
        <ele>308.21</ele>
        <time>2024-04-28T09:55:34.152Z</time>
      </trkpt>
      <trkpt lat="43.11319" lon="-0.7435">
        <ele>310.01</ele>
        <time>2024-04-28T09:55:34.317Z</time>
      </trkpt>
      <trkpt lat="43.11329" lon="-0.74318">
        <ele>311.29</ele>
        <time>2024-04-28T09:55:34.485Z</time>
      </trkpt>
      <trkpt lat="43.11347" lon="-0.74256">
        <ele>312.41</ele>
        <time>2024-04-28T09:55:34.658Z</time>
      </trkpt>
      <trkpt lat="43.11369" lon="-0.74178">
        <ele>312.84</ele>
        <time>2024-04-28T09:55:34.838Z</time>
      </trkpt>
      <trkpt lat="43.11371" lon="-0.74146">
        <ele>313.41</ele>
        <time>2024-04-28T09:55:35.021Z</time>
      </trkpt>
      <trkpt lat="43.11367" lon="-0.74114">
        <ele>314</ele>
        <time>2024-04-28T09:55:35.206Z</time>
      </trkpt>
      <trkpt lat="43.11355" lon="-0.74065">
        <ele>314.32</ele>
        <time>2024-04-28T09:55:35.395Z</time>
      </trkpt>
      <trkpt lat="43.11348" lon="-0.7403">
        <ele>314.55</ele>
        <time>2024-04-28T09:55:35.587Z</time>
      </trkpt>
      <trkpt lat="43.11343" lon="-0.73951">
        <ele>314.26</ele>
        <time>2024-04-28T09:55:35.786Z</time>
      </trkpt>
      <trkpt lat="43.11337" lon="-0.73861">
        <ele>314.07</ele>
        <time>2024-04-28T09:55:35.992Z</time>
      </trkpt>
      <trkpt lat="43.11336" lon="-0.73826">
        <ele>314.01</ele>
        <time>2024-04-28T09:55:36.201Z</time>
      </trkpt>
      <trkpt lat="43.11339" lon="-0.73804">
        <ele>313.77</ele>
        <time>2024-04-28T09:55:36.412Z</time>
      </trkpt>
      <trkpt lat="43.11342" lon="-0.73794">
        <ele>313.44</ele>
        <time>2024-04-28T09:55:36.624Z</time>
      </trkpt>
      <trkpt lat="43.11346" lon="-0.73782">
        <ele>312.97</ele>
        <time>2024-04-28T09:55:36.837Z</time>
      </trkpt>
      <trkpt lat="43.11355" lon="-0.73769">
        <ele>312.28</ele>
        <time>2024-04-28T09:55:37.051Z</time>
      </trkpt>
      <trkpt lat="43.11367" lon="-0.73755">
        <ele>311.39</ele>
        <time>2024-04-28T09:55:37.267Z</time>
      </trkpt>
      <trkpt lat="43.11436" lon="-0.73687">
        <ele>310.49</ele>
        <time>2024-04-28T09:55:37.493Z</time>
      </trkpt>
      <trkpt lat="43.11669" lon="-0.73462">
        <ele>308.47</ele>
        <time>2024-04-28T09:55:37.750Z</time>
      </trkpt>
      <trkpt lat="43.11714" lon="-0.73423">
        <ele>306.87</ele>
        <time>2024-04-28T09:55:38.013Z</time>
      </trkpt>
      <trkpt lat="43.11714" lon="-0.73423">
        <ele>305.36</ele>
        <time>2024-04-28T09:55:38.276Z</time>
      </trkpt>
      <trkpt lat="43.1173" lon="-0.73412">
        <ele>303.58</ele>
        <time>2024-04-28T09:55:38.541Z</time>
      </trkpt>
      <trkpt lat="43.11991" lon="-0.73261">
        <ele>301.56</ele>
        <time>2024-04-28T09:55:38.838Z</time>
      </trkpt>
      <trkpt lat="43.12023" lon="-0.73237">
        <ele>299.21</ele>
        <time>2024-04-28T09:55:39.139Z</time>
      </trkpt>
      <trkpt lat="43.12052" lon="-0.73208">
        <ele>296.53</ele>
        <time>2024-04-28T09:55:39.444Z</time>
      </trkpt>
      <trkpt lat="43.12062" lon="-0.73195">
        <ele>294.13</ele>
        <time>2024-04-28T09:55:39.750Z</time>
      </trkpt>
      <trkpt lat="43.12082" lon="-0.73167">
        <ele>291.61</ele>
        <time>2024-04-28T09:55:40.059Z</time>
      </trkpt>
      <trkpt lat="43.12101" lon="-0.73136">
        <ele>289.23</ele>
        <time>2024-04-28T09:55:40.372Z</time>
      </trkpt>
      <trkpt lat="43.12122" lon="-0.73097">
        <ele>287.08</ele>
        <time>2024-04-28T09:55:40.689Z</time>
      </trkpt>
      <trkpt lat="43.12129" lon="-0.73078">
        <ele>285.31</ele>
        <time>2024-04-28T09:55:41.007Z</time>
      </trkpt>
      <trkpt lat="43.12134" lon="-0.73064">
        <ele>283.84</ele>
        <time>2024-04-28T09:55:41.327Z</time>
      </trkpt>
      <trkpt lat="43.12137" lon="-0.73039">
        <ele>282.56</ele>
        <time>2024-04-28T09:55:41.649Z</time>
      </trkpt>
      <trkpt lat="43.12136" lon="-0.7302">
        <ele>281.56</ele>
        <time>2024-04-28T09:55:41.972Z</time>
      </trkpt>
      <trkpt lat="43.12136" lon="-0.7302">
        <ele>281.56</ele>
        <time>2024-04-28T09:55:42.295Z</time>
      </trkpt>
      <trkpt lat="43.12135" lon="-0.73003">
        <ele>281.17</ele>
        <time>2024-04-28T09:55:42.620Z</time>
      </trkpt>
      <trkpt lat="43.12126" lon="-0.72963">
        <ele>280.75</ele>
        <time>2024-04-28T09:55:42.948Z</time>
      </trkpt>
      <trkpt lat="43.12124" lon="-0.72956">
        <ele>280.68</ele>
        <time>2024-04-28T09:55:43.277Z</time>
      </trkpt>
      <trkpt lat="43.12123" lon="-0.72952">
        <ele>280.78</ele>
        <time>2024-04-28T09:55:43.606Z</time>
      </trkpt>
      <trkpt lat="43.12113" lon="-0.72898">
        <ele>281.12</ele>
        <time>2024-04-28T09:55:43.940Z</time>
      </trkpt>
      <trkpt lat="43.12108" lon="-0.72877">
        <ele>281.68</ele>
        <time>2024-04-28T09:55:44.275Z</time>
      </trkpt>
      <trkpt lat="43.12104" lon="-0.72866">
        <ele>282.24</ele>
        <time>2024-04-28T09:55:44.611Z</time>
      </trkpt>
      <trkpt lat="43.1209" lon="-0.72847">
        <ele>282.7</ele>
        <time>2024-04-28T09:55:44.950Z</time>
      </trkpt>
      <trkpt lat="43.12079" lon="-0.72831">
        <ele>283.1</ele>
        <time>2024-04-28T09:55:45.290Z</time>
      </trkpt>
      <trkpt lat="43.12074" lon="-0.72816">
        <ele>283.3</ele>
        <time>2024-04-28T09:55:45.632Z</time>
      </trkpt>
      <trkpt lat="43.12074" lon="-0.7281">
        <ele>283.28</ele>
        <time>2024-04-28T09:55:45.974Z</time>
      </trkpt>
      <trkpt lat="43.12078" lon="-0.72797">
        <ele>283</ele>
        <time>2024-04-28T09:55:46.317Z</time>
      </trkpt>
      <trkpt lat="43.12108" lon="-0.72743">
        <ele>282.42</ele>
        <time>2024-04-28T09:55:46.666Z</time>
      </trkpt>
      <trkpt lat="43.1212" lon="-0.72728">
        <ele>281.93</ele>
        <time>2024-04-28T09:55:47.017Z</time>
      </trkpt>
      <trkpt lat="43.12141" lon="-0.72706">
        <ele>281.31</ele>
        <time>2024-04-28T09:55:47.371Z</time>
      </trkpt>
      <trkpt lat="43.1216" lon="-0.72686">
        <ele>280.54</ele>
        <time>2024-04-28T09:55:47.727Z</time>
      </trkpt>
      <trkpt lat="43.12178" lon="-0.72673">
        <ele>279.68</ele>
        <time>2024-04-28T09:55:48.085Z</time>
      </trkpt>
      <trkpt lat="43.12223" lon="-0.72656">
        <ele>278.79</ele>
        <time>2024-04-28T09:55:48.449Z</time>
      </trkpt>
      <trkpt lat="43.12235" lon="-0.72649">
        <ele>277.99</ele>
        <time>2024-04-28T09:55:48.814Z</time>
      </trkpt>
      <trkpt lat="43.12244" lon="-0.72639">
        <ele>277.19</ele>
        <time>2024-04-28T09:55:49.180Z</time>
      </trkpt>
      <trkpt lat="43.12271" lon="-0.72607">
        <ele>276.3</ele>
        <time>2024-04-28T09:55:49.550Z</time>
      </trkpt>
      <trkpt lat="43.12323" lon="-0.72543">
        <ele>275.4</ele>
        <time>2024-04-28T09:55:49.928Z</time>
      </trkpt>
      <trkpt lat="43.1234" lon="-0.72516">
        <ele>274.51</ele>
        <time>2024-04-28T09:55:50.309Z</time>
      </trkpt>
      <trkpt lat="43.12425" lon="-0.72389">
        <ele>273.64</ele>
        <time>2024-04-28T09:55:50.704Z</time>
      </trkpt>
      <trkpt lat="43.12485" lon="-0.72297">
        <ele>272.92</ele>
        <time>2024-04-28T09:55:51.109Z</time>
      </trkpt>
      <trkpt lat="43.12532" lon="-0.72227">
        <ele>271.73</ele>
        <time>2024-04-28T09:55:51.522Z</time>
      </trkpt>
      <trkpt lat="43.12532" lon="-0.72227">
        <ele>270.83</ele>
        <time>2024-04-28T09:55:51.935Z</time>
      </trkpt>
      <trkpt lat="43.12562" lon="-0.72181">
        <ele>269.78</ele>
        <time>2024-04-28T09:55:52.353Z</time>
      </trkpt>
      <trkpt lat="43.12616" lon="-0.72099">
        <ele>268.79</ele>
        <time>2024-04-28T09:55:52.780Z</time>
      </trkpt>
      <trkpt lat="43.12638" lon="-0.7206">
        <ele>267.84</ele>
        <time>2024-04-28T09:55:53.211Z</time>
      </trkpt>
      <trkpt lat="43.12667" lon="-0.71996">
        <ele>266.94</ele>
        <time>2024-04-28T09:55:53.648Z</time>
      </trkpt>
      <trkpt lat="43.12685" lon="-0.71941">
        <ele>266.12</ele>
        <time>2024-04-28T09:55:54.090Z</time>
      </trkpt>
      <trkpt lat="43.127" lon="-0.71871">
        <ele>265.41</ele>
        <time>2024-04-28T09:55:54.538Z</time>
      </trkpt>
      <trkpt lat="43.12752" lon="-0.71463">
        <ele>264.19</ele>
        <time>2024-04-28T09:55:55.020Z</time>
      </trkpt>
      <trkpt lat="43.12752" lon="-0.71463">
        <ele>263.58</ele>
        <time>2024-04-28T09:55:55.502Z</time>
      </trkpt>
      <trkpt lat="43.12796" lon="-0.71125">
        <ele>263.21</ele>
        <time>2024-04-28T09:55:56.011Z</time>
      </trkpt>
      <trkpt lat="43.12805" lon="-0.71067">
        <ele>262.56</ele>
        <time>2024-04-28T09:55:56.525Z</time>
      </trkpt>
      <trkpt lat="43.12814" lon="-0.71039">
        <ele>262.28</ele>
        <time>2024-04-28T09:55:57.042Z</time>
      </trkpt>
      <trkpt lat="43.12826" lon="-0.71011">
        <ele>262.19</ele>
        <time>2024-04-28T09:55:57.561Z</time>
      </trkpt>
      <trkpt lat="43.12853" lon="-0.70963">
        <ele>262.51</ele>
        <time>2024-04-28T09:55:58.085Z</time>
      </trkpt>
      <trkpt lat="43.12873" lon="-0.70936">
        <ele>262.65</ele>
        <time>2024-04-28T09:55:58.612Z</time>
      </trkpt>
      <trkpt lat="43.12894" lon="-0.70915">
        <ele>262.9</ele>
        <time>2024-04-28T09:55:59.142Z</time>
      </trkpt>
      <trkpt lat="43.13043" lon="-0.70791">
        <ele>262.96</ele>
        <time>2024-04-28T09:55:59.692Z</time>
      </trkpt>
      <trkpt lat="43.13074" lon="-0.70765">
        <ele>263.29</ele>
        <time>2024-04-28T09:56:00.246Z</time>
      </trkpt>
      <trkpt lat="43.13164" lon="-0.70692">
        <ele>263.62</ele>
        <time>2024-04-28T09:56:00.811Z</time>
      </trkpt>
      <trkpt lat="43.13183" lon="-0.70665">
        <ele>263.89</ele>
        <time>2024-04-28T09:56:01.379Z</time>
      </trkpt>
      <trkpt lat="43.13259" lon="-0.70556">
        <ele>264.49</ele>
        <time>2024-04-28T09:56:01.960Z</time>
      </trkpt>
      <trkpt lat="43.13338" lon="-0.70442">
        <ele>265.77</ele>
        <time>2024-04-28T09:56:02.553Z</time>
      </trkpt>
      <trkpt lat="43.13373" lon="-0.70373">
        <ele>265.73</ele>
        <time>2024-04-28T09:56:03.153Z</time>
      </trkpt>
      <trkpt lat="43.13406" lon="-0.70286">
        <ele>266.01</ele>
        <time>2024-04-28T09:56:03.761Z</time>
      </trkpt>
      <trkpt lat="43.13424" lon="-0.7025">
        <ele>266.3</ele>
        <time>2024-04-28T09:56:04.373Z</time>
      </trkpt>
      <trkpt lat="43.13448" lon="-0.70214">
        <ele>266.54</ele>
        <time>2024-04-28T09:56:04.989Z</time>
      </trkpt>
      <trkpt lat="43.13615" lon="-0.70034">
        <ele>267.09</ele>
        <time>2024-04-28T09:56:05.628Z</time>
      </trkpt>
      <trkpt lat="43.13641" lon="-0.70006">
        <ele>267.35</ele>
        <time>2024-04-28T09:56:06.271Z</time>
      </trkpt>
      <trkpt lat="43.13663" lon="-0.69975">
        <ele>267.26</ele>
        <time>2024-04-28T09:56:06.918Z</time>
      </trkpt>
      <trkpt lat="43.13685" lon="-0.69938">
        <ele>266.61</ele>
        <time>2024-04-28T09:56:07.568Z</time>
      </trkpt>
      <trkpt lat="43.13702" lon="-0.69893">
        <ele>265.95</ele>
        <time>2024-04-28T09:56:08.223Z</time>
      </trkpt>
      <trkpt lat="43.1372" lon="-0.69844">
        <ele>265.23</ele>
        <time>2024-04-28T09:56:08.882Z</time>
      </trkpt>
      <trkpt lat="43.13729" lon="-0.69816">
        <ele>264.53</ele>
        <time>2024-04-28T09:56:09.544Z</time>
      </trkpt>
      <trkpt lat="43.13753" lon="-0.69761">
        <ele>263.56</ele>
        <time>2024-04-28T09:56:10.211Z</time>
      </trkpt>
      <trkpt lat="43.13776" lon="-0.69726">
        <ele>262.55</ele>
        <time>2024-04-28T09:56:10.882Z</time>
      </trkpt>
      <trkpt lat="43.13812" lon="-0.69685">
        <ele>261.16</ele>
        <time>2024-04-28T09:56:11.558Z</time>
      </trkpt>
      <trkpt lat="43.1385" lon="-0.69657">
        <ele>259.76</ele>
        <time>2024-04-28T09:56:12.239Z</time>
      </trkpt>
      <trkpt lat="43.13919" lon="-0.69618">
        <ele>258.72</ele>
        <time>2024-04-28T09:56:12.928Z</time>
      </trkpt>
      <trkpt lat="43.13976" lon="-0.69579">
        <ele>257.66</ele>
        <time>2024-04-28T09:56:13.624Z</time>
      </trkpt>
      <trkpt lat="43.13976" lon="-0.69579">
        <ele>256.85</ele>
        <time>2024-04-28T09:56:14.320Z</time>
      </trkpt>
      <trkpt lat="43.14009" lon="-0.69556">
        <ele>256.14</ele>
        <time>2024-04-28T09:56:15.020Z</time>
      </trkpt>
      <trkpt lat="43.14068" lon="-0.69515">
        <ele>255.48</ele>
        <time>2024-04-28T09:56:15.727Z</time>
      </trkpt>
      <trkpt lat="43.14068" lon="-0.69515">
        <ele>255.02</ele>
        <time>2024-04-28T09:56:16.434Z</time>
      </trkpt>
      <trkpt lat="43.14072" lon="-0.69512">
        <ele>254.68</ele>
        <time>2024-04-28T09:56:17.142Z</time>
      </trkpt>
      <trkpt lat="43.14178" lon="-0.69437">
        <ele>254.58</ele>
        <time>2024-04-28T09:56:17.863Z</time>
      </trkpt>
      <trkpt lat="43.14376" lon="-0.69278">
        <ele>254.13</ele>
        <time>2024-04-28T09:56:18.610Z</time>
      </trkpt>
      <trkpt lat="43.14403" lon="-0.69258">
        <ele>254.16</ele>
        <time>2024-04-28T09:56:19.360Z</time>
      </trkpt>
      <trkpt lat="43.14423" lon="-0.69248">
        <ele>254.15</ele>
        <time>2024-04-28T09:56:20.113Z</time>
      </trkpt>
      <trkpt lat="43.14423" lon="-0.69248">
        <ele>254.13</ele>
        <time>2024-04-28T09:56:20.866Z</time>
      </trkpt>
      <trkpt lat="43.14451" lon="-0.69246">
        <ele>254.2</ele>
        <time>2024-04-28T09:56:21.622Z</time>
      </trkpt>
      <trkpt lat="43.14486" lon="-0.6925">
        <ele>254.24</ele>
        <time>2024-04-28T09:56:22.381Z</time>
      </trkpt>
      <trkpt lat="43.14494" lon="-0.69249">
        <ele>254.13</ele>
        <time>2024-04-28T09:56:23.141Z</time>
      </trkpt>
      <trkpt lat="43.1451" lon="-0.69237">
        <ele>253.9</ele>
        <time>2024-04-28T09:56:23.903Z</time>
      </trkpt>
      <trkpt lat="43.14522" lon="-0.69224">
        <ele>253.6</ele>
        <time>2024-04-28T09:56:24.667Z</time>
      </trkpt>
      <trkpt lat="43.14527" lon="-0.69212">
        <ele>253.2</ele>
        <time>2024-04-28T09:56:25.432Z</time>
      </trkpt>
      <trkpt lat="43.14531" lon="-0.69202">
        <ele>252.72</ele>
        <time>2024-04-28T09:56:26.198Z</time>
      </trkpt>
      <trkpt lat="43.1454" lon="-0.69183">
        <ele>252.18</ele>
        <time>2024-04-28T09:56:26.966Z</time>
      </trkpt>
      <trkpt lat="43.14552" lon="-0.69171">
        <ele>251.57</ele>
        <time>2024-04-28T09:56:27.736Z</time>
      </trkpt>
      <trkpt lat="43.14639" lon="-0.69118">
        <ele>250.79</ele>
        <time>2024-04-28T09:56:28.516Z</time>
      </trkpt>
      <trkpt lat="43.14761" lon="-0.6905">
        <ele>249.79</ele>
        <time>2024-04-28T09:56:29.311Z</time>
      </trkpt>
      <trkpt lat="43.15185" lon="-0.68815">
        <ele>248.64</ele>
        <time>2024-04-28T09:56:30.157Z</time>
      </trkpt>
      <trkpt lat="43.1519" lon="-0.68812">
        <ele>248.04</ele>
        <time>2024-04-28T09:56:31.003Z</time>
      </trkpt>
      <trkpt lat="43.15272" lon="-0.68766">
        <ele>247.52</ele>
        <time>2024-04-28T09:56:31.859Z</time>
      </trkpt>
      <trkpt lat="43.15299" lon="-0.68755">
        <ele>247.1</ele>
        <time>2024-04-28T09:56:32.718Z</time>
      </trkpt>
      <trkpt lat="43.15385" lon="-0.68724">
        <ele>246.75</ele>
        <time>2024-04-28T09:56:33.587Z</time>
      </trkpt>
      <trkpt lat="43.15399" lon="-0.68722">
        <ele>246.38</ele>
        <time>2024-04-28T09:56:34.458Z</time>
      </trkpt>
      <trkpt lat="43.1541" lon="-0.68724">
        <ele>246.12</ele>
        <time>2024-04-28T09:56:35.330Z</time>
      </trkpt>
      <trkpt lat="43.15431" lon="-0.68731">
        <ele>245.96</ele>
        <time>2024-04-28T09:56:36.204Z</time>
      </trkpt>
      <trkpt lat="43.15441" lon="-0.68738">
        <ele>245.91</ele>
        <time>2024-04-28T09:56:37.080Z</time>
      </trkpt>
      <trkpt lat="43.15476" lon="-0.68768">
        <ele>245.94</ele>
        <time>2024-04-28T09:56:37.960Z</time>
      </trkpt>
      <trkpt lat="43.15487" lon="-0.68774">
        <ele>245.89</ele>
        <time>2024-04-28T09:56:38.842Z</time>
      </trkpt>
      <trkpt lat="43.15494" lon="-0.68776">
        <ele>245.85</ele>
        <time>2024-04-28T09:56:39.724Z</time>
      </trkpt>
      <trkpt lat="43.15527" lon="-0.68777">
        <ele>245.73</ele>
        <time>2024-04-28T09:56:40.610Z</time>
      </trkpt>
      <trkpt lat="43.15538" lon="-0.68778">
        <ele>245.77</ele>
        <time>2024-04-28T09:56:41.497Z</time>
      </trkpt>
      <trkpt lat="43.15587" lon="-0.68787">
        <ele>245.97</ele>
        <time>2024-04-28T09:56:42.390Z</time>
      </trkpt>
      <trkpt lat="43.15709" lon="-0.68807">
        <ele>245.67</ele>
        <time>2024-04-28T09:56:43.296Z</time>
      </trkpt>
      <trkpt lat="43.15746" lon="-0.6881">
        <ele>245.57</ele>
        <time>2024-04-28T09:56:44.207Z</time>
      </trkpt>
      <trkpt lat="43.15756" lon="-0.68808">
        <ele>245.38</ele>
        <time>2024-04-28T09:56:45.119Z</time>
      </trkpt>
      <trkpt lat="43.1577" lon="-0.688">
        <ele>245.11</ele>
        <time>2024-04-28T09:56:46.032Z</time>
      </trkpt>
      <trkpt lat="43.15783" lon="-0.68793">
        <ele>244.79</ele>
        <time>2024-04-28T09:56:46.947Z</time>
      </trkpt>
      <trkpt lat="43.15802" lon="-0.68784">
        <ele>244.39</ele>
        <time>2024-04-28T09:56:47.864Z</time>
      </trkpt>
      <trkpt lat="43.15858" lon="-0.68749">
        <ele>243.83</ele>
        <time>2024-04-28T09:56:48.788Z</time>
      </trkpt>
      <trkpt lat="43.15878" lon="-0.68736">
        <ele>243.25</ele>
        <time>2024-04-28T09:56:49.714Z</time>
      </trkpt>
      <trkpt lat="43.15894" lon="-0.6873">
        <ele>242.84</ele>
        <time>2024-04-28T09:56:50.642Z</time>
      </trkpt>
      <trkpt lat="43.15924" lon="-0.68724">
        <ele>242.47</ele>
        <time>2024-04-28T09:56:51.574Z</time>
      </trkpt>
      <trkpt lat="43.15992" lon="-0.68718">
        <ele>242</ele>
        <time>2024-04-28T09:56:52.513Z</time>
      </trkpt>
      <trkpt lat="43.16009" lon="-0.68715">
        <ele>241.43</ele>
        <time>2024-04-28T09:56:53.454Z</time>
      </trkpt>
      <trkpt lat="43.16028" lon="-0.68706">
        <ele>240.86</ele>
        <time>2024-04-28T09:56:54.397Z</time>
      </trkpt>
      <trkpt lat="43.16028" lon="-0.68706">
        <ele>240.4</ele>
        <time>2024-04-28T09:56:55.340Z</time>
      </trkpt>
      <trkpt lat="43.16036" lon="-0.68701">
        <ele>239.91</ele>
        <time>2024-04-28T09:56:56.284Z</time>
      </trkpt>
      <trkpt lat="43.16056" lon="-0.68672">
        <ele>239.32</ele>
        <time>2024-04-28T09:56:57.232Z</time>
      </trkpt>
      <trkpt lat="43.16059" lon="-0.6866">
        <ele>238.97</ele>
        <time>2024-04-28T09:56:58.181Z</time>
      </trkpt>
      <trkpt lat="43.16067" lon="-0.68653">
        <ele>238.7</ele>
        <time>2024-04-28T09:56:59.131Z</time>
      </trkpt>
      <trkpt lat="43.16074" lon="-0.68654">
        <ele>238.48</ele>
        <time>2024-04-28T09:57:00.081Z</time>
      </trkpt>
      <trkpt lat="43.1608" lon="-0.68658">
        <ele>238.24</ele>
        <time>2024-04-28T09:57:01.032Z</time>
      </trkpt>
      <trkpt lat="43.16088" lon="-0.6866">
        <ele>237.96</ele>
        <time>2024-04-28T09:57:01.984Z</time>
      </trkpt>
      <trkpt lat="43.16109" lon="-0.68659">
        <ele>237.63</ele>
        <time>2024-04-28T09:57:02.938Z</time>
      </trkpt>
      <trkpt lat="43.16127" lon="-0.6865">
        <ele>237.05</ele>
        <time>2024-04-28T09:57:03.895Z</time>
      </trkpt>
      <trkpt lat="43.16164" lon="-0.68613">
        <ele>236.33</ele>
        <time>2024-04-28T09:57:04.857Z</time>
      </trkpt>
      <trkpt lat="43.16194" lon="-0.68576">
        <ele>236.14</ele>
        <time>2024-04-28T09:57:05.823Z</time>
      </trkpt>
      <trkpt lat="43.16213" lon="-0.68543">
        <ele>236.3</ele>
        <time>2024-04-28T09:57:06.792Z</time>
      </trkpt>
      <trkpt lat="43.16227" lon="-0.68516">
        <ele>236.58</ele>
        <time>2024-04-28T09:57:07.764Z</time>
      </trkpt>
      <trkpt lat="43.16227" lon="-0.68516">
        <ele>236.58</ele>
        <time>2024-04-28T09:57:08.736Z</time>
      </trkpt>
      <trkpt lat="43.16247" lon="-0.68477">
        <ele>237.6</ele>
        <time>2024-04-28T09:57:09.712Z</time>
      </trkpt>
      <trkpt lat="43.16258" lon="-0.68448">
        <ele>238.01</ele>
        <time>2024-04-28T09:57:10.691Z</time>
      </trkpt>
      <trkpt lat="43.16265" lon="-0.68421">
        <ele>238.24</ele>
        <time>2024-04-28T09:57:11.672Z</time>
      </trkpt>
      <trkpt lat="43.16277" lon="-0.68367">
        <ele>238.8</ele>
        <time>2024-04-28T09:57:12.658Z</time>
      </trkpt>
      <trkpt lat="43.16302" lon="-0.68238">
        <ele>239.34</ele>
        <time>2024-04-28T09:57:13.655Z</time>
      </trkpt>
      <trkpt lat="43.16315" lon="-0.68168">
        <ele>240.61</ele>
        <time>2024-04-28T09:57:14.657Z</time>
      </trkpt>
      <trkpt lat="43.16318" lon="-0.6815">
        <ele>241.43</ele>
        <time>2024-04-28T09:57:15.661Z</time>
      </trkpt>
      <trkpt lat="43.1633" lon="-0.68082">
        <ele>242.71</ele>
        <time>2024-04-28T09:57:16.671Z</time>
      </trkpt>
      <trkpt lat="43.1634" lon="-0.68029">
        <ele>243.71</ele>
        <time>2024-04-28T09:57:17.685Z</time>
      </trkpt>
      <trkpt lat="43.16349" lon="-0.67997">
        <ele>244.34</ele>
        <time>2024-04-28T09:57:18.702Z</time>
      </trkpt>
      <trkpt lat="43.16358" lon="-0.67975">
        <ele>244.6</ele>
        <time>2024-04-28T09:57:19.721Z</time>
      </trkpt>
      <trkpt lat="43.16377" lon="-0.67935">
        <ele>244.88</ele>
        <time>2024-04-28T09:57:20.744Z</time>
      </trkpt>
      <trkpt lat="43.16402" lon="-0.67889">
        <ele>244.81</ele>
        <time>2024-04-28T09:57:21.771Z</time>
      </trkpt>
      <trkpt lat="43.16426" lon="-0.67838">
        <ele>244.26</ele>
        <time>2024-04-28T09:57:22.803Z</time>
      </trkpt>
      <trkpt lat="43.16441" lon="-0.67802">
        <ele>243.6</ele>
        <time>2024-04-28T09:57:23.839Z</time>
      </trkpt>
      <trkpt lat="43.16456" lon="-0.67758">
        <ele>243.24</ele>
        <time>2024-04-28T09:57:24.879Z</time>
      </trkpt>
      <trkpt lat="43.16459" lon="-0.67752">
        <ele>242.58</ele>
        <time>2024-04-28T09:57:25.919Z</time>
      </trkpt>
      <trkpt lat="43.16486" lon="-0.67662">
        <ele>241.97</ele>
        <time>2024-04-28T09:57:26.967Z</time>
      </trkpt>
      <trkpt lat="43.1657" lon="-0.67388">
        <ele>240.76</ele>
        <time>2024-04-28T09:57:28.039Z</time>
      </trkpt>
      <trkpt lat="43.1657" lon="-0.67388">
        <ele>239.55</ele>
        <time>2024-04-28T09:57:29.111Z</time>
      </trkpt>
      <trkpt lat="43.16687" lon="-0.67008">
        <ele>237.48</ele>
        <time>2024-04-28T09:57:30.217Z</time>
      </trkpt>
      <trkpt lat="43.167" lon="-0.66968">
        <ele>235.96</ele>
        <time>2024-04-28T09:57:31.326Z</time>
      </trkpt>
      <trkpt lat="43.16714" lon="-0.66932">
        <ele>234.38</ele>
        <time>2024-04-28T09:57:32.439Z</time>
      </trkpt>
      <trkpt lat="43.16726" lon="-0.66907">
        <ele>232.81</ele>
        <time>2024-04-28T09:57:33.554Z</time>
      </trkpt>
      <trkpt lat="43.16772" lon="-0.66806">
        <ele>230.75</ele>
        <time>2024-04-28T09:57:34.679Z</time>
      </trkpt>
      <trkpt lat="43.16793" lon="-0.66754">
        <ele>228.77</ele>
        <time>2024-04-28T09:57:35.809Z</time>
      </trkpt>
      <trkpt lat="43.16803" lon="-0.66724">
        <ele>227.15</ele>
        <time>2024-04-28T09:57:36.941Z</time>
      </trkpt>
      <trkpt lat="43.16814" lon="-0.66683">
        <ele>225.75</ele>
        <time>2024-04-28T09:57:38.077Z</time>
      </trkpt>
      <trkpt lat="43.16819" lon="-0.66657">
        <ele>224.78</ele>
        <time>2024-04-28T09:57:39.215Z</time>
      </trkpt>
      <trkpt lat="43.16822" lon="-0.66627">
        <ele>224.17</ele>
        <time>2024-04-28T09:57:40.356Z</time>
      </trkpt>
      <trkpt lat="43.16898" lon="-0.65834">
        <ele>223.44</ele>
        <time>2024-04-28T09:57:41.562Z</time>
      </trkpt>
      <trkpt lat="43.16902" lon="-0.65794">
        <ele>223.54</ele>
        <time>2024-04-28T09:57:42.771Z</time>
      </trkpt>
      <trkpt lat="43.16901" lon="-0.65747">
        <ele>224.14</ele>
        <time>2024-04-28T09:57:43.984Z</time>
      </trkpt>
      <trkpt lat="43.16893" lon="-0.6552">
        <ele>225.27</ele>
        <time>2024-04-28T09:57:45.215Z</time>
      </trkpt>
      <trkpt lat="43.16883" lon="-0.65136">
        <ele>226.39</ele>
        <time>2024-04-28T09:57:46.477Z</time>
      </trkpt>
      <trkpt lat="43.16883" lon="-0.65082">
        <ele>227.75</ele>
        <time>2024-04-28T09:57:47.744Z</time>
      </trkpt>
      <trkpt lat="43.16885" lon="-0.65005">
        <ele>229.8</ele>
        <time>2024-04-28T09:57:49.017Z</time>
      </trkpt>
      <trkpt lat="43.16888" lon="-0.64979">
        <ele>231.65</ele>
        <time>2024-04-28T09:57:50.292Z</time>
      </trkpt>
      <trkpt lat="43.16894" lon="-0.64956">
        <ele>233.57</ele>
        <time>2024-04-28T09:57:51.569Z</time>
      </trkpt>
      <trkpt lat="43.16918" lon="-0.64903">
        <ele>235.61</ele>
        <time>2024-04-28T09:57:52.851Z</time>
      </trkpt>
      <trkpt lat="43.16918" lon="-0.64903">
        <ele>236.74</ele>
        <time>2024-04-28T09:57:54.133Z</time>
      </trkpt>
      <trkpt lat="43.16954" lon="-0.64823">
        <ele>237.32</ele>
        <time>2024-04-28T09:57:55.423Z</time>
      </trkpt>
      <trkpt lat="43.16954" lon="-0.64823">
        <ele>237.76</ele>
        <time>2024-04-28T09:57:56.713Z</time>
      </trkpt>
      <trkpt lat="43.16971" lon="-0.64784">
        <ele>237.98</ele>
        <time>2024-04-28T09:57:58.007Z</time>
      </trkpt>
      <trkpt lat="43.16995" lon="-0.64749">
        <ele>237.79</ele>
        <time>2024-04-28T09:57:59.305Z</time>
      </trkpt>
      <trkpt lat="43.17028" lon="-0.6472">
        <ele>237.21</ele>
        <time>2024-04-28T09:58:00.607Z</time>
      </trkpt>
      <trkpt lat="43.17161" lon="-0.64656">
        <ele>235.45</ele>
        <time>2024-04-28T09:58:01.925Z</time>
      </trkpt>
      <trkpt lat="43.17161" lon="-0.64656">
        <ele>234.43</ele>
        <time>2024-04-28T09:58:03.243Z</time>
      </trkpt>
      <trkpt lat="43.17206" lon="-0.64636">
        <ele>233.22</ele>
        <time>2024-04-28T09:58:04.566Z</time>
      </trkpt>
      <trkpt lat="43.17297" lon="-0.64592">
        <ele>232.36</ele>
        <time>2024-04-28T09:58:05.899Z</time>
      </trkpt>
      <trkpt lat="43.17431" lon="-0.64526">
        <ele>230.81</ele>
        <time>2024-04-28T09:58:07.248Z</time>
      </trkpt>
      <trkpt lat="43.17457" lon="-0.6451">
        <ele>229.74</ele>
        <time>2024-04-28T09:58:08.601Z</time>
      </trkpt>
      <trkpt lat="43.17505" lon="-0.64473">
        <ele>228.66</ele>
        <time>2024-04-28T09:58:09.960Z</time>
      </trkpt>
      <trkpt lat="43.17539" lon="-0.64441">
        <ele>228.22</ele>
        <time>2024-04-28T09:58:11.323Z</time>
      </trkpt>
      <trkpt lat="43.17555" lon="-0.64425">
        <ele>228</ele>
        <time>2024-04-28T09:58:12.688Z</time>
      </trkpt>
      <trkpt lat="43.176" lon="-0.64379">
        <ele>228.27</ele>
        <time>2024-04-28T09:58:14.060Z</time>
      </trkpt>
      <trkpt lat="43.17647" lon="-0.6433">
        <ele>228.27</ele>
        <time>2024-04-28T09:58:15.438Z</time>
      </trkpt>
      <trkpt lat="43.17663" lon="-0.64312">
        <ele>228.44</ele>
        <time>2024-04-28T09:58:16.819Z</time>
      </trkpt>
      <trkpt lat="43.17674" lon="-0.64298">
        <ele>228.73</ele>
        <time>2024-04-28T09:58:18.201Z</time>
      </trkpt>
      <trkpt lat="43.17687" lon="-0.64283">
        <ele>229.1</ele>
        <time>2024-04-28T09:58:19.585Z</time>
      </trkpt>
      <trkpt lat="43.17687" lon="-0.64283">
        <ele>229.54</ele>
        <time>2024-04-28T09:58:20.969Z</time>
      </trkpt>
      <trkpt lat="43.17728" lon="-0.6425">
        <ele>230.09</ele>
        <time>2024-04-28T09:58:22.358Z</time>
      </trkpt>
      <trkpt lat="43.17742" lon="-0.64236">
        <ele>230.67</ele>
        <time>2024-04-28T09:58:23.749Z</time>
      </trkpt>
      <trkpt lat="43.17749" lon="-0.64225">
        <ele>231.24</ele>
        <time>2024-04-28T09:58:25.141Z</time>
      </trkpt>
      <trkpt lat="43.1778" lon="-0.64167">
        <ele>231.99</ele>
        <time>2024-04-28T09:58:26.539Z</time>
      </trkpt>
      <trkpt lat="43.17798" lon="-0.64142">
        <ele>232.58</ele>
        <time>2024-04-28T09:58:27.940Z</time>
      </trkpt>
      <trkpt lat="43.17817" lon="-0.64121">
        <ele>232.97</ele>
        <time>2024-04-28T09:58:29.344Z</time>
      </trkpt>
      <trkpt lat="43.17849" lon="-0.64094">
        <ele>233.32</ele>
        <time>2024-04-28T09:58:30.752Z</time>
      </trkpt>
      <trkpt lat="43.17934" lon="-0.64041">
        <ele>233.75</ele>
        <time>2024-04-28T09:58:32.170Z</time>
      </trkpt>
      <trkpt lat="43.17993" lon="-0.64004">
        <ele>234.23</ele>
        <time>2024-04-28T09:58:33.596Z</time>
      </trkpt>
      <trkpt lat="43.18" lon="-0.63999">
        <ele>234.57</ele>
        <time>2024-04-28T09:58:35.023Z</time>
      </trkpt>
      <trkpt lat="43.18022" lon="-0.63985">
        <ele>234.92</ele>
        <time>2024-04-28T09:58:36.452Z</time>
      </trkpt>
      <trkpt lat="43.18031" lon="-0.63977">
        <ele>235.18</ele>
        <time>2024-04-28T09:58:37.882Z</time>
      </trkpt>
      <trkpt lat="43.18054" lon="-0.63951">
        <ele>235.33</ele>
        <time>2024-04-28T09:58:39.316Z</time>
      </trkpt>
      <trkpt lat="43.18073" lon="-0.6392">
        <ele>235.41</ele>
        <time>2024-04-28T09:58:40.753Z</time>
      </trkpt>
      <trkpt lat="43.18148" lon="-0.63778">
        <ele>235.6</ele>
        <time>2024-04-28T09:58:42.204Z</time>
      </trkpt>
      <trkpt lat="43.18196" lon="-0.63691">
        <ele>235.79</ele>
        <time>2024-04-28T09:58:43.664Z</time>
      </trkpt>
      <trkpt lat="43.18241" lon="-0.63605">
        <ele>235.59</ele>
        <time>2024-04-28T09:58:45.133Z</time>
      </trkpt>
      <trkpt lat="43.18281" lon="-0.63531">
        <ele>235.66</ele>
        <time>2024-04-28T09:58:46.609Z</time>
      </trkpt>
      <trkpt lat="43.18295" lon="-0.63501">
        <ele>235.68</ele>
        <time>2024-04-28T09:58:48.088Z</time>
      </trkpt>
      <trkpt lat="43.18308" lon="-0.63456">
        <ele>235.9</ele>
        <time>2024-04-28T09:58:49.571Z</time>
      </trkpt>
      <trkpt lat="43.18336" lon="-0.63321">
        <ele>236.54</ele>
        <time>2024-04-28T09:58:51.065Z</time>
      </trkpt>
      <trkpt lat="43.18355" lon="-0.63228">
        <ele>236.82</ele>
        <time>2024-04-28T09:58:52.567Z</time>
      </trkpt>
      <trkpt lat="43.18374" lon="-0.6315">
        <ele>236.78</ele>
        <time>2024-04-28T09:58:54.076Z</time>
      </trkpt>
      <trkpt lat="43.18381" lon="-0.6312">
        <ele>236.96</ele>
        <time>2024-04-28T09:58:55.588Z</time>
      </trkpt>
      <trkpt lat="43.18419" lon="-0.63015">
        <ele>237.4</ele>
        <time>2024-04-28T09:58:57.109Z</time>
      </trkpt>
      <trkpt lat="43.18419" lon="-0.63015">
        <ele>237.41</ele>
        <time>2024-04-28T09:58:58.630Z</time>
      </trkpt>
      <trkpt lat="43.18446" lon="-0.62948">
        <ele>237.37</ele>
        <time>2024-04-28T09:59:00.157Z</time>
      </trkpt>
      <trkpt lat="43.18471" lon="-0.62889">
        <ele>236.53</ele>
        <time>2024-04-28T09:59:01.690Z</time>
      </trkpt>
      <trkpt lat="43.18471" lon="-0.62889">
        <ele>236.31</ele>
        <time>2024-04-28T09:59:03.223Z</time>
      </trkpt>
      <trkpt lat="43.18479" lon="-0.6287">
        <ele>235.97</ele>
        <time>2024-04-28T09:59:04.758Z</time>
      </trkpt>
      <trkpt lat="43.18479" lon="-0.62869">
        <ele>235.77</ele>
        <time>2024-04-28T09:59:06.293Z</time>
      </trkpt>
      <trkpt lat="43.18479" lon="-0.62869">
        <ele>235.76</ele>
        <time>2024-04-28T09:59:07.828Z</time>
      </trkpt>
      <trkpt lat="43.18481" lon="-0.6287">
        <ele>235.45</ele>
        <time>2024-04-28T09:59:09.363Z</time>
      </trkpt>
      <trkpt lat="43.18491" lon="-0.62846">
        <ele>235.9</ele>
        <time>2024-04-28T09:59:10.900Z</time>
      </trkpt>
      <trkpt lat="43.18505" lon="-0.62816">
        <ele>236.6</ele>
        <time>2024-04-28T09:59:12.440Z</time>
      </trkpt>
      <trkpt lat="43.1852" lon="-0.62794">
        <ele>237.16</ele>
        <time>2024-04-28T09:59:13.982Z</time>
      </trkpt>
      <trkpt lat="43.1852" lon="-0.62794">
        <ele>237.16</ele>
        <time>2024-04-28T09:59:15.524Z</time>
      </trkpt>
      <trkpt lat="43.18523" lon="-0.6279">
        <ele>237.86</ele>
        <time>2024-04-28T09:59:17.067Z</time>
      </trkpt>
      <trkpt lat="43.18523" lon="-0.62775">
        <ele>237.93</ele>
        <time>2024-04-28T09:59:18.611Z</time>
      </trkpt>
      <trkpt lat="43.18524" lon="-0.62767">
        <ele>237.85</ele>
        <time>2024-04-28T09:59:20.156Z</time>
      </trkpt>
      <trkpt lat="43.18545" lon="-0.62723">
        <ele>237.67</ele>
        <time>2024-04-28T09:59:21.705Z</time>
      </trkpt>
      <trkpt lat="43.18559" lon="-0.62688">
        <ele>237.35</ele>
        <time>2024-04-28T09:59:23.257Z</time>
      </trkpt>
      <trkpt lat="43.18594" lon="-0.62602">
        <ele>236.15</ele>
        <time>2024-04-28T09:59:24.817Z</time>
      </trkpt>
      <trkpt lat="43.18611" lon="-0.62562">
        <ele>235.38</ele>
        <time>2024-04-28T09:59:26.381Z</time>
      </trkpt>
      <trkpt lat="43.18611" lon="-0.62562">
        <ele>235.38</ele>
        <time>2024-04-28T09:59:27.945Z</time>
      </trkpt>
      <trkpt lat="43.18659" lon="-0.62451">
        <ele>235.68</ele>
        <time>2024-04-28T09:59:29.520Z</time>
      </trkpt>
      <trkpt lat="43.18668" lon="-0.62426">
        <ele>235.99</ele>
        <time>2024-04-28T09:59:31.097Z</time>
      </trkpt>
      <trkpt lat="43.18657" lon="-0.62392">
        <ele>235.95</ele>
        <time>2024-04-28T09:59:32.677Z</time>
      </trkpt>
      <trkpt lat="43.18648" lon="-0.62378">
        <ele>235.84</ele>
        <time>2024-04-28T09:59:34.258Z</time>
      </trkpt>
      <trkpt lat="43.18648" lon="-0.62378">
        <ele>235.84</ele>
        <time>2024-04-28T09:59:35.839Z</time>
      </trkpt>
      <trkpt lat="43.18634" lon="-0.62369">
        <ele>235.06</ele>
        <time>2024-04-28T09:59:37.422Z</time>
      </trkpt>
      <trkpt lat="43.18617" lon="-0.62351">
        <ele>235.17</ele>
        <time>2024-04-28T09:59:39.007Z</time>
      </trkpt>
      <trkpt lat="43.18595" lon="-0.62331">
        <ele>235.36</ele>
        <time>2024-04-28T09:59:40.595Z</time>
      </trkpt>
      <trkpt lat="43.18564" lon="-0.62294">
        <ele>235.83</ele>
        <time>2024-04-28T09:59:42.188Z</time>
      </trkpt>
      <trkpt lat="43.1856" lon="-0.62288">
        <ele>236.29</ele>
        <time>2024-04-28T09:59:43.782Z</time>
      </trkpt>
      <trkpt lat="43.18541" lon="-0.6227">
        <ele>236.84</ele>
        <time>2024-04-28T09:59:45.378Z</time>
      </trkpt>
      <trkpt lat="43.18507" lon="-0.62239">
        <ele>237.82</ele>
        <time>2024-04-28T09:59:46.979Z</time>
      </trkpt>
      <trkpt lat="43.18457" lon="-0.62202">
        <ele>238.91</ele>
        <time>2024-04-28T09:59:48.586Z</time>
      </trkpt>
      <trkpt lat="43.18456" lon="-0.62206">
        <ele>239.56</ele>
        <time>2024-04-28T09:59:50.193Z</time>
      </trkpt>
      <trkpt lat="43.18452" lon="-0.62211">
        <ele>240.07</ele>
        <time>2024-04-28T09:59:51.801Z</time>
      </trkpt>
      <trkpt lat="43.18446" lon="-0.62214">
        <ele>240.43</ele>
        <time>2024-04-28T09:59:53.410Z</time>
      </trkpt>
      <trkpt lat="43.18441" lon="-0.62213">
        <ele>240.64</ele>
        <time>2024-04-28T09:59:55.019Z</time>
      </trkpt>
      <trkpt lat="43.18437" lon="-0.62209">
        <ele>240.7</ele>
        <time>2024-04-28T09:59:56.629Z</time>
      </trkpt>
      <trkpt lat="43.18434" lon="-0.62203">
        <ele>240.65</ele>
        <time>2024-04-28T09:59:58.239Z</time>
      </trkpt>
      <trkpt lat="43.18434" lon="-0.62193">
        <ele>240.48</ele>
        <time>2024-04-28T09:59:59.850Z</time>
      </trkpt>
      <trkpt lat="43.18434" lon="-0.62187">
        <ele>240.23</ele>
        <time>2024-04-28T10:00:01.462Z</time>
      </trkpt>
      <trkpt lat="43.18435" lon="-0.62184">
        <ele>239.9</ele>
        <time>2024-04-28T10:00:03.074Z</time>
      </trkpt>
      <trkpt lat="43.18424" lon="-0.62175">
        <ele>239.42</ele>
        <time>2024-04-28T10:00:04.687Z</time>
      </trkpt>
      <trkpt lat="43.18321" lon="-0.62101">
        <ele>238.49</ele>
        <time>2024-04-28T10:00:06.313Z</time>
      </trkpt>
      <trkpt lat="43.18321" lon="-0.62101">
        <ele>238.49</ele>
        <time>2024-04-28T10:00:07.939Z</time>
      </trkpt>
      <trkpt lat="43.18233" lon="-0.62038">
        <ele>238.58</ele>
        <time>2024-04-28T10:00:09.576Z</time>
      </trkpt>
      <trkpt lat="43.1823" lon="-0.62036">
        <ele>238.59</ele>
        <time>2024-04-28T10:00:11.214Z</time>
      </trkpt>
      <trkpt lat="43.18208" lon="-0.62021">
        <ele>238.47</ele>
        <time>2024-04-28T10:00:12.854Z</time>
      </trkpt>
      <trkpt lat="43.182" lon="-0.62019">
        <ele>238.41</ele>
        <time>2024-04-28T10:00:14.495Z</time>
      </trkpt>
      <trkpt lat="43.18177" lon="-0.62003">
        <ele>238.14</ele>
        <time>2024-04-28T10:00:16.139Z</time>
      </trkpt>
      <trkpt lat="43.18163" lon="-0.61997">
        <ele>237.86</ele>
        <time>2024-04-28T10:00:17.785Z</time>
      </trkpt>
      <trkpt lat="43.18156" lon="-0.61998">
        <ele>237.7</ele>
        <time>2024-04-28T10:00:19.432Z</time>
      </trkpt>
      <trkpt lat="43.1815" lon="-0.61994">
        <ele>237.65</ele>
        <time>2024-04-28T10:00:21.079Z</time>
      </trkpt>
      <trkpt lat="43.18146" lon="-0.61988">
        <ele>237.66</ele>
        <time>2024-04-28T10:00:22.727Z</time>
      </trkpt>
      <trkpt lat="43.18144" lon="-0.61979">
        <ele>237.76</ele>
        <time>2024-04-28T10:00:24.376Z</time>
      </trkpt>
      <trkpt lat="43.18143" lon="-0.61973">
        <ele>237.97</ele>
        <time>2024-04-28T10:00:26.025Z</time>
      </trkpt>
      <trkpt lat="43.18136" lon="-0.61957">
        <ele>238.29</ele>
        <time>2024-04-28T10:00:27.676Z</time>
      </trkpt>
      <trkpt lat="43.18114" lon="-0.61924">
        <ele>238.86</ele>
        <time>2024-04-28T10:00:29.330Z</time>
      </trkpt>
      <trkpt lat="43.18103" lon="-0.61906">
        <ele>239.34</ele>
        <time>2024-04-28T10:00:30.986Z</time>
      </trkpt>
      <trkpt lat="43.18088" lon="-0.61882">
        <ele>239.83</ele>
        <time>2024-04-28T10:00:32.645Z</time>
      </trkpt>
      <trkpt lat="43.18059" lon="-0.61831">
        <ele>240.46</ele>
        <time>2024-04-28T10:00:34.309Z</time>
      </trkpt>
      <trkpt lat="43.18042" lon="-0.61793">
        <ele>240.87</ele>
        <time>2024-04-28T10:00:35.977Z</time>
      </trkpt>
      <trkpt lat="43.18021" lon="-0.61742">
        <ele>241.02</ele>
        <time>2024-04-28T10:00:37.650Z</time>
      </trkpt>
      <trkpt lat="43.18007" lon="-0.6171">
        <ele>240.82</ele>
        <time>2024-04-28T10:00:39.326Z</time>
      </trkpt>
      <trkpt lat="43.17999" lon="-0.61691">
        <ele>240.64</ele>
        <time>2024-04-28T10:00:41.003Z</time>
      </trkpt>
      <trkpt lat="43.17997" lon="-0.61693">
        <ele>240.53</ele>
        <time>2024-04-28T10:00:42.681Z</time>
      </trkpt>
      <trkpt lat="43.17994" lon="-0.61695">
        <ele>240.37</ele>
        <time>2024-04-28T10:00:44.359Z</time>
      </trkpt>
      <trkpt lat="43.17987" lon="-0.61696">
        <ele>240.13</ele>
        <time>2024-04-28T10:00:46.038Z</time>
      </trkpt>
      <trkpt lat="43.1798" lon="-0.61692">
        <ele>239.88</ele>
        <time>2024-04-28T10:00:47.718Z</time>
      </trkpt>
      <trkpt lat="43.17975" lon="-0.61685">
        <ele>239.68</ele>
        <time>2024-04-28T10:00:49.398Z</time>
      </trkpt>
      <trkpt lat="43.17974" lon="-0.61675">
        <ele>239.59</ele>
        <time>2024-04-28T10:00:51.079Z</time>
      </trkpt>
      <trkpt lat="43.17977" lon="-0.61666">
        <ele>239.63</ele>
        <time>2024-04-28T10:00:52.761Z</time>
      </trkpt>
      <trkpt lat="43.17982" lon="-0.61659">
        <ele>239.71</ele>
        <time>2024-04-28T10:00:54.444Z</time>
      </trkpt>
      <trkpt lat="43.17978" lon="-0.6165">
        <ele>239.82</ele>
        <time>2024-04-28T10:00:56.128Z</time>
      </trkpt>
      <trkpt lat="43.17976" lon="-0.61646">
        <ele>239.88</ele>
        <time>2024-04-28T10:00:57.812Z</time>
      </trkpt>
      <trkpt lat="43.17956" lon="-0.61605">
        <ele>240.08</ele>
        <time>2024-04-28T10:00:59.500Z</time>
      </trkpt>
      <trkpt lat="43.17942" lon="-0.61565">
        <ele>240.22</ele>
        <time>2024-04-28T10:01:01.192Z</time>
      </trkpt>
      <trkpt lat="43.17935" lon="-0.61531">
        <ele>240.38</ele>
        <time>2024-04-28T10:01:02.887Z</time>
      </trkpt>
      <trkpt lat="43.17932" lon="-0.61504">
        <ele>240.53</ele>
        <time>2024-04-28T10:01:04.584Z</time>
      </trkpt>
      <trkpt lat="43.1793" lon="-0.61491">
        <ele>240.77</ele>
        <time>2024-04-28T10:01:06.282Z</time>
      </trkpt>
      <trkpt lat="43.17929" lon="-0.61472">
        <ele>241.09</ele>
        <time>2024-04-28T10:01:07.981Z</time>
      </trkpt>
      <trkpt lat="43.17929" lon="-0.61442">
        <ele>241.45</ele>
        <time>2024-04-28T10:01:09.683Z</time>
      </trkpt>
      <trkpt lat="43.17932" lon="-0.61404">
        <ele>241.74</ele>
        <time>2024-04-28T10:01:11.388Z</time>
      </trkpt>
      <trkpt lat="43.17931" lon="-0.61391">
        <ele>241.86</ele>
        <time>2024-04-28T10:01:13.094Z</time>
      </trkpt>
      <trkpt lat="43.1793" lon="-0.61382">
        <ele>241.97</ele>
        <time>2024-04-28T10:01:14.801Z</time>
      </trkpt>
      <trkpt lat="43.17932" lon="-0.61372">
        <ele>242.05</ele>
        <time>2024-04-28T10:01:16.509Z</time>
      </trkpt>
      <trkpt lat="43.17936" lon="-0.61364">
        <ele>242.1</ele>
        <time>2024-04-28T10:01:18.217Z</time>
      </trkpt>
      <trkpt lat="43.17941" lon="-0.61362">
        <ele>242.09</ele>
        <time>2024-04-28T10:01:19.926Z</time>
      </trkpt>
      <trkpt lat="43.17943" lon="-0.61362">
        <ele>242.05</ele>
        <time>2024-04-28T10:01:21.635Z</time>
      </trkpt>
      <trkpt lat="43.17951" lon="-0.6134">
        <ele>241.94</ele>
        <time>2024-04-28T10:01:23.346Z</time>
      </trkpt>
      <trkpt lat="43.17965" lon="-0.613">
        <ele>241.84</ele>
        <time>2024-04-28T10:01:25.061Z</time>
      </trkpt>
      <trkpt lat="43.1797" lon="-0.61284">
        <ele>241.82</ele>
        <time>2024-04-28T10:01:26.777Z</time>
      </trkpt>
      <trkpt lat="43.17982" lon="-0.61243">
        <ele>241.69</ele>
        <time>2024-04-28T10:01:28.497Z</time>
      </trkpt>
      <trkpt lat="43.17997" lon="-0.61167">
        <ele>241.44</ele>
        <time>2024-04-28T10:01:30.223Z</time>
      </trkpt>
      <trkpt lat="43.18" lon="-0.61142">
        <ele>241.26</ele>
        <time>2024-04-28T10:01:31.951Z</time>
      </trkpt>
      <trkpt lat="43.18" lon="-0.61108">
        <ele>240.89</ele>
        <time>2024-04-28T10:01:33.682Z</time>
      </trkpt>
      <trkpt lat="43.17998" lon="-0.61105">
        <ele>240.69</ele>
        <time>2024-04-28T10:01:35.413Z</time>
      </trkpt>
      <trkpt lat="43.17997" lon="-0.61102">
        <ele>240.53</ele>
        <time>2024-04-28T10:01:37.145Z</time>
      </trkpt>
      <trkpt lat="43.17997" lon="-0.61095">
        <ele>240.38</ele>
        <time>2024-04-28T10:01:38.877Z</time>
      </trkpt>
      <trkpt lat="43.17997" lon="-0.61093">
        <ele>240.25</ele>
        <time>2024-04-28T10:01:40.609Z</time>
      </trkpt>
      <trkpt lat="43.17989" lon="-0.61087">
        <ele>240.1</ele>
        <time>2024-04-28T10:01:42.342Z</time>
      </trkpt>
      <trkpt lat="43.17982" lon="-0.61084">
        <ele>240.03</ele>
        <time>2024-04-28T10:01:44.076Z</time>
      </trkpt>
      <trkpt lat="43.17979" lon="-0.61082">
        <ele>240.01</ele>
        <time>2024-04-28T10:01:45.811Z</time>
      </trkpt>
      <trkpt lat="43.17979" lon="-0.61081">
        <ele>239.96</ele>
        <time>2024-04-28T10:01:47.546Z</time>
      </trkpt>
      <trkpt lat="43.17962" lon="-0.61073">
        <ele>240.24</ele>
        <time>2024-04-28T10:01:49.283Z</time>
      </trkpt>
      <trkpt lat="43.17956" lon="-0.6107">
        <ele>240.81</ele>
        <time>2024-04-28T10:01:51.020Z</time>
      </trkpt>
      <trkpt lat="43.17946" lon="-0.61063">
        <ele>241.49</ele>
        <time>2024-04-28T10:01:52.759Z</time>
      </trkpt>
      <trkpt lat="43.17894" lon="-0.61033">
        <ele>241.81</ele>
        <time>2024-04-28T10:01:54.504Z</time>
      </trkpt>
      <trkpt lat="43.17848" lon="-0.61009">
        <ele>242.98</ele>
        <time>2024-04-28T10:01:56.254Z</time>
      </trkpt>
      <trkpt lat="43.17792" lon="-0.60981">
        <ele>243.88</ele>
        <time>2024-04-28T10:01:58.011Z</time>
      </trkpt>
      <trkpt lat="43.17697" lon="-0.60933">
        <ele>245.53</ele>
        <time>2024-04-28T10:01:59.779Z</time>
      </trkpt>
      <trkpt lat="43.17432" lon="-0.60799">
        <ele>247.81</ele>
        <time>2024-04-28T10:02:01.579Z</time>
      </trkpt>
      <trkpt lat="43.17381" lon="-0.60772">
        <ele>248.07</ele>
        <time>2024-04-28T10:02:03.385Z</time>
      </trkpt>
      <trkpt lat="43.17378" lon="-0.6077">
        <ele>248.09</ele>
        <time>2024-04-28T10:02:05.191Z</time>
      </trkpt>
      <trkpt lat="43.17385" lon="-0.60774">
        <ele>247.64</ele>
        <time>2024-04-28T10:02:06.998Z</time>
      </trkpt>
      <trkpt lat="43.17386" lon="-0.60768">
        <ele>246.98</ele>
        <time>2024-04-28T10:02:08.805Z</time>
      </trkpt>
      <trkpt lat="43.17391" lon="-0.60757">
        <ele>246.07</ele>
        <time>2024-04-28T10:02:10.613Z</time>
      </trkpt>
      <trkpt lat="43.174" lon="-0.60751">
        <ele>244.95</ele>
        <time>2024-04-28T10:02:12.423Z</time>
      </trkpt>
      <trkpt lat="43.17424" lon="-0.60742">
        <ele>243.36</ele>
        <time>2024-04-28T10:02:14.235Z</time>
      </trkpt>
      <trkpt lat="43.17485" lon="-0.60722">
        <ele>241.57</ele>
        <time>2024-04-28T10:02:16.054Z</time>
      </trkpt>
      <trkpt lat="43.17508" lon="-0.60708">
        <ele>239.89</ele>
        <time>2024-04-28T10:02:17.876Z</time>
      </trkpt>
      <trkpt lat="43.17524" lon="-0.60696">
        <ele>238.24</ele>
        <time>2024-04-28T10:02:19.700Z</time>
      </trkpt>
      <trkpt lat="43.17544" lon="-0.60682">
        <ele>236.62</ele>
        <time>2024-04-28T10:02:21.527Z</time>
      </trkpt>
      <trkpt lat="43.17558" lon="-0.60673">
        <ele>235.25</ele>
        <time>2024-04-28T10:02:23.355Z</time>
      </trkpt>
      <trkpt lat="43.17583" lon="-0.60664">
        <ele>234.08</ele>
        <time>2024-04-28T10:02:25.186Z</time>
      </trkpt>
      <trkpt lat="43.17637" lon="-0.60649">
        <ele>233.04</ele>
        <time>2024-04-28T10:02:27.023Z</time>
      </trkpt>
      <trkpt lat="43.17652" lon="-0.60645">
        <ele>231.95</ele>
        <time>2024-04-28T10:02:28.862Z</time>
      </trkpt>
      <trkpt lat="43.17704" lon="-0.6063">
        <ele>230.38</ele>
        <time>2024-04-28T10:02:30.707Z</time>
      </trkpt>
      <trkpt lat="43.1771" lon="-0.60623">
        <ele>229.18</ele>
        <time>2024-04-28T10:02:32.553Z</time>
      </trkpt>
      <trkpt lat="43.17713" lon="-0.6062">
        <ele>228.69</ele>
        <time>2024-04-28T10:02:34.399Z</time>
      </trkpt>
      <trkpt lat="43.17718" lon="-0.60613">
        <ele>228.13</ele>
        <time>2024-04-28T10:02:36.246Z</time>
      </trkpt>
      <trkpt lat="43.17724" lon="-0.60591">
        <ele>227.39</ele>
        <time>2024-04-28T10:02:38.095Z</time>
      </trkpt>
      <trkpt lat="43.17749" lon="-0.60533">
        <ele>226.21</ele>
        <time>2024-04-28T10:02:39.949Z</time>
      </trkpt>
      <trkpt lat="43.1778" lon="-0.60455">
        <ele>224.51</ele>
        <time>2024-04-28T10:02:41.811Z</time>
      </trkpt>
      <trkpt lat="43.17784" lon="-0.6045">
        <ele>222.09</ele>
        <time>2024-04-28T10:02:43.673Z</time>
      </trkpt>
      <trkpt lat="43.1778" lon="-0.60445">
        <ele>222.94</ele>
        <time>2024-04-28T10:02:45.536Z</time>
      </trkpt>
      <trkpt lat="43.17778" lon="-0.60443">
        <ele>223.27</ele>
        <time>2024-04-28T10:02:47.399Z</time>
      </trkpt>
      <trkpt lat="43.17777" lon="-0.60442">
        <ele>222.35</ele>
        <time>2024-04-28T10:02:49.262Z</time>
      </trkpt>
      <trkpt lat="43.17784" lon="-0.6045">
        <ele>222.09</ele>
        <time>2024-04-28T10:02:51.126Z</time>
      </trkpt>
      <trkpt lat="43.17792" lon="-0.60449">
        <ele>221.84</ele>
        <time>2024-04-28T10:02:52.991Z</time>
      </trkpt>
      <trkpt lat="43.17804" lon="-0.60459">
        <ele>221.9</ele>
        <time>2024-04-28T10:02:54.858Z</time>
      </trkpt>
      <trkpt lat="43.17815" lon="-0.60471">
        <ele>222.15</ele>
        <time>2024-04-28T10:02:56.726Z</time>
      </trkpt>
      <trkpt lat="43.17827" lon="-0.60436">
        <ele>222.5</ele>
        <time>2024-04-28T10:02:58.597Z</time>
      </trkpt>
      <trkpt lat="43.17851" lon="-0.6037">
        <ele>224.05</ele>
        <time>2024-04-28T10:03:00.474Z</time>
      </trkpt>
      <trkpt lat="43.17851" lon="-0.6037">
        <ele>224.07</ele>
        <time>2024-04-28T10:03:02.351Z</time>
      </trkpt>
      <trkpt lat="43.17851" lon="-0.60366">
        <ele>226.44</ele>
        <time>2024-04-28T10:03:04.229Z</time>
      </trkpt>
      <trkpt lat="43.17858" lon="-0.60333">
        <ele>227.67</ele>
        <time>2024-04-28T10:03:06.110Z</time>
      </trkpt>
      <trkpt lat="43.17858" lon="-0.60319">
        <ele>228.96</ele>
        <time>2024-04-28T10:03:07.992Z</time>
      </trkpt>
      <trkpt lat="43.17855" lon="-0.60283">
        <ele>230.53</ele>
        <time>2024-04-28T10:03:09.877Z</time>
      </trkpt>
      <trkpt lat="43.1785" lon="-0.60257">
        <ele>232.12</ele>
        <time>2024-04-28T10:03:11.764Z</time>
      </trkpt>
      <trkpt lat="43.17843" lon="-0.6023">
        <ele>233.92</ele>
        <time>2024-04-28T10:03:13.653Z</time>
      </trkpt>
      <trkpt lat="43.1783" lon="-0.60205">
        <ele>235.81</ele>
        <time>2024-04-28T10:03:15.545Z</time>
      </trkpt>
      <trkpt lat="43.17813" lon="-0.60177">
        <ele>237.72</ele>
        <time>2024-04-28T10:03:17.440Z</time>
      </trkpt>
      <trkpt lat="43.17797" lon="-0.60145">
        <ele>239.59</ele>
        <time>2024-04-28T10:03:19.338Z</time>
      </trkpt>
      <trkpt lat="43.17774" lon="-0.60086">
        <ele>241.51</ele>
        <time>2024-04-28T10:03:21.241Z</time>
      </trkpt>
      <trkpt lat="43.17748" lon="-0.60027">
        <ele>243.99</ele>
        <time>2024-04-28T10:03:23.150Z</time>
      </trkpt>
      <trkpt lat="43.17737" lon="-0.6001">
        <ele>246.11</ele>
        <time>2024-04-28T10:03:25.061Z</time>
      </trkpt>
      <trkpt lat="43.17718" lon="-0.59989">
        <ele>247.93</ele>
        <time>2024-04-28T10:03:26.974Z</time>
      </trkpt>
      <trkpt lat="43.17672" lon="-0.59951">
        <ele>249.29</ele>
        <time>2024-04-28T10:03:28.893Z</time>
      </trkpt>
      <trkpt lat="43.17623" lon="-0.59908">
        <ele>250.95</ele>
        <time>2024-04-28T10:03:30.819Z</time>
      </trkpt>
      <trkpt lat="43.17555" lon="-0.5985">
        <ele>252.71</ele>
        <time>2024-04-28T10:03:32.754Z</time>
      </trkpt>
      <trkpt lat="43.1748" lon="-0.59783">
        <ele>254.49</ele>
        <time>2024-04-28T10:03:34.699Z</time>
      </trkpt>
      <trkpt lat="43.1745" lon="-0.59757">
        <ele>255.63</ele>
        <time>2024-04-28T10:03:36.648Z</time>
      </trkpt>
      <trkpt lat="43.17423" lon="-0.5974">
        <ele>256.07</ele>
        <time>2024-04-28T10:03:38.600Z</time>
      </trkpt>
      <trkpt lat="43.17395" lon="-0.59719">
        <ele>255.76</ele>
        <time>2024-04-28T10:03:40.555Z</time>
      </trkpt>
      <trkpt lat="43.17381" lon="-0.59711">
        <ele>255.35</ele>
        <time>2024-04-28T10:03:42.512Z</time>
      </trkpt>
      <trkpt lat="43.17347" lon="-0.59701">
        <ele>255.19</ele>
        <time>2024-04-28T10:03:44.473Z</time>
      </trkpt>
      <trkpt lat="43.17321" lon="-0.59701">
        <ele>254.42</ele>
        <time>2024-04-28T10:03:46.437Z</time>
      </trkpt>
      <trkpt lat="43.17308" lon="-0.59699">
        <ele>253.52</ele>
        <time>2024-04-28T10:03:48.402Z</time>
      </trkpt>
      <trkpt lat="43.17297" lon="-0.59696">
        <ele>252.49</ele>
        <time>2024-04-28T10:03:50.369Z</time>
      </trkpt>
      <trkpt lat="43.17286" lon="-0.59692">
        <ele>251.07</ele>
        <time>2024-04-28T10:03:52.337Z</time>
      </trkpt>
      <trkpt lat="43.17254" lon="-0.59671">
        <ele>249.27</ele>
        <time>2024-04-28T10:03:54.309Z</time>
      </trkpt>
      <trkpt lat="43.17202" lon="-0.59633">
        <ele>247.34</ele>
        <time>2024-04-28T10:03:56.287Z</time>
      </trkpt>
      <trkpt lat="43.17171" lon="-0.5961">
        <ele>245.61</ele>
        <time>2024-04-28T10:03:58.269Z</time>
      </trkpt>
      <trkpt lat="43.17153" lon="-0.59593">
        <ele>244.14</ele>
        <time>2024-04-28T10:04:00.254Z</time>
      </trkpt>
      <trkpt lat="43.17139" lon="-0.59575">
        <ele>242.76</ele>
        <time>2024-04-28T10:04:02.241Z</time>
      </trkpt>
      <trkpt lat="43.17135" lon="-0.59573">
        <ele>241.18</ele>
        <time>2024-04-28T10:04:04.228Z</time>
      </trkpt>
      <trkpt lat="43.17128" lon="-0.59565">
        <ele>239.65</ele>
        <time>2024-04-28T10:04:06.216Z</time>
      </trkpt>
      <trkpt lat="43.17121" lon="-0.59559">
        <ele>238.08</ele>
        <time>2024-04-28T10:04:08.205Z</time>
      </trkpt>
      <trkpt lat="43.17104" lon="-0.59549">
        <ele>236.37</ele>
        <time>2024-04-28T10:04:10.196Z</time>
      </trkpt>
      <trkpt lat="43.1706" lon="-0.5953">
        <ele>234.57</ele>
        <time>2024-04-28T10:04:12.192Z</time>
      </trkpt>
      <trkpt lat="43.17006" lon="-0.59508">
        <ele>232.82</ele>
        <time>2024-04-28T10:04:14.195Z</time>
      </trkpt>
      <trkpt lat="43.17003" lon="-0.59504">
        <ele>231.75</ele>
        <time>2024-04-28T10:04:16.198Z</time>
      </trkpt>
      <trkpt lat="43.16996" lon="-0.595">
        <ele>230.88</ele>
        <time>2024-04-28T10:04:18.202Z</time>
      </trkpt>
      <trkpt lat="43.16982" lon="-0.59492">
        <ele>230.25</ele>
        <time>2024-04-28T10:04:20.208Z</time>
      </trkpt>
      <trkpt lat="43.16942" lon="-0.59454">
        <ele>229.77</ele>
        <time>2024-04-28T10:04:22.219Z</time>
      </trkpt>
      <trkpt lat="43.1691" lon="-0.59419">
        <ele>229.56</ele>
        <time>2024-04-28T10:04:24.235Z</time>
      </trkpt>
      <trkpt lat="43.16842" lon="-0.59345">
        <ele>229.4</ele>
        <time>2024-04-28T10:04:26.260Z</time>
      </trkpt>
      <trkpt lat="43.16799" lon="-0.59289">
        <ele>229.53</ele>
        <time>2024-04-28T10:04:28.292Z</time>
      </trkpt>
      <trkpt lat="43.16749" lon="-0.59225">
        <ele>229.88</ele>
        <time>2024-04-28T10:04:30.332Z</time>
      </trkpt>
      <trkpt lat="43.16718" lon="-0.5919">
        <ele>230.04</ele>
        <time>2024-04-28T10:04:32.376Z</time>
      </trkpt>
      <trkpt lat="43.16693" lon="-0.59166">
        <ele>230.18</ele>
        <time>2024-04-28T10:04:34.423Z</time>
      </trkpt>
      <trkpt lat="43.16675" lon="-0.59155">
        <ele>230.46</ele>
        <time>2024-04-28T10:04:36.473Z</time>
      </trkpt>
      <trkpt lat="43.16634" lon="-0.59143">
        <ele>230.9</ele>
        <time>2024-04-28T10:04:38.527Z</time>
      </trkpt>
      <trkpt lat="43.16593" lon="-0.59134">
        <ele>231.3</ele>
        <time>2024-04-28T10:04:40.586Z</time>
      </trkpt>
      <trkpt lat="43.16564" lon="-0.5913">
        <ele>231.73</ele>
        <time>2024-04-28T10:04:42.648Z</time>
      </trkpt>
      <trkpt lat="43.1653" lon="-0.59126">
        <ele>232.23</ele>
        <time>2024-04-28T10:04:44.714Z</time>
      </trkpt>
      <trkpt lat="43.16499" lon="-0.59115">
        <ele>232.77</ele>
        <time>2024-04-28T10:04:46.783Z</time>
      </trkpt>
      <trkpt lat="43.16443" lon="-0.59087">
        <ele>233.43</ele>
        <time>2024-04-28T10:04:48.859Z</time>
      </trkpt>
      <trkpt lat="43.16414" lon="-0.59077">
        <ele>234.12</ele>
        <time>2024-04-28T10:04:50.938Z</time>
      </trkpt>
      <trkpt lat="43.16394" lon="-0.59071">
        <ele>234.79</ele>
        <time>2024-04-28T10:04:53.020Z</time>
      </trkpt>
      <trkpt lat="43.16363" lon="-0.5907">
        <ele>235.58</ele>
        <time>2024-04-28T10:04:55.105Z</time>
      </trkpt>
      <trkpt lat="43.16323" lon="-0.59078">
        <ele>236.15</ele>
        <time>2024-04-28T10:04:57.195Z</time>
      </trkpt>
      <trkpt lat="43.16292" lon="-0.59077">
        <ele>236.95</ele>
        <time>2024-04-28T10:04:59.288Z</time>
      </trkpt>
      <trkpt lat="43.16241" lon="-0.59073">
        <ele>238.33</ele>
        <time>2024-04-28T10:05:01.387Z</time>
      </trkpt>
      <trkpt lat="43.16197" lon="-0.59059">
        <ele>239.83</ele>
        <time>2024-04-28T10:05:03.491Z</time>
      </trkpt>
      <trkpt lat="43.16163" lon="-0.59042">
        <ele>241.58</ele>
        <time>2024-04-28T10:05:05.599Z</time>
      </trkpt>
      <trkpt lat="43.16144" lon="-0.59031">
        <ele>243.4</ele>
        <time>2024-04-28T10:05:07.709Z</time>
      </trkpt>
      <trkpt lat="43.16124" lon="-0.59016">
        <ele>245.23</ele>
        <time>2024-04-28T10:05:09.822Z</time>
      </trkpt>
      <trkpt lat="43.16086" lon="-0.58981">
        <ele>247.16</ele>
        <time>2024-04-28T10:05:11.940Z</time>
      </trkpt>
      <trkpt lat="43.16012" lon="-0.58912">
        <ele>249.76</ele>
        <time>2024-04-28T10:05:14.068Z</time>
      </trkpt>
      <trkpt lat="43.15997" lon="-0.58897">
        <ele>252.98</ele>
        <time>2024-04-28T10:05:16.198Z</time>
      </trkpt>
      <trkpt lat="43.15994" lon="-0.58894">
        <ele>253.56</ele>
        <time>2024-04-28T10:05:18.328Z</time>
      </trkpt>
      <trkpt lat="43.15923" lon="-0.58831">
        <ele>253.64</ele>
        <time>2024-04-28T10:05:20.467Z</time>
      </trkpt>
      <trkpt lat="43.15898" lon="-0.5881">
        <ele>254.38</ele>
        <time>2024-04-28T10:05:22.610Z</time>
      </trkpt>
      <trkpt lat="43.15881" lon="-0.58798">
        <ele>255.19</ele>
        <time>2024-04-28T10:05:24.755Z</time>
      </trkpt>
      <trkpt lat="43.15858" lon="-0.58786">
        <ele>256.09</ele>
        <time>2024-04-28T10:05:26.903Z</time>
      </trkpt>
      <trkpt lat="43.15832" lon="-0.58776">
        <ele>257.11</ele>
        <time>2024-04-28T10:05:29.054Z</time>
      </trkpt>
      <trkpt lat="43.15798" lon="-0.58765">
        <ele>258.75</ele>
        <time>2024-04-28T10:05:31.208Z</time>
      </trkpt>
      <trkpt lat="43.15761" lon="-0.58755">
        <ele>260.64</ele>
        <time>2024-04-28T10:05:33.367Z</time>
      </trkpt>
      <trkpt lat="43.15739" lon="-0.58752">
        <ele>262</ele>
        <time>2024-04-28T10:05:35.528Z</time>
      </trkpt>
      <trkpt lat="43.15678" lon="-0.58748">
        <ele>262.72</ele>
        <time>2024-04-28T10:05:37.696Z</time>
      </trkpt>
      <trkpt lat="43.1565" lon="-0.58741">
        <ele>264.12</ele>
        <time>2024-04-28T10:05:39.867Z</time>
      </trkpt>
      <trkpt lat="43.15621" lon="-0.58729">
        <ele>265.79</ele>
        <time>2024-04-28T10:05:42.041Z</time>
      </trkpt>
      <trkpt lat="43.15598" lon="-0.58721">
        <ele>267.09</ele>
        <time>2024-04-28T10:05:44.218Z</time>
      </trkpt>
      <trkpt lat="43.15551" lon="-0.58707">
        <ele>267.97</ele>
        <time>2024-04-28T10:05:46.400Z</time>
      </trkpt>
      <trkpt lat="43.1548" lon="-0.58692">
        <ele>268.23</ele>
        <time>2024-04-28T10:05:48.590Z</time>
      </trkpt>
      <trkpt lat="43.15415" lon="-0.5868">
        <ele>268.05</ele>
        <time>2024-04-28T10:05:50.788Z</time>
      </trkpt>
      <trkpt lat="43.15335" lon="-0.58671">
        <ele>267.53</ele>
        <time>2024-04-28T10:05:52.995Z</time>
      </trkpt>
      <trkpt lat="43.15271" lon="-0.58667">
        <ele>266.66</ele>
        <time>2024-04-28T10:05:55.209Z</time>
      </trkpt>
      <trkpt lat="43.15226" lon="-0.58662">
        <ele>266.32</ele>
        <time>2024-04-28T10:05:57.428Z</time>
      </trkpt>
      <trkpt lat="43.15172" lon="-0.58657">
        <ele>265.76</ele>
        <time>2024-04-28T10:05:59.653Z</time>
      </trkpt>
      <trkpt lat="43.15117" lon="-0.58652">
        <ele>265.34</ele>
        <time>2024-04-28T10:06:01.884Z</time>
      </trkpt>
      <trkpt lat="43.15093" lon="-0.58654">
        <ele>264.35</ele>
        <time>2024-04-28T10:06:04.118Z</time>
      </trkpt>
      <trkpt lat="43.15074" lon="-0.58659">
        <ele>263.13</ele>
        <time>2024-04-28T10:06:06.354Z</time>
      </trkpt>
      <trkpt lat="43.15054" lon="-0.58668">
        <ele>261.95</ele>
        <time>2024-04-28T10:06:08.592Z</time>
      </trkpt>
      <trkpt lat="43.15024" lon="-0.58684">
        <ele>260.9</ele>
        <time>2024-04-28T10:06:10.834Z</time>
      </trkpt>
      <trkpt lat="43.14994" lon="-0.58703">
        <ele>259.37</ele>
        <time>2024-04-28T10:06:13.079Z</time>
      </trkpt>
      <trkpt lat="43.14915" lon="-0.58755">
        <ele>257.24</ele>
        <time>2024-04-28T10:06:15.334Z</time>
      </trkpt>
      <trkpt lat="43.14874" lon="-0.58774">
        <ele>255.87</ele>
        <time>2024-04-28T10:06:17.594Z</time>
      </trkpt>
      <trkpt lat="43.14823" lon="-0.58793">
        <ele>254.43</ele>
        <time>2024-04-28T10:06:19.860Z</time>
      </trkpt>
      <trkpt lat="43.14788" lon="-0.58805">
        <ele>253.45</ele>
        <time>2024-04-28T10:06:22.130Z</time>
      </trkpt>
      <trkpt lat="43.14768" lon="-0.58815">
        <ele>252.63</ele>
        <time>2024-04-28T10:06:24.402Z</time>
      </trkpt>
      <trkpt lat="43.14736" lon="-0.58843">
        <ele>251.8</ele>
        <time>2024-04-28T10:06:26.678Z</time>
      </trkpt>
      <trkpt lat="43.14667" lon="-0.58909">
        <ele>251.38</ele>
        <time>2024-04-28T10:06:28.964Z</time>
      </trkpt>
      <trkpt lat="43.14617" lon="-0.5895">
        <ele>251.63</ele>
        <time>2024-04-28T10:06:31.256Z</time>
      </trkpt>
      <trkpt lat="43.14556" lon="-0.58999">
        <ele>251.65</ele>
        <time>2024-04-28T10:06:33.556Z</time>
      </trkpt>
      <trkpt lat="43.14475" lon="-0.59048">
        <ele>252.1</ele>
        <time>2024-04-28T10:06:35.866Z</time>
      </trkpt>
      <trkpt lat="43.1443" lon="-0.5907">
        <ele>252.5</ele>
        <time>2024-04-28T10:06:38.181Z</time>
      </trkpt>
      <trkpt lat="43.14404" lon="-0.5908">
        <ele>252.93</ele>
        <time>2024-04-28T10:06:40.499Z</time>
      </trkpt>
      <trkpt lat="43.14358" lon="-0.59094">
        <ele>253.62</ele>
        <time>2024-04-28T10:06:42.822Z</time>
      </trkpt>
      <trkpt lat="43.14306" lon="-0.59112">
        <ele>254.48</ele>
        <time>2024-04-28T10:06:45.151Z</time>
      </trkpt>
      <trkpt lat="43.1425" lon="-0.59167">
        <ele>255.43</ele>
        <time>2024-04-28T10:06:47.488Z</time>
      </trkpt>
      <trkpt lat="43.14238" lon="-0.59173">
        <ele>256.18</ele>
        <time>2024-04-28T10:06:49.826Z</time>
      </trkpt>
      <trkpt lat="43.14214" lon="-0.59179">
        <ele>256.87</ele>
        <time>2024-04-28T10:06:52.167Z</time>
      </trkpt>
      <trkpt lat="43.14173" lon="-0.59188">
        <ele>257.64</ele>
        <time>2024-04-28T10:06:54.513Z</time>
      </trkpt>
      <trkpt lat="43.14136" lon="-0.59197">
        <ele>258.46</ele>
        <time>2024-04-28T10:06:56.863Z</time>
      </trkpt>
      <trkpt lat="43.14109" lon="-0.59204">
        <ele>259.14</ele>
        <time>2024-04-28T10:06:59.216Z</time>
      </trkpt>
      <trkpt lat="43.14072" lon="-0.59217">
        <ele>259.83</ele>
        <time>2024-04-28T10:07:01.573Z</time>
      </trkpt>
      <trkpt lat="43.14054" lon="-0.5922">
        <ele>260.51</ele>
        <time>2024-04-28T10:07:03.932Z</time>
      </trkpt>
      <trkpt lat="43.14035" lon="-0.59219">
        <ele>261.16</ele>
        <time>2024-04-28T10:07:06.293Z</time>
      </trkpt>
      <trkpt lat="43.14026" lon="-0.5922">
        <ele>261.7</ele>
        <time>2024-04-28T10:07:08.655Z</time>
      </trkpt>
      <trkpt lat="43.14017" lon="-0.59224">
        <ele>262.16</ele>
        <time>2024-04-28T10:07:11.018Z</time>
      </trkpt>
      <trkpt lat="43.13974" lon="-0.59253">
        <ele>262.37</ele>
        <time>2024-04-28T10:07:13.387Z</time>
      </trkpt>
      <trkpt lat="43.13945" lon="-0.59275">
        <ele>262.68</ele>
        <time>2024-04-28T10:07:15.759Z</time>
      </trkpt>
      <trkpt lat="43.13911" lon="-0.59298">
        <ele>262.9</ele>
        <time>2024-04-28T10:07:18.136Z</time>
      </trkpt>
      <trkpt lat="43.13802" lon="-0.59372">
        <ele>263.45</ele>
        <time>2024-04-28T10:07:20.526Z</time>
      </trkpt>
      <trkpt lat="43.13757" lon="-0.59401">
        <ele>263.69</ele>
        <time>2024-04-28T10:07:22.922Z</time>
      </trkpt>
      <trkpt lat="43.13677" lon="-0.59444">
        <ele>263.98</ele>
        <time>2024-04-28T10:07:25.327Z</time>
      </trkpt>
      <trkpt lat="43.13632" lon="-0.59465">
        <ele>264.51</ele>
        <time>2024-04-28T10:07:27.738Z</time>
      </trkpt>
      <trkpt lat="43.13574" lon="-0.59489">
        <ele>264.8</ele>
        <time>2024-04-28T10:07:30.155Z</time>
      </trkpt>
      <trkpt lat="43.13549" lon="-0.59496">
        <ele>265.14</ele>
        <time>2024-04-28T10:07:32.575Z</time>
      </trkpt>
      <trkpt lat="43.13531" lon="-0.59499">
        <ele>265.43</ele>
        <time>2024-04-28T10:07:34.997Z</time>
      </trkpt>
      <trkpt lat="43.13521" lon="-0.59524">
        <ele>265.7</ele>
        <time>2024-04-28T10:07:37.421Z</time>
      </trkpt>
      <trkpt lat="43.13495" lon="-0.59541">
        <ele>265.99</ele>
        <time>2024-04-28T10:07:39.849Z</time>
      </trkpt>
      <trkpt lat="43.13468" lon="-0.59549">
        <ele>266.43</ele>
        <time>2024-04-28T10:07:42.280Z</time>
      </trkpt>
      <trkpt lat="43.13392" lon="-0.59568">
        <ele>267.18</ele>
        <time>2024-04-28T10:07:44.719Z</time>
      </trkpt>
      <trkpt lat="43.1326" lon="-0.59603">
        <ele>267.77</ele>
        <time>2024-04-28T10:07:47.173Z</time>
      </trkpt>
      <trkpt lat="43.1322" lon="-0.59614">
        <ele>268.58</ele>
        <time>2024-04-28T10:07:49.632Z</time>
      </trkpt>
      <trkpt lat="43.13185" lon="-0.59625">
        <ele>269.45</ele>
        <time>2024-04-28T10:07:52.095Z</time>
      </trkpt>
      <trkpt lat="43.13098" lon="-0.59664">
        <ele>270.36</ele>
        <time>2024-04-28T10:07:54.568Z</time>
      </trkpt>
      <trkpt lat="43.12978" lon="-0.59718">
        <ele>271.29</ele>
        <time>2024-04-28T10:07:57.055Z</time>
      </trkpt>
      <trkpt lat="43.12835" lon="-0.59786">
        <ele>272.71</ele>
        <time>2024-04-28T10:07:59.559Z</time>
      </trkpt>
      <trkpt lat="43.12804" lon="-0.59805">
        <ele>273.75</ele>
        <time>2024-04-28T10:08:02.067Z</time>
      </trkpt>
      <trkpt lat="43.12789" lon="-0.59825">
        <ele>274.6</ele>
        <time>2024-04-28T10:08:04.577Z</time>
      </trkpt>
      <trkpt lat="43.12763" lon="-0.5987">
        <ele>274.96</ele>
        <time>2024-04-28T10:08:07.092Z</time>
      </trkpt>
      <trkpt lat="43.12754" lon="-0.59885">
        <ele>275.28</ele>
        <time>2024-04-28T10:08:09.608Z</time>
      </trkpt>
      <trkpt lat="43.12742" lon="-0.59897">
        <ele>275.88</ele>
        <time>2024-04-28T10:08:12.126Z</time>
      </trkpt>
      <trkpt lat="43.12703" lon="-0.59918">
        <ele>277.15</ele>
        <time>2024-04-28T10:08:14.648Z</time>
      </trkpt>
      <trkpt lat="43.12633" lon="-0.59949">
        <ele>278.02</ele>
        <time>2024-04-28T10:08:17.179Z</time>
      </trkpt>
      <trkpt lat="43.12612" lon="-0.59956">
        <ele>278.72</ele>
        <time>2024-04-28T10:08:19.712Z</time>
      </trkpt>
      <trkpt lat="43.12593" lon="-0.59959">
        <ele>279.57</ele>
        <time>2024-04-28T10:08:22.247Z</time>
      </trkpt>
      <trkpt lat="43.12542" lon="-0.59958">
        <ele>280.62</ele>
        <time>2024-04-28T10:08:24.788Z</time>
      </trkpt>
      <trkpt lat="43.12501" lon="-0.59957">
        <ele>281.75</ele>
        <time>2024-04-28T10:08:27.333Z</time>
      </trkpt>
      <trkpt lat="43.12479" lon="-0.59962">
        <ele>282.68</ele>
        <time>2024-04-28T10:08:29.881Z</time>
      </trkpt>
      <trkpt lat="43.12462" lon="-0.5997">
        <ele>283.32</ele>
        <time>2024-04-28T10:08:32.431Z</time>
      </trkpt>
      <trkpt lat="43.12411" lon="-0.59993">
        <ele>283.94</ele>
        <time>2024-04-28T10:08:34.987Z</time>
      </trkpt>
      <trkpt lat="43.1235" lon="-0.60022">
        <ele>284.35</ele>
        <time>2024-04-28T10:08:37.550Z</time>
      </trkpt>
      <trkpt lat="43.12328" lon="-0.60035">
        <ele>284.33</ele>
        <time>2024-04-28T10:08:40.116Z</time>
      </trkpt>
      <trkpt lat="43.12316" lon="-0.60045">
        <ele>284.71</ele>
        <time>2024-04-28T10:08:42.683Z</time>
      </trkpt>
      <trkpt lat="43.12211" lon="-0.60148">
        <ele>285.24</ele>
        <time>2024-04-28T10:08:45.265Z</time>
      </trkpt>
      <trkpt lat="43.12201" lon="-0.60155">
        <ele>285.75</ele>
        <time>2024-04-28T10:08:47.848Z</time>
      </trkpt>
      <trkpt lat="43.12118" lon="-0.60186">
        <ele>286.45</ele>
        <time>2024-04-28T10:08:50.440Z</time>
      </trkpt>
      <trkpt lat="43.12056" lon="-0.60208">
        <ele>287.29</ele>
        <time>2024-04-28T10:08:53.040Z</time>
      </trkpt>
      <trkpt lat="43.12017" lon="-0.60228">
        <ele>288</ele>
        <time>2024-04-28T10:08:55.644Z</time>
      </trkpt>
      <trkpt lat="43.12001" lon="-0.60239">
        <ele>288.75</ele>
        <time>2024-04-28T10:08:58.250Z</time>
      </trkpt>
      <trkpt lat="43.11953" lon="-0.60274">
        <ele>289.43</ele>
        <time>2024-04-28T10:09:00.862Z</time>
      </trkpt>
      <trkpt lat="43.11939" lon="-0.60288">
        <ele>290.14</ele>
        <time>2024-04-28T10:09:03.476Z</time>
      </trkpt>
      <trkpt lat="43.11849" lon="-0.60371">
        <ele>291.27</ele>
        <time>2024-04-28T10:09:06.102Z</time>
      </trkpt>
      <trkpt lat="43.11804" lon="-0.60412">
        <ele>292.18</ele>
        <time>2024-04-28T10:09:08.734Z</time>
      </trkpt>
      <trkpt lat="43.11694" lon="-0.60496">
        <ele>293.33</ele>
        <time>2024-04-28T10:09:11.380Z</time>
      </trkpt>
      <trkpt lat="43.11664" lon="-0.60517">
        <ele>294.2</ele>
        <time>2024-04-28T10:09:14.030Z</time>
      </trkpt>
      <trkpt lat="43.11647" lon="-0.60524">
        <ele>295.14</ele>
        <time>2024-04-28T10:09:16.682Z</time>
      </trkpt>
      <trkpt lat="43.11632" lon="-0.60525">
        <ele>296.06</ele>
        <time>2024-04-28T10:09:19.336Z</time>
      </trkpt>
      <trkpt lat="43.11609" lon="-0.60522">
        <ele>296.84</ele>
        <time>2024-04-28T10:09:21.992Z</time>
      </trkpt>
      <trkpt lat="43.11597" lon="-0.60524">
        <ele>297.48</ele>
        <time>2024-04-28T10:09:24.649Z</time>
      </trkpt>
      <trkpt lat="43.11581" lon="-0.60532">
        <ele>298</ele>
        <time>2024-04-28T10:09:27.308Z</time>
      </trkpt>
      <trkpt lat="43.11556" lon="-0.60552">
        <ele>298.36</ele>
        <time>2024-04-28T10:09:29.971Z</time>
      </trkpt>
      <trkpt lat="43.11522" lon="-0.60614">
        <ele>298.55</ele>
        <time>2024-04-28T10:09:32.640Z</time>
      </trkpt>
      <trkpt lat="43.11501" lon="-0.60653">
        <ele>298.59</ele>
        <time>2024-04-28T10:09:35.313Z</time>
      </trkpt>
      <trkpt lat="43.11514" lon="-0.60666">
        <ele>298.39</ele>
        <time>2024-04-28T10:09:37.988Z</time>
      </trkpt>
      <trkpt lat="43.11545" lon="-0.60692">
        <ele>297.95</ele>
        <time>2024-04-28T10:09:40.667Z</time>
      </trkpt>
      <trkpt lat="43.11546" lon="-0.60696">
        <ele>297.24</ele>
        <time>2024-04-28T10:09:43.346Z</time>
      </trkpt>
      <trkpt lat="43.11553" lon="-0.60737">
        <ele>296.17</ele>
        <time>2024-04-28T10:09:46.028Z</time>
      </trkpt>
      <trkpt lat="43.11557" lon="-0.60767">
        <ele>294.74</ele>
        <time>2024-04-28T10:09:48.713Z</time>
      </trkpt>
      <trkpt lat="43.11565" lon="-0.6079">
        <ele>292.98</ele>
        <time>2024-04-28T10:09:51.400Z</time>
      </trkpt>
      <trkpt lat="43.11576" lon="-0.60809">
        <ele>291.01</ele>
        <time>2024-04-28T10:09:54.089Z</time>
      </trkpt>
      <trkpt lat="43.11593" lon="-0.60833">
        <ele>289</ele>
        <time>2024-04-28T10:09:56.781Z</time>
      </trkpt>
      <trkpt lat="43.11603" lon="-0.6084">
        <ele>286.92</ele>
        <time>2024-04-28T10:09:59.474Z</time>
      </trkpt>
      <trkpt lat="43.11616" lon="-0.60843">
        <ele>284.62</ele>
        <time>2024-04-28T10:10:02.168Z</time>
      </trkpt>
      <trkpt lat="43.11654" lon="-0.60845">
        <ele>282.02</ele>
        <time>2024-04-28T10:10:04.867Z</time>
      </trkpt>
      <trkpt lat="43.11684" lon="-0.60842">
        <ele>279.98</ele>
        <time>2024-04-28T10:10:07.569Z</time>
      </trkpt>
      <trkpt lat="43.11705" lon="-0.60837">
        <ele>278.12</ele>
        <time>2024-04-28T10:10:10.273Z</time>
      </trkpt>
      <trkpt lat="43.11741" lon="-0.60823">
        <ele>276.38</ele>
        <time>2024-04-28T10:10:12.981Z</time>
      </trkpt>
      <trkpt lat="43.11785" lon="-0.60804">
        <ele>275.13</ele>
        <time>2024-04-28T10:10:15.695Z</time>
      </trkpt>
      <trkpt lat="43.11798" lon="-0.608">
        <ele>273.81</ele>
        <time>2024-04-28T10:10:18.410Z</time>
      </trkpt>
      <trkpt lat="43.11811" lon="-0.60799">
        <ele>272.47</ele>
        <time>2024-04-28T10:10:21.127Z</time>
      </trkpt>
      <trkpt lat="43.11823" lon="-0.60801">
        <ele>271.28</ele>
        <time>2024-04-28T10:10:23.845Z</time>
      </trkpt>
      <trkpt lat="43.11829" lon="-0.60805">
        <ele>270.65</ele>
        <time>2024-04-28T10:10:26.564Z</time>
      </trkpt>
      <trkpt lat="43.11832" lon="-0.60807">
        <ele>270.33</ele>
        <time>2024-04-28T10:10:29.283Z</time>
      </trkpt>
      <trkpt lat="43.11832" lon="-0.60808">
        <ele>269.01</ele>
        <time>2024-04-28T10:10:32.002Z</time>
      </trkpt>
      <trkpt lat="43.11838" lon="-0.60814">
        <ele>268.59</ele>
        <time>2024-04-28T10:10:34.722Z</time>
      </trkpt>
      <trkpt lat="43.11851" lon="-0.60839">
        <ele>267.87</ele>
        <time>2024-04-28T10:10:37.444Z</time>
      </trkpt>
      <trkpt lat="43.11869" lon="-0.60878">
        <ele>267.09</ele>
        <time>2024-04-28T10:10:40.170Z</time>
      </trkpt>
      <trkpt lat="43.11894" lon="-0.60929">
        <ele>266.82</ele>
        <time>2024-04-28T10:10:42.901Z</time>
      </trkpt>
      <trkpt lat="43.11915" lon="-0.60969">
        <ele>266.7</ele>
        <time>2024-04-28T10:10:45.636Z</time>
      </trkpt>
      <trkpt lat="43.11921" lon="-0.60978">
        <ele>266.82</ele>
        <time>2024-04-28T10:10:48.372Z</time>
      </trkpt>
      <trkpt lat="43.11935" lon="-0.60991">
        <ele>267.16</ele>
        <time>2024-04-28T10:10:51.110Z</time>
      </trkpt>
      <trkpt lat="43.11954" lon="-0.61003">
        <ele>267.79</ele>
        <time>2024-04-28T10:10:53.850Z</time>
      </trkpt>
      <trkpt lat="43.11978" lon="-0.61014">
        <ele>268.72</ele>
        <time>2024-04-28T10:10:56.593Z</time>
      </trkpt>
      <trkpt lat="43.11995" lon="-0.61024">
        <ele>269.72</ele>
        <time>2024-04-28T10:10:59.338Z</time>
      </trkpt>
      <trkpt lat="43.12014" lon="-0.61049">
        <ele>270.79</ele>
        <time>2024-04-28T10:11:02.086Z</time>
      </trkpt>
      <trkpt lat="43.12077" lon="-0.61137">
        <ele>272.37</ele>
        <time>2024-04-28T10:11:04.844Z</time>
      </trkpt>
      <trkpt lat="43.12127" lon="-0.61201">
        <ele>273.53</ele>
        <time>2024-04-28T10:11:07.610Z</time>
      </trkpt>
      <trkpt lat="43.12144" lon="-0.61219">
        <ele>274.75</ele>
        <time>2024-04-28T10:11:10.378Z</time>
      </trkpt>
      <trkpt lat="43.12161" lon="-0.61241">
        <ele>276.14</ele>
        <time>2024-04-28T10:11:13.149Z</time>
      </trkpt>
      <trkpt lat="43.12202" lon="-0.61306">
        <ele>277.63</ele>
        <time>2024-04-28T10:11:15.927Z</time>
      </trkpt>
      <trkpt lat="43.12231" lon="-0.6136">
        <ele>279.05</ele>
        <time>2024-04-28T10:11:18.710Z</time>
      </trkpt>
      <trkpt lat="43.1222" lon="-0.61361">
        <ele>279.37</ele>
        <time>2024-04-28T10:11:21.494Z</time>
      </trkpt>
      <trkpt lat="43.12194" lon="-0.61363">
        <ele>279.54</ele>
        <time>2024-04-28T10:11:24.281Z</time>
      </trkpt>
      <trkpt lat="43.1219" lon="-0.61364">
        <ele>278.77</ele>
        <time>2024-04-28T10:11:27.069Z</time>
      </trkpt>
      <trkpt lat="43.12187" lon="-0.61364">
        <ele>278.07</ele>
        <time>2024-04-28T10:11:29.857Z</time>
      </trkpt>
      <trkpt lat="43.12158" lon="-0.61371">
        <ele>277.8</ele>
        <time>2024-04-28T10:11:32.648Z</time>
      </trkpt>
      <trkpt lat="43.1212" lon="-0.61382">
        <ele>277.36</ele>
        <time>2024-04-28T10:11:35.444Z</time>
      </trkpt>
      <trkpt lat="43.12089" lon="-0.61389">
        <ele>276.8</ele>
        <time>2024-04-28T10:11:38.243Z</time>
      </trkpt>
      <trkpt lat="43.12073" lon="-0.6139">
        <ele>276.33</ele>
        <time>2024-04-28T10:11:41.044Z</time>
      </trkpt>
      <trkpt lat="43.11953" lon="-0.61382">
        <ele>276.25</ele>
        <time>2024-04-28T10:11:43.858Z</time>
      </trkpt>
      <trkpt lat="43.11868" lon="-0.61382">
        <ele>276.28</ele>
        <time>2024-04-28T10:11:46.682Z</time>
      </trkpt>
      <trkpt lat="43.11837" lon="-0.61386">
        <ele>276.35</ele>
        <time>2024-04-28T10:11:49.509Z</time>
      </trkpt>
      <trkpt lat="43.11819" lon="-0.61393">
        <ele>276.55</ele>
        <time>2024-04-28T10:11:52.338Z</time>
      </trkpt>
      <trkpt lat="43.11813" lon="-0.61397">
        <ele>276.84</ele>
        <time>2024-04-28T10:11:55.168Z</time>
      </trkpt>
      <trkpt lat="43.11789" lon="-0.61418">
        <ele>277.51</ele>
        <time>2024-04-28T10:11:58.001Z</time>
      </trkpt>
      <trkpt lat="43.11736" lon="-0.61469">
        <ele>277.69</ele>
        <time>2024-04-28T10:12:00.841Z</time>
      </trkpt>
      <trkpt lat="43.11666" lon="-0.61536">
        <ele>277.86</ele>
        <time>2024-04-28T10:12:03.691Z</time>
      </trkpt>
      <trkpt lat="43.1153" lon="-0.61667">
        <ele>277.7</ele>
        <time>2024-04-28T10:12:06.559Z</time>
      </trkpt>
      <trkpt lat="43.11511" lon="-0.61691">
        <ele>277.87</ele>
        <time>2024-04-28T10:12:09.430Z</time>
      </trkpt>
      <trkpt lat="43.11501" lon="-0.61712">
        <ele>277.9</ele>
        <time>2024-04-28T10:12:12.303Z</time>
      </trkpt>
      <trkpt lat="43.11452" lon="-0.61827">
        <ele>277.8</ele>
        <time>2024-04-28T10:12:15.187Z</time>
      </trkpt>
      <trkpt lat="43.11276" lon="-0.62244">
        <ele>277.39</ele>
        <time>2024-04-28T10:12:18.110Z</time>
      </trkpt>
      <trkpt lat="43.11249" lon="-0.62308">
        <ele>277.91</ele>
        <time>2024-04-28T10:12:21.039Z</time>
      </trkpt>
      <trkpt lat="43.11232" lon="-0.62337">
        <ele>277.86</ele>
        <time>2024-04-28T10:12:23.971Z</time>
      </trkpt>
      <trkpt lat="43.1121" lon="-0.6236">
        <ele>277.93</ele>
        <time>2024-04-28T10:12:26.906Z</time>
      </trkpt>
      <trkpt lat="43.11091" lon="-0.6244">
        <ele>277.97</ele>
        <time>2024-04-28T10:12:29.856Z</time>
      </trkpt>
      <trkpt lat="43.11069" lon="-0.62457">
        <ele>278.17</ele>
        <time>2024-04-28T10:12:32.809Z</time>
      </trkpt>
      <trkpt lat="43.11046" lon="-0.62472">
        <ele>278.35</ele>
        <time>2024-04-28T10:12:35.765Z</time>
      </trkpt>
      <trkpt lat="43.11019" lon="-0.62486">
        <ele>278.49</ele>
        <time>2024-04-28T10:12:38.724Z</time>
      </trkpt>
      <trkpt lat="43.11002" lon="-0.62494">
        <ele>278.86</ele>
        <time>2024-04-28T10:12:41.685Z</time>
      </trkpt>
      <trkpt lat="43.11003" lon="-0.6251">
        <ele>279.51</ele>
        <time>2024-04-28T10:12:44.647Z</time>
      </trkpt>
      <trkpt lat="43.10993" lon="-0.62536">
        <ele>280.41</ele>
        <time>2024-04-28T10:12:47.612Z</time>
      </trkpt>
      <trkpt lat="43.10987" lon="-0.62576">
        <ele>281.54</ele>
        <time>2024-04-28T10:12:50.580Z</time>
      </trkpt>
      <trkpt lat="43.10984" lon="-0.62643">
        <ele>283.01</ele>
        <time>2024-04-28T10:12:53.553Z</time>
      </trkpt>
      <trkpt lat="43.10984" lon="-0.62692">
        <ele>284.44</ele>
        <time>2024-04-28T10:12:56.530Z</time>
      </trkpt>
      <trkpt lat="43.10986" lon="-0.62722">
        <ele>285.82</ele>
        <time>2024-04-28T10:12:59.510Z</time>
      </trkpt>
      <trkpt lat="43.1099" lon="-0.62742">
        <ele>287.21</ele>
        <time>2024-04-28T10:13:02.492Z</time>
      </trkpt>
      <trkpt lat="43.11" lon="-0.62761">
        <ele>288.76</ele>
        <time>2024-04-28T10:13:05.476Z</time>
      </trkpt>
      <trkpt lat="43.11013" lon="-0.62779">
        <ele>290.41</ele>
        <time>2024-04-28T10:13:08.462Z</time>
      </trkpt>
      <trkpt lat="43.11041" lon="-0.62812">
        <ele>292.26</ele>
        <time>2024-04-28T10:13:11.452Z</time>
      </trkpt>
      <trkpt lat="43.11076" lon="-0.62866">
        <ele>294.11</ele>
        <time>2024-04-28T10:13:14.448Z</time>
      </trkpt>
      <trkpt lat="43.11092" lon="-0.6289">
        <ele>296.61</ele>
        <time>2024-04-28T10:13:17.446Z</time>
      </trkpt>
      <trkpt lat="43.11105" lon="-0.62915">
        <ele>298.68</ele>
        <time>2024-04-28T10:13:20.447Z</time>
      </trkpt>
      <trkpt lat="43.11119" lon="-0.6296">
        <ele>300.11</ele>
        <time>2024-04-28T10:13:23.452Z</time>
      </trkpt>
      <trkpt lat="43.11135" lon="-0.6303">
        <ele>301.39</ele>
        <time>2024-04-28T10:13:26.463Z</time>
      </trkpt>
      <trkpt lat="43.11136" lon="-0.6307">
        <ele>302.19</ele>
        <time>2024-04-28T10:13:29.477Z</time>
      </trkpt>
      <trkpt lat="43.11135" lon="-0.63096">
        <ele>302.58</ele>
        <time>2024-04-28T10:13:32.493Z</time>
      </trkpt>
      <trkpt lat="43.11132" lon="-0.63112">
        <ele>302.2</ele>
        <time>2024-04-28T10:13:35.510Z</time>
      </trkpt>
      <trkpt lat="43.11123" lon="-0.63144">
        <ele>301.23</ele>
        <time>2024-04-28T10:13:38.530Z</time>
      </trkpt>
      <trkpt lat="43.11108" lon="-0.63167">
        <ele>300.28</ele>
        <time>2024-04-28T10:13:41.553Z</time>
      </trkpt>
      <trkpt lat="43.11092" lon="-0.63181">
        <ele>298.94</ele>
        <time>2024-04-28T10:13:44.578Z</time>
      </trkpt>
      <trkpt lat="43.11044" lon="-0.63209">
        <ele>297.01</ele>
        <time>2024-04-28T10:13:47.609Z</time>
      </trkpt>
      <trkpt lat="43.11024" lon="-0.63216">
        <ele>295.7</ele>
        <time>2024-04-28T10:13:50.642Z</time>
      </trkpt>
      <trkpt lat="43.1101" lon="-0.63225">
        <ele>294.78</ele>
        <time>2024-04-28T10:13:53.677Z</time>
      </trkpt>
      <trkpt lat="43.10994" lon="-0.63237">
        <ele>294.18</ele>
        <time>2024-04-28T10:13:56.714Z</time>
      </trkpt>
      <trkpt lat="43.10979" lon="-0.6326">
        <ele>293.87</ele>
        <time>2024-04-28T10:13:59.753Z</time>
      </trkpt>
      <trkpt lat="43.1097" lon="-0.63286">
        <ele>294.13</ele>
        <time>2024-04-28T10:14:02.794Z</time>
      </trkpt>
      <trkpt lat="43.10968" lon="-0.63323">
        <ele>295.16</ele>
        <time>2024-04-28T10:14:05.838Z</time>
      </trkpt>
      <trkpt lat="43.10972" lon="-0.63371">
        <ele>296.71</ele>
        <time>2024-04-28T10:14:08.886Z</time>
      </trkpt>
      <trkpt lat="43.10965" lon="-0.63488">
        <ele>298.44</ele>
        <time>2024-04-28T10:14:11.944Z</time>
      </trkpt>
      <trkpt lat="43.10956" lon="-0.6354">
        <ele>301.8</ele>
        <time>2024-04-28T10:14:15.006Z</time>
      </trkpt>
      <trkpt lat="43.10955" lon="-0.63544">
        <ele>302.1</ele>
        <time>2024-04-28T10:14:18.069Z</time>
      </trkpt>
      <trkpt lat="43.10942" lon="-0.63587">
        <ele>302.41</ele>
        <time>2024-04-28T10:14:21.135Z</time>
      </trkpt>
      <trkpt lat="43.10933" lon="-0.63607">
        <ele>302.63</ele>
        <time>2024-04-28T10:14:24.203Z</time>
      </trkpt>
      <trkpt lat="43.10911" lon="-0.63642">
        <ele>302.49</ele>
        <time>2024-04-28T10:14:27.275Z</time>
      </trkpt>
      <trkpt lat="43.10873" lon="-0.63692">
        <ele>301.78</ele>
        <time>2024-04-28T10:14:30.353Z</time>
      </trkpt>
      <trkpt lat="43.10836" lon="-0.63753">
        <ele>300.84</ele>
        <time>2024-04-28T10:14:33.437Z</time>
      </trkpt>
      <trkpt lat="43.10816" lon="-0.63794">
        <ele>300.5</ele>
        <time>2024-04-28T10:14:36.525Z</time>
      </trkpt>
      <trkpt lat="43.10806" lon="-0.63816">
        <ele>300.41</ele>
        <time>2024-04-28T10:14:39.616Z</time>
      </trkpt>
      <trkpt lat="43.10782" lon="-0.6389">
        <ele>300.77</ele>
        <time>2024-04-28T10:14:42.713Z</time>
      </trkpt>
      <trkpt lat="43.10769" lon="-0.63936">
        <ele>300.85</ele>
        <time>2024-04-28T10:14:45.814Z</time>
      </trkpt>
      <trkpt lat="43.10764" lon="-0.6396">
        <ele>301.6</ele>
        <time>2024-04-28T10:14:48.917Z</time>
      </trkpt>
      <trkpt lat="43.10761" lon="-0.63992">
        <ele>302.93</ele>
        <time>2024-04-28T10:14:52.023Z</time>
      </trkpt>
      <trkpt lat="43.10759" lon="-0.64013">
        <ele>304.19</ele>
        <time>2024-04-28T10:14:55.131Z</time>
      </trkpt>
      <trkpt lat="43.10742" lon="-0.64083">
        <ele>306.08</ele>
        <time>2024-04-28T10:14:58.245Z</time>
      </trkpt>
      <trkpt lat="43.10728" lon="-0.64129">
        <ele>307.23</ele>
        <time>2024-04-28T10:15:01.363Z</time>
      </trkpt>
      <trkpt lat="43.10714" lon="-0.64174">
        <ele>307.95</ele>
        <time>2024-04-28T10:15:04.485Z</time>
      </trkpt>
      <trkpt lat="43.10679" lon="-0.64249">
        <ele>308.37</ele>
        <time>2024-04-28T10:15:07.614Z</time>
      </trkpt>
      <trkpt lat="43.10669" lon="-0.64275">
        <ele>308.57</ele>
        <time>2024-04-28T10:15:10.745Z</time>
      </trkpt>
      <trkpt lat="43.1066" lon="-0.64308">
        <ele>308.47</ele>
        <time>2024-04-28T10:15:13.879Z</time>
      </trkpt>
      <trkpt lat="43.10645" lon="-0.64373">
        <ele>308.18</ele>
        <time>2024-04-28T10:15:17.019Z</time>
      </trkpt>
      <trkpt lat="43.10634" lon="-0.6442">
        <ele>307.55</ele>
        <time>2024-04-28T10:15:20.163Z</time>
      </trkpt>
      <trkpt lat="43.10627" lon="-0.64446">
        <ele>307.05</ele>
        <time>2024-04-28T10:15:23.309Z</time>
      </trkpt>
      <trkpt lat="43.10624" lon="-0.64467">
        <ele>306.64</ele>
        <time>2024-04-28T10:15:26.457Z</time>
      </trkpt>
      <trkpt lat="43.10624" lon="-0.64516">
        <ele>306.56</ele>
        <time>2024-04-28T10:15:29.609Z</time>
      </trkpt>
      <trkpt lat="43.10626" lon="-0.64541">
        <ele>306.6</ele>
        <time>2024-04-28T10:15:32.763Z</time>
      </trkpt>
      <trkpt lat="43.10629" lon="-0.64599">
        <ele>307.29</ele>
        <time>2024-04-28T10:15:35.921Z</time>
      </trkpt>
      <trkpt lat="43.10621" lon="-0.64663">
        <ele>307.33</ele>
        <time>2024-04-28T10:15:39.085Z</time>
      </trkpt>
      <trkpt lat="43.10614" lon="-0.64685">
        <ele>307.34</ele>
        <time>2024-04-28T10:15:42.251Z</time>
      </trkpt>
      <trkpt lat="43.10601" lon="-0.64732">
        <ele>307.25</ele>
        <time>2024-04-28T10:15:45.421Z</time>
      </trkpt>
      <trkpt lat="43.10597" lon="-0.64758">
        <ele>307.3</ele>
        <time>2024-04-28T10:15:48.593Z</time>
      </trkpt>
      <trkpt lat="43.10592" lon="-0.64843">
        <ele>307.11</ele>
        <time>2024-04-28T10:15:51.772Z</time>
      </trkpt>
      <trkpt lat="43.10585" lon="-0.64889">
        <ele>306.98</ele>
        <time>2024-04-28T10:15:54.955Z</time>
      </trkpt>
      <trkpt lat="43.10581" lon="-0.64942">
        <ele>306.89</ele>
        <time>2024-04-28T10:15:58.142Z</time>
      </trkpt>
      <trkpt lat="43.10579" lon="-0.65016">
        <ele>307.22</ele>
        <time>2024-04-28T10:16:01.335Z</time>
      </trkpt>
      <trkpt lat="43.10569" lon="-0.6513">
        <ele>307.74</ele>
        <time>2024-04-28T10:16:04.537Z</time>
      </trkpt>
      <trkpt lat="43.10566" lon="-0.65179">
        <ele>307.87</ele>
        <time>2024-04-28T10:16:07.743Z</time>
      </trkpt>
      <trkpt lat="43.10567" lon="-0.65214">
        <ele>307.85</ele>
        <time>2024-04-28T10:16:10.952Z</time>
      </trkpt>
      <trkpt lat="43.1057" lon="-0.65235">
        <ele>307.78</ele>
        <time>2024-04-28T10:16:14.163Z</time>
      </trkpt>
      <trkpt lat="43.10571" lon="-0.65271">
        <ele>307.57</ele>
        <time>2024-04-28T10:16:17.377Z</time>
      </trkpt>
      <trkpt lat="43.10569" lon="-0.65287">
        <ele>307.38</ele>
        <time>2024-04-28T10:16:20.592Z</time>
      </trkpt>
      <trkpt lat="43.10559" lon="-0.65307">
        <ele>307.12</ele>
        <time>2024-04-28T10:16:23.809Z</time>
      </trkpt>
      <trkpt lat="43.10523" lon="-0.65346">
        <ele>306.6</ele>
        <time>2024-04-28T10:16:27.031Z</time>
      </trkpt>
      <trkpt lat="43.1046" lon="-0.65412">
        <ele>306.46</ele>
        <time>2024-04-28T10:16:30.262Z</time>
      </trkpt>
      <trkpt lat="43.1044" lon="-0.65437">
        <ele>306.63</ele>
        <time>2024-04-28T10:16:33.496Z</time>
      </trkpt>
      <trkpt lat="43.10428" lon="-0.65459">
        <ele>306.96</ele>
        <time>2024-04-28T10:16:36.732Z</time>
      </trkpt>
      <trkpt lat="43.10405" lon="-0.65517">
        <ele>307.36</ele>
        <time>2024-04-28T10:16:39.974Z</time>
      </trkpt>
      <trkpt lat="43.10363" lon="-0.65625">
        <ele>308.01</ele>
        <time>2024-04-28T10:16:43.226Z</time>
      </trkpt>
      <trkpt lat="43.10345" lon="-0.65692">
        <ele>309.04</ele>
        <time>2024-04-28T10:16:46.483Z</time>
      </trkpt>
      <trkpt lat="43.10329" lon="-0.65769">
        <ele>310.1</ele>
        <time>2024-04-28T10:16:49.747Z</time>
      </trkpt>
      <trkpt lat="43.10307" lon="-0.65881">
        <ele>311.2</ele>
        <time>2024-04-28T10:16:53.020Z</time>
      </trkpt>
      <trkpt lat="43.10301" lon="-0.65895">
        <ele>312.22</ele>
        <time>2024-04-28T10:16:56.295Z</time>
      </trkpt>
      <trkpt lat="43.10293" lon="-0.65905">
        <ele>313.29</ele>
        <time>2024-04-28T10:16:59.571Z</time>
      </trkpt>
      <trkpt lat="43.10276" lon="-0.65921">
        <ele>314.46</ele>
        <time>2024-04-28T10:17:02.849Z</time>
      </trkpt>
      <trkpt lat="43.1023" lon="-0.65966">
        <ele>316.19</ele>
        <time>2024-04-28T10:17:06.134Z</time>
      </trkpt>
      <trkpt lat="43.10223" lon="-0.6597">
        <ele>317.55</ele>
        <time>2024-04-28T10:17:09.419Z</time>
      </trkpt>
      <trkpt lat="43.10205" lon="-0.65975">
        <ele>318.98</ele>
        <time>2024-04-28T10:17:12.706Z</time>
      </trkpt>
      <trkpt lat="43.10182" lon="-0.65977">
        <ele>320.32</ele>
        <time>2024-04-28T10:17:15.996Z</time>
      </trkpt>
      <trkpt lat="43.10138" lon="-0.6598">
        <ele>321.47</ele>
        <time>2024-04-28T10:17:19.291Z</time>
      </trkpt>
      <trkpt lat="43.10123" lon="-0.65987">
        <ele>322.72</ele>
        <time>2024-04-28T10:17:22.588Z</time>
      </trkpt>
      <trkpt lat="43.10103" lon="-0.65999">
        <ele>324.02</ele>
        <time>2024-04-28T10:17:25.887Z</time>
      </trkpt>
      <trkpt lat="43.10096" lon="-0.66007">
        <ele>325.24</ele>
        <time>2024-04-28T10:17:29.187Z</time>
      </trkpt>
      <trkpt lat="43.10091" lon="-0.66019">
        <ele>326.46</ele>
        <time>2024-04-28T10:17:32.488Z</time>
      </trkpt>
      <trkpt lat="43.1009" lon="-0.6603">
        <ele>327.66</ele>
        <time>2024-04-28T10:17:35.790Z</time>
      </trkpt>
      <trkpt lat="43.10093" lon="-0.66049">
        <ele>328.82</ele>
        <time>2024-04-28T10:17:39.094Z</time>
      </trkpt>
      <trkpt lat="43.10106" lon="-0.66098">
        <ele>330.02</ele>
        <time>2024-04-28T10:17:42.402Z</time>
      </trkpt>
      <trkpt lat="43.10117" lon="-0.66145">
        <ele>331.22</ele>
        <time>2024-04-28T10:17:45.714Z</time>
      </trkpt>
      <trkpt lat="43.10114" lon="-0.66206">
        <ele>332.22</ele>
        <time>2024-04-28T10:17:49.031Z</time>
      </trkpt>
      <trkpt lat="43.10109" lon="-0.66221">
        <ele>333.1</ele>
        <time>2024-04-28T10:17:52.349Z</time>
      </trkpt>
      <trkpt lat="43.10096" lon="-0.66241">
        <ele>333.94</ele>
        <time>2024-04-28T10:17:55.669Z</time>
      </trkpt>
      <trkpt lat="43.10069" lon="-0.66288">
        <ele>334.82</ele>
        <time>2024-04-28T10:17:58.994Z</time>
      </trkpt>
      <trkpt lat="43.10044" lon="-0.66339">
        <ele>335.6</ele>
        <time>2024-04-28T10:18:02.324Z</time>
      </trkpt>
      <trkpt lat="43.1001" lon="-0.66411">
        <ele>336.21</ele>
        <time>2024-04-28T10:18:05.661Z</time>
      </trkpt>
      <trkpt lat="43.09981" lon="-0.66473">
        <ele>337.21</ele>
        <time>2024-04-28T10:18:09.004Z</time>
      </trkpt>
      <trkpt lat="43.09961" lon="-0.66506">
        <ele>337.99</ele>
        <time>2024-04-28T10:18:12.351Z</time>
      </trkpt>
      <trkpt lat="43.09939" lon="-0.66539">
        <ele>338.76</ele>
        <time>2024-04-28T10:18:15.701Z</time>
      </trkpt>
      <trkpt lat="43.09864" lon="-0.66648">
        <ele>339.66</ele>
        <time>2024-04-28T10:18:19.064Z</time>
      </trkpt>
      <trkpt lat="43.0982" lon="-0.66711">
        <ele>340.29</ele>
        <time>2024-04-28T10:18:22.434Z</time>
      </trkpt>
      <trkpt lat="43.09783" lon="-0.66769">
        <ele>340.79</ele>
        <time>2024-04-28T10:18:25.810Z</time>
      </trkpt>
      <trkpt lat="43.09752" lon="-0.66825">
        <ele>341.9</ele>
        <time>2024-04-28T10:18:29.192Z</time>
      </trkpt>
      <trkpt lat="43.09729" lon="-0.66871">
        <ele>342.87</ele>
        <time>2024-04-28T10:18:32.578Z</time>
      </trkpt>
      <trkpt lat="43.09706" lon="-0.66931">
        <ele>343.55</ele>
        <time>2024-04-28T10:18:35.970Z</time>
      </trkpt>
      <trkpt lat="43.09682" lon="-0.66998">
        <ele>344.54</ele>
        <time>2024-04-28T10:18:39.368Z</time>
      </trkpt>
      <trkpt lat="43.09673" lon="-0.67031">
        <ele>345.03</ele>
        <time>2024-04-28T10:18:42.769Z</time>
      </trkpt>
      <trkpt lat="43.09672" lon="-0.67044">
        <ele>345.26</ele>
        <time>2024-04-28T10:18:46.171Z</time>
      </trkpt>
      <trkpt lat="43.09664" lon="-0.67039">
        <ele>345.43</ele>
        <time>2024-04-28T10:18:49.574Z</time>
      </trkpt>
      <trkpt lat="43.0966" lon="-0.67039">
        <ele>345.38</ele>
        <time>2024-04-28T10:18:52.977Z</time>
      </trkpt>
      <trkpt lat="43.09647" lon="-0.67037">
        <ele>345.15</ele>
        <time>2024-04-28T10:18:56.382Z</time>
      </trkpt>
      <trkpt lat="43.09629" lon="-0.67031">
        <ele>344.63</ele>
        <time>2024-04-28T10:18:59.789Z</time>
      </trkpt>
      <trkpt lat="43.09585" lon="-0.67018">
        <ele>343.96</ele>
        <time>2024-04-28T10:19:03.201Z</time>
      </trkpt>
      <trkpt lat="43.0955" lon="-0.67015">
        <ele>342.93</ele>
        <time>2024-04-28T10:19:06.616Z</time>
      </trkpt>
      <trkpt lat="43.09509" lon="-0.6702">
        <ele>341.49</ele>
        <time>2024-04-28T10:19:10.036Z</time>
      </trkpt>
      <trkpt lat="43.09477" lon="-0.67026">
        <ele>340.09</ele>
        <time>2024-04-28T10:19:13.460Z</time>
      </trkpt>
      <trkpt lat="43.09446" lon="-0.67036">
        <ele>338.45</ele>
        <time>2024-04-28T10:19:16.887Z</time>
      </trkpt>
      <trkpt lat="43.09441" lon="-0.67037">
        <ele>336.63</ele>
        <time>2024-04-28T10:19:20.315Z</time>
      </trkpt>
      <trkpt lat="43.09427" lon="-0.67037">
        <ele>334.56</ele>
        <time>2024-04-28T10:19:23.744Z</time>
      </trkpt>
      <trkpt lat="43.09409" lon="-0.6703">
        <ele>332.23</ele>
        <time>2024-04-28T10:19:27.175Z</time>
      </trkpt>
      <trkpt lat="43.09355" lon="-0.67019">
        <ele>329.57</ele>
        <time>2024-04-28T10:19:30.612Z</time>
      </trkpt>
      <trkpt lat="43.0933" lon="-0.67014">
        <ele>327.59</ele>
        <time>2024-04-28T10:19:34.052Z</time>
      </trkpt>
      <trkpt lat="43.09312" lon="-0.67008">
        <ele>326.16</ele>
        <time>2024-04-28T10:19:37.494Z</time>
      </trkpt>
      <trkpt lat="43.09293" lon="-0.66995">
        <ele>324.97</ele>
        <time>2024-04-28T10:19:40.939Z</time>
      </trkpt>
      <trkpt lat="43.09278" lon="-0.66985">
        <ele>324.01</ele>
        <time>2024-04-28T10:19:44.386Z</time>
      </trkpt>
      <trkpt lat="43.0926" lon="-0.66979">
        <ele>323.19</ele>
        <time>2024-04-28T10:19:47.835Z</time>
      </trkpt>
      <trkpt lat="43.09235" lon="-0.66972">
        <ele>322.63</ele>
        <time>2024-04-28T10:19:51.286Z</time>
      </trkpt>
      <trkpt lat="43.09186" lon="-0.66949">
        <ele>322.32</ele>
        <time>2024-04-28T10:19:54.743Z</time>
      </trkpt>
      <trkpt lat="43.09148" lon="-0.66938">
        <ele>322.63</ele>
        <time>2024-04-28T10:19:58.204Z</time>
      </trkpt>
      <trkpt lat="43.09098" lon="-0.66931">
        <ele>323.06</ele>
        <time>2024-04-28T10:20:01.671Z</time>
      </trkpt>
      <trkpt lat="43.09062" lon="-0.66928">
        <ele>323.52</ele>
        <time>2024-04-28T10:20:05.142Z</time>
      </trkpt>
      <trkpt lat="43.09039" lon="-0.6693">
        <ele>324.45</ele>
        <time>2024-04-28T10:20:08.616Z</time>
      </trkpt>
      <trkpt lat="43.09023" lon="-0.66933">
        <ele>325.74</ele>
        <time>2024-04-28T10:20:12.091Z</time>
      </trkpt>
      <trkpt lat="43.08971" lon="-0.66943">
        <ele>327.45</ele>
        <time>2024-04-28T10:20:15.572Z</time>
      </trkpt>
      <trkpt lat="43.08927" lon="-0.66949">
        <ele>328.58</ele>
        <time>2024-04-28T10:20:19.058Z</time>
      </trkpt>
      <trkpt lat="43.08909" lon="-0.66952">
        <ele>333.46</ele>
        <time>2024-04-28T10:20:22.546Z</time>
      </trkpt>
      <trkpt lat="43.08906" lon="-0.66952">
        <ele>334.4</ele>
        <time>2024-04-28T10:20:26.035Z</time>
      </trkpt>
      <trkpt lat="43.08831" lon="-0.66955">
        <ele>334.18</ele>
        <time>2024-04-28T10:20:29.532Z</time>
      </trkpt>
      <trkpt lat="43.08803" lon="-0.66953">
        <ele>333.82</ele>
        <time>2024-04-28T10:20:33.032Z</time>
      </trkpt>
      <trkpt lat="43.08778" lon="-0.66947">
        <ele>332.86</ele>
        <time>2024-04-28T10:20:36.535Z</time>
      </trkpt>
      <trkpt lat="43.08737" lon="-0.66934">
        <ele>331.33</ele>
        <time>2024-04-28T10:20:40.042Z</time>
      </trkpt>
      <trkpt lat="43.08722" lon="-0.66935">
        <ele>330.5</ele>
        <time>2024-04-28T10:20:43.551Z</time>
      </trkpt>
      <trkpt lat="43.08712" lon="-0.66938">
        <ele>329.97</ele>
        <time>2024-04-28T10:20:47.061Z</time>
      </trkpt>
      <trkpt lat="43.08699" lon="-0.66944">
        <ele>329.72</ele>
        <time>2024-04-28T10:20:50.573Z</time>
      </trkpt>
      <trkpt lat="43.0868" lon="-0.66949">
        <ele>329.66</ele>
        <time>2024-04-28T10:20:54.087Z</time>
      </trkpt>
      <trkpt lat="43.08637" lon="-0.66957">
        <ele>329.55</ele>
        <time>2024-04-28T10:20:57.606Z</time>
      </trkpt>
      <trkpt lat="43.08617" lon="-0.6696">
        <ele>329.38</ele>
        <time>2024-04-28T10:21:01.127Z</time>
      </trkpt>
      <trkpt lat="43.08606" lon="-0.66961">
        <ele>329.17</ele>
        <time>2024-04-28T10:21:04.649Z</time>
      </trkpt>
      <trkpt lat="43.08601" lon="-0.66958">
        <ele>328.91</ele>
        <time>2024-04-28T10:21:08.172Z</time>
      </trkpt>
      <trkpt lat="43.08591" lon="-0.66942">
        <ele>328.47</ele>
        <time>2024-04-28T10:21:11.697Z</time>
      </trkpt>
      <trkpt lat="43.0858" lon="-0.66912">
        <ele>327.92</ele>
        <time>2024-04-28T10:21:15.224Z</time>
      </trkpt>
      <trkpt lat="43.08568" lon="-0.66875">
        <ele>327.43</ele>
        <time>2024-04-28T10:21:18.755Z</time>
      </trkpt>
      <trkpt lat="43.08556" lon="-0.66847">
        <ele>327.1</ele>
        <time>2024-04-28T10:21:22.288Z</time>
      </trkpt>
      <trkpt lat="43.08539" lon="-0.66821">
        <ele>327.03</ele>
        <time>2024-04-28T10:21:25.824Z</time>
      </trkpt>
      <trkpt lat="43.08522" lon="-0.66801">
        <ele>327.19</ele>
        <time>2024-04-28T10:21:29.363Z</time>
      </trkpt>
      <trkpt lat="43.08513" lon="-0.66792">
        <ele>327.35</ele>
        <time>2024-04-28T10:21:32.903Z</time>
      </trkpt>
      <trkpt lat="43.08499" lon="-0.66786">
        <ele>327.53</ele>
        <time>2024-04-28T10:21:36.444Z</time>
      </trkpt>
      <trkpt lat="43.08482" lon="-0.66784">
        <ele>327.8</ele>
        <time>2024-04-28T10:21:39.987Z</time>
      </trkpt>
      <trkpt lat="43.08463" lon="-0.66785">
        <ele>328.24</ele>
        <time>2024-04-28T10:21:43.532Z</time>
      </trkpt>
      <trkpt lat="43.08419" lon="-0.668">
        <ele>328.75</ele>
        <time>2024-04-28T10:21:47.082Z</time>
      </trkpt>
      <trkpt lat="43.08385" lon="-0.66814">
        <ele>329.19</ele>
        <time>2024-04-28T10:21:50.636Z</time>
      </trkpt>
      <trkpt lat="43.08352" lon="-0.66833">
        <ele>329.59</ele>
        <time>2024-04-28T10:21:54.194Z</time>
      </trkpt>
      <trkpt lat="43.08336" lon="-0.66845">
        <ele>330.17</ele>
        <time>2024-04-28T10:21:57.754Z</time>
      </trkpt>
      <trkpt lat="43.08301" lon="-0.6688">
        <ele>330.88</ele>
        <time>2024-04-28T10:22:01.319Z</time>
      </trkpt>
      <trkpt lat="43.0829" lon="-0.66892">
        <ele>331.62</ele>
        <time>2024-04-28T10:22:04.886Z</time>
      </trkpt>
      <trkpt lat="43.08274" lon="-0.66919">
        <ele>332.42</ele>
        <time>2024-04-28T10:22:08.456Z</time>
      </trkpt>
      <trkpt lat="43.08249" lon="-0.6697">
        <ele>333.25</ele>
        <time>2024-04-28T10:22:12.031Z</time>
      </trkpt>
      <trkpt lat="43.08216" lon="-0.67025">
        <ele>334.28</ele>
        <time>2024-04-28T10:22:15.611Z</time>
      </trkpt>
      <trkpt lat="43.08188" lon="-0.67068">
        <ele>335.58</ele>
        <time>2024-04-28T10:22:19.196Z</time>
      </trkpt>
      <trkpt lat="43.08171" lon="-0.67088">
        <ele>336.88</ele>
        <time>2024-04-28T10:22:22.784Z</time>
      </trkpt>
      <trkpt lat="43.08158" lon="-0.6711">
        <ele>338.34</ele>
        <time>2024-04-28T10:22:26.374Z</time>
      </trkpt>
      <trkpt lat="43.08125" lon="-0.67187">
        <ele>340.09</ele>
        <time>2024-04-28T10:22:29.971Z</time>
      </trkpt>
      <trkpt lat="43.08098" lon="-0.67219">
        <ele>341.32</ele>
        <time>2024-04-28T10:22:33.572Z</time>
      </trkpt>
      <trkpt lat="43.08052" lon="-0.67258">
        <ele>343.16</ele>
        <time>2024-04-28T10:22:37.179Z</time>
      </trkpt>
      <trkpt lat="43.08014" lon="-0.67281">
        <ele>345.51</ele>
        <time>2024-04-28T10:22:40.791Z</time>
      </trkpt>
      <trkpt lat="43.08003" lon="-0.67286">
        <ele>347.06</ele>
        <time>2024-04-28T10:22:44.404Z</time>
      </trkpt>
      <trkpt lat="43.07995" lon="-0.67286">
        <ele>348.39</ele>
        <time>2024-04-28T10:22:48.018Z</time>
      </trkpt>
      <trkpt lat="43.07978" lon="-0.67283">
        <ele>349.51</ele>
        <time>2024-04-28T10:22:51.634Z</time>
      </trkpt>
      <trkpt lat="43.07958" lon="-0.67277">
        <ele>350.56</ele>
        <time>2024-04-28T10:22:55.252Z</time>
      </trkpt>
      <trkpt lat="43.0795" lon="-0.67272">
        <ele>351.72</ele>
        <time>2024-04-28T10:22:58.871Z</time>
      </trkpt>
      <trkpt lat="43.07933" lon="-0.67257">
        <ele>352.5</ele>
        <time>2024-04-28T10:23:02.492Z</time>
      </trkpt>
      <trkpt lat="43.07914" lon="-0.67222">
        <ele>353.51</ele>
        <time>2024-04-28T10:23:06.117Z</time>
      </trkpt>
      <trkpt lat="43.079" lon="-0.67196">
        <ele>354.68</ele>
        <time>2024-04-28T10:23:09.745Z</time>
      </trkpt>
      <trkpt lat="43.07871" lon="-0.67135">
        <ele>355.89</ele>
        <time>2024-04-28T10:23:13.378Z</time>
      </trkpt>
      <trkpt lat="43.07858" lon="-0.6711">
        <ele>357.15</ele>
        <time>2024-04-28T10:23:17.014Z</time>
      </trkpt>
      <trkpt lat="43.07851" lon="-0.67099">
        <ele>358.49</ele>
        <time>2024-04-28T10:23:20.651Z</time>
      </trkpt>
      <trkpt lat="43.07838" lon="-0.67086">
        <ele>359.87</ele>
        <time>2024-04-28T10:23:24.290Z</time>
      </trkpt>
      <trkpt lat="43.07826" lon="-0.67077">
        <ele>361.31</ele>
        <time>2024-04-28T10:23:27.930Z</time>
      </trkpt>
      <trkpt lat="43.07811" lon="-0.67071">
        <ele>362.72</ele>
        <time>2024-04-28T10:23:31.572Z</time>
      </trkpt>
      <trkpt lat="43.07797" lon="-0.67068">
        <ele>364.03</ele>
        <time>2024-04-28T10:23:35.216Z</time>
      </trkpt>
      <trkpt lat="43.07776" lon="-0.67068">
        <ele>365.46</ele>
        <time>2024-04-28T10:23:38.862Z</time>
      </trkpt>
      <trkpt lat="43.07731" lon="-0.67074">
        <ele>366.81</ele>
        <time>2024-04-28T10:23:42.513Z</time>
      </trkpt>
      <trkpt lat="43.07695" lon="-0.67072">
        <ele>368.5</ele>
        <time>2024-04-28T10:23:46.168Z</time>
      </trkpt>
      <trkpt lat="43.07677" lon="-0.67068">
        <ele>370.07</ele>
        <time>2024-04-28T10:23:49.825Z</time>
      </trkpt>
      <trkpt lat="43.07657" lon="-0.67059">
        <ele>371.29</ele>
        <time>2024-04-28T10:23:53.484Z</time>
      </trkpt>
      <trkpt lat="43.07636" lon="-0.67046">
        <ele>372.61</ele>
        <time>2024-04-28T10:23:57.146Z</time>
      </trkpt>
      <trkpt lat="43.07627" lon="-0.67043">
        <ele>373.59</ele>
        <time>2024-04-28T10:24:00.809Z</time>
      </trkpt>
      <trkpt lat="43.07614" lon="-0.67042">
        <ele>374.33</ele>
        <time>2024-04-28T10:24:04.474Z</time>
      </trkpt>
      <trkpt lat="43.07583" lon="-0.67054">
        <ele>374.69</ele>
        <time>2024-04-28T10:24:08.142Z</time>
      </trkpt>
      <trkpt lat="43.0756" lon="-0.67072">
        <ele>375.03</ele>
        <time>2024-04-28T10:24:11.813Z</time>
      </trkpt>
      <trkpt lat="43.0753" lon="-0.67099">
        <ele>375.43</ele>
        <time>2024-04-28T10:24:15.488Z</time>
      </trkpt>
      <trkpt lat="43.07519" lon="-0.67107">
        <ele>375.75</ele>
        <time>2024-04-28T10:24:19.164Z</time>
      </trkpt>
      <trkpt lat="43.07509" lon="-0.67107">
        <ele>375.98</ele>
        <time>2024-04-28T10:24:22.842Z</time>
      </trkpt>
      <trkpt lat="43.07496" lon="-0.67103">
        <ele>376.11</ele>
        <time>2024-04-28T10:24:26.521Z</time>
      </trkpt>
      <trkpt lat="43.07488" lon="-0.67099">
        <ele>376.02</ele>
        <time>2024-04-28T10:24:30.201Z</time>
      </trkpt>
      <trkpt lat="43.07479" lon="-0.67094">
        <ele>375.87</ele>
        <time>2024-04-28T10:24:33.882Z</time>
      </trkpt>
      <trkpt lat="43.07468" lon="-0.67085">
        <ele>375.61</ele>
        <time>2024-04-28T10:24:37.564Z</time>
      </trkpt>
      <trkpt lat="43.07455" lon="-0.6707">
        <ele>375.38</ele>
        <time>2024-04-28T10:24:41.248Z</time>
      </trkpt>
      <trkpt lat="43.07444" lon="-0.67059">
        <ele>375.09</ele>
        <time>2024-04-28T10:24:44.934Z</time>
      </trkpt>
      <trkpt lat="43.07436" lon="-0.67055">
        <ele>374.76</ele>
        <time>2024-04-28T10:24:48.621Z</time>
      </trkpt>
      <trkpt lat="43.07432" lon="-0.67055">
        <ele>374.32</ele>
        <time>2024-04-28T10:24:52.308Z</time>
      </trkpt>
      <trkpt lat="43.074" lon="-0.67068">
        <ele>373.74</ele>
        <time>2024-04-28T10:24:55.999Z</time>
      </trkpt>
      <trkpt lat="43.07368" lon="-0.67076">
        <ele>373.25</ele>
        <time>2024-04-28T10:24:59.694Z</time>
      </trkpt>
      <trkpt lat="43.0734" lon="-0.67078">
        <ele>372.83</ele>
        <time>2024-04-28T10:25:03.392Z</time>
      </trkpt>
      <trkpt lat="43.0731" lon="-0.67077">
        <ele>372.36</ele>
        <time>2024-04-28T10:25:07.093Z</time>
      </trkpt>
      <trkpt lat="43.07288" lon="-0.67072">
        <ele>371.76</ele>
        <time>2024-04-28T10:25:10.796Z</time>
      </trkpt>
      <trkpt lat="43.07276" lon="-0.67066">
        <ele>371.24</ele>
        <time>2024-04-28T10:25:14.501Z</time>
      </trkpt>
      <trkpt lat="43.07266" lon="-0.67059">
        <ele>370.74</ele>
        <time>2024-04-28T10:25:18.207Z</time>
      </trkpt>
      <trkpt lat="43.07253" lon="-0.67041">
        <ele>370.41</ele>
        <time>2024-04-28T10:25:21.915Z</time>
      </trkpt>
      <trkpt lat="43.07241" lon="-0.67023">
        <ele>370.2</ele>
        <time>2024-04-28T10:25:25.625Z</time>
      </trkpt>
      <trkpt lat="43.07223" lon="-0.67003">
        <ele>370.16</ele>
        <time>2024-04-28T10:25:29.338Z</time>
      </trkpt>
      <trkpt lat="43.07215" lon="-0.67001">
        <ele>370.22</ele>
        <time>2024-04-28T10:25:33.052Z</time>
      </trkpt>
      <trkpt lat="43.07206" lon="-0.67004">
        <ele>370.31</ele>
        <time>2024-04-28T10:25:36.767Z</time>
      </trkpt>
      <trkpt lat="43.07191" lon="-0.67012">
        <ele>370.55</ele>
        <time>2024-04-28T10:25:40.484Z</time>
      </trkpt>
      <trkpt lat="43.07179" lon="-0.67022">
        <ele>370.85</ele>
        <time>2024-04-28T10:25:44.202Z</time>
      </trkpt>
      <trkpt lat="43.07157" lon="-0.67042">
        <ele>371.3</ele>
        <time>2024-04-28T10:25:47.923Z</time>
      </trkpt>
      <trkpt lat="43.07138" lon="-0.67055">
        <ele>371.92</ele>
        <time>2024-04-28T10:25:51.646Z</time>
      </trkpt>
      <trkpt lat="43.07126" lon="-0.67059">
        <ele>372.42</ele>
        <time>2024-04-28T10:25:55.371Z</time>
      </trkpt>
      <trkpt lat="43.07104" lon="-0.67062">
        <ele>372.99</ele>
        <time>2024-04-28T10:25:59.098Z</time>
      </trkpt>
      <trkpt lat="43.07091" lon="-0.67059">
        <ele>373.42</ele>
        <time>2024-04-28T10:26:02.827Z</time>
      </trkpt>
      <trkpt lat="43.07075" lon="-0.67052">
        <ele>373.88</ele>
        <time>2024-04-28T10:26:06.558Z</time>
      </trkpt>
      <trkpt lat="43.07057" lon="-0.67042">
        <ele>374.21</ele>
        <time>2024-04-28T10:26:10.291Z</time>
      </trkpt>
      <trkpt lat="43.07032" lon="-0.67023">
        <ele>374.3</ele>
        <time>2024-04-28T10:26:14.027Z</time>
      </trkpt>
      <trkpt lat="43.07011" lon="-0.67004">
        <ele>374.05</ele>
        <time>2024-04-28T10:26:17.766Z</time>
      </trkpt>
      <trkpt lat="43.06995" lon="-0.66992">
        <ele>374.5</ele>
        <time>2024-04-28T10:26:21.507Z</time>
      </trkpt>
      <trkpt lat="43.06987" lon="-0.6699">
        <ele>374.63</ele>
        <time>2024-04-28T10:26:25.249Z</time>
      </trkpt>
      <trkpt lat="43.06981" lon="-0.66992">
        <ele>374.78</ele>
        <time>2024-04-28T10:26:28.991Z</time>
      </trkpt>
      <trkpt lat="43.06965" lon="-0.67008">
        <ele>374.84</ele>
        <time>2024-04-28T10:26:32.735Z</time>
      </trkpt>
      <trkpt lat="43.06955" lon="-0.67031">
        <ele>375.01</ele>
        <time>2024-04-28T10:26:36.482Z</time>
      </trkpt>
      <trkpt lat="43.06947" lon="-0.67053">
        <ele>375.21</ele>
        <time>2024-04-28T10:26:40.231Z</time>
      </trkpt>
      <trkpt lat="43.06938" lon="-0.67074">
        <ele>375.42</ele>
        <time>2024-04-28T10:26:43.982Z</time>
      </trkpt>
      <trkpt lat="43.06926" lon="-0.67092">
        <ele>375.53</ele>
        <time>2024-04-28T10:26:47.735Z</time>
      </trkpt>
      <trkpt lat="43.06909" lon="-0.67101">
        <ele>375.46</ele>
        <time>2024-04-28T10:26:51.490Z</time>
      </trkpt>
      <trkpt lat="43.06899" lon="-0.67103">
        <ele>375.33</ele>
        <time>2024-04-28T10:26:55.246Z</time>
      </trkpt>
      <trkpt lat="43.06891" lon="-0.67102">
        <ele>375.13</ele>
        <time>2024-04-28T10:26:59.003Z</time>
      </trkpt>
      <trkpt lat="43.06863" lon="-0.67096">
        <ele>374.91</ele>
        <time>2024-04-28T10:27:02.763Z</time>
      </trkpt>
      <trkpt lat="43.06856" lon="-0.67098">
        <ele>374.87</ele>
        <time>2024-04-28T10:27:06.524Z</time>
      </trkpt>
      <trkpt lat="43.06844" lon="-0.67104">
        <ele>374.83</ele>
        <time>2024-04-28T10:27:10.286Z</time>
      </trkpt>
      <trkpt lat="43.0681" lon="-0.67134">
        <ele>374.74</ele>
        <time>2024-04-28T10:27:14.053Z</time>
      </trkpt>
      <trkpt lat="43.06787" lon="-0.6716">
        <ele>374.73</ele>
        <time>2024-04-28T10:27:17.823Z</time>
      </trkpt>
      <trkpt lat="43.06765" lon="-0.67181">
        <ele>374.99</ele>
        <time>2024-04-28T10:27:21.596Z</time>
      </trkpt>
      <trkpt lat="43.0675" lon="-0.6719">
        <ele>374.96</ele>
        <time>2024-04-28T10:27:25.371Z</time>
      </trkpt>
      <trkpt lat="43.06737" lon="-0.67193">
        <ele>374.73</ele>
        <time>2024-04-28T10:27:29.147Z</time>
      </trkpt>
      <trkpt lat="43.06732" lon="-0.67193">
        <ele>374.42</ele>
        <time>2024-04-28T10:27:32.924Z</time>
      </trkpt>
      <trkpt lat="43.0672" lon="-0.67189">
        <ele>373.86</ele>
        <time>2024-04-28T10:27:36.702Z</time>
      </trkpt>
      <trkpt lat="43.06702" lon="-0.67173">
        <ele>373.12</ele>
        <time>2024-04-28T10:27:40.482Z</time>
      </trkpt>
      <trkpt lat="43.06692" lon="-0.67161">
        <ele>372.8</ele>
        <time>2024-04-28T10:27:44.264Z</time>
      </trkpt>
      <trkpt lat="43.0667" lon="-0.67132">
        <ele>372.62</ele>
        <time>2024-04-28T10:27:48.049Z</time>
      </trkpt>
      <trkpt lat="43.0666" lon="-0.67123">
        <ele>372.59</ele>
        <time>2024-04-28T10:27:51.836Z</time>
      </trkpt>
      <trkpt lat="43.0665" lon="-0.67118">
        <ele>372.6</ele>
        <time>2024-04-28T10:27:55.624Z</time>
      </trkpt>
      <trkpt lat="43.06638" lon="-0.67118">
        <ele>372.67</ele>
        <time>2024-04-28T10:27:59.413Z</time>
      </trkpt>
      <trkpt lat="43.0663" lon="-0.67121">
        <ele>372.75</ele>
        <time>2024-04-28T10:28:03.203Z</time>
      </trkpt>
      <trkpt lat="43.06619" lon="-0.67133">
        <ele>372.78</ele>
        <time>2024-04-28T10:28:06.995Z</time>
      </trkpt>
      <trkpt lat="43.06607" lon="-0.67151">
        <ele>372.84</ele>
        <time>2024-04-28T10:28:10.789Z</time>
      </trkpt>
      <trkpt lat="43.06583" lon="-0.67187">
        <ele>373.23</ele>
        <time>2024-04-28T10:28:14.587Z</time>
      </trkpt>
      <trkpt lat="43.0657" lon="-0.67205">
        <ele>373.8</ele>
        <time>2024-04-28T10:28:18.387Z</time>
      </trkpt>
      <trkpt lat="43.06557" lon="-0.67221">
        <ele>374.31</ele>
        <time>2024-04-28T10:28:22.189Z</time>
      </trkpt>
      <trkpt lat="43.06542" lon="-0.67234">
        <ele>374.75</ele>
        <time>2024-04-28T10:28:25.993Z</time>
      </trkpt>
      <trkpt lat="43.06519" lon="-0.67251">
        <ele>375.17</ele>
        <time>2024-04-28T10:28:29.799Z</time>
      </trkpt>
      <trkpt lat="43.06474" lon="-0.67271">
        <ele>375.86</ele>
        <time>2024-04-28T10:28:33.611Z</time>
      </trkpt>
      <trkpt lat="43.0644" lon="-0.67281">
        <ele>376.38</ele>
        <time>2024-04-28T10:28:37.427Z</time>
      </trkpt>
      <trkpt lat="43.06415" lon="-0.67284">
        <ele>376.67</ele>
        <time>2024-04-28T10:28:41.245Z</time>
      </trkpt>
      <trkpt lat="43.06395" lon="-0.67285">
        <ele>376.94</ele>
        <time>2024-04-28T10:28:45.066Z</time>
      </trkpt>
      <trkpt lat="43.06368" lon="-0.67281">
        <ele>377.1</ele>
        <time>2024-04-28T10:28:48.890Z</time>
      </trkpt>
      <trkpt lat="43.06333" lon="-0.67276">
        <ele>377.39</ele>
        <time>2024-04-28T10:28:52.718Z</time>
      </trkpt>
      <trkpt lat="43.06312" lon="-0.67279">
        <ele>377.69</ele>
        <time>2024-04-28T10:28:56.548Z</time>
      </trkpt>
      <trkpt lat="43.0629" lon="-0.67287">
        <ele>377.87</ele>
        <time>2024-04-28T10:29:00.380Z</time>
      </trkpt>
      <trkpt lat="43.06266" lon="-0.67304">
        <ele>377.94</ele>
        <time>2024-04-28T10:29:04.215Z</time>
      </trkpt>
      <trkpt lat="43.06258" lon="-0.67315">
        <ele>378.06</ele>
        <time>2024-04-28T10:29:08.052Z</time>
      </trkpt>
      <trkpt lat="43.0624" lon="-0.67341">
        <ele>378.42</ele>
        <time>2024-04-28T10:29:11.892Z</time>
      </trkpt>
      <trkpt lat="43.06222" lon="-0.67372">
        <ele>378.31</ele>
        <time>2024-04-28T10:29:15.735Z</time>
      </trkpt>
      <trkpt lat="43.0618" lon="-0.6744">
        <ele>378.48</ele>
        <time>2024-04-28T10:29:19.585Z</time>
      </trkpt>
      <trkpt lat="43.06127" lon="-0.67501">
        <ele>378</ele>
        <time>2024-04-28T10:29:23.443Z</time>
      </trkpt>
      <trkpt lat="43.06097" lon="-0.67524">
        <ele>377.76</ele>
        <time>2024-04-28T10:29:27.305Z</time>
      </trkpt>
      <trkpt lat="43.06066" lon="-0.67548">
        <ele>377.69</ele>
        <time>2024-04-28T10:29:31.171Z</time>
      </trkpt>
      <trkpt lat="43.06035" lon="-0.67575">
        <ele>377.76</ele>
        <time>2024-04-28T10:29:35.041Z</time>
      </trkpt>
      <trkpt lat="43.06013" lon="-0.67597">
        <ele>377.82</ele>
        <time>2024-04-28T10:29:38.914Z</time>
      </trkpt>
      <trkpt lat="43.06004" lon="-0.6761">
        <ele>378.08</ele>
        <time>2024-04-28T10:29:42.788Z</time>
      </trkpt>
      <trkpt lat="43.05995" lon="-0.67625">
        <ele>378.48</ele>
        <time>2024-04-28T10:29:46.664Z</time>
      </trkpt>
      <trkpt lat="43.05988" lon="-0.67642">
        <ele>379.03</ele>
        <time>2024-04-28T10:29:50.541Z</time>
      </trkpt>
      <trkpt lat="43.05979" lon="-0.67669">
        <ele>379.9</ele>
        <time>2024-04-28T10:29:54.421Z</time>
      </trkpt>
      <trkpt lat="43.05962" lon="-0.67706">
        <ele>380.74</ele>
        <time>2024-04-28T10:29:58.304Z</time>
      </trkpt>
      <trkpt lat="43.05953" lon="-0.67726">
        <ele>381.49</ele>
        <time>2024-04-28T10:30:02.189Z</time>
      </trkpt>
      <trkpt lat="43.05947" lon="-0.67733">
        <ele>382.17</ele>
        <time>2024-04-28T10:30:06.075Z</time>
      </trkpt>
      <trkpt lat="43.05939" lon="-0.67736">
        <ele>382.79</ele>
        <time>2024-04-28T10:30:09.962Z</time>
      </trkpt>
      <trkpt lat="43.05927" lon="-0.67734">
        <ele>383.36</ele>
        <time>2024-04-28T10:30:13.850Z</time>
      </trkpt>
      <trkpt lat="43.0591" lon="-0.67724">
        <ele>383.91</ele>
        <time>2024-04-28T10:30:17.740Z</time>
      </trkpt>
      <trkpt lat="43.05879" lon="-0.67699">
        <ele>384.65</ele>
        <time>2024-04-28T10:30:21.634Z</time>
      </trkpt>
      <trkpt lat="43.05848" lon="-0.67682">
        <ele>385.67</ele>
        <time>2024-04-28T10:30:25.532Z</time>
      </trkpt>
      <trkpt lat="43.05831" lon="-0.67673">
        <ele>386.3</ele>
        <time>2024-04-28T10:30:29.432Z</time>
      </trkpt>
      <trkpt lat="43.05807" lon="-0.6766">
        <ele>386.94</ele>
        <time>2024-04-28T10:30:33.335Z</time>
      </trkpt>
      <trkpt lat="43.058" lon="-0.67658">
        <ele>387.44</ele>
        <time>2024-04-28T10:30:37.239Z</time>
      </trkpt>
      <trkpt lat="43.05778" lon="-0.67658">
        <ele>387.82</ele>
        <time>2024-04-28T10:30:41.145Z</time>
      </trkpt>
      <trkpt lat="43.05766" lon="-0.6765">
        <ele>388.15</ele>
        <time>2024-04-28T10:30:45.053Z</time>
      </trkpt>
      <trkpt lat="43.0576" lon="-0.6764">
        <ele>388.54</ele>
        <time>2024-04-28T10:30:48.962Z</time>
      </trkpt>
      <trkpt lat="43.05744" lon="-0.67612">
        <ele>388.96</ele>
        <time>2024-04-28T10:30:52.874Z</time>
      </trkpt>
      <trkpt lat="43.05737" lon="-0.67604">
        <ele>389.35</ele>
        <time>2024-04-28T10:30:56.787Z</time>
      </trkpt>
      <trkpt lat="43.05729" lon="-0.67599">
        <ele>389.75</ele>
        <time>2024-04-28T10:31:00.701Z</time>
      </trkpt>
      <trkpt lat="43.05721" lon="-0.67599">
        <ele>390.06</ele>
        <time>2024-04-28T10:31:04.616Z</time>
      </trkpt>
      <trkpt lat="43.05711" lon="-0.67601">
        <ele>390.33</ele>
        <time>2024-04-28T10:31:08.532Z</time>
      </trkpt>
      <trkpt lat="43.05706" lon="-0.67604">
        <ele>390.52</ele>
        <time>2024-04-28T10:31:12.448Z</time>
      </trkpt>
      <trkpt lat="43.05698" lon="-0.67612">
        <ele>390.64</ele>
        <time>2024-04-28T10:31:16.365Z</time>
      </trkpt>
      <trkpt lat="43.05687" lon="-0.6763">
        <ele>390.66</ele>
        <time>2024-04-28T10:31:20.284Z</time>
      </trkpt>
      <trkpt lat="43.05677" lon="-0.67649">
        <ele>390.66</ele>
        <time>2024-04-28T10:31:24.205Z</time>
      </trkpt>
      <trkpt lat="43.0567" lon="-0.67667">
        <ele>390.76</ele>
        <time>2024-04-28T10:31:28.128Z</time>
      </trkpt>
      <trkpt lat="43.0566" lon="-0.6769">
        <ele>391.02</ele>
        <time>2024-04-28T10:31:32.053Z</time>
      </trkpt>
      <trkpt lat="43.05647" lon="-0.67702">
        <ele>391.24</ele>
        <time>2024-04-28T10:31:35.980Z</time>
      </trkpt>
      <trkpt lat="43.05628" lon="-0.67713">
        <ele>391.47</ele>
        <time>2024-04-28T10:31:39.909Z</time>
      </trkpt>
      <trkpt lat="43.05606" lon="-0.67725">
        <ele>391.8</ele>
        <time>2024-04-28T10:31:43.841Z</time>
      </trkpt>
      <trkpt lat="43.05591" lon="-0.67721">
        <ele>391.95</ele>
        <time>2024-04-28T10:31:47.774Z</time>
      </trkpt>
      <trkpt lat="43.05575" lon="-0.67703">
        <ele>391.88</ele>
        <time>2024-04-28T10:31:51.710Z</time>
      </trkpt>
      <trkpt lat="43.05556" lon="-0.67682">
        <ele>392.03</ele>
        <time>2024-04-28T10:31:55.648Z</time>
      </trkpt>
      <trkpt lat="43.05549" lon="-0.67674">
        <ele>392.21</ele>
        <time>2024-04-28T10:31:59.587Z</time>
      </trkpt>
      <trkpt lat="43.05544" lon="-0.67662">
        <ele>392.46</ele>
        <time>2024-04-28T10:32:03.528Z</time>
      </trkpt>
      <trkpt lat="43.05534" lon="-0.67642">
        <ele>392.76</ele>
        <time>2024-04-28T10:32:07.471Z</time>
      </trkpt>
      <trkpt lat="43.0553" lon="-0.67638">
        <ele>393.1</ele>
        <time>2024-04-28T10:32:11.414Z</time>
      </trkpt>
      <trkpt lat="43.05521" lon="-0.67634">
        <ele>393.45</ele>
        <time>2024-04-28T10:32:15.358Z</time>
      </trkpt>
      <trkpt lat="43.05513" lon="-0.67635">
        <ele>393.75</ele>
        <time>2024-04-28T10:32:19.303Z</time>
      </trkpt>
      <trkpt lat="43.05502" lon="-0.67643">
        <ele>394.07</ele>
        <time>2024-04-28T10:32:23.249Z</time>
      </trkpt>
      <trkpt lat="43.05481" lon="-0.67684">
        <ele>394.33</ele>
        <time>2024-04-28T10:32:27.199Z</time>
      </trkpt>
      <trkpt lat="43.05468" lon="-0.67709">
        <ele>394.75</ele>
        <time>2024-04-28T10:32:31.152Z</time>
      </trkpt>
      <trkpt lat="43.0546" lon="-0.67719">
        <ele>395.15</ele>
        <time>2024-04-28T10:32:35.106Z</time>
      </trkpt>
      <trkpt lat="43.05453" lon="-0.67724">
        <ele>395.53</ele>
        <time>2024-04-28T10:32:39.061Z</time>
      </trkpt>
      <trkpt lat="43.05424" lon="-0.67737">
        <ele>396.2</ele>
        <time>2024-04-28T10:32:43.019Z</time>
      </trkpt>
      <trkpt lat="43.05414" lon="-0.67736">
        <ele>396.37</ele>
        <time>2024-04-28T10:32:46.979Z</time>
      </trkpt>
      <trkpt lat="43.05402" lon="-0.67734">
        <ele>396.5</ele>
        <time>2024-04-28T10:32:50.940Z</time>
      </trkpt>
      <trkpt lat="43.05392" lon="-0.67726">
        <ele>396.52</ele>
        <time>2024-04-28T10:32:54.902Z</time>
      </trkpt>
      <trkpt lat="43.05383" lon="-0.67715">
        <ele>396.52</ele>
        <time>2024-04-28T10:32:58.866Z</time>
      </trkpt>
      <trkpt lat="43.0538" lon="-0.67694">
        <ele>396.34</ele>
        <time>2024-04-28T10:33:02.831Z</time>
      </trkpt>
      <trkpt lat="43.05379" lon="-0.67662">
        <ele>396.22</ele>
        <time>2024-04-28T10:33:06.799Z</time>
      </trkpt>
      <trkpt lat="43.05375" lon="-0.67651">
        <ele>396.14</ele>
        <time>2024-04-28T10:33:10.768Z</time>
      </trkpt>
      <trkpt lat="43.05373" lon="-0.67645">
        <ele>396.03</ele>
        <time>2024-04-28T10:33:14.737Z</time>
      </trkpt>
      <trkpt lat="43.05367" lon="-0.67641">
        <ele>395.91</ele>
        <time>2024-04-28T10:33:18.707Z</time>
      </trkpt>
      <trkpt lat="43.05343" lon="-0.67636">
        <ele>395.7</ele>
        <time>2024-04-28T10:33:22.680Z</time>
      </trkpt>
      <trkpt lat="43.05325" lon="-0.67636">
        <ele>395.4</ele>
        <time>2024-04-28T10:33:26.655Z</time>
      </trkpt>
      <trkpt lat="43.05312" lon="-0.67641">
        <ele>395.11</ele>
        <time>2024-04-28T10:33:30.631Z</time>
      </trkpt>
      <trkpt lat="43.05291" lon="-0.67653">
        <ele>394.9</ele>
        <time>2024-04-28T10:33:34.610Z</time>
      </trkpt>
      <trkpt lat="43.05257" lon="-0.67668">
        <ele>394.86</ele>
        <time>2024-04-28T10:33:38.593Z</time>
      </trkpt>
      <trkpt lat="43.05239" lon="-0.67673">
        <ele>394.83</ele>
        <time>2024-04-28T10:33:42.578Z</time>
      </trkpt>
      <trkpt lat="43.05216" lon="-0.67675">
        <ele>394.75</ele>
        <time>2024-04-28T10:33:46.565Z</time>
      </trkpt>
      <trkpt lat="43.05179" lon="-0.67673">
        <ele>394.71</ele>
        <time>2024-04-28T10:33:50.557Z</time>
      </trkpt>
      <trkpt lat="43.05168" lon="-0.67677">
        <ele>394.61</ele>
        <time>2024-04-28T10:33:54.550Z</time>
      </trkpt>
      <trkpt lat="43.05151" lon="-0.67686">
        <ele>394.5</ele>
        <time>2024-04-28T10:33:58.545Z</time>
      </trkpt>
      <trkpt lat="43.05135" lon="-0.67692">
        <ele>394.39</ele>
        <time>2024-04-28T10:34:02.542Z</time>
      </trkpt>
      <trkpt lat="43.05122" lon="-0.67693">
        <ele>394.29</ele>
        <time>2024-04-28T10:34:06.540Z</time>
      </trkpt>
      <trkpt lat="43.0511" lon="-0.67689">
        <ele>394.25</ele>
        <time>2024-04-28T10:34:10.540Z</time>
      </trkpt>
      <trkpt lat="43.05093" lon="-0.67679">
        <ele>394.23</ele>
        <time>2024-04-28T10:34:14.542Z</time>
      </trkpt>
      <trkpt lat="43.05057" lon="-0.67652">
        <ele>394.26</ele>
        <time>2024-04-28T10:34:18.548Z</time>
      </trkpt>
      <trkpt lat="43.05038" lon="-0.67645">
        <ele>394.25</ele>
        <time>2024-04-28T10:34:22.556Z</time>
      </trkpt>
      <trkpt lat="43.05027" lon="-0.67644">
        <ele>394.33</ele>
        <time>2024-04-28T10:34:26.566Z</time>
      </trkpt>
      <trkpt lat="43.0502" lon="-0.67639">
        <ele>394.44</ele>
        <time>2024-04-28T10:34:30.576Z</time>
      </trkpt>
      <trkpt lat="43.05016" lon="-0.67627">
        <ele>394.57</ele>
        <time>2024-04-28T10:34:34.588Z</time>
      </trkpt>
      <trkpt lat="43.05013" lon="-0.67612">
        <ele>394.8</ele>
        <time>2024-04-28T10:34:38.601Z</time>
      </trkpt>
      <trkpt lat="43.05009" lon="-0.67588">
        <ele>395.25</ele>
        <time>2024-04-28T10:34:42.616Z</time>
      </trkpt>
      <trkpt lat="43.05011" lon="-0.67581">
        <ele>395.71</ele>
        <time>2024-04-28T10:34:46.631Z</time>
      </trkpt>
      <trkpt lat="43.05017" lon="-0.67573">
        <ele>396.28</ele>
        <time>2024-04-28T10:34:50.647Z</time>
      </trkpt>
      <trkpt lat="43.05026" lon="-0.67558">
        <ele>396.98</ele>
        <time>2024-04-28T10:34:54.665Z</time>
      </trkpt>
      <trkpt lat="43.05034" lon="-0.67539">
        <ele>397.85</ele>
        <time>2024-04-28T10:34:58.685Z</time>
      </trkpt>
      <trkpt lat="43.05044" lon="-0.6753">
        <ele>398.81</ele>
        <time>2024-04-28T10:35:02.706Z</time>
      </trkpt>
      <trkpt lat="43.05067" lon="-0.67515">
        <ele>400.09</ele>
        <time>2024-04-28T10:35:06.730Z</time>
      </trkpt>
      <trkpt lat="43.05079" lon="-0.675">
        <ele>401.48</ele>
        <time>2024-04-28T10:35:10.756Z</time>
      </trkpt>
      <trkpt lat="43.05088" lon="-0.67482">
        <ele>403.01</ele>
        <time>2024-04-28T10:35:14.783Z</time>
      </trkpt>
      <trkpt lat="43.05092" lon="-0.67471">
        <ele>404.58</ele>
        <time>2024-04-28T10:35:18.811Z</time>
      </trkpt>
      <trkpt lat="43.05096" lon="-0.67452">
        <ele>406.27</ele>
        <time>2024-04-28T10:35:22.841Z</time>
      </trkpt>
      <trkpt lat="43.05099" lon="-0.67419">
        <ele>408.23</ele>
        <time>2024-04-28T10:35:26.874Z</time>
      </trkpt>
      <trkpt lat="43.05093" lon="-0.67353">
        <ele>410.25</ele>
        <time>2024-04-28T10:35:30.912Z</time>
      </trkpt>
      <trkpt lat="43.05087" lon="-0.67323">
        <ele>412.11</ele>
        <time>2024-04-28T10:35:34.953Z</time>
      </trkpt>
      <trkpt lat="43.05072" lon="-0.67284">
        <ele>414.15</ele>
        <time>2024-04-28T10:35:38.997Z</time>
      </trkpt>
      <trkpt lat="43.0506" lon="-0.67259">
        <ele>416.01</ele>
        <time>2024-04-28T10:35:43.044Z</time>
      </trkpt>
      <trkpt lat="43.05036" lon="-0.67223">
        <ele>417.84</ele>
        <time>2024-04-28T10:35:47.095Z</time>
      </trkpt>
      <trkpt lat="43.05001" lon="-0.6718">
        <ele>419.8</ele>
        <time>2024-04-28T10:35:51.151Z</time>
      </trkpt>
      <trkpt lat="43.0499" lon="-0.67156">
        <ele>421.48</ele>
        <time>2024-04-28T10:35:55.209Z</time>
      </trkpt>
      <trkpt lat="43.04989" lon="-0.67142">
        <ele>422.99</ele>
        <time>2024-04-28T10:35:59.268Z</time>
      </trkpt>
      <trkpt lat="43.04983" lon="-0.67133">
        <ele>424.61</ele>
        <time>2024-04-28T10:36:03.328Z</time>
      </trkpt>
      <trkpt lat="43.04974" lon="-0.67122">
        <ele>426.17</ele>
        <time>2024-04-28T10:36:07.390Z</time>
      </trkpt>
      <trkpt lat="43.0497" lon="-0.67108">
        <ele>427.49</ele>
        <time>2024-04-28T10:36:11.453Z</time>
      </trkpt>
      <trkpt lat="43.04979" lon="-0.67093">
        <ele>428.55</ele>
        <time>2024-04-28T10:36:15.518Z</time>
      </trkpt>
      <trkpt lat="43.04989" lon="-0.67082">
        <ele>429.54</ele>
        <time>2024-04-28T10:36:19.584Z</time>
      </trkpt>
      <trkpt lat="43.04999" lon="-0.67059">
        <ele>430.68</ele>
        <time>2024-04-28T10:36:23.652Z</time>
      </trkpt>
      <trkpt lat="43.05" lon="-0.67031">
        <ele>431.68</ele>
        <time>2024-04-28T10:36:27.722Z</time>
      </trkpt>
      <trkpt lat="43.04997" lon="-0.67017">
        <ele>432.52</ele>
        <time>2024-04-28T10:36:31.794Z</time>
      </trkpt>
      <trkpt lat="43.04986" lon="-0.66997">
        <ele>433.37</ele>
        <time>2024-04-28T10:36:35.868Z</time>
      </trkpt>
      <trkpt lat="43.04979" lon="-0.66987">
        <ele>434.14</ele>
        <time>2024-04-28T10:36:39.943Z</time>
      </trkpt>
      <trkpt lat="43.04976" lon="-0.66977">
        <ele>434.74</ele>
        <time>2024-04-28T10:36:44.019Z</time>
      </trkpt>
      <trkpt lat="43.04975" lon="-0.66935">
        <ele>435.32</ele>
        <time>2024-04-28T10:36:48.098Z</time>
      </trkpt>
      <trkpt lat="43.04975" lon="-0.66918">
        <ele>436.01</ele>
        <time>2024-04-28T10:36:52.178Z</time>
      </trkpt>
      <trkpt lat="43.04978" lon="-0.66888">
        <ele>436.84</ele>
        <time>2024-04-28T10:36:56.261Z</time>
      </trkpt>
      <trkpt lat="43.04981" lon="-0.66875">
        <ele>437.72</ele>
        <time>2024-04-28T10:37:00.345Z</time>
      </trkpt>
      <trkpt lat="43.04982" lon="-0.66851">
        <ele>438.76</ele>
        <time>2024-04-28T10:37:04.431Z</time>
      </trkpt>
      <trkpt lat="43.04975" lon="-0.66827">
        <ele>439.81</ele>
        <time>2024-04-28T10:37:08.519Z</time>
      </trkpt>
      <trkpt lat="43.04961" lon="-0.66805">
        <ele>440.77</ele>
        <time>2024-04-28T10:37:12.609Z</time>
      </trkpt>
      <trkpt lat="43.0494" lon="-0.66784">
        <ele>441.89</ele>
        <time>2024-04-28T10:37:16.702Z</time>
      </trkpt>
      <trkpt lat="43.0492" lon="-0.66774">
        <ele>443.13</ele>
        <time>2024-04-28T10:37:20.798Z</time>
      </trkpt>
      <trkpt lat="43.04909" lon="-0.66768">
        <ele>444.15</ele>
        <time>2024-04-28T10:37:24.895Z</time>
      </trkpt>
      <trkpt lat="43.04898" lon="-0.66756">
        <ele>445.13</ele>
        <time>2024-04-28T10:37:28.994Z</time>
      </trkpt>
      <trkpt lat="43.04882" lon="-0.66707">
        <ele>445.98</ele>
        <time>2024-04-28T10:37:33.097Z</time>
      </trkpt>
      <trkpt lat="43.04876" lon="-0.66691">
        <ele>446.87</ele>
        <time>2024-04-28T10:37:37.201Z</time>
      </trkpt>
      <trkpt lat="43.04869" lon="-0.66671">
        <ele>447.96</ele>
        <time>2024-04-28T10:37:41.307Z</time>
      </trkpt>
      <trkpt lat="43.04866" lon="-0.66647">
        <ele>449.22</ele>
        <time>2024-04-28T10:37:45.415Z</time>
      </trkpt>
      <trkpt lat="43.04866" lon="-0.66632">
        <ele>450.49</ele>
        <time>2024-04-28T10:37:49.524Z</time>
      </trkpt>
      <trkpt lat="43.04867" lon="-0.66607">
        <ele>451.83</ele>
        <time>2024-04-28T10:37:53.635Z</time>
      </trkpt>
      <trkpt lat="43.04871" lon="-0.66574">
        <ele>452.86</ele>
        <time>2024-04-28T10:37:57.749Z</time>
      </trkpt>
      <trkpt lat="43.04872" lon="-0.66567">
        <ele>453.28</ele>
        <time>2024-04-28T10:38:01.864Z</time>
      </trkpt>
      <trkpt lat="43.04873" lon="-0.66563">
        <ele>453.58</ele>
        <time>2024-04-28T10:38:05.979Z</time>
      </trkpt>
      <trkpt lat="43.04881" lon="-0.66542">
        <ele>454.05</ele>
        <time>2024-04-28T10:38:10.096Z</time>
      </trkpt>
      <trkpt lat="43.04894" lon="-0.66528">
        <ele>454.43</ele>
        <time>2024-04-28T10:38:14.215Z</time>
      </trkpt>
      <trkpt lat="43.04916" lon="-0.66514">
        <ele>454.76</ele>
        <time>2024-04-28T10:38:18.337Z</time>
      </trkpt>
      <trkpt lat="43.04927" lon="-0.66494">
        <ele>455.4</ele>
        <time>2024-04-28T10:38:22.461Z</time>
      </trkpt>
      <trkpt lat="43.04936" lon="-0.66473">
        <ele>456.25</ele>
        <time>2024-04-28T10:38:26.587Z</time>
      </trkpt>
      <trkpt lat="43.04947" lon="-0.66439">
        <ele>457.35</ele>
        <time>2024-04-28T10:38:30.716Z</time>
      </trkpt>
      <trkpt lat="43.04951" lon="-0.66406">
        <ele>458.85</ele>
        <time>2024-04-28T10:38:34.847Z</time>
      </trkpt>
      <trkpt lat="43.04966" lon="-0.66327">
        <ele>461.16</ele>
        <time>2024-04-28T10:38:38.985Z</time>
      </trkpt>
      <trkpt lat="43.04974" lon="-0.66303">
        <ele>463.17</ele>
        <time>2024-04-28T10:38:43.125Z</time>
      </trkpt>
      <trkpt lat="43.04979" lon="-0.66287">
        <ele>464.95</ele>
        <time>2024-04-28T10:38:47.267Z</time>
      </trkpt>
      <trkpt lat="43.04985" lon="-0.66276">
        <ele>466.54</ele>
        <time>2024-04-28T10:38:51.410Z</time>
      </trkpt>
      <trkpt lat="43.04997" lon="-0.66253">
        <ele>468.11</ele>
        <time>2024-04-28T10:38:55.555Z</time>
      </trkpt>
      <trkpt lat="43.04999" lon="-0.66238">
        <ele>469.46</ele>
        <time>2024-04-28T10:38:59.701Z</time>
      </trkpt>
      <trkpt lat="43.04994" lon="-0.66204">
        <ele>470.65</ele>
        <time>2024-04-28T10:39:03.850Z</time>
      </trkpt>
      <trkpt lat="43.04982" lon="-0.66172">
        <ele>471.92</ele>
        <time>2024-04-28T10:39:08.002Z</time>
      </trkpt>
      <trkpt lat="43.04963" lon="-0.66127">
        <ele>473.11</ele>
        <time>2024-04-28T10:39:12.158Z</time>
      </trkpt>
      <trkpt lat="43.04951" lon="-0.66088">
        <ele>474.18</ele>
        <time>2024-04-28T10:39:16.318Z</time>
      </trkpt>
      <trkpt lat="43.04949" lon="-0.6607">
        <ele>475.34</ele>
        <time>2024-04-28T10:39:20.479Z</time>
      </trkpt>
      <trkpt lat="43.04948" lon="-0.66039">
        <ele>476.51</ele>
        <time>2024-04-28T10:39:24.643Z</time>
      </trkpt>
      <trkpt lat="43.04948" lon="-0.65999">
        <ele>478.06</ele>
        <time>2024-04-28T10:39:28.810Z</time>
      </trkpt>
      <trkpt lat="43.04937" lon="-0.65977">
        <ele>479.04</ele>
        <time>2024-04-28T10:39:32.979Z</time>
      </trkpt>
      <trkpt lat="43.04922" lon="-0.65957">
        <ele>479.87</ele>
        <time>2024-04-28T10:39:37.150Z</time>
      </trkpt>
      <trkpt lat="43.04909" lon="-0.65936">
        <ele>480.72</ele>
        <time>2024-04-28T10:39:41.324Z</time>
      </trkpt>
      <trkpt lat="43.049" lon="-0.65915">
        <ele>481.66</ele>
        <time>2024-04-28T10:39:45.500Z</time>
      </trkpt>
      <trkpt lat="43.04894" lon="-0.65887">
        <ele>482.79</ele>
        <time>2024-04-28T10:39:49.678Z</time>
      </trkpt>
      <trkpt lat="43.04896" lon="-0.65871">
        <ele>483.81</ele>
        <time>2024-04-28T10:39:53.857Z</time>
      </trkpt>
      <trkpt lat="43.04905" lon="-0.65833">
        <ele>484.79</ele>
        <time>2024-04-28T10:39:58.040Z</time>
      </trkpt>
      <trkpt lat="43.04905" lon="-0.65815">
        <ele>485.87</ele>
        <time>2024-04-28T10:40:02.224Z</time>
      </trkpt>
      <trkpt lat="43.04903" lon="-0.65795">
        <ele>486.93</ele>
        <time>2024-04-28T10:40:06.410Z</time>
      </trkpt>
      <trkpt lat="43.04896" lon="-0.65778">
        <ele>488.01</ele>
        <time>2024-04-28T10:40:10.597Z</time>
      </trkpt>
      <trkpt lat="43.04884" lon="-0.65765">
        <ele>489.12</ele>
        <time>2024-04-28T10:40:14.786Z</time>
      </trkpt>
      <trkpt lat="43.04869" lon="-0.65756">
        <ele>490.29</ele>
        <time>2024-04-28T10:40:18.977Z</time>
      </trkpt>
      <trkpt lat="43.04846" lon="-0.65754">
        <ele>491.53</ele>
        <time>2024-04-28T10:40:23.170Z</time>
      </trkpt>
      <trkpt lat="43.04828" lon="-0.65749">
        <ele>492.93</ele>
        <time>2024-04-28T10:40:27.365Z</time>
      </trkpt>
      <trkpt lat="43.04811" lon="-0.6575">
        <ele>494.32</ele>
        <time>2024-04-28T10:40:31.562Z</time>
      </trkpt>
      <trkpt lat="43.04804" lon="-0.6575">
        <ele>495.72</ele>
        <time>2024-04-28T10:40:35.760Z</time>
      </trkpt>
      <trkpt lat="43.04791" lon="-0.65745">
        <ele>497.2</ele>
        <time>2024-04-28T10:40:39.960Z</time>
      </trkpt>
      <trkpt lat="43.04776" lon="-0.65731">
        <ele>498.79</ele>
        <time>2024-04-28T10:40:44.162Z</time>
      </trkpt>
      <trkpt lat="43.04751" lon="-0.6569">
        <ele>500.82</ele>
        <time>2024-04-28T10:40:48.368Z</time>
      </trkpt>
      <trkpt lat="43.04743" lon="-0.65671">
        <ele>502.63</ele>
        <time>2024-04-28T10:40:52.576Z</time>
      </trkpt>
      <trkpt lat="43.04738" lon="-0.65653">
        <ele>504.48</ele>
        <time>2024-04-28T10:40:56.785Z</time>
      </trkpt>
      <trkpt lat="43.04737" lon="-0.65628">
        <ele>506.19</ele>
        <time>2024-04-28T10:41:00.996Z</time>
      </trkpt>
      <trkpt lat="43.0474" lon="-0.65603">
        <ele>507.84</ele>
        <time>2024-04-28T10:41:05.209Z</time>
      </trkpt>
      <trkpt lat="43.0474" lon="-0.65579">
        <ele>509.54</ele>
        <time>2024-04-28T10:41:09.424Z</time>
      </trkpt>
      <trkpt lat="43.04739" lon="-0.65552">
        <ele>511.22</ele>
        <time>2024-04-28T10:41:13.642Z</time>
      </trkpt>
      <trkpt lat="43.04742" lon="-0.65533">
        <ele>512.92</ele>
        <time>2024-04-28T10:41:17.861Z</time>
      </trkpt>
      <trkpt lat="43.04745" lon="-0.65513">
        <ele>514.65</ele>
        <time>2024-04-28T10:41:22.082Z</time>
      </trkpt>
      <trkpt lat="43.04741" lon="-0.65492">
        <ele>516.34</ele>
        <time>2024-04-28T10:41:26.305Z</time>
      </trkpt>
      <trkpt lat="43.04724" lon="-0.65465">
        <ele>518.12</ele>
        <time>2024-04-28T10:41:30.530Z</time>
      </trkpt>
      <trkpt lat="43.04711" lon="-0.6544">
        <ele>519.8</ele>
        <time>2024-04-28T10:41:34.758Z</time>
      </trkpt>
      <trkpt lat="43.04687" lon="-0.65408">
        <ele>521.64</ele>
        <time>2024-04-28T10:41:38.990Z</time>
      </trkpt>
      <trkpt lat="43.04681" lon="-0.65392">
        <ele>523.27</ele>
        <time>2024-04-28T10:41:43.223Z</time>
      </trkpt>
      <trkpt lat="43.04658" lon="-0.65296">
        <ele>525.44</ele>
        <time>2024-04-28T10:41:47.464Z</time>
      </trkpt>
      <trkpt lat="43.04655" lon="-0.65287">
        <ele>527.13</ele>
        <time>2024-04-28T10:41:51.706Z</time>
      </trkpt>
      <trkpt lat="43.04654" lon="-0.65265">
        <ele>528.9</ele>
        <time>2024-04-28T10:41:55.950Z</time>
      </trkpt>
      <trkpt lat="43.04654" lon="-0.65216">
        <ele>530.7</ele>
        <time>2024-04-28T10:42:00.198Z</time>
      </trkpt>
      <trkpt lat="43.04654" lon="-0.65182">
        <ele>532.45</ele>
        <time>2024-04-28T10:42:04.449Z</time>
      </trkpt>
      <trkpt lat="43.04646" lon="-0.6513">
        <ele>534.41</ele>
        <time>2024-04-28T10:42:08.704Z</time>
      </trkpt>
      <trkpt lat="43.04643" lon="-0.65111">
        <ele>536.17</ele>
        <time>2024-04-28T10:42:12.961Z</time>
      </trkpt>
      <trkpt lat="43.04637" lon="-0.65086">
        <ele>537.88</ele>
        <time>2024-04-28T10:42:17.220Z</time>
      </trkpt>
      <trkpt lat="43.04624" lon="-0.6507">
        <ele>539.49</ele>
        <time>2024-04-28T10:42:21.481Z</time>
      </trkpt>
      <trkpt lat="43.0461" lon="-0.65056">
        <ele>541.12</ele>
        <time>2024-04-28T10:42:25.744Z</time>
      </trkpt>
      <trkpt lat="43.04596" lon="-0.65045">
        <ele>542.82</ele>
        <time>2024-04-28T10:42:30.009Z</time>
      </trkpt>
      <trkpt lat="43.04566" lon="-0.65042">
        <ele>544.63</ele>
        <time>2024-04-28T10:42:34.277Z</time>
      </trkpt>
      <trkpt lat="43.04553" lon="-0.65037">
        <ele>546.39</ele>
        <time>2024-04-28T10:42:38.546Z</time>
      </trkpt>
      <trkpt lat="43.04542" lon="-0.6503">
        <ele>548.15</ele>
        <time>2024-04-28T10:42:42.817Z</time>
      </trkpt>
      <trkpt lat="43.04525" lon="-0.65014">
        <ele>550.11</ele>
        <time>2024-04-28T10:42:47.090Z</time>
      </trkpt>
      <trkpt lat="43.04515" lon="-0.64994">
        <ele>551.87</ele>
        <time>2024-04-28T10:42:51.365Z</time>
      </trkpt>
      <trkpt lat="43.04497" lon="-0.64948">
        <ele>553.89</ele>
        <time>2024-04-28T10:42:55.644Z</time>
      </trkpt>
      <trkpt lat="43.04491" lon="-0.64936">
        <ele>555.85</ele>
        <time>2024-04-28T10:42:59.924Z</time>
      </trkpt>
      <trkpt lat="43.04483" lon="-0.64923">
        <ele>557.83</ele>
        <time>2024-04-28T10:43:04.206Z</time>
      </trkpt>
      <trkpt lat="43.04464" lon="-0.64907">
        <ele>560.01</ele>
        <time>2024-04-28T10:43:08.490Z</time>
      </trkpt>
      <trkpt lat="43.04426" lon="-0.64865">
        <ele>562.11</ele>
        <time>2024-04-28T10:43:12.780Z</time>
      </trkpt>
      <trkpt lat="43.04401" lon="-0.64831">
        <ele>564.22</ele>
        <time>2024-04-28T10:43:17.074Z</time>
      </trkpt>
      <trkpt lat="43.04383" lon="-0.64802">
        <ele>566.31</ele>
        <time>2024-04-28T10:43:21.371Z</time>
      </trkpt>
      <trkpt lat="43.04379" lon="-0.64793">
        <ele>568.14</ele>
        <time>2024-04-28T10:43:25.669Z</time>
      </trkpt>
      <trkpt lat="43.04374" lon="-0.64776">
        <ele>569.98</ele>
        <time>2024-04-28T10:43:29.968Z</time>
      </trkpt>
      <trkpt lat="43.04366" lon="-0.64739">
        <ele>571.91</ele>
        <time>2024-04-28T10:43:34.270Z</time>
      </trkpt>
      <trkpt lat="43.04352" lon="-0.64718">
        <ele>573.67</ele>
        <time>2024-04-28T10:43:38.575Z</time>
      </trkpt>
      <trkpt lat="43.04339" lon="-0.64704">
        <ele>575.34</ele>
        <time>2024-04-28T10:43:42.881Z</time>
      </trkpt>
      <trkpt lat="43.04334" lon="-0.64691">
        <ele>577.02</ele>
        <time>2024-04-28T10:43:47.189Z</time>
      </trkpt>
      <trkpt lat="43.04326" lon="-0.64669">
        <ele>578.69</ele>
        <time>2024-04-28T10:43:51.499Z</time>
      </trkpt>
      <trkpt lat="43.04314" lon="-0.6465">
        <ele>580.21</ele>
        <time>2024-04-28T10:43:55.811Z</time>
      </trkpt>
      <trkpt lat="43.04303" lon="-0.64628">
        <ele>581.72</ele>
        <time>2024-04-28T10:44:00.125Z</time>
      </trkpt>
      <trkpt lat="43.04296" lon="-0.64603">
        <ele>583.14</ele>
        <time>2024-04-28T10:44:04.441Z</time>
      </trkpt>
      <trkpt lat="43.04285" lon="-0.64581">
        <ele>584.71</ele>
        <time>2024-04-28T10:44:08.759Z</time>
      </trkpt>
      <trkpt lat="43.0427" lon="-0.64564">
        <ele>586.21</ele>
        <time>2024-04-28T10:44:13.079Z</time>
      </trkpt>
      <trkpt lat="43.04257" lon="-0.6454">
        <ele>587.78</ele>
        <time>2024-04-28T10:44:17.402Z</time>
      </trkpt>
      <trkpt lat="43.04246" lon="-0.6451">
        <ele>589.18</ele>
        <time>2024-04-28T10:44:21.727Z</time>
      </trkpt>
      <trkpt lat="43.04246" lon="-0.6448">
        <ele>590.61</ele>
        <time>2024-04-28T10:44:26.055Z</time>
      </trkpt>
      <trkpt lat="43.04245" lon="-0.64467">
        <ele>591.99</ele>
        <time>2024-04-28T10:44:30.384Z</time>
      </trkpt>
      <trkpt lat="43.04234" lon="-0.64425">
        <ele>593.57</ele>
        <time>2024-04-28T10:44:34.717Z</time>
      </trkpt>
      <trkpt lat="43.0422" lon="-0.64373">
        <ele>595.19</ele>
        <time>2024-04-28T10:44:39.054Z</time>
      </trkpt>
      <trkpt lat="43.04208" lon="-0.64339">
        <ele>596.61</ele>
        <time>2024-04-28T10:44:43.394Z</time>
      </trkpt>
      <trkpt lat="43.04206" lon="-0.64323">
        <ele>598.02</ele>
        <time>2024-04-28T10:44:47.736Z</time>
      </trkpt>
      <trkpt lat="43.04208" lon="-0.64312">
        <ele>599.29</ele>
        <time>2024-04-28T10:44:52.078Z</time>
      </trkpt>
      <trkpt lat="43.04212" lon="-0.64305">
        <ele>600.52</ele>
        <time>2024-04-28T10:44:56.421Z</time>
      </trkpt>
      <trkpt lat="43.04217" lon="-0.64301">
        <ele>601.76</ele>
        <time>2024-04-28T10:45:00.765Z</time>
      </trkpt>
      <trkpt lat="43.04229" lon="-0.64298">
        <ele>602.99</ele>
        <time>2024-04-28T10:45:05.110Z</time>
      </trkpt>
      <trkpt lat="43.04232" lon="-0.64298">
        <ele>604.14</ele>
        <time>2024-04-28T10:45:09.455Z</time>
      </trkpt>
      <trkpt lat="43.04241" lon="-0.64306">
        <ele>605.25</ele>
        <time>2024-04-28T10:45:13.802Z</time>
      </trkpt>
      <trkpt lat="43.0426" lon="-0.64329">
        <ele>606.39</ele>
        <time>2024-04-28T10:45:18.151Z</time>
      </trkpt>
      <trkpt lat="43.04289" lon="-0.64351">
        <ele>607.79</ele>
        <time>2024-04-28T10:45:22.504Z</time>
      </trkpt>
      <trkpt lat="43.04299" lon="-0.64364">
        <ele>609</ele>
        <time>2024-04-28T10:45:26.859Z</time>
      </trkpt>
      <trkpt lat="43.04328" lon="-0.64406">
        <ele>610.39</ele>
        <time>2024-04-28T10:45:31.218Z</time>
      </trkpt>
      <trkpt lat="43.0438" lon="-0.64484">
        <ele>611.7</ele>
        <time>2024-04-28T10:45:35.586Z</time>
      </trkpt>
      <trkpt lat="43.04385" lon="-0.6449">
        <ele>612.94</ele>
        <time>2024-04-28T10:45:39.955Z</time>
      </trkpt>
      <trkpt lat="43.04389" lon="-0.64492">
        <ele>614.22</ele>
        <time>2024-04-28T10:45:44.324Z</time>
      </trkpt>
      <trkpt lat="43.04396" lon="-0.64489">
        <ele>615.6</ele>
        <time>2024-04-28T10:45:48.694Z</time>
      </trkpt>
      <trkpt lat="43.04398" lon="-0.64484">
        <ele>616.99</ele>
        <time>2024-04-28T10:45:53.065Z</time>
      </trkpt>
      <trkpt lat="43.04398" lon="-0.64477">
        <ele>618.42</ele>
        <time>2024-04-28T10:45:57.436Z</time>
      </trkpt>
      <trkpt lat="43.04396" lon="-0.6447">
        <ele>619.9</ele>
        <time>2024-04-28T10:46:01.808Z</time>
      </trkpt>
      <trkpt lat="43.0439" lon="-0.64463">
        <ele>621.41</ele>
        <time>2024-04-28T10:46:06.181Z</time>
      </trkpt>
      <trkpt lat="43.04375" lon="-0.64444">
        <ele>622.97</ele>
        <time>2024-04-28T10:46:10.556Z</time>
      </trkpt>
      <trkpt lat="43.04368" lon="-0.64426">
        <ele>624.76</ele>
        <time>2024-04-28T10:46:14.932Z</time>
      </trkpt>
      <trkpt lat="43.04367" lon="-0.64407">
        <ele>626.66</ele>
        <time>2024-04-28T10:46:19.310Z</time>
      </trkpt>
      <trkpt lat="43.04362" lon="-0.64387">
        <ele>628.57</ele>
        <time>2024-04-28T10:46:23.690Z</time>
      </trkpt>
      <trkpt lat="43.04353" lon="-0.64373">
        <ele>630.38</ele>
        <time>2024-04-28T10:46:28.071Z</time>
      </trkpt>
      <trkpt lat="43.0435" lon="-0.64362">
        <ele>632.33</ele>
        <time>2024-04-28T10:46:32.453Z</time>
      </trkpt>
      <trkpt lat="43.04341" lon="-0.64326">
        <ele>634.34</ele>
        <time>2024-04-28T10:46:36.838Z</time>
      </trkpt>
      <trkpt lat="43.04334" lon="-0.64296">
        <ele>636.49</ele>
        <time>2024-04-28T10:46:41.226Z</time>
      </trkpt>
      <trkpt lat="43.04327" lon="-0.6425">
        <ele>638.9</ele>
        <time>2024-04-28T10:46:45.618Z</time>
      </trkpt>
      <trkpt lat="43.04325" lon="-0.64209">
        <ele>641.18</ele>
        <time>2024-04-28T10:46:50.013Z</time>
      </trkpt>
      <trkpt lat="43.04327" lon="-0.64164">
        <ele>643.43</ele>
        <time>2024-04-28T10:46:54.412Z</time>
      </trkpt>
      <trkpt lat="43.04334" lon="-0.64129">
        <ele>645.65</ele>
        <time>2024-04-28T10:46:58.814Z</time>
      </trkpt>
      <trkpt lat="43.04338" lon="-0.64114">
        <ele>647.81</ele>
        <time>2024-04-28T10:47:03.217Z</time>
      </trkpt>
      <trkpt lat="43.04344" lon="-0.64106">
        <ele>649.95</ele>
        <time>2024-04-28T10:47:07.621Z</time>
      </trkpt>
      <trkpt lat="43.04359" lon="-0.64088">
        <ele>652.29</ele>
        <time>2024-04-28T10:47:12.027Z</time>
      </trkpt>
      <trkpt lat="43.0437" lon="-0.64073">
        <ele>654.56</ele>
        <time>2024-04-28T10:47:16.435Z</time>
      </trkpt>
      <trkpt lat="43.04379" lon="-0.64054">
        <ele>656.72</ele>
        <time>2024-04-28T10:47:20.845Z</time>
      </trkpt>
      <trkpt lat="43.04381" lon="-0.64035">
        <ele>658.61</ele>
        <time>2024-04-28T10:47:25.256Z</time>
      </trkpt>
      <trkpt lat="43.04376" lon="-0.64005">
        <ele>660.25</ele>
        <time>2024-04-28T10:47:29.670Z</time>
      </trkpt>
      <trkpt lat="43.04361" lon="-0.63992">
        <ele>661.76</ele>
        <time>2024-04-28T10:47:34.086Z</time>
      </trkpt>
      <trkpt lat="43.04354" lon="-0.63986">
        <ele>663.38</ele>
        <time>2024-04-28T10:47:38.503Z</time>
      </trkpt>
      <trkpt lat="43.04347" lon="-0.63974">
        <ele>665.01</ele>
        <time>2024-04-28T10:47:42.921Z</time>
      </trkpt>
      <trkpt lat="43.04333" lon="-0.63948">
        <ele>666.71</ele>
        <time>2024-04-28T10:47:47.342Z</time>
      </trkpt>
      <trkpt lat="43.04324" lon="-0.63925">
        <ele>668.37</ele>
        <time>2024-04-28T10:47:51.765Z</time>
      </trkpt>
      <trkpt lat="43.04306" lon="-0.63857">
        <ele>670.12</ele>
        <time>2024-04-28T10:47:56.194Z</time>
      </trkpt>
      <trkpt lat="43.04301" lon="-0.63818">
        <ele>671.69</ele>
        <time>2024-04-28T10:48:00.626Z</time>
      </trkpt>
      <trkpt lat="43.04296" lon="-0.63791">
        <ele>673.08</ele>
        <time>2024-04-28T10:48:05.060Z</time>
      </trkpt>
      <trkpt lat="43.04288" lon="-0.63778">
        <ele>674.23</ele>
        <time>2024-04-28T10:48:09.495Z</time>
      </trkpt>
      <trkpt lat="43.04283" lon="-0.63775">
        <ele>675.19</ele>
        <time>2024-04-28T10:48:13.931Z</time>
      </trkpt>
      <trkpt lat="43.04267" lon="-0.63769">
        <ele>675.91</ele>
        <time>2024-04-28T10:48:18.369Z</time>
      </trkpt>
      <trkpt lat="43.04261" lon="-0.63769">
        <ele>676.62</ele>
        <time>2024-04-28T10:48:22.808Z</time>
      </trkpt>
      <trkpt lat="43.04201" lon="-0.63787">
        <ele>677.02</ele>
        <time>2024-04-28T10:48:27.253Z</time>
      </trkpt>
      <trkpt lat="43.04195" lon="-0.63788">
        <ele>677.57</ele>
        <time>2024-04-28T10:48:31.699Z</time>
      </trkpt>
      <trkpt lat="43.04191" lon="-0.63786">
        <ele>678.07</ele>
        <time>2024-04-28T10:48:36.146Z</time>
      </trkpt>
      <trkpt lat="43.04184" lon="-0.63783">
        <ele>678.5</ele>
        <time>2024-04-28T10:48:40.593Z</time>
      </trkpt>
      <trkpt lat="43.04177" lon="-0.63772">
        <ele>678.91</ele>
        <time>2024-04-28T10:48:45.042Z</time>
      </trkpt>
      <trkpt lat="43.04173" lon="-0.6376">
        <ele>679.27</ele>
        <time>2024-04-28T10:48:49.492Z</time>
      </trkpt>
      <trkpt lat="43.04165" lon="-0.63717">
        <ele>679.74</ele>
        <time>2024-04-28T10:48:53.945Z</time>
      </trkpt>
      <trkpt lat="43.0416" lon="-0.63669">
        <ele>680.09</ele>
        <time>2024-04-28T10:48:58.402Z</time>
      </trkpt>
      <trkpt lat="43.04149" lon="-0.63616">
        <ele>680.35</ele>
        <time>2024-04-28T10:49:02.864Z</time>
      </trkpt>
      <trkpt lat="43.04135" lon="-0.63577">
        <ele>680.38</ele>
        <time>2024-04-28T10:49:07.329Z</time>
      </trkpt>
      <trkpt lat="43.04111" lon="-0.63551">
        <ele>680.16</ele>
        <time>2024-04-28T10:49:11.798Z</time>
      </trkpt>
      <trkpt lat="43.04103" lon="-0.63531">
        <ele>679.97</ele>
        <time>2024-04-28T10:49:16.268Z</time>
      </trkpt>
      <trkpt lat="43.04097" lon="-0.63503">
        <ele>679.75</ele>
        <time>2024-04-28T10:49:20.741Z</time>
      </trkpt>
      <trkpt lat="43.04091" lon="-0.63477">
        <ele>679.36</ele>
        <time>2024-04-28T10:49:25.216Z</time>
      </trkpt>
      <trkpt lat="43.0409" lon="-0.63456">
        <ele>678.97</ele>
        <time>2024-04-28T10:49:29.693Z</time>
      </trkpt>
      <trkpt lat="43.04101" lon="-0.63384">
        <ele>678.58</ele>
        <time>2024-04-28T10:49:34.176Z</time>
      </trkpt>
      <trkpt lat="43.04109" lon="-0.63318">
        <ele>678.64</ele>
        <time>2024-04-28T10:49:38.664Z</time>
      </trkpt>
      <trkpt lat="43.04119" lon="-0.63264">
        <ele>678.3</ele>
        <time>2024-04-28T10:49:43.157Z</time>
      </trkpt>
      <trkpt lat="43.04123" lon="-0.63256">
        <ele>678</ele>
        <time>2024-04-28T10:49:47.651Z</time>
      </trkpt>
      <trkpt lat="43.0413" lon="-0.63245">
        <ele>677.67</ele>
        <time>2024-04-28T10:49:52.146Z</time>
      </trkpt>
      <trkpt lat="43.04141" lon="-0.63236">
        <ele>677.38</ele>
        <time>2024-04-28T10:49:56.642Z</time>
      </trkpt>
      <trkpt lat="43.04147" lon="-0.63233">
        <ele>677.07</ele>
        <time>2024-04-28T10:50:01.139Z</time>
      </trkpt>
      <trkpt lat="43.04154" lon="-0.63224">
        <ele>676.74</ele>
        <time>2024-04-28T10:50:05.637Z</time>
      </trkpt>
      <trkpt lat="43.04157" lon="-0.63214">
        <ele>676.44</ele>
        <time>2024-04-28T10:50:10.136Z</time>
      </trkpt>
      <trkpt lat="43.04158" lon="-0.63197">
        <ele>676.09</ele>
        <time>2024-04-28T10:50:14.636Z</time>
      </trkpt>
      <trkpt lat="43.04156" lon="-0.63189">
        <ele>675.75</ele>
        <time>2024-04-28T10:50:19.137Z</time>
      </trkpt>
      <trkpt lat="43.04124" lon="-0.63102">
        <ele>675.46</ele>
        <time>2024-04-28T10:50:23.646Z</time>
      </trkpt>
      <trkpt lat="43.04101" lon="-0.63035">
        <ele>674.67</ele>
        <time>2024-04-28T10:50:28.161Z</time>
      </trkpt>
      <trkpt lat="43.041" lon="-0.63019">
        <ele>674.39</ele>
        <time>2024-04-28T10:50:32.677Z</time>
      </trkpt>
      <trkpt lat="43.04101" lon="-0.63011">
        <ele>674.19</ele>
        <time>2024-04-28T10:50:37.194Z</time>
      </trkpt>
      <trkpt lat="43.0412" lon="-0.62953">
        <ele>674.41</ele>
        <time>2024-04-28T10:50:41.716Z</time>
      </trkpt>
      <trkpt lat="43.04123" lon="-0.62933">
        <ele>674.35</ele>
        <time>2024-04-28T10:50:46.240Z</time>
      </trkpt>
      <trkpt lat="43.0412" lon="-0.62919">
        <ele>674.19</ele>
        <time>2024-04-28T10:50:50.765Z</time>
      </trkpt>
      <trkpt lat="43.04111" lon="-0.62909">
        <ele>674</ele>
        <time>2024-04-28T10:50:55.291Z</time>
      </trkpt>
      <trkpt lat="43.04098" lon="-0.62908">
        <ele>673.72</ele>
        <time>2024-04-28T10:50:59.819Z</time>
      </trkpt>
      <trkpt lat="43.04063" lon="-0.62919">
        <ele>673.35</ele>
        <time>2024-04-28T10:51:04.351Z</time>
      </trkpt>
      <trkpt lat="43.04052" lon="-0.62919">
        <ele>673.38</ele>
        <time>2024-04-28T10:51:08.884Z</time>
      </trkpt>
      <trkpt lat="43.04028" lon="-0.62898">
        <ele>673.65</ele>
        <time>2024-04-28T10:51:13.420Z</time>
      </trkpt>
      <trkpt lat="43.04" lon="-0.62864">
        <ele>674.03</ele>
        <time>2024-04-28T10:51:17.960Z</time>
      </trkpt>
      <trkpt lat="43.03989" lon="-0.62845">
        <ele>674.48</ele>
        <time>2024-04-28T10:51:22.502Z</time>
      </trkpt>
      <trkpt lat="43.03984" lon="-0.62833">
        <ele>674.9</ele>
        <time>2024-04-28T10:51:27.045Z</time>
      </trkpt>
      <trkpt lat="43.03979" lon="-0.62824">
        <ele>675.26</ele>
        <time>2024-04-28T10:51:31.589Z</time>
      </trkpt>
      <trkpt lat="43.03966" lon="-0.62808">
        <ele>675.61</ele>
        <time>2024-04-28T10:51:36.135Z</time>
      </trkpt>
      <trkpt lat="43.03942" lon="-0.6278">
        <ele>675.93</ele>
        <time>2024-04-28T10:51:40.685Z</time>
      </trkpt>
      <trkpt lat="43.0393" lon="-0.62753">
        <ele>676.69</ele>
        <time>2024-04-28T10:51:45.237Z</time>
      </trkpt>
      <trkpt lat="43.03907" lon="-0.62716">
        <ele>677.2</ele>
        <time>2024-04-28T10:51:49.793Z</time>
      </trkpt>
      <trkpt lat="43.03845" lon="-0.62624">
        <ele>677.92</ele>
        <time>2024-04-28T10:51:54.359Z</time>
      </trkpt>
      <trkpt lat="43.03838" lon="-0.62604">
        <ele>678.81</ele>
        <time>2024-04-28T10:51:58.927Z</time>
      </trkpt>
      <trkpt lat="43.03838" lon="-0.62583">
        <ele>679.78</ele>
        <time>2024-04-28T10:52:03.497Z</time>
      </trkpt>
      <trkpt lat="43.03849" lon="-0.6254">
        <ele>680.85</ele>
        <time>2024-04-28T10:52:08.071Z</time>
      </trkpt>
      <trkpt lat="43.0385" lon="-0.62526">
        <ele>681.89</ele>
        <time>2024-04-28T10:52:12.646Z</time>
      </trkpt>
      <trkpt lat="43.03849" lon="-0.62504">
        <ele>682.99</ele>
        <time>2024-04-28T10:52:17.223Z</time>
      </trkpt>
      <trkpt lat="43.03847" lon="-0.62455">
        <ele>684.11</ele>
        <time>2024-04-28T10:52:21.804Z</time>
      </trkpt>
      <trkpt lat="43.03849" lon="-0.62406">
        <ele>685.23</ele>
        <time>2024-04-28T10:52:26.389Z</time>
      </trkpt>
      <trkpt lat="43.03855" lon="-0.62337">
        <ele>686.39</ele>
        <time>2024-04-28T10:52:30.979Z</time>
      </trkpt>
      <trkpt lat="43.03861" lon="-0.62294">
        <ele>687.04</ele>
        <time>2024-04-28T10:52:35.573Z</time>
      </trkpt>
      <trkpt lat="43.0387" lon="-0.62265">
        <ele>687.46</ele>
        <time>2024-04-28T10:52:40.169Z</time>
      </trkpt>
      <trkpt lat="43.03879" lon="-0.62244">
        <ele>687.65</ele>
        <time>2024-04-28T10:52:44.767Z</time>
      </trkpt>
      <trkpt lat="43.03887" lon="-0.62235">
        <ele>687.68</ele>
        <time>2024-04-28T10:52:49.366Z</time>
      </trkpt>
      <trkpt lat="43.03894" lon="-0.62231">
        <ele>687.59</ele>
        <time>2024-04-28T10:52:53.966Z</time>
      </trkpt>
      <trkpt lat="43.03899" lon="-0.6223">
        <ele>687.34</ele>
        <time>2024-04-28T10:52:58.567Z</time>
      </trkpt>
      <trkpt lat="43.03924" lon="-0.62226">
        <ele>686.84</ele>
        <time>2024-04-28T10:53:03.171Z</time>
      </trkpt>
      <trkpt lat="43.03947" lon="-0.62216">
        <ele>686.26</ele>
        <time>2024-04-28T10:53:07.777Z</time>
      </trkpt>
      <trkpt lat="43.03963" lon="-0.62206">
        <ele>685.45</ele>
        <time>2024-04-28T10:53:12.385Z</time>
      </trkpt>
      <trkpt lat="43.03977" lon="-0.6219">
        <ele>684.38</ele>
        <time>2024-04-28T10:53:16.995Z</time>
      </trkpt>
      <trkpt lat="43.03981" lon="-0.62172">
        <ele>682.76</ele>
        <time>2024-04-28T10:53:21.607Z</time>
      </trkpt>
      <trkpt lat="43.03979" lon="-0.6215">
        <ele>680.73</ele>
        <time>2024-04-28T10:53:26.221Z</time>
      </trkpt>
      <trkpt lat="43.03968" lon="-0.62121">
        <ele>678.34</ele>
        <time>2024-04-28T10:53:30.837Z</time>
      </trkpt>
      <trkpt lat="43.0395" lon="-0.62079">
        <ele>675.67</ele>
        <time>2024-04-28T10:53:35.457Z</time>
      </trkpt>
      <trkpt lat="43.03922" lon="-0.62016">
        <ele>672.31</ele>
        <time>2024-04-28T10:53:40.083Z</time>
      </trkpt>
      <trkpt lat="43.03913" lon="-0.61994">
        <ele>669.19</ele>
        <time>2024-04-28T10:53:44.711Z</time>
      </trkpt>
      <trkpt lat="43.03906" lon="-0.61972">
        <ele>666.05</ele>
        <time>2024-04-28T10:53:49.341Z</time>
      </trkpt>
      <trkpt lat="43.03902" lon="-0.6194">
        <ele>662.76</ele>
        <time>2024-04-28T10:53:53.974Z</time>
      </trkpt>
      <trkpt lat="43.03904" lon="-0.61888">
        <ele>659.01</ele>
        <time>2024-04-28T10:53:58.611Z</time>
      </trkpt>
      <trkpt lat="43.03912" lon="-0.61845">
        <ele>655.4</ele>
        <time>2024-04-28T10:54:03.252Z</time>
      </trkpt>
      <trkpt lat="43.03925" lon="-0.61796">
        <ele>651.64</ele>
        <time>2024-04-28T10:54:07.897Z</time>
      </trkpt>
      <trkpt lat="43.03935" lon="-0.61748">
        <ele>647.86</ele>
        <time>2024-04-28T10:54:12.546Z</time>
      </trkpt>
      <trkpt lat="43.0396" lon="-0.61667">
        <ele>644.07</ele>
        <time>2024-04-28T10:54:17.202Z</time>
      </trkpt>
      <trkpt lat="43.03964" lon="-0.61642">
        <ele>640.42</ele>
        <time>2024-04-28T10:54:21.860Z</time>
      </trkpt>
      <trkpt lat="43.03967" lon="-0.61588">
        <ele>636.31</ele>
        <time>2024-04-28T10:54:26.523Z</time>
      </trkpt>
      <trkpt lat="43.0397" lon="-0.61569">
        <ele>632.57</ele>
        <time>2024-04-28T10:54:31.187Z</time>
      </trkpt>
      <trkpt lat="43.03973" lon="-0.61556">
        <ele>629.04</ele>
        <time>2024-04-28T10:54:35.852Z</time>
      </trkpt>
      <trkpt lat="43.03978" lon="-0.6155">
        <ele>625.72</ele>
        <time>2024-04-28T10:54:40.518Z</time>
      </trkpt>
      <trkpt lat="43.03995" lon="-0.61537">
        <ele>622.54</ele>
        <time>2024-04-28T10:54:45.186Z</time>
      </trkpt>
      <trkpt lat="43.04034" lon="-0.61508">
        <ele>619.12</ele>
        <time>2024-04-28T10:54:49.859Z</time>
      </trkpt>
      <trkpt lat="43.04056" lon="-0.61497">
        <ele>615.73</ele>
        <time>2024-04-28T10:54:54.535Z</time>
      </trkpt>
      <trkpt lat="43.04089" lon="-0.61493">
        <ele>612.62</ele>
        <time>2024-04-28T10:54:59.215Z</time>
      </trkpt>
      <trkpt lat="43.041" lon="-0.61492">
        <ele>609.72</ele>
        <time>2024-04-28T10:55:03.896Z</time>
      </trkpt>
      <trkpt lat="43.04112" lon="-0.61494">
        <ele>607.04</ele>
        <time>2024-04-28T10:55:08.578Z</time>
      </trkpt>
      <trkpt lat="43.0413" lon="-0.61494">
        <ele>604.44</ele>
        <time>2024-04-28T10:55:13.262Z</time>
      </trkpt>
      <trkpt lat="43.04133" lon="-0.61493">
        <ele>601.72</ele>
        <time>2024-04-28T10:55:17.946Z</time>
      </trkpt>
      <trkpt lat="43.0414" lon="-0.61485">
        <ele>599.03</ele>
        <time>2024-04-28T10:55:22.631Z</time>
      </trkpt>
      <trkpt lat="43.04142" lon="-0.61466">
        <ele>596.11</ele>
        <time>2024-04-28T10:55:27.318Z</time>
      </trkpt>
      <trkpt lat="43.04139" lon="-0.61401">
        <ele>592.7</ele>
        <time>2024-04-28T10:55:32.010Z</time>
      </trkpt>
      <trkpt lat="43.04143" lon="-0.61344">
        <ele>589.55</ele>
        <time>2024-04-28T10:55:36.707Z</time>
      </trkpt>
      <trkpt lat="43.04151" lon="-0.61291">
        <ele>586.53</ele>
        <time>2024-04-28T10:55:41.408Z</time>
      </trkpt>
      <trkpt lat="43.04152" lon="-0.61255">
        <ele>583.6</ele>
        <time>2024-04-28T10:55:46.112Z</time>
      </trkpt>
      <trkpt lat="43.04148" lon="-0.61182">
        <ele>580.31</ele>
        <time>2024-04-28T10:55:50.822Z</time>
      </trkpt>
      <trkpt lat="43.04148" lon="-0.61157">
        <ele>577.53</ele>
        <time>2024-04-28T10:55:55.534Z</time>
      </trkpt>
      <trkpt lat="43.0415" lon="-0.61142">
        <ele>574.95</ele>
        <time>2024-04-28T10:56:00.248Z</time>
      </trkpt>
      <trkpt lat="43.04154" lon="-0.61123">
        <ele>572.42</ele>
        <time>2024-04-28T10:56:04.963Z</time>
      </trkpt>
      <trkpt lat="43.0417" lon="-0.61081">
        <ele>570.02</ele>
        <time>2024-04-28T10:56:09.682Z</time>
      </trkpt>
      <trkpt lat="43.04181" lon="-0.61051">
        <ele>567.58</ele>
        <time>2024-04-28T10:56:14.404Z</time>
      </trkpt>
      <trkpt lat="43.04183" lon="-0.61033">
        <ele>565.13</ele>
        <time>2024-04-28T10:56:19.127Z</time>
      </trkpt>
      <trkpt lat="43.0418" lon="-0.61013">
        <ele>562.73</ele>
        <time>2024-04-28T10:56:23.852Z</time>
      </trkpt>
      <trkpt lat="43.04178" lon="-0.60995">
        <ele>560.46</ele>
        <time>2024-04-28T10:56:28.578Z</time>
      </trkpt>
      <trkpt lat="43.04179" lon="-0.60982">
        <ele>558.31</ele>
        <time>2024-04-28T10:56:33.306Z</time>
      </trkpt>
      <trkpt lat="43.0418" lon="-0.60972">
        <ele>556.26</ele>
        <time>2024-04-28T10:56:38.034Z</time>
      </trkpt>
      <trkpt lat="43.04183" lon="-0.60964">
        <ele>554.27</ele>
        <time>2024-04-28T10:56:42.763Z</time>
      </trkpt>
      <trkpt lat="43.04214" lon="-0.60923">
        <ele>552.11</ele>
        <time>2024-04-28T10:56:47.497Z</time>
      </trkpt>
      <trkpt lat="43.04228" lon="-0.60901">
        <ele>550.2</ele>
        <time>2024-04-28T10:56:52.233Z</time>
      </trkpt>
      <trkpt lat="43.04236" lon="-0.60883">
        <ele>548.33</ele>
        <time>2024-04-28T10:56:56.971Z</time>
      </trkpt>
      <trkpt lat="43.04241" lon="-0.60846">
        <ele>546.4</ele>
        <time>2024-04-28T10:57:01.712Z</time>
      </trkpt>
      <trkpt lat="43.04241" lon="-0.60801">
        <ele>544.5</ele>
        <time>2024-04-28T10:57:06.457Z</time>
      </trkpt>
      <trkpt lat="43.04236" lon="-0.60782">
        <ele>542.69</ele>
        <time>2024-04-28T10:57:11.203Z</time>
      </trkpt>
      <trkpt lat="43.04226" lon="-0.6077">
        <ele>540.97</ele>
        <time>2024-04-28T10:57:15.951Z</time>
      </trkpt>
      <trkpt lat="43.04217" lon="-0.60761">
        <ele>539.37</ele>
        <time>2024-04-28T10:57:20.700Z</time>
      </trkpt>
      <trkpt lat="43.042" lon="-0.60762">
        <ele>537.96</ele>
        <time>2024-04-28T10:57:25.451Z</time>
      </trkpt>
      <trkpt lat="43.04178" lon="-0.60765">
        <ele>536.5</ele>
        <time>2024-04-28T10:57:30.204Z</time>
      </trkpt>
      <trkpt lat="43.04113" lon="-0.60773">
        <ele>534.76</ele>
        <time>2024-04-28T10:57:34.965Z</time>
      </trkpt>
      <trkpt lat="43.04102" lon="-0.60779">
        <ele>533.33</ele>
        <time>2024-04-28T10:57:39.727Z</time>
      </trkpt>
      <trkpt lat="43.04094" lon="-0.60786">
        <ele>531.91</ele>
        <time>2024-04-28T10:57:44.490Z</time>
      </trkpt>
      <trkpt lat="43.04089" lon="-0.6079">
        <ele>530.43</ele>
        <time>2024-04-28T10:57:49.254Z</time>
      </trkpt>
      <trkpt lat="43.04077" lon="-0.60791">
        <ele>528.8</ele>
        <time>2024-04-28T10:57:54.019Z</time>
      </trkpt>
      <trkpt lat="43.04048" lon="-0.60781">
        <ele>526.87</ele>
        <time>2024-04-28T10:57:58.787Z</time>
      </trkpt>
      <trkpt lat="43.04013" lon="-0.60773">
        <ele>524.92</ele>
        <time>2024-04-28T10:58:03.559Z</time>
      </trkpt>
      <trkpt lat="43.04" lon="-0.60775">
        <ele>523.32</ele>
        <time>2024-04-28T10:58:08.333Z</time>
      </trkpt>
      <trkpt lat="43.03994" lon="-0.60777">
        <ele>521.84</ele>
        <time>2024-04-28T10:58:13.107Z</time>
      </trkpt>
      <trkpt lat="43.03965" lon="-0.60803">
        <ele>520.46</ele>
        <time>2024-04-28T10:58:17.885Z</time>
      </trkpt>
      <trkpt lat="43.03949" lon="-0.6082">
        <ele>518.89</ele>
        <time>2024-04-28T10:58:22.666Z</time>
      </trkpt>
      <trkpt lat="43.03942" lon="-0.60841">
        <ele>517.38</ele>
        <time>2024-04-28T10:58:27.448Z</time>
      </trkpt>
      <trkpt lat="43.03942" lon="-0.60854">
        <ele>515.84</ele>
        <time>2024-04-28T10:58:32.231Z</time>
      </trkpt>
      <trkpt lat="43.03948" lon="-0.60885">
        <ele>514.21</ele>
        <time>2024-04-28T10:58:37.017Z</time>
      </trkpt>
      <trkpt lat="43.03961" lon="-0.60913">
        <ele>512.95</ele>
        <time>2024-04-28T10:58:41.806Z</time>
      </trkpt>
      <trkpt lat="43.03973" lon="-0.6094">
        <ele>511.73</ele>
        <time>2024-04-28T10:58:46.597Z</time>
      </trkpt>
      <trkpt lat="43.03979" lon="-0.60964">
        <ele>510.17</ele>
        <time>2024-04-28T10:58:51.390Z</time>
      </trkpt>
      <trkpt lat="43.03986" lon="-0.60987">
        <ele>508.58</ele>
        <time>2024-04-28T10:58:56.185Z</time>
      </trkpt>
      <trkpt lat="43.03996" lon="-0.61025">
        <ele>507.01</ele>
        <time>2024-04-28T10:59:00.984Z</time>
      </trkpt>
      <trkpt lat="43.03995" lon="-0.61037">
        <ele>505.48</ele>
        <time>2024-04-28T10:59:05.784Z</time>
      </trkpt>
      <trkpt lat="43.03991" lon="-0.61045">
        <ele>503.89</ele>
        <time>2024-04-28T10:59:10.585Z</time>
      </trkpt>
      <trkpt lat="43.03983" lon="-0.61047">
        <ele>502.21</ele>
        <time>2024-04-28T10:59:15.386Z</time>
      </trkpt>
      <trkpt lat="43.03969" lon="-0.61045">
        <ele>500.46</ele>
        <time>2024-04-28T10:59:20.189Z</time>
      </trkpt>
      <trkpt lat="43.0396" lon="-0.61041">
        <ele>498.7</ele>
        <time>2024-04-28T10:59:24.993Z</time>
      </trkpt>
      <trkpt lat="43.03951" lon="-0.61031">
        <ele>497.02</ele>
        <time>2024-04-28T10:59:29.798Z</time>
      </trkpt>
      <trkpt lat="43.03929" lon="-0.60992">
        <ele>495.25</ele>
        <time>2024-04-28T10:59:34.607Z</time>
      </trkpt>
      <trkpt lat="43.03925" lon="-0.60985">
        <ele>493.6</ele>
        <time>2024-04-28T10:59:39.417Z</time>
      </trkpt>
      <trkpt lat="43.03916" lon="-0.60976">
        <ele>491.81</ele>
        <time>2024-04-28T10:59:44.228Z</time>
      </trkpt>
      <trkpt lat="43.039" lon="-0.60963">
        <ele>489.93</ele>
        <time>2024-04-28T10:59:49.041Z</time>
      </trkpt>
      <trkpt lat="43.03883" lon="-0.60954">
        <ele>487.96</ele>
        <time>2024-04-28T10:59:53.856Z</time>
      </trkpt>
      <trkpt lat="43.03874" lon="-0.60951">
        <ele>486.08</ele>
        <time>2024-04-28T10:59:58.672Z</time>
      </trkpt>
      <trkpt lat="43.03851" lon="-0.60946">
        <ele>484.01</ele>
        <time>2024-04-28T11:00:03.491Z</time>
      </trkpt>
      <trkpt lat="43.03846" lon="-0.60948">
        <ele>482.24</ele>
        <time>2024-04-28T11:00:08.311Z</time>
      </trkpt>
      <trkpt lat="43.03839" lon="-0.60961">
        <ele>480.44</ele>
        <time>2024-04-28T11:00:13.132Z</time>
      </trkpt>
      <trkpt lat="43.03835" lon="-0.61006">
        <ele>478.9</ele>
        <time>2024-04-28T11:00:17.957Z</time>
      </trkpt>
      <trkpt lat="43.0383" lon="-0.61045">
        <ele>477.1</ele>
        <time>2024-04-28T11:00:22.785Z</time>
      </trkpt>
      <trkpt lat="43.03819" lon="-0.61085">
        <ele>475.13</ele>
        <time>2024-04-28T11:00:27.616Z</time>
      </trkpt>
      <trkpt lat="43.03809" lon="-0.61107">
        <ele>472.94</ele>
        <time>2024-04-28T11:00:32.449Z</time>
      </trkpt>
      <trkpt lat="43.03798" lon="-0.61117">
        <ele>470.53</ele>
        <time>2024-04-28T11:00:37.284Z</time>
      </trkpt>
      <trkpt lat="43.03792" lon="-0.61125">
        <ele>468.22</ele>
        <time>2024-04-28T11:00:42.120Z</time>
      </trkpt>
      <trkpt lat="43.03785" lon="-0.61141">
        <ele>465.81</ele>
        <time>2024-04-28T11:00:46.957Z</time>
      </trkpt>
      <trkpt lat="43.0378" lon="-0.61162">
        <ele>463.5</ele>
        <time>2024-04-28T11:00:51.796Z</time>
      </trkpt>
      <trkpt lat="43.03769" lon="-0.61223">
        <ele>461.44</ele>
        <time>2024-04-28T11:00:56.640Z</time>
      </trkpt>
      <trkpt lat="43.0376" lon="-0.61259">
        <ele>458.71</ele>
        <time>2024-04-28T11:01:01.487Z</time>
      </trkpt>
      <trkpt lat="43.0375" lon="-0.6128">
        <ele>456.01</ele>
        <time>2024-04-28T11:01:06.336Z</time>
      </trkpt>
      <trkpt lat="43.03743" lon="-0.61302">
        <ele>453.51</ele>
        <time>2024-04-28T11:01:11.187Z</time>
      </trkpt>
      <trkpt lat="43.03732" lon="-0.61359">
        <ele>451.03</ele>
        <time>2024-04-28T11:01:16.043Z</time>
      </trkpt>
      <trkpt lat="43.03717" lon="-0.6142">
        <ele>448.19</ele>
        <time>2024-04-28T11:01:20.904Z</time>
      </trkpt>
      <trkpt lat="43.03701" lon="-0.61475">
        <ele>445.85</ele>
        <time>2024-04-28T11:01:25.770Z</time>
      </trkpt>
      <trkpt lat="43.03685" lon="-0.61519">
        <ele>443.85</ele>
        <time>2024-04-28T11:01:30.640Z</time>
      </trkpt>
      <trkpt lat="43.03674" lon="-0.61555">
        <ele>442.16</ele>
        <time>2024-04-28T11:01:35.513Z</time>
      </trkpt>
      <trkpt lat="43.03665" lon="-0.61576">
        <ele>440.2</ele>
        <time>2024-04-28T11:01:40.388Z</time>
      </trkpt>
      <trkpt lat="43.03655" lon="-0.61596">
        <ele>438.23</ele>
        <time>2024-04-28T11:01:45.265Z</time>
      </trkpt>
      <trkpt lat="43.03649" lon="-0.616">
        <ele>436.35</ele>
        <time>2024-04-28T11:01:50.143Z</time>
      </trkpt>
      <trkpt lat="43.03643" lon="-0.616">
        <ele>434.48</ele>
        <time>2024-04-28T11:01:55.022Z</time>
      </trkpt>
      <trkpt lat="43.03639" lon="-0.61596">
        <ele>432.69</ele>
        <time>2024-04-28T11:01:59.901Z</time>
      </trkpt>
      <trkpt lat="43.03633" lon="-0.61582">
        <ele>430.91</ele>
        <time>2024-04-28T11:02:04.782Z</time>
      </trkpt>
      <trkpt lat="43.03629" lon="-0.61541">
        <ele>429.02</ele>
        <time>2024-04-28T11:02:09.666Z</time>
      </trkpt>
      <trkpt lat="43.03629" lon="-0.61492">
        <ele>427.17</ele>
        <time>2024-04-28T11:02:14.554Z</time>
      </trkpt>
      <trkpt lat="43.03631" lon="-0.61467">
        <ele>425.6</ele>
        <time>2024-04-28T11:02:19.444Z</time>
      </trkpt>
      <trkpt lat="43.03634" lon="-0.61447">
        <ele>424.35</ele>
        <time>2024-04-28T11:02:24.336Z</time>
      </trkpt>
      <trkpt lat="43.03636" lon="-0.61438">
        <ele>423.07</ele>
        <time>2024-04-28T11:02:29.228Z</time>
      </trkpt>
      <trkpt lat="43.03651" lon="-0.61414">
        <ele>421.66</ele>
        <time>2024-04-28T11:02:34.123Z</time>
      </trkpt>
      <trkpt lat="43.03668" lon="-0.61396">
        <ele>420.73</ele>
        <time>2024-04-28T11:02:39.020Z</time>
      </trkpt>
      <trkpt lat="43.03672" lon="-0.61391">
        <ele>419.68</ele>
        <time>2024-04-28T11:02:43.918Z</time>
      </trkpt>
      <trkpt lat="43.03676" lon="-0.61376">
        <ele>418.53</ele>
        <time>2024-04-28T11:02:48.817Z</time>
      </trkpt>
      <trkpt lat="43.03677" lon="-0.61338">
        <ele>417.17</ele>
        <time>2024-04-28T11:02:53.719Z</time>
      </trkpt>
      <trkpt lat="43.03671" lon="-0.61316">
        <ele>415.7</ele>
        <time>2024-04-28T11:02:58.623Z</time>
      </trkpt>
      <trkpt lat="43.0366" lon="-0.61296">
        <ele>414.12</ele>
        <time>2024-04-28T11:03:03.529Z</time>
      </trkpt>
      <trkpt lat="43.03656" lon="-0.61281">
        <ele>412.57</ele>
        <time>2024-04-28T11:03:08.437Z</time>
      </trkpt>
      <trkpt lat="43.03654" lon="-0.61272">
        <ele>410.98</ele>
        <time>2024-04-28T11:03:13.345Z</time>
      </trkpt>
      <trkpt lat="43.03656" lon="-0.6126">
        <ele>409.33</ele>
        <time>2024-04-28T11:03:18.254Z</time>
      </trkpt>
      <trkpt lat="43.03664" lon="-0.61232">
        <ele>407.54</ele>
        <time>2024-04-28T11:03:23.166Z</time>
      </trkpt>
      <trkpt lat="43.03666" lon="-0.61206">
        <ele>405.75</ele>
        <time>2024-04-28T11:03:28.080Z</time>
      </trkpt>
      <trkpt lat="43.03666" lon="-0.61155">
        <ele>403.9</ele>
        <time>2024-04-28T11:03:32.998Z</time>
      </trkpt>
      <trkpt lat="43.03662" lon="-0.61118">
        <ele>401.73</ele>
        <time>2024-04-28T11:03:37.919Z</time>
      </trkpt>
      <trkpt lat="43.03652" lon="-0.61074">
        <ele>400.23</ele>
        <time>2024-04-28T11:03:42.844Z</time>
      </trkpt>
      <trkpt lat="43.03644" lon="-0.61033">
        <ele>399.34</ele>
        <time>2024-04-28T11:03:47.772Z</time>
      </trkpt>
      <trkpt lat="43.03642" lon="-0.61024">
        <ele>398.17</ele>
        <time>2024-04-28T11:03:52.701Z</time>
      </trkpt>
      <trkpt lat="43.03642" lon="-0.61009">
        <ele>396.74</ele>
        <time>2024-04-28T11:03:57.631Z</time>
      </trkpt>
      <trkpt lat="43.03646" lon="-0.60987">
        <ele>393.2</ele>
        <time>2024-04-28T11:04:02.563Z</time>
      </trkpt>
      <trkpt lat="43.03647" lon="-0.60983">
        <ele>392.47</ele>
        <time>2024-04-28T11:04:07.496Z</time>
      </trkpt>
      <trkpt lat="43.03657" lon="-0.60938">
        <ele>391.49</ele>
        <time>2024-04-28T11:04:12.432Z</time>
      </trkpt>
      <trkpt lat="43.03665" lon="-0.60895">
        <ele>390.83</ele>
        <time>2024-04-28T11:04:17.372Z</time>
      </trkpt>
      <trkpt lat="43.03662" lon="-0.60852">
        <ele>390.06</ele>
        <time>2024-04-28T11:04:22.316Z</time>
      </trkpt>
      <trkpt lat="43.03655" lon="-0.60793">
        <ele>389.37</ele>
        <time>2024-04-28T11:04:27.264Z</time>
      </trkpt>
      <trkpt lat="43.03648" lon="-0.60733">
        <ele>388.01</ele>
        <time>2024-04-28T11:04:32.217Z</time>
      </trkpt>
      <trkpt lat="43.03642" lon="-0.60711">
        <ele>386.87</ele>
        <time>2024-04-28T11:04:37.172Z</time>
      </trkpt>
      <trkpt lat="43.03632" lon="-0.60702">
        <ele>385.87</ele>
        <time>2024-04-28T11:04:42.129Z</time>
      </trkpt>
      <trkpt lat="43.03618" lon="-0.60699">
        <ele>385.2</ele>
        <time>2024-04-28T11:04:47.087Z</time>
      </trkpt>
      <trkpt lat="43.03601" lon="-0.60706">
        <ele>385.1</ele>
        <time>2024-04-28T11:04:52.047Z</time>
      </trkpt>
      <trkpt lat="43.03596" lon="-0.60711">
        <ele>385.03</ele>
        <time>2024-04-28T11:04:57.008Z</time>
      </trkpt>
      <trkpt lat="43.03589" lon="-0.60713">
        <ele>384.95</ele>
        <time>2024-04-28T11:05:01.970Z</time>
      </trkpt>
      <trkpt lat="43.03585" lon="-0.60712">
        <ele>384.62</ele>
        <time>2024-04-28T11:05:06.932Z</time>
      </trkpt>
      <trkpt lat="43.0358" lon="-0.60708">
        <ele>384.06</ele>
        <time>2024-04-28T11:05:11.895Z</time>
      </trkpt>
      <trkpt lat="43.03578" lon="-0.60702">
        <ele>383.22</ele>
        <time>2024-04-28T11:05:16.858Z</time>
      </trkpt>
      <trkpt lat="43.03579" lon="-0.60686">
        <ele>381.92</ele>
        <time>2024-04-28T11:05:21.823Z</time>
      </trkpt>
      <trkpt lat="43.03584" lon="-0.6068">
        <ele>380.81</ele>
        <time>2024-04-28T11:05:26.788Z</time>
      </trkpt>
      <trkpt lat="43.03593" lon="-0.60677">
        <ele>379.74</ele>
        <time>2024-04-28T11:05:31.754Z</time>
      </trkpt>
      <trkpt lat="43.03624" lon="-0.60677">
        <ele>378.83</ele>
        <time>2024-04-28T11:05:36.724Z</time>
      </trkpt>
      <trkpt lat="43.03639" lon="-0.60676">
        <ele>378.22</ele>
        <time>2024-04-28T11:05:41.696Z</time>
      </trkpt>
      <trkpt lat="43.03649" lon="-0.60674">
        <ele>377.61</ele>
        <time>2024-04-28T11:05:46.669Z</time>
      </trkpt>
      <trkpt lat="43.03657" lon="-0.60664">
        <ele>376.86</ele>
        <time>2024-04-28T11:05:51.643Z</time>
      </trkpt>
      <trkpt lat="43.03653" lon="-0.60636">
        <ele>375.59</ele>
        <time>2024-04-28T11:05:56.619Z</time>
      </trkpt>
      <trkpt lat="43.0367" lon="-0.60632">
        <ele>375.57</ele>
        <time>2024-04-28T11:06:01.597Z</time>
      </trkpt>
      <trkpt lat="43.03709" lon="-0.60623">
        <ele>375.76</ele>
        <time>2024-04-28T11:06:06.579Z</time>
      </trkpt>
      <trkpt lat="43.03763" lon="-0.60609">
        <ele>376.08</ele>
        <time>2024-04-28T11:06:11.568Z</time>
      </trkpt>
      <trkpt lat="43.03798" lon="-0.60598">
        <ele>375.49</ele>
        <time>2024-04-28T11:06:16.561Z</time>
      </trkpt>
      <trkpt lat="43.03826" lon="-0.60585">
        <ele>374.57</ele>
        <time>2024-04-28T11:06:21.557Z</time>
      </trkpt>
      <trkpt lat="43.03847" lon="-0.60573">
        <ele>373.5</ele>
        <time>2024-04-28T11:06:26.555Z</time>
      </trkpt>
      <trkpt lat="43.03877" lon="-0.60552">
        <ele>372.05</ele>
        <time>2024-04-28T11:06:31.557Z</time>
      </trkpt>
      <trkpt lat="43.03915" lon="-0.60518">
        <ele>371.49</ele>
        <time>2024-04-28T11:06:36.564Z</time>
      </trkpt>
      <trkpt lat="43.03946" lon="-0.60488">
        <ele>370.41</ele>
        <time>2024-04-28T11:06:41.575Z</time>
      </trkpt>
      <trkpt lat="43.03962" lon="-0.60468">
        <ele>370.06</ele>
        <time>2024-04-28T11:06:46.589Z</time>
      </trkpt>
      <trkpt lat="43.03972" lon="-0.60451">
        <ele>373.48</ele>
        <time>2024-04-28T11:06:51.605Z</time>
      </trkpt>
      <trkpt lat="43.03974" lon="-0.60447">
        <ele>374.21</ele>
        <time>2024-04-28T11:06:56.621Z</time>
      </trkpt>
      <trkpt lat="43.03993" lon="-0.60407">
        <ele>374.92</ele>
        <time>2024-04-28T11:07:01.641Z</time>
      </trkpt>
      <trkpt lat="43.04003" lon="-0.60377">
        <ele>376.3</ele>
        <time>2024-04-28T11:07:06.664Z</time>
      </trkpt>
      <trkpt lat="43.0401" lon="-0.60347">
        <ele>377.83</ele>
        <time>2024-04-28T11:07:11.689Z</time>
      </trkpt>
      <trkpt lat="43.04018" lon="-0.60287">
        <ele>379.86</ele>
        <time>2024-04-28T11:07:16.719Z</time>
      </trkpt>
      <trkpt lat="43.04026" lon="-0.60249">
        <ele>380.76</ele>
        <time>2024-04-28T11:07:21.752Z</time>
      </trkpt>
      <trkpt lat="43.04032" lon="-0.6023">
        <ele>381.36</ele>
        <time>2024-04-28T11:07:26.787Z</time>
      </trkpt>
      <trkpt lat="43.04045" lon="-0.60201">
        <ele>381.9</ele>
        <time>2024-04-28T11:07:31.825Z</time>
      </trkpt>
      <trkpt lat="43.04059" lon="-0.60178">
        <ele>381.87</ele>
        <time>2024-04-28T11:07:36.865Z</time>
      </trkpt>
      <trkpt lat="43.04081" lon="-0.60152">
        <ele>380.94</ele>
        <time>2024-04-28T11:07:41.908Z</time>
      </trkpt>
      <trkpt lat="43.04104" lon="-0.60134">
        <ele>379.78</ele>
        <time>2024-04-28T11:07:46.954Z</time>
      </trkpt>
      <trkpt lat="43.04114" lon="-0.60129">
        <ele>379.04</ele>
        <time>2024-04-28T11:07:52.002Z</time>
      </trkpt>
      <trkpt lat="43.04134" lon="-0.60126">
        <ele>378.56</ele>
        <time>2024-04-28T11:07:57.052Z</time>
      </trkpt>
      <trkpt lat="43.04174" lon="-0.60131">
        <ele>379.05</ele>
        <time>2024-04-28T11:08:02.106Z</time>
      </trkpt>
      <trkpt lat="43.04189" lon="-0.60128">
        <ele>379.33</ele>
        <time>2024-04-28T11:08:07.162Z</time>
      </trkpt>
      <trkpt lat="43.042" lon="-0.60123">
        <ele>379.48</ele>
        <time>2024-04-28T11:08:12.219Z</time>
      </trkpt>
      <trkpt lat="43.04243" lon="-0.60086">
        <ele>379.29</ele>
        <time>2024-04-28T11:08:17.282Z</time>
      </trkpt>
      <trkpt lat="43.04264" lon="-0.60067">
        <ele>378.98</ele>
        <time>2024-04-28T11:08:22.348Z</time>
      </trkpt>
      <trkpt lat="43.04271" lon="-0.60063">
        <ele>378.46</ele>
        <time>2024-04-28T11:08:27.415Z</time>
      </trkpt>
      <trkpt lat="43.04292" lon="-0.60053">
        <ele>377.65</ele>
        <time>2024-04-28T11:08:32.484Z</time>
      </trkpt>
      <trkpt lat="43.04314" lon="-0.6005">
        <ele>376.81</ele>
        <time>2024-04-28T11:08:37.555Z</time>
      </trkpt>
      <trkpt lat="43.04398" lon="-0.60044">
        <ele>375.77</ele>
        <time>2024-04-28T11:08:42.636Z</time>
      </trkpt>
      <trkpt lat="43.04419" lon="-0.60044">
        <ele>374.27</ele>
        <time>2024-04-28T11:08:47.719Z</time>
      </trkpt>
      <trkpt lat="43.04434" lon="-0.60047">
        <ele>372.55</ele>
        <time>2024-04-28T11:08:52.804Z</time>
      </trkpt>
      <trkpt lat="43.04445" lon="-0.6005">
        <ele>370.96</ele>
        <time>2024-04-28T11:08:57.890Z</time>
      </trkpt>
      <trkpt lat="43.04463" lon="-0.60059">
        <ele>369.22</ele>
        <time>2024-04-28T11:09:02.978Z</time>
      </trkpt>
      <trkpt lat="43.04483" lon="-0.60073">
        <ele>367.47</ele>
        <time>2024-04-28T11:09:08.069Z</time>
      </trkpt>
      <trkpt lat="43.04522" lon="-0.60111">
        <ele>365.8</ele>
        <time>2024-04-28T11:09:13.165Z</time>
      </trkpt>
      <trkpt lat="43.04545" lon="-0.60131">
        <ele>364.52</ele>
        <time>2024-04-28T11:09:18.264Z</time>
      </trkpt>
      <trkpt lat="43.04554" lon="-0.60136">
        <ele>363</ele>
        <time>2024-04-28T11:09:23.364Z</time>
      </trkpt>
      <trkpt lat="43.04576" lon="-0.60143">
        <ele>361.59</ele>
        <time>2024-04-28T11:09:28.467Z</time>
      </trkpt>
      <trkpt lat="43.0459" lon="-0.60145">
        <ele>359.85</ele>
        <time>2024-04-28T11:09:33.571Z</time>
      </trkpt>
      <trkpt lat="43.04656" lon="-0.60143">
        <ele>357.05</ele>
        <time>2024-04-28T11:09:38.683Z</time>
      </trkpt>
      <trkpt lat="43.04823" lon="-0.60134">
        <ele>353.82</ele>
        <time>2024-04-28T11:09:43.813Z</time>
      </trkpt>
      <trkpt lat="43.04912" lon="-0.60128">
        <ele>351.67</ele>
        <time>2024-04-28T11:09:48.953Z</time>
      </trkpt>
      <trkpt lat="43.04951" lon="-0.60124">
        <ele>349.72</ele>
        <time>2024-04-28T11:09:54.097Z</time>
      </trkpt>
      <trkpt lat="43.04977" lon="-0.60124">
        <ele>347.97</ele>
        <time>2024-04-28T11:09:59.244Z</time>
      </trkpt>
      <trkpt lat="43.04997" lon="-0.60128">
        <ele>346.41</ele>
        <time>2024-04-28T11:10:04.393Z</time>
      </trkpt>
      <trkpt lat="43.05019" lon="-0.60134">
        <ele>345.05</ele>
        <time>2024-04-28T11:10:09.545Z</time>
      </trkpt>
      <trkpt lat="43.05023" lon="-0.60133">
        <ele>343.85</ele>
        <time>2024-04-28T11:10:14.697Z</time>
      </trkpt>
      <trkpt lat="43.0503" lon="-0.60134">
        <ele>342.84</ele>
        <time>2024-04-28T11:10:19.850Z</time>
      </trkpt>
      <trkpt lat="43.05036" lon="-0.60135">
        <ele>342.01</ele>
        <time>2024-04-28T11:10:25.004Z</time>
      </trkpt>
      <trkpt lat="43.05055" lon="-0.60134">
        <ele>341.27</ele>
        <time>2024-04-28T11:10:30.160Z</time>
      </trkpt>
      <trkpt lat="43.05072" lon="-0.60129">
        <ele>340.71</ele>
        <time>2024-04-28T11:10:35.318Z</time>
      </trkpt>
      <trkpt lat="43.05082" lon="-0.60125">
        <ele>340.43</ele>
        <time>2024-04-28T11:10:40.477Z</time>
      </trkpt>
      <trkpt lat="43.05097" lon="-0.60116">
        <ele>340.31</ele>
        <time>2024-04-28T11:10:45.638Z</time>
      </trkpt>
      <trkpt lat="43.05118" lon="-0.601">
        <ele>340.42</ele>
        <time>2024-04-28T11:10:50.802Z</time>
      </trkpt>
      <trkpt lat="43.05126" lon="-0.6009">
        <ele>340.65</ele>
        <time>2024-04-28T11:10:55.967Z</time>
      </trkpt>
      <trkpt lat="43.05137" lon="-0.60073">
        <ele>340.98</ele>
        <time>2024-04-28T11:11:01.134Z</time>
      </trkpt>
      <trkpt lat="43.05142" lon="-0.60061">
        <ele>341.44</ele>
        <time>2024-04-28T11:11:06.302Z</time>
      </trkpt>
      <trkpt lat="43.05153" lon="-0.60038">
        <ele>342</ele>
        <time>2024-04-28T11:11:11.472Z</time>
      </trkpt>
      <trkpt lat="43.05168" lon="-0.60005">
        <ele>342.7</ele>
        <time>2024-04-28T11:11:16.645Z</time>
      </trkpt>
      <trkpt lat="43.05172" lon="-0.60003">
        <ele>343.49</ele>
        <time>2024-04-28T11:11:21.819Z</time>
      </trkpt>
      <trkpt lat="43.05179" lon="-0.59989">
        <ele>344.34</ele>
        <time>2024-04-28T11:11:26.994Z</time>
      </trkpt>
      <trkpt lat="43.05195" lon="-0.59965">
        <ele>345.4</ele>
        <time>2024-04-28T11:11:32.172Z</time>
      </trkpt>
      <trkpt lat="43.05204" lon="-0.59954">
        <ele>346.45</ele>
        <time>2024-04-28T11:11:37.351Z</time>
      </trkpt>
      <trkpt lat="43.05222" lon="-0.59937">
        <ele>347.59</ele>
        <time>2024-04-28T11:11:42.532Z</time>
      </trkpt>
      <trkpt lat="43.05301" lon="-0.59881">
        <ele>349.01</ele>
        <time>2024-04-28T11:11:47.723Z</time>
      </trkpt>
      <trkpt lat="43.0538" lon="-0.5983">
        <ele>350.07</ele>
        <time>2024-04-28T11:11:52.924Z</time>
      </trkpt>
      <trkpt lat="43.05452" lon="-0.5978">
        <ele>350.42</ele>
        <time>2024-04-28T11:11:58.134Z</time>
      </trkpt>
      <trkpt lat="43.05469" lon="-0.5976">
        <ele>351.03</ele>
        <time>2024-04-28T11:12:03.346Z</time>
      </trkpt>
      <trkpt lat="43.05507" lon="-0.59697">
        <ele>351.89</ele>
        <time>2024-04-28T11:12:08.565Z</time>
      </trkpt>
      <trkpt lat="43.05518" lon="-0.59686">
        <ele>352.65</ele>
        <time>2024-04-28T11:12:13.786Z</time>
      </trkpt>
      <trkpt lat="43.05528" lon="-0.59681">
        <ele>353.25</ele>
        <time>2024-04-28T11:12:19.008Z</time>
      </trkpt>
      <trkpt lat="43.05553" lon="-0.59677">
        <ele>353.7</ele>
        <time>2024-04-28T11:12:24.233Z</time>
      </trkpt>
      <trkpt lat="43.05599" lon="-0.59675">
        <ele>353.86</ele>
        <time>2024-04-28T11:12:29.463Z</time>
      </trkpt>
      <trkpt lat="43.05634" lon="-0.5968">
        <ele>354.08</ele>
        <time>2024-04-28T11:12:34.697Z</time>
      </trkpt>
      <trkpt lat="43.05665" lon="-0.59686">
        <ele>354.14</ele>
        <time>2024-04-28T11:12:39.934Z</time>
      </trkpt>
      <trkpt lat="43.05695" lon="-0.59695">
        <ele>354.19</ele>
        <time>2024-04-28T11:12:45.175Z</time>
      </trkpt>
      <trkpt lat="43.05728" lon="-0.59706">
        <ele>354.13</ele>
        <time>2024-04-28T11:12:50.419Z</time>
      </trkpt>
      <trkpt lat="43.05767" lon="-0.59722">
        <ele>353.59</ele>
        <time>2024-04-28T11:12:55.668Z</time>
      </trkpt>
      <trkpt lat="43.05818" lon="-0.59746">
        <ele>353.74</ele>
        <time>2024-04-28T11:13:00.923Z</time>
      </trkpt>
      <trkpt lat="43.05907" lon="-0.59788">
        <ele>353.28</ele>
        <time>2024-04-28T11:13:06.188Z</time>
      </trkpt>
      <trkpt lat="43.06006" lon="-0.59832">
        <ele>352.22</ele>
        <time>2024-04-28T11:13:11.465Z</time>
      </trkpt>
      <trkpt lat="43.06107" lon="-0.59877">
        <ele>351.17</ele>
        <time>2024-04-28T11:13:16.754Z</time>
      </trkpt>
      <trkpt lat="43.0615" lon="-0.59894">
        <ele>350.46</ele>
        <time>2024-04-28T11:13:22.048Z</time>
      </trkpt>
      <trkpt lat="43.06185" lon="-0.59902">
        <ele>349.45</ele>
        <time>2024-04-28T11:13:27.346Z</time>
      </trkpt>
      <trkpt lat="43.06266" lon="-0.59909">
        <ele>348.22</ele>
        <time>2024-04-28T11:13:32.653Z</time>
      </trkpt>
      <trkpt lat="43.06293" lon="-0.59912">
        <ele>346.98</ele>
        <time>2024-04-28T11:13:37.963Z</time>
      </trkpt>
      <trkpt lat="43.06329" lon="-0.59919">
        <ele>345.77</ele>
        <time>2024-04-28T11:13:43.277Z</time>
      </trkpt>
      <trkpt lat="43.06349" lon="-0.59927">
        <ele>345.01</ele>
        <time>2024-04-28T11:13:48.593Z</time>
      </trkpt>
      <trkpt lat="43.06366" lon="-0.59937">
        <ele>344.73</ele>
        <time>2024-04-28T11:13:53.911Z</time>
      </trkpt>
      <trkpt lat="43.06381" lon="-0.59949">
        <ele>344.16</ele>
        <time>2024-04-28T11:13:59.231Z</time>
      </trkpt>
      <trkpt lat="43.06406" lon="-0.59977">
        <ele>343.46</ele>
        <time>2024-04-28T11:14:04.555Z</time>
      </trkpt>
      <trkpt lat="43.06423" lon="-0.60001">
        <ele>342.62</ele>
        <time>2024-04-28T11:14:09.881Z</time>
      </trkpt>
      <trkpt lat="43.06467" lon="-0.60064">
        <ele>341.94</ele>
        <time>2024-04-28T11:14:15.214Z</time>
      </trkpt>
      <trkpt lat="43.06503" lon="-0.60111">
        <ele>341.33</ele>
        <time>2024-04-28T11:14:20.553Z</time>
      </trkpt>
      <trkpt lat="43.06534" lon="-0.6014">
        <ele>340.94</ele>
        <time>2024-04-28T11:14:25.896Z</time>
      </trkpt>
      <trkpt lat="43.06592" lon="-0.60178">
        <ele>340.24</ele>
        <time>2024-04-28T11:14:31.246Z</time>
      </trkpt>
      <trkpt lat="43.06663" lon="-0.60222">
        <ele>338.51</ele>
        <time>2024-04-28T11:14:36.605Z</time>
      </trkpt>
      <trkpt lat="43.06736" lon="-0.60266">
        <ele>336.02</ele>
        <time>2024-04-28T11:14:41.973Z</time>
      </trkpt>
      <trkpt lat="43.06763" lon="-0.60284">
        <ele>334.93</ele>
        <time>2024-04-28T11:14:47.344Z</time>
      </trkpt>
      <trkpt lat="43.06783" lon="-0.60302">
        <ele>334.22</ele>
        <time>2024-04-28T11:14:52.718Z</time>
      </trkpt>
      <trkpt lat="43.06797" lon="-0.60318">
        <ele>333.39</ele>
        <time>2024-04-28T11:14:58.094Z</time>
      </trkpt>
      <trkpt lat="43.06817" lon="-0.60351">
        <ele>332.49</ele>
        <time>2024-04-28T11:15:03.473Z</time>
      </trkpt>
      <trkpt lat="43.0686" lon="-0.60439">
        <ele>331.71</ele>
        <time>2024-04-28T11:15:08.861Z</time>
      </trkpt>
      <trkpt lat="43.06898" lon="-0.60517">
        <ele>331.01</ele>
        <time>2024-04-28T11:15:14.257Z</time>
      </trkpt>
      <trkpt lat="43.06915" lon="-0.60547">
        <ele>330.25</ele>
        <time>2024-04-28T11:15:19.656Z</time>
      </trkpt>
      <trkpt lat="43.06924" lon="-0.60559">
        <ele>329.69</ele>
        <time>2024-04-28T11:15:25.056Z</time>
      </trkpt>
      <trkpt lat="43.06941" lon="-0.60575">
        <ele>329.26</ele>
        <time>2024-04-28T11:15:30.458Z</time>
      </trkpt>
      <trkpt lat="43.06961" lon="-0.60588">
        <ele>328.95</ele>
        <time>2024-04-28T11:15:35.863Z</time>
      </trkpt>
      <trkpt lat="43.06984" lon="-0.60595">
        <ele>328.64</ele>
        <time>2024-04-28T11:15:41.270Z</time>
      </trkpt>
      <trkpt lat="43.06998" lon="-0.60596">
        <ele>328.45</ele>
        <time>2024-04-28T11:15:46.679Z</time>
      </trkpt>
      <trkpt lat="43.07027" lon="-0.60591">
        <ele>328.43</ele>
        <time>2024-04-28T11:15:52.091Z</time>
      </trkpt>
      <trkpt lat="43.07049" lon="-0.60582">
        <ele>328.29</ele>
        <time>2024-04-28T11:15:57.506Z</time>
      </trkpt>
      <trkpt lat="43.07075" lon="-0.60576">
        <ele>327.89</ele>
        <time>2024-04-28T11:16:02.924Z</time>
      </trkpt>
      <trkpt lat="43.07088" lon="-0.60575">
        <ele>326.95</ele>
        <time>2024-04-28T11:16:08.343Z</time>
      </trkpt>
      <trkpt lat="43.07126" lon="-0.60578">
        <ele>326.11</ele>
        <time>2024-04-28T11:16:13.766Z</time>
      </trkpt>
      <trkpt lat="43.0714" lon="-0.60584">
        <ele>324.8</ele>
        <time>2024-04-28T11:16:19.191Z</time>
      </trkpt>
      <trkpt lat="43.07158" lon="-0.60595">
        <ele>324.02</ele>
        <time>2024-04-28T11:16:24.618Z</time>
      </trkpt>
      <trkpt lat="43.07173" lon="-0.60607">
        <ele>324.2</ele>
        <time>2024-04-28T11:16:30.047Z</time>
      </trkpt>
      <trkpt lat="43.07182" lon="-0.60616">
        <ele>324.28</ele>
        <time>2024-04-28T11:16:35.477Z</time>
      </trkpt>
      <trkpt lat="43.07185" lon="-0.60619">
        <ele>324.52</ele>
        <time>2024-04-28T11:16:40.908Z</time>
      </trkpt>
      <trkpt lat="43.0719" lon="-0.60624">
        <ele>324.92</ele>
        <time>2024-04-28T11:16:46.339Z</time>
      </trkpt>
      <trkpt lat="43.07191" lon="-0.60622">
        <ele>325.4</ele>
        <time>2024-04-28T11:16:51.771Z</time>
      </trkpt>
      <trkpt lat="43.07194" lon="-0.6062">
        <ele>326.11</ele>
        <time>2024-04-28T11:16:57.203Z</time>
      </trkpt>
      <trkpt lat="43.07197" lon="-0.6062">
        <ele>327.08</ele>
        <time>2024-04-28T11:17:02.635Z</time>
      </trkpt>
      <trkpt lat="43.07217" lon="-0.6062">
        <ele>328.32</ele>
        <time>2024-04-28T11:17:08.070Z</time>
      </trkpt>
      <trkpt lat="43.07279" lon="-0.60619">
        <ele>329.89</ele>
        <time>2024-04-28T11:17:13.511Z</time>
      </trkpt>
      <trkpt lat="43.07315" lon="-0.60617">
        <ele>331.34</ele>
        <time>2024-04-28T11:17:18.956Z</time>
      </trkpt>
      <trkpt lat="43.07326" lon="-0.60618">
        <ele>331.82</ele>
        <time>2024-04-28T11:17:24.403Z</time>
      </trkpt>
      <trkpt lat="43.0734" lon="-0.60622">
        <ele>331.85</ele>
        <time>2024-04-28T11:17:29.851Z</time>
      </trkpt>
      <trkpt lat="43.07361" lon="-0.60628">
        <ele>331.18</ele>
        <time>2024-04-28T11:17:35.302Z</time>
      </trkpt>
      <trkpt lat="43.07446" lon="-0.60675">
        <ele>329.92</ele>
        <time>2024-04-28T11:17:40.763Z</time>
      </trkpt>
      <trkpt lat="43.07479" lon="-0.6069">
        <ele>329.53</ele>
        <time>2024-04-28T11:17:46.228Z</time>
      </trkpt>
      <trkpt lat="43.07486" lon="-0.60691">
        <ele>329.28</ele>
        <time>2024-04-28T11:17:51.693Z</time>
      </trkpt>
      <trkpt lat="43.07489" lon="-0.60692">
        <ele>329.16</ele>
        <time>2024-04-28T11:17:57.159Z</time>
      </trkpt>
      <trkpt lat="43.07499" lon="-0.60691">
        <ele>329.38</ele>
        <time>2024-04-28T11:18:02.626Z</time>
      </trkpt>
      <trkpt lat="43.07514" lon="-0.60685">
        <ele>329.84</ele>
        <time>2024-04-28T11:18:08.095Z</time>
      </trkpt>
      <trkpt lat="43.0752" lon="-0.60676">
        <ele>330.35</ele>
        <time>2024-04-28T11:18:13.565Z</time>
      </trkpt>
      <trkpt lat="43.07528" lon="-0.60655">
        <ele>331.03</ele>
        <time>2024-04-28T11:18:19.037Z</time>
      </trkpt>
      <trkpt lat="43.07542" lon="-0.60596">
        <ele>332.16</ele>
        <time>2024-04-28T11:18:24.514Z</time>
      </trkpt>
      <trkpt lat="43.07548" lon="-0.60572">
        <ele>332.87</ele>
        <time>2024-04-28T11:18:29.993Z</time>
      </trkpt>
      <trkpt lat="43.07558" lon="-0.60555">
        <ele>333.19</ele>
        <time>2024-04-28T11:18:35.473Z</time>
      </trkpt>
      <trkpt lat="43.07578" lon="-0.60533">
        <ele>333.03</ele>
        <time>2024-04-28T11:18:40.956Z</time>
      </trkpt>
      <trkpt lat="43.07587" lon="-0.60526">
        <ele>333.02</ele>
        <time>2024-04-28T11:18:46.440Z</time>
      </trkpt>
      <trkpt lat="43.07595" lon="-0.60522">
        <ele>333.01</ele>
        <time>2024-04-28T11:18:51.925Z</time>
      </trkpt>
      <trkpt lat="43.07604" lon="-0.60525">
        <ele>332.92</ele>
        <time>2024-04-28T11:18:57.411Z</time>
      </trkpt>
      <trkpt lat="43.0762" lon="-0.60537">
        <ele>332.9</ele>
        <time>2024-04-28T11:19:02.899Z</time>
      </trkpt>
      <trkpt lat="43.07641" lon="-0.60558">
        <ele>333.25</ele>
        <time>2024-04-28T11:19:08.390Z</time>
      </trkpt>
      <trkpt lat="43.07653" lon="-0.60584">
        <ele>333.89</ele>
        <time>2024-04-28T11:19:13.884Z</time>
      </trkpt>
      <trkpt lat="43.07658" lon="-0.60599">
        <ele>334.48</ele>
        <time>2024-04-28T11:19:19.379Z</time>
      </trkpt>
      <trkpt lat="43.07678" lon="-0.60637">
        <ele>335.47</ele>
        <time>2024-04-28T11:19:24.878Z</time>
      </trkpt>
      <trkpt lat="43.07695" lon="-0.60675">
        <ele>336.15</ele>
        <time>2024-04-28T11:19:30.381Z</time>
      </trkpt>
      <trkpt lat="43.07717" lon="-0.60706">
        <ele>336.45</ele>
        <time>2024-04-28T11:19:35.887Z</time>
      </trkpt>
      <trkpt lat="43.07735" lon="-0.60723">
        <ele>336.55</ele>
        <time>2024-04-28T11:19:41.396Z</time>
      </trkpt>
      <trkpt lat="43.07756" lon="-0.60737">
        <ele>336.62</ele>
        <time>2024-04-28T11:19:46.907Z</time>
      </trkpt>
      <trkpt lat="43.07796" lon="-0.60775">
        <ele>336.08</ele>
        <time>2024-04-28T11:19:52.424Z</time>
      </trkpt>
      <trkpt lat="43.07828" lon="-0.60802">
        <ele>335.49</ele>
        <time>2024-04-28T11:19:57.945Z</time>
      </trkpt>
      <trkpt lat="43.07855" lon="-0.60822">
        <ele>334.96</ele>
        <time>2024-04-28T11:20:03.469Z</time>
      </trkpt>
      <trkpt lat="43.07888" lon="-0.60844">
        <ele>334.35</ele>
        <time>2024-04-28T11:20:08.997Z</time>
      </trkpt>
      <trkpt lat="43.07911" lon="-0.60856">
        <ele>333.9</ele>
        <time>2024-04-28T11:20:14.528Z</time>
      </trkpt>
      <trkpt lat="43.07927" lon="-0.60861">
        <ele>333.54</ele>
        <time>2024-04-28T11:20:20.061Z</time>
      </trkpt>
      <trkpt lat="43.0797" lon="-0.60873">
        <ele>333.24</ele>
        <time>2024-04-28T11:20:25.599Z</time>
      </trkpt>
      <trkpt lat="43.08022" lon="-0.60883">
        <ele>332.95</ele>
        <time>2024-04-28T11:20:31.143Z</time>
      </trkpt>
      <trkpt lat="43.08049" lon="-0.60881">
        <ele>332.75</ele>
        <time>2024-04-28T11:20:36.690Z</time>
      </trkpt>
      <trkpt lat="43.08086" lon="-0.60873">
        <ele>332.6</ele>
        <time>2024-04-28T11:20:42.241Z</time>
      </trkpt>
      <trkpt lat="43.08104" lon="-0.60869">
        <ele>332.55</ele>
        <time>2024-04-28T11:20:47.794Z</time>
      </trkpt>
      <trkpt lat="43.08114" lon="-0.60867">
        <ele>332.62</ele>
        <time>2024-04-28T11:20:53.348Z</time>
      </trkpt>
      <trkpt lat="43.08119" lon="-0.60863">
        <ele>332.88</ele>
        <time>2024-04-28T11:20:58.903Z</time>
      </trkpt>
      <trkpt lat="43.08123" lon="-0.60857">
        <ele>333.24</ele>
        <time>2024-04-28T11:21:04.458Z</time>
      </trkpt>
      <trkpt lat="43.0813" lon="-0.60853">
        <ele>333.69</ele>
        <time>2024-04-28T11:21:10.014Z</time>
      </trkpt>
      <trkpt lat="43.08144" lon="-0.60853">
        <ele>334.24</ele>
        <time>2024-04-28T11:21:15.572Z</time>
      </trkpt>
      <trkpt lat="43.08171" lon="-0.60864">
        <ele>334.9</ele>
        <time>2024-04-28T11:21:21.133Z</time>
      </trkpt>
      <trkpt lat="43.08195" lon="-0.60874">
        <ele>335.65</ele>
        <time>2024-04-28T11:21:26.696Z</time>
      </trkpt>
      <trkpt lat="43.08209" lon="-0.60875">
        <ele>336.53</ele>
        <time>2024-04-28T11:21:32.261Z</time>
      </trkpt>
      <trkpt lat="43.08224" lon="-0.60872">
        <ele>337.29</ele>
        <time>2024-04-28T11:21:37.828Z</time>
      </trkpt>
      <trkpt lat="43.08248" lon="-0.60858">
        <ele>338.04</ele>
        <time>2024-04-28T11:21:43.398Z</time>
      </trkpt>
      <trkpt lat="43.08274" lon="-0.60843">
        <ele>338.66</ele>
        <time>2024-04-28T11:21:48.971Z</time>
      </trkpt>
      <trkpt lat="43.0828" lon="-0.60843">
        <ele>339.1</ele>
        <time>2024-04-28T11:21:54.544Z</time>
      </trkpt>
      <trkpt lat="43.08288" lon="-0.60848">
        <ele>339.39</ele>
        <time>2024-04-28T11:22:00.118Z</time>
      </trkpt>
      <trkpt lat="43.08296" lon="-0.60857">
        <ele>339.5</ele>
        <time>2024-04-28T11:22:05.694Z</time>
      </trkpt>
      <trkpt lat="43.08304" lon="-0.60876">
        <ele>339.47</ele>
        <time>2024-04-28T11:22:11.271Z</time>
      </trkpt>
      <trkpt lat="43.08308" lon="-0.60912">
        <ele>339.11</ele>
        <time>2024-04-28T11:22:16.851Z</time>
      </trkpt>
      <trkpt lat="43.08332" lon="-0.60984">
        <ele>338.72</ele>
        <time>2024-04-28T11:22:22.438Z</time>
      </trkpt>
      <trkpt lat="43.08342" lon="-0.61029">
        <ele>337.74</ele>
        <time>2024-04-28T11:22:28.029Z</time>
      </trkpt>
      <trkpt lat="43.08349" lon="-0.61054">
        <ele>336.54</ele>
        <time>2024-04-28T11:22:33.622Z</time>
      </trkpt>
      <trkpt lat="43.08356" lon="-0.61076">
        <ele>335.4</ele>
        <time>2024-04-28T11:22:39.217Z</time>
      </trkpt>
      <trkpt lat="43.08367" lon="-0.61096">
        <ele>334.12</ele>
        <time>2024-04-28T11:22:44.814Z</time>
      </trkpt>
      <trkpt lat="43.08386" lon="-0.61111">
        <ele>333.07</ele>
        <time>2024-04-28T11:22:50.413Z</time>
      </trkpt>
      <trkpt lat="43.08398" lon="-0.61118">
        <ele>332.01</ele>
        <time>2024-04-28T11:22:56.014Z</time>
      </trkpt>
      <trkpt lat="43.08413" lon="-0.61132">
        <ele>330.66</ele>
        <time>2024-04-28T11:23:01.617Z</time>
      </trkpt>
      <trkpt lat="43.08428" lon="-0.61148">
        <ele>329.27</ele>
        <time>2024-04-28T11:23:07.222Z</time>
      </trkpt>
      <trkpt lat="43.08438" lon="-0.61158">
        <ele>328</ele>
        <time>2024-04-28T11:23:12.828Z</time>
      </trkpt>
      <trkpt lat="43.0846" lon="-0.61164">
        <ele>326.88</ele>
        <time>2024-04-28T11:23:18.437Z</time>
      </trkpt>
      <trkpt lat="43.08476" lon="-0.61166">
        <ele>325.75</ele>
        <time>2024-04-28T11:23:24.047Z</time>
      </trkpt>
      <trkpt lat="43.08488" lon="-0.61163">
        <ele>324.71</ele>
        <time>2024-04-28T11:23:29.659Z</time>
      </trkpt>
      <trkpt lat="43.08513" lon="-0.61152">
        <ele>323.64</ele>
        <time>2024-04-28T11:23:35.274Z</time>
      </trkpt>
      <trkpt lat="43.08531" lon="-0.61142">
        <ele>322.59</ele>
        <time>2024-04-28T11:23:40.891Z</time>
      </trkpt>
      <trkpt lat="43.08549" lon="-0.61131">
        <ele>321.67</ele>
        <time>2024-04-28T11:23:46.510Z</time>
      </trkpt>
      <trkpt lat="43.08564" lon="-0.61128">
        <ele>320.74</ele>
        <time>2024-04-28T11:23:52.131Z</time>
      </trkpt>
      <trkpt lat="43.08581" lon="-0.61124">
        <ele>319.83</ele>
        <time>2024-04-28T11:23:57.754Z</time>
      </trkpt>
      <trkpt lat="43.08599" lon="-0.61121">
        <ele>318.96</ele>
        <time>2024-04-28T11:24:03.379Z</time>
      </trkpt>
      <trkpt lat="43.08653" lon="-0.6111">
        <ele>318.15</ele>
        <time>2024-04-28T11:24:09.010Z</time>
      </trkpt>
      <trkpt lat="43.0867" lon="-0.61107">
        <ele>317.54</ele>
        <time>2024-04-28T11:24:14.643Z</time>
      </trkpt>
      <trkpt lat="43.08692" lon="-0.61106">
        <ele>317.07</ele>
        <time>2024-04-28T11:24:20.278Z</time>
      </trkpt>
      <trkpt lat="43.08727" lon="-0.61104">
        <ele>316.79</ele>
        <time>2024-04-28T11:24:25.917Z</time>
      </trkpt>
      <trkpt lat="43.08781" lon="-0.61096">
        <ele>316.49</ele>
        <time>2024-04-28T11:24:31.562Z</time>
      </trkpt>
      <trkpt lat="43.08808" lon="-0.61091">
        <ele>316.49</ele>
        <time>2024-04-28T11:24:37.210Z</time>
      </trkpt>
      <trkpt lat="43.08816" lon="-0.61087">
        <ele>316.85</ele>
        <time>2024-04-28T11:24:42.859Z</time>
      </trkpt>
      <trkpt lat="43.08832" lon="-0.61078">
        <ele>317.48</ele>
        <time>2024-04-28T11:24:48.510Z</time>
      </trkpt>
      <trkpt lat="43.08843" lon="-0.6107">
        <ele>318.33</ele>
        <time>2024-04-28T11:24:54.162Z</time>
      </trkpt>
      <trkpt lat="43.08861" lon="-0.61066">
        <ele>319.38</ele>
        <time>2024-04-28T11:24:59.816Z</time>
      </trkpt>
      <trkpt lat="43.08912" lon="-0.61067">
        <ele>320.72</ele>
        <time>2024-04-28T11:25:05.476Z</time>
      </trkpt>
      <trkpt lat="43.08968" lon="-0.61072">
        <ele>322.34</ele>
        <time>2024-04-28T11:25:11.142Z</time>
      </trkpt>
      <trkpt lat="43.08993" lon="-0.61076">
        <ele>323.72</ele>
        <time>2024-04-28T11:25:16.811Z</time>
      </trkpt>
      <trkpt lat="43.09041" lon="-0.61094">
        <ele>324.67</ele>
        <time>2024-04-28T11:25:22.486Z</time>
      </trkpt>
      <trkpt lat="43.09081" lon="-0.61106">
        <ele>325.48</ele>
        <time>2024-04-28T11:25:28.165Z</time>
      </trkpt>
      <trkpt lat="43.09116" lon="-0.61116">
        <ele>326.27</ele>
        <time>2024-04-28T11:25:33.848Z</time>
      </trkpt>
      <trkpt lat="43.09155" lon="-0.61116">
        <ele>327.34</ele>
        <time>2024-04-28T11:25:39.535Z</time>
      </trkpt>
      <trkpt lat="43.09168" lon="-0.61118">
        <ele>328.42</ele>
        <time>2024-04-28T11:25:45.224Z</time>
      </trkpt>
      <trkpt lat="43.09176" lon="-0.61121">
        <ele>329.26</ele>
        <time>2024-04-28T11:25:50.914Z</time>
      </trkpt>
      <trkpt lat="43.09183" lon="-0.61126">
        <ele>329.89</ele>
        <time>2024-04-28T11:25:56.605Z</time>
      </trkpt>
      <trkpt lat="43.09191" lon="-0.61135">
        <ele>330.37</ele>
        <time>2024-04-28T11:26:02.297Z</time>
      </trkpt>
      <trkpt lat="43.09217" lon="-0.61169">
        <ele>330.69</ele>
        <time>2024-04-28T11:26:07.993Z</time>
      </trkpt>
      <trkpt lat="43.0925" lon="-0.61207">
        <ele>331.12</ele>
        <time>2024-04-28T11:26:13.694Z</time>
      </trkpt>
      <trkpt lat="43.09272" lon="-0.61233">
        <ele>330.71</ele>
        <time>2024-04-28T11:26:19.398Z</time>
      </trkpt>
      <trkpt lat="43.09286" lon="-0.61247">
        <ele>330.2</ele>
        <time>2024-04-28T11:26:25.104Z</time>
      </trkpt>
      <trkpt lat="43.09302" lon="-0.61254">
        <ele>329.99</ele>
        <time>2024-04-28T11:26:30.812Z</time>
      </trkpt>
      <trkpt lat="43.09321" lon="-0.61257">
        <ele>329.9</ele>
        <time>2024-04-28T11:26:36.522Z</time>
      </trkpt>
      <trkpt lat="43.0937" lon="-0.61267">
        <ele>330.05</ele>
        <time>2024-04-28T11:26:42.237Z</time>
      </trkpt>
      <trkpt lat="43.09391" lon="-0.61273">
        <ele>329.54</ele>
        <time>2024-04-28T11:26:47.955Z</time>
      </trkpt>
      <trkpt lat="43.09436" lon="-0.61275">
        <ele>328.85</ele>
        <time>2024-04-28T11:26:53.678Z</time>
      </trkpt>
      <trkpt lat="43.09458" lon="-0.61274">
        <ele>328.28</ele>
        <time>2024-04-28T11:26:59.403Z</time>
      </trkpt>
      <trkpt lat="43.09471" lon="-0.61274">
        <ele>327.85</ele>
        <time>2024-04-28T11:27:05.130Z</time>
      </trkpt>
      <trkpt lat="43.09505" lon="-0.61266">
        <ele>327.46</ele>
        <time>2024-04-28T11:27:10.860Z</time>
      </trkpt>
      <trkpt lat="43.09529" lon="-0.6126">
        <ele>326.9</ele>
        <time>2024-04-28T11:27:16.593Z</time>
      </trkpt>
      <trkpt lat="43.09547" lon="-0.61256">
        <ele>326.37</ele>
        <time>2024-04-28T11:27:22.328Z</time>
      </trkpt>
      <trkpt lat="43.09607" lon="-0.61244">
        <ele>326.19</ele>
        <time>2024-04-28T11:27:28.070Z</time>
      </trkpt>
      <trkpt lat="43.09654" lon="-0.61242">
        <ele>325.96</ele>
        <time>2024-04-28T11:27:33.817Z</time>
      </trkpt>
      <trkpt lat="43.0969" lon="-0.6124">
        <ele>325.99</ele>
        <time>2024-04-28T11:27:39.568Z</time>
      </trkpt>
      <trkpt lat="43.09709" lon="-0.61241">
        <ele>326.43</ele>
        <time>2024-04-28T11:27:45.321Z</time>
      </trkpt>
      <trkpt lat="43.09743" lon="-0.6125">
        <ele>327.14</ele>
        <time>2024-04-28T11:27:51.078Z</time>
      </trkpt>
      <trkpt lat="43.09777" lon="-0.61255">
        <ele>327.89</ele>
        <time>2024-04-28T11:27:56.839Z</time>
      </trkpt>
      <trkpt lat="43.09816" lon="-0.61258">
        <ele>328.56</ele>
        <time>2024-04-28T11:28:02.604Z</time>
      </trkpt>
      <trkpt lat="43.09867" lon="-0.61251">
        <ele>329.85</ele>
        <time>2024-04-28T11:28:08.375Z</time>
      </trkpt>
      <trkpt lat="43.09888" lon="-0.61251">
        <ele>331.49</ele>
        <time>2024-04-28T11:28:14.148Z</time>
      </trkpt>
      <trkpt lat="43.0992" lon="-0.61255">
        <ele>333.55</ele>
        <time>2024-04-28T11:28:19.925Z</time>
      </trkpt>
      <trkpt lat="43.09956" lon="-0.61261">
        <ele>336.27</ele>
        <time>2024-04-28T11:28:25.706Z</time>
      </trkpt>
      <trkpt lat="43.09991" lon="-0.61273">
        <ele>338.92</ele>
        <time>2024-04-28T11:28:31.491Z</time>
      </trkpt>
      <trkpt lat="43.10026" lon="-0.61287">
        <ele>340.29</ele>
        <time>2024-04-28T11:28:37.280Z</time>
      </trkpt>
      <trkpt lat="43.10072" lon="-0.61307">
        <ele>340.4</ele>
        <time>2024-04-28T11:28:43.074Z</time>
      </trkpt>
      <trkpt lat="43.10085" lon="-0.61316">
        <ele>346.64</ele>
        <time>2024-04-28T11:28:48.870Z</time>
      </trkpt>
      <trkpt lat="43.10088" lon="-0.61318">
        <ele>348.1</ele>
        <time>2024-04-28T11:28:54.666Z</time>
      </trkpt>
      <trkpt lat="43.10142" lon="-0.61356">
        <ele>349.19</ele>
        <time>2024-04-28T11:29:00.469Z</time>
      </trkpt>
      <trkpt lat="43.10165" lon="-0.61367">
        <ele>350.63</ele>
        <time>2024-04-28T11:29:06.275Z</time>
      </trkpt>
      <trkpt lat="43.10204" lon="-0.61368">
        <ele>352.21</ele>
        <time>2024-04-28T11:29:12.085Z</time>
      </trkpt>
      <trkpt lat="43.1027" lon="-0.61381">
        <ele>354</ele>
        <time>2024-04-28T11:29:17.902Z</time>
      </trkpt>
      <trkpt lat="43.10292" lon="-0.6139">
        <ele>355.42</ele>
        <time>2024-04-28T11:29:23.722Z</time>
      </trkpt>
      <trkpt lat="43.10315" lon="-0.61403">
        <ele>356.43</ele>
        <time>2024-04-28T11:29:29.545Z</time>
      </trkpt>
      <trkpt lat="43.1038" lon="-0.61447">
        <ele>357.96</ele>
        <time>2024-04-28T11:29:35.376Z</time>
      </trkpt>
      <trkpt lat="43.10401" lon="-0.61464">
        <ele>358.67</ele>
        <time>2024-04-28T11:29:41.209Z</time>
      </trkpt>
      <trkpt lat="43.10437" lon="-0.61507">
        <ele>359.16</ele>
        <time>2024-04-28T11:29:47.048Z</time>
      </trkpt>
      <trkpt lat="43.10454" lon="-0.61526">
        <ele>359.06</ele>
        <time>2024-04-28T11:29:52.889Z</time>
      </trkpt>
      <trkpt lat="43.10466" lon="-0.61535">
        <ele>358.68</ele>
        <time>2024-04-28T11:29:58.732Z</time>
      </trkpt>
      <trkpt lat="43.10483" lon="-0.61543">
        <ele>358.1</ele>
        <time>2024-04-28T11:30:04.577Z</time>
      </trkpt>
      <trkpt lat="43.10504" lon="-0.61547">
        <ele>357.21</ele>
        <time>2024-04-28T11:30:10.424Z</time>
      </trkpt>
      <trkpt lat="43.10521" lon="-0.61546">
        <ele>356.08</ele>
        <time>2024-04-28T11:30:16.273Z</time>
      </trkpt>
      <trkpt lat="43.10535" lon="-0.6154">
        <ele>354.57</ele>
        <time>2024-04-28T11:30:22.124Z</time>
      </trkpt>
      <trkpt lat="43.10547" lon="-0.61532">
        <ele>352.83</ele>
        <time>2024-04-28T11:30:27.976Z</time>
      </trkpt>
      <trkpt lat="43.10564" lon="-0.61516">
        <ele>350.8</ele>
        <time>2024-04-28T11:30:33.830Z</time>
      </trkpt>
      <trkpt lat="43.10581" lon="-0.615">
        <ele>348.59</ele>
        <time>2024-04-28T11:30:39.687Z</time>
      </trkpt>
      <trkpt lat="43.1063" lon="-0.6147">
        <ele>346.16</ele>
        <time>2024-04-28T11:30:45.550Z</time>
      </trkpt>
      <trkpt lat="43.10657" lon="-0.61451">
        <ele>343.63</ele>
        <time>2024-04-28T11:30:51.416Z</time>
      </trkpt>
      <trkpt lat="43.10673" lon="-0.61437">
        <ele>340.73</ele>
        <time>2024-04-28T11:30:57.284Z</time>
      </trkpt>
      <trkpt lat="43.10718" lon="-0.61397">
        <ele>336.72</ele>
        <time>2024-04-28T11:31:03.158Z</time>
      </trkpt>
      <trkpt lat="43.1075" lon="-0.61374">
        <ele>333.2</ele>
        <time>2024-04-28T11:31:09.036Z</time>
      </trkpt>
      <trkpt lat="43.10816" lon="-0.61328">
        <ele>329.66</ele>
        <time>2024-04-28T11:31:14.922Z</time>
      </trkpt>
      <trkpt lat="43.10849" lon="-0.61304">
        <ele>326.57</ele>
        <time>2024-04-28T11:31:20.813Z</time>
      </trkpt>
      <trkpt lat="43.10864" lon="-0.61299">
        <ele>323.93</ele>
        <time>2024-04-28T11:31:26.705Z</time>
      </trkpt>
      <trkpt lat="43.10875" lon="-0.61298">
        <ele>321.52</ele>
        <time>2024-04-28T11:31:32.598Z</time>
      </trkpt>
      <trkpt lat="43.10887" lon="-0.613">
        <ele>319.3</ele>
        <time>2024-04-28T11:31:38.493Z</time>
      </trkpt>
      <trkpt lat="43.10909" lon="-0.61306">
        <ele>317.12</ele>
        <time>2024-04-28T11:31:44.390Z</time>
      </trkpt>
      <trkpt lat="43.10918" lon="-0.61302">
        <ele>315.2</ele>
        <time>2024-04-28T11:31:50.288Z</time>
      </trkpt>
      <trkpt lat="43.10926" lon="-0.61295">
        <ele>313.52</ele>
        <time>2024-04-28T11:31:56.187Z</time>
      </trkpt>
      <trkpt lat="43.1094" lon="-0.61274">
        <ele>312.02</ele>
        <time>2024-04-28T11:32:02.089Z</time>
      </trkpt>
      <trkpt lat="43.10978" lon="-0.61204">
        <ele>310.39</ele>
        <time>2024-04-28T11:32:07.998Z</time>
      </trkpt>
      <trkpt lat="43.11001" lon="-0.61173">
        <ele>309.17</ele>
        <time>2024-04-28T11:32:13.910Z</time>
      </trkpt>
      <trkpt lat="43.11042" lon="-0.61122">
        <ele>308.16</ele>
        <time>2024-04-28T11:32:19.829Z</time>
      </trkpt>
      <trkpt lat="43.11057" lon="-0.61108">
        <ele>307.23</ele>
        <time>2024-04-28T11:32:25.750Z</time>
      </trkpt>
      <trkpt lat="43.11073" lon="-0.61098">
        <ele>306.33</ele>
        <time>2024-04-28T11:32:31.673Z</time>
      </trkpt>
      <trkpt lat="43.11118" lon="-0.61074">
        <ele>305.17</ele>
        <time>2024-04-28T11:32:37.601Z</time>
      </trkpt>
      <trkpt lat="43.11143" lon="-0.6106">
        <ele>304.3</ele>
        <time>2024-04-28T11:32:43.532Z</time>
      </trkpt>
      <trkpt lat="43.11159" lon="-0.61044">
        <ele>303.56</ele>
        <time>2024-04-28T11:32:49.465Z</time>
      </trkpt>
      <trkpt lat="43.11169" lon="-0.61026">
        <ele>302.92</ele>
        <time>2024-04-28T11:32:55.400Z</time>
      </trkpt>
      <trkpt lat="43.11179" lon="-0.61007">
        <ele>302.36</ele>
        <time>2024-04-28T11:33:01.337Z</time>
      </trkpt>
      <trkpt lat="43.11184" lon="-0.60979">
        <ele>301.88</ele>
        <time>2024-04-28T11:33:07.276Z</time>
      </trkpt>
      <trkpt lat="43.1119" lon="-0.6091">
        <ele>301.45</ele>
        <time>2024-04-28T11:33:13.221Z</time>
      </trkpt>
      <trkpt lat="43.11193" lon="-0.60886">
        <ele>301.04</ele>
        <time>2024-04-28T11:33:19.168Z</time>
      </trkpt>
      <trkpt lat="43.11198" lon="-0.60871">
        <ele>300.72</ele>
        <time>2024-04-28T11:33:25.116Z</time>
      </trkpt>
      <trkpt lat="43.11207" lon="-0.60857">
        <ele>300.42</ele>
        <time>2024-04-28T11:33:31.066Z</time>
      </trkpt>
      <trkpt lat="43.11228" lon="-0.60824">
        <ele>300.09</ele>
        <time>2024-04-28T11:33:37.019Z</time>
      </trkpt>
      <trkpt lat="43.11248" lon="-0.60794">
        <ele>299.76</ele>
        <time>2024-04-28T11:33:42.976Z</time>
      </trkpt>
      <trkpt lat="43.11253" lon="-0.60783">
        <ele>299.5</ele>
        <time>2024-04-28T11:33:48.934Z</time>
      </trkpt>
      <trkpt lat="43.11255" lon="-0.60765">
        <ele>299.21</ele>
        <time>2024-04-28T11:33:54.893Z</time>
      </trkpt>
      <trkpt lat="43.11256" lon="-0.60745">
        <ele>298.97</ele>
        <time>2024-04-28T11:34:00.854Z</time>
      </trkpt>
      <trkpt lat="43.11262" lon="-0.60727">
        <ele>298.7</ele>
        <time>2024-04-28T11:34:06.816Z</time>
      </trkpt>
      <trkpt lat="43.1127" lon="-0.60716">
        <ele>298.46</ele>
        <time>2024-04-28T11:34:12.780Z</time>
      </trkpt>
      <trkpt lat="43.11283" lon="-0.60707">
        <ele>298.23</ele>
        <time>2024-04-28T11:34:18.745Z</time>
      </trkpt>
      <trkpt lat="43.11295" lon="-0.60703">
        <ele>297.94</ele>
        <time>2024-04-28T11:34:24.712Z</time>
      </trkpt>
      <trkpt lat="43.11307" lon="-0.60704">
        <ele>297.58</ele>
        <time>2024-04-28T11:34:30.680Z</time>
      </trkpt>
      <trkpt lat="43.11342" lon="-0.6071">
        <ele>297.16</ele>
        <time>2024-04-28T11:34:36.652Z</time>
      </trkpt>
      <trkpt lat="43.11379" lon="-0.6071">
        <ele>296.88</ele>
        <time>2024-04-28T11:34:42.628Z</time>
      </trkpt>
      <trkpt lat="43.11387" lon="-0.60709">
        <ele>296.82</ele>
        <time>2024-04-28T11:34:48.605Z</time>
      </trkpt>
      <trkpt lat="43.114" lon="-0.60703">
        <ele>296.84</ele>
        <time>2024-04-28T11:34:54.583Z</time>
      </trkpt>
      <trkpt lat="43.11433" lon="-0.60683">
        <ele>297.06</ele>
        <time>2024-04-28T11:35:00.565Z</time>
      </trkpt>
      <trkpt lat="43.11464" lon="-0.60664">
        <ele>297.08</ele>
        <time>2024-04-28T11:35:06.551Z</time>
      </trkpt>
      <trkpt lat="43.11496" lon="-0.60643">
        <ele>297.28</ele>
        <time>2024-04-28T11:35:12.541Z</time>
      </trkpt>
      <trkpt lat="43.11493" lon="-0.60638">
        <ele>297.87</ele>
        <time>2024-04-28T11:35:18.532Z</time>
      </trkpt>
      <trkpt lat="43.11483" lon="-0.60596">
        <ele>298.84</ele>
        <time>2024-04-28T11:35:24.526Z</time>
      </trkpt>
      <trkpt lat="43.11471" lon="-0.60551">
        <ele>300.13</ele>
        <time>2024-04-28T11:35:30.524Z</time>
      </trkpt>
      <trkpt lat="43.11465" lon="-0.60519">
        <ele>307.04</ele>
        <time>2024-04-28T11:35:36.525Z</time>
      </trkpt>
      <trkpt lat="43.11464" lon="-0.60515">
        <ele>308.02</ele>
        <time>2024-04-28T11:35:42.526Z</time>
      </trkpt>
      <trkpt lat="43.11462" lon="-0.60503">
        <ele>309.81</ele>
        <time>2024-04-28T11:35:48.528Z</time>
      </trkpt>
      <trkpt lat="43.11462" lon="-0.60484">
        <ele>312.21</ele>
        <time>2024-04-28T11:35:54.532Z</time>
      </trkpt>
      <trkpt lat="43.11465" lon="-0.60469">
        <ele>314.56</ele>
        <time>2024-04-28T11:36:00.537Z</time>
      </trkpt>
      <trkpt lat="43.11471" lon="-0.60457">
        <ele>316.69</ele>
        <time>2024-04-28T11:36:06.543Z</time>
      </trkpt>
      <trkpt lat="43.11492" lon="-0.60418">
        <ele>318.94</ele>
        <time>2024-04-28T11:36:12.553Z</time>
      </trkpt>
      <trkpt lat="43.11516" lon="-0.6038">
        <ele>321.25</ele>
        <time>2024-04-28T11:36:18.567Z</time>
      </trkpt>
      <trkpt lat="43.1154" lon="-0.60344">
        <ele>323.54</ele>
        <time>2024-04-28T11:36:24.585Z</time>
      </trkpt>
      <trkpt lat="43.11583" lon="-0.60278">
        <ele>326.34</ele>
        <time>2024-04-28T11:36:30.610Z</time>
      </trkpt>
      <trkpt lat="43.11598" lon="-0.60256">
        <ele>328.24</ele>
        <time>2024-04-28T11:36:36.638Z</time>
      </trkpt>
      <trkpt lat="43.1161" lon="-0.60234">
        <ele>329.45</ele>
        <time>2024-04-28T11:36:42.668Z</time>
      </trkpt>
      <trkpt lat="43.11617" lon="-0.60215">
        <ele>330.43</ele>
        <time>2024-04-28T11:36:48.700Z</time>
      </trkpt>
      <trkpt lat="43.11627" lon="-0.60188">
        <ele>331.12</ele>
        <time>2024-04-28T11:36:54.734Z</time>
      </trkpt>
      <trkpt lat="43.11636" lon="-0.60155">
        <ele>332.22</ele>
        <time>2024-04-28T11:37:00.771Z</time>
      </trkpt>
      <trkpt lat="43.11637" lon="-0.60147">
        <ele>332.91</ele>
        <time>2024-04-28T11:37:06.809Z</time>
      </trkpt>
      <trkpt lat="43.11637" lon="-0.60113">
        <ele>333.86</ele>
        <time>2024-04-28T11:37:12.849Z</time>
      </trkpt>
      <trkpt lat="43.11636" lon="-0.60072">
        <ele>334.41</ele>
        <time>2024-04-28T11:37:18.893Z</time>
      </trkpt>
      <trkpt lat="43.11636" lon="-0.60028">
        <ele>334.6</ele>
        <time>2024-04-28T11:37:24.940Z</time>
      </trkpt>
      <trkpt lat="43.11643" lon="-0.59991">
        <ele>334.51</ele>
        <time>2024-04-28T11:37:30.991Z</time>
      </trkpt>
      <trkpt lat="43.11657" lon="-0.59946">
        <ele>334.01</ele>
        <time>2024-04-28T11:37:37.045Z</time>
      </trkpt>
      <trkpt lat="43.11672" lon="-0.59904">
        <ele>333.09</ele>
        <time>2024-04-28T11:37:43.103Z</time>
      </trkpt>
      <trkpt lat="43.11681" lon="-0.59872">
        <ele>331.88</ele>
        <time>2024-04-28T11:37:49.164Z</time>
      </trkpt>
      <trkpt lat="43.11689" lon="-0.59806">
        <ele>330.41</ele>
        <time>2024-04-28T11:37:55.231Z</time>
      </trkpt>
      <trkpt lat="43.11702" lon="-0.59714">
        <ele>328.8</ele>
        <time>2024-04-28T11:38:01.305Z</time>
      </trkpt>
      <trkpt lat="43.11715" lon="-0.59674">
        <ele>327.26</ele>
        <time>2024-04-28T11:38:07.383Z</time>
      </trkpt>
      <trkpt lat="43.11727" lon="-0.59644">
        <ele>325.3</ele>
        <time>2024-04-28T11:38:13.464Z</time>
      </trkpt>
      <trkpt lat="43.11736" lon="-0.59609">
        <ele>323.48</ele>
        <time>2024-04-28T11:38:19.548Z</time>
      </trkpt>
      <trkpt lat="43.11742" lon="-0.59571">
        <ele>321.96</ele>
        <time>2024-04-28T11:38:25.635Z</time>
      </trkpt>
      <trkpt lat="43.11755" lon="-0.59492">
        <ele>320.09</ele>
        <time>2024-04-28T11:38:31.728Z</time>
      </trkpt>
      <trkpt lat="43.11779" lon="-0.5934">
        <ele>318.43</ele>
        <time>2024-04-28T11:38:37.834Z</time>
      </trkpt>
      <trkpt lat="43.11784" lon="-0.59293">
        <ele>316.54</ele>
        <time>2024-04-28T11:38:43.944Z</time>
      </trkpt>
      <trkpt lat="43.11785" lon="-0.59257">
        <ele>314.75</ele>
        <time>2024-04-28T11:38:50.057Z</time>
      </trkpt>
      <trkpt lat="43.11778" lon="-0.592">
        <ele>313.07</ele>
        <time>2024-04-28T11:38:56.174Z</time>
      </trkpt>
      <trkpt lat="43.11768" lon="-0.59153">
        <ele>311.77</ele>
        <time>2024-04-28T11:39:02.295Z</time>
      </trkpt>
      <trkpt lat="43.1173" lon="-0.59005">
        <ele>310.6</ele>
        <time>2024-04-28T11:39:08.429Z</time>
      </trkpt>
      <trkpt lat="43.11702" lon="-0.58897">
        <ele>309.84</ele>
        <time>2024-04-28T11:39:14.573Z</time>
      </trkpt>
      <trkpt lat="43.11682" lon="-0.58819">
        <ele>309.24</ele>
        <time>2024-04-28T11:39:20.723Z</time>
      </trkpt>
      <trkpt lat="43.11677" lon="-0.58779">
        <ele>308.67</ele>
        <time>2024-04-28T11:39:26.877Z</time>
      </trkpt>
      <trkpt lat="43.11678" lon="-0.58755">
        <ele>307.97</ele>
        <time>2024-04-28T11:39:33.032Z</time>
      </trkpt>
      <trkpt lat="43.11683" lon="-0.58719">
        <ele>307.18</ele>
        <time>2024-04-28T11:39:39.190Z</time>
      </trkpt>
      <trkpt lat="43.11691" lon="-0.58699">
        <ele>307.04</ele>
        <time>2024-04-28T11:39:45.350Z</time>
      </trkpt>
      <trkpt lat="43.11699" lon="-0.58683">
        <ele>307.08</ele>
        <time>2024-04-28T11:39:51.512Z</time>
      </trkpt>
      <trkpt lat="43.11726" lon="-0.58643">
        <ele>307.3</ele>
        <time>2024-04-28T11:39:57.678Z</time>
      </trkpt>
      <trkpt lat="43.11774" lon="-0.58573">
        <ele>307.76</ele>
        <time>2024-04-28T11:40:03.852Z</time>
      </trkpt>
      <trkpt lat="43.11851" lon="-0.58464">
        <ele>308.64</ele>
        <time>2024-04-28T11:40:10.038Z</time>
      </trkpt>
      <trkpt lat="43.11869" lon="-0.58436">
        <ele>309.74</ele>
        <time>2024-04-28T11:40:16.227Z</time>
      </trkpt>
      <trkpt lat="43.11884" lon="-0.58404">
        <ele>310.93</ele>
        <time>2024-04-28T11:40:22.420Z</time>
      </trkpt>
      <trkpt lat="43.11891" lon="-0.58378">
        <ele>312.19</ele>
        <time>2024-04-28T11:40:28.615Z</time>
      </trkpt>
      <trkpt lat="43.11896" lon="-0.58351">
        <ele>313.53</ele>
        <time>2024-04-28T11:40:34.812Z</time>
      </trkpt>
      <trkpt lat="43.11899" lon="-0.58234">
        <ele>314.52</ele>
        <time>2024-04-28T11:40:41.019Z</time>
      </trkpt>
      <trkpt lat="43.11898" lon="-0.5815">
        <ele>315.34</ele>
        <time>2024-04-28T11:40:47.232Z</time>
      </trkpt>
      <trkpt lat="43.11886" lon="-0.58039">
        <ele>316.42</ele>
        <time>2024-04-28T11:40:53.455Z</time>
      </trkpt>
      <trkpt lat="43.11888" lon="-0.5801">
        <ele>317.6</ele>
        <time>2024-04-28T11:40:59.680Z</time>
      </trkpt>
      <trkpt lat="43.11892" lon="-0.57991">
        <ele>318.84</ele>
        <time>2024-04-28T11:41:05.907Z</time>
      </trkpt>
      <trkpt lat="43.1192" lon="-0.57926">
        <ele>320.36</ele>
        <time>2024-04-28T11:41:12.140Z</time>
      </trkpt>
      <trkpt lat="43.11927" lon="-0.57889">
        <ele>321.77</ele>
        <time>2024-04-28T11:41:18.376Z</time>
      </trkpt>
      <trkpt lat="43.11928" lon="-0.5785">
        <ele>323.18</ele>
        <time>2024-04-28T11:41:24.615Z</time>
      </trkpt>
      <trkpt lat="43.11929" lon="-0.57642">
        <ele>324.37</ele>
        <time>2024-04-28T11:41:30.871Z</time>
      </trkpt>
      <trkpt lat="43.11929" lon="-0.57582">
        <ele>325.53</ele>
        <time>2024-04-28T11:41:37.132Z</time>
      </trkpt>
      <trkpt lat="43.1193" lon="-0.57543">
        <ele>326.36</ele>
        <time>2024-04-28T11:41:43.396Z</time>
      </trkpt>
      <trkpt lat="43.11934" lon="-0.57512">
        <ele>327.11</ele>
        <time>2024-04-28T11:41:49.663Z</time>
      </trkpt>
      <trkpt lat="43.11943" lon="-0.57471">
        <ele>327.86</ele>
        <time>2024-04-28T11:41:55.933Z</time>
      </trkpt>
      <trkpt lat="43.11952" lon="-0.57439">
        <ele>328.54</ele>
        <time>2024-04-28T11:42:02.206Z</time>
      </trkpt>
      <trkpt lat="43.1196" lon="-0.5741">
        <ele>329.04</ele>
        <time>2024-04-28T11:42:08.481Z</time>
      </trkpt>
      <trkpt lat="43.11965" lon="-0.57382">
        <ele>329.32</ele>
        <time>2024-04-28T11:42:14.759Z</time>
      </trkpt>
      <trkpt lat="43.11967" lon="-0.57354">
        <ele>329.48</ele>
        <time>2024-04-28T11:42:21.039Z</time>
      </trkpt>
      <trkpt lat="43.11966" lon="-0.57326">
        <ele>329.69</ele>
        <time>2024-04-28T11:42:27.321Z</time>
      </trkpt>
      <trkpt lat="43.1196" lon="-0.57291">
        <ele>330.13</ele>
        <time>2024-04-28T11:42:33.606Z</time>
      </trkpt>
      <trkpt lat="43.11948" lon="-0.57249">
        <ele>330.27</ele>
        <time>2024-04-28T11:42:39.895Z</time>
      </trkpt>
      <trkpt lat="43.11923" lon="-0.57172">
        <ele>330.28</ele>
        <time>2024-04-28T11:42:46.191Z</time>
      </trkpt>
      <trkpt lat="43.11905" lon="-0.57135">
        <ele>330.07</ele>
        <time>2024-04-28T11:42:52.490Z</time>
      </trkpt>
      <trkpt lat="43.11866" lon="-0.57077">
        <ele>329.96</ele>
        <time>2024-04-28T11:42:58.796Z</time>
      </trkpt>
      <trkpt lat="43.11848" lon="-0.57038">
        <ele>329.97</ele>
        <time>2024-04-28T11:43:05.105Z</time>
      </trkpt>
      <trkpt lat="43.11833" lon="-0.5699">
        <ele>329.92</ele>
        <time>2024-04-28T11:43:11.419Z</time>
      </trkpt>
      <trkpt lat="43.11818" lon="-0.56945">
        <ele>329.95</ele>
        <time>2024-04-28T11:43:17.737Z</time>
      </trkpt>
      <trkpt lat="43.11794" lon="-0.56885">
        <ele>329.96</ele>
        <time>2024-04-28T11:43:24.060Z</time>
      </trkpt>
      <trkpt lat="43.11757" lon="-0.56787">
        <ele>330.26</ele>
        <time>2024-04-28T11:43:30.392Z</time>
      </trkpt>
      <trkpt lat="43.11747" lon="-0.56747">
        <ele>330.52</ele>
        <time>2024-04-28T11:43:36.728Z</time>
      </trkpt>
      <trkpt lat="43.11732" lon="-0.56658">
        <ele>330.47</ele>
        <time>2024-04-28T11:43:43.071Z</time>
      </trkpt>
      <trkpt lat="43.11719" lon="-0.5658">
        <ele>330.74</ele>
        <time>2024-04-28T11:43:49.421Z</time>
      </trkpt>
      <trkpt lat="43.11717" lon="-0.56535">
        <ele>330.98</ele>
        <time>2024-04-28T11:43:55.774Z</time>
      </trkpt>
      <trkpt lat="43.11718" lon="-0.56499">
        <ele>331.22</ele>
        <time>2024-04-28T11:44:02.130Z</time>
      </trkpt>
      <trkpt lat="43.11722" lon="-0.5644">
        <ele>331.53</ele>
        <time>2024-04-28T11:44:08.491Z</time>
      </trkpt>
      <trkpt lat="43.11721" lon="-0.56392">
        <ele>331.86</ele>
        <time>2024-04-28T11:44:14.856Z</time>
      </trkpt>
      <trkpt lat="43.11712" lon="-0.56296">
        <ele>332.21</ele>
        <time>2024-04-28T11:44:21.229Z</time>
      </trkpt>
      <trkpt lat="43.1171" lon="-0.56278">
        <ele>332.62</ele>
        <time>2024-04-28T11:44:27.603Z</time>
      </trkpt>
      <trkpt lat="43.11702" lon="-0.56252">
        <ele>333.1</ele>
        <time>2024-04-28T11:44:33.980Z</time>
      </trkpt>
      <trkpt lat="43.11681" lon="-0.56206">
        <ele>333.79</ele>
        <time>2024-04-28T11:44:40.361Z</time>
      </trkpt>
      <trkpt lat="43.1166" lon="-0.56165">
        <ele>334.35</ele>
        <time>2024-04-28T11:44:46.746Z</time>
      </trkpt>
      <trkpt lat="43.11643" lon="-0.56116">
        <ele>335.04</ele>
        <time>2024-04-28T11:44:53.136Z</time>
      </trkpt>
      <trkpt lat="43.11589" lon="-0.55945">
        <ele>335.91</ele>
        <time>2024-04-28T11:44:59.541Z</time>
      </trkpt>
      <trkpt lat="43.11562" lon="-0.55854">
        <ele>336.94</ele>
        <time>2024-04-28T11:45:05.954Z</time>
      </trkpt>
      <trkpt lat="43.11553" lon="-0.55808">
        <ele>337.69</ele>
        <time>2024-04-28T11:45:12.371Z</time>
      </trkpt>
      <trkpt lat="43.1155" lon="-0.55737">
        <ele>338.71</ele>
        <time>2024-04-28T11:45:18.793Z</time>
      </trkpt>
      <trkpt lat="43.1155" lon="-0.55716">
        <ele>339.64</ele>
        <time>2024-04-28T11:45:25.217Z</time>
      </trkpt>
      <trkpt lat="43.11552" lon="-0.55684">
        <ele>340.62</ele>
        <time>2024-04-28T11:45:31.644Z</time>
      </trkpt>
      <trkpt lat="43.11559" lon="-0.55635">
        <ele>341.59</ele>
        <time>2024-04-28T11:45:38.075Z</time>
      </trkpt>
      <trkpt lat="43.11582" lon="-0.55543">
        <ele>342.75</ele>
        <time>2024-04-28T11:45:44.514Z</time>
      </trkpt>
      <trkpt lat="43.11582" lon="-0.5551">
        <ele>343.93</ele>
        <time>2024-04-28T11:45:50.955Z</time>
      </trkpt>
      <trkpt lat="43.11562" lon="-0.55426">
        <ele>345.16</ele>
        <time>2024-04-28T11:45:57.404Z</time>
      </trkpt>
      <trkpt lat="43.1156" lon="-0.55409">
        <ele>346.49</ele>
        <time>2024-04-28T11:46:03.854Z</time>
      </trkpt>
      <trkpt lat="43.1156" lon="-0.55385">
        <ele>347.88</ele>
        <time>2024-04-28T11:46:10.306Z</time>
      </trkpt>
      <trkpt lat="43.11568" lon="-0.55356">
        <ele>349.38</ele>
        <time>2024-04-28T11:46:16.760Z</time>
      </trkpt>
      <trkpt lat="43.11589" lon="-0.55322">
        <ele>351.19</ele>
        <time>2024-04-28T11:46:23.218Z</time>
      </trkpt>
      <trkpt lat="43.11599" lon="-0.55303">
        <ele>353.04</ele>
        <time>2024-04-28T11:46:29.678Z</time>
      </trkpt>
      <trkpt lat="43.11613" lon="-0.55252">
        <ele>355.3</ele>
        <time>2024-04-28T11:46:36.142Z</time>
      </trkpt>
      <trkpt lat="43.11621" lon="-0.55212">
        <ele>357.48</ele>
        <time>2024-04-28T11:46:42.610Z</time>
      </trkpt>
      <trkpt lat="43.11628" lon="-0.551">
        <ele>359.52</ele>
        <time>2024-04-28T11:46:49.087Z</time>
      </trkpt>
      <trkpt lat="43.11634" lon="-0.55036">
        <ele>361.77</ele>
        <time>2024-04-28T11:46:55.569Z</time>
      </trkpt>
      <trkpt lat="43.11643" lon="-0.55">
        <ele>363.8</ele>
        <time>2024-04-28T11:47:02.054Z</time>
      </trkpt>
      <trkpt lat="43.11652" lon="-0.54974">
        <ele>365.7</ele>
        <time>2024-04-28T11:47:08.542Z</time>
      </trkpt>
      <trkpt lat="43.11665" lon="-0.54912">
        <ele>367.44</ele>
        <time>2024-04-28T11:47:15.035Z</time>
      </trkpt>
      <trkpt lat="43.11675" lon="-0.54883">
        <ele>369.3</ele>
        <time>2024-04-28T11:47:21.530Z</time>
      </trkpt>
      <trkpt lat="43.11688" lon="-0.54866">
        <ele>371.14</ele>
        <time>2024-04-28T11:47:28.027Z</time>
      </trkpt>
      <trkpt lat="43.11698" lon="-0.54859">
        <ele>372.89</ele>
        <time>2024-04-28T11:47:34.526Z</time>
      </trkpt>
      <trkpt lat="43.11709" lon="-0.54855">
        <ele>374.56</ele>
        <time>2024-04-28T11:47:41.026Z</time>
      </trkpt>
      <trkpt lat="43.11725" lon="-0.54856">
        <ele>376.13</ele>
        <time>2024-04-28T11:47:47.528Z</time>
      </trkpt>
      <trkpt lat="43.11748" lon="-0.54865">
        <ele>377.65</ele>
        <time>2024-04-28T11:47:54.032Z</time>
      </trkpt>
      <trkpt lat="43.11767" lon="-0.54868">
        <ele>379</ele>
        <time>2024-04-28T11:48:00.539Z</time>
      </trkpt>
      <trkpt lat="43.11785" lon="-0.54865">
        <ele>380.22</ele>
        <time>2024-04-28T11:48:07.048Z</time>
      </trkpt>
      <trkpt lat="43.11803" lon="-0.54856">
        <ele>381.27</ele>
        <time>2024-04-28T11:48:13.559Z</time>
      </trkpt>
      <trkpt lat="43.11818" lon="-0.5484">
        <ele>382.08</ele>
        <time>2024-04-28T11:48:20.072Z</time>
      </trkpt>
      <trkpt lat="43.11843" lon="-0.54812">
        <ele>382.62</ele>
        <time>2024-04-28T11:48:26.588Z</time>
      </trkpt>
      <trkpt lat="43.1186" lon="-0.54799">
        <ele>383.29</ele>
        <time>2024-04-28T11:48:33.107Z</time>
      </trkpt>
      <trkpt lat="43.11883" lon="-0.54786">
        <ele>383.99</ele>
        <time>2024-04-28T11:48:39.628Z</time>
      </trkpt>
      <trkpt lat="43.11898" lon="-0.5477">
        <ele>384.74</ele>
        <time>2024-04-28T11:48:46.151Z</time>
      </trkpt>
      <trkpt lat="43.11909" lon="-0.54748">
        <ele>385.64</ele>
        <time>2024-04-28T11:48:52.677Z</time>
      </trkpt>
      <trkpt lat="43.11918" lon="-0.5472">
        <ele>386.69</ele>
        <time>2024-04-28T11:48:59.205Z</time>
      </trkpt>
      <trkpt lat="43.11933" lon="-0.54674">
        <ele>387.87</ele>
        <time>2024-04-28T11:49:05.737Z</time>
      </trkpt>
      <trkpt lat="43.11944" lon="-0.54652">
        <ele>388.68</ele>
        <time>2024-04-28T11:49:12.271Z</time>
      </trkpt>
      <trkpt lat="43.11954" lon="-0.5463">
        <ele>389.41</ele>
        <time>2024-04-28T11:49:18.807Z</time>
      </trkpt>
      <trkpt lat="43.1196" lon="-0.54606">
        <ele>390.05</ele>
        <time>2024-04-28T11:49:25.345Z</time>
      </trkpt>
      <trkpt lat="43.11967" lon="-0.54582">
        <ele>390.82</ele>
        <time>2024-04-28T11:49:31.886Z</time>
      </trkpt>
      <trkpt lat="43.11983" lon="-0.54545">
        <ele>391.75</ele>
        <time>2024-04-28T11:49:38.430Z</time>
      </trkpt>
      <trkpt lat="43.11993" lon="-0.54525">
        <ele>392.75</ele>
        <time>2024-04-28T11:49:44.976Z</time>
      </trkpt>
      <trkpt lat="43.12001" lon="-0.54515">
        <ele>393.88</ele>
        <time>2024-04-28T11:49:51.523Z</time>
      </trkpt>
      <trkpt lat="43.12008" lon="-0.54511">
        <ele>395.06</ele>
        <time>2024-04-28T11:49:58.071Z</time>
      </trkpt>
      <trkpt lat="43.12016" lon="-0.54509">
        <ele>396.3</ele>
        <time>2024-04-28T11:50:04.620Z</time>
      </trkpt>
      <trkpt lat="43.12028" lon="-0.5451">
        <ele>397.63</ele>
        <time>2024-04-28T11:50:11.170Z</time>
      </trkpt>
      <trkpt lat="43.12061" lon="-0.54506">
        <ele>399.4</ele>
        <time>2024-04-28T11:50:17.724Z</time>
      </trkpt>
      <trkpt lat="43.12098" lon="-0.545">
        <ele>400.85</ele>
        <time>2024-04-28T11:50:24.282Z</time>
      </trkpt>
      <trkpt lat="43.12118" lon="-0.54495">
        <ele>401.82</ele>
        <time>2024-04-28T11:50:30.842Z</time>
      </trkpt>
      <trkpt lat="43.12137" lon="-0.54484">
        <ele>402.64</ele>
        <time>2024-04-28T11:50:37.405Z</time>
      </trkpt>
      <trkpt lat="43.12158" lon="-0.5446">
        <ele>403.36</ele>
        <time>2024-04-28T11:50:43.971Z</time>
      </trkpt>
      <trkpt lat="43.12171" lon="-0.54443">
        <ele>404.23</ele>
        <time>2024-04-28T11:50:50.539Z</time>
      </trkpt>
      <trkpt lat="43.12187" lon="-0.54434">
        <ele>405.16</ele>
        <time>2024-04-28T11:50:57.109Z</time>
      </trkpt>
      <trkpt lat="43.12193" lon="-0.54433">
        <ele>405.96</ele>
        <time>2024-04-28T11:51:03.679Z</time>
      </trkpt>
      <trkpt lat="43.12208" lon="-0.54436">
        <ele>406.81</ele>
        <time>2024-04-28T11:51:10.251Z</time>
      </trkpt>
      <trkpt lat="43.12225" lon="-0.54443">
        <ele>407.62</ele>
        <time>2024-04-28T11:51:16.825Z</time>
      </trkpt>
      <trkpt lat="43.12244" lon="-0.54449">
        <ele>408.35</ele>
        <time>2024-04-28T11:51:23.401Z</time>
      </trkpt>
      <trkpt lat="43.12254" lon="-0.54447">
        <ele>408.88</ele>
        <time>2024-04-28T11:51:29.978Z</time>
      </trkpt>
      <trkpt lat="43.1226" lon="-0.54442">
        <ele>409.26</ele>
        <time>2024-04-28T11:51:36.556Z</time>
      </trkpt>
      <trkpt lat="43.12266" lon="-0.54434">
        <ele>409.56</ele>
        <time>2024-04-28T11:51:43.135Z</time>
      </trkpt>
      <trkpt lat="43.1227" lon="-0.54422">
        <ele>409.76</ele>
        <time>2024-04-28T11:51:49.715Z</time>
      </trkpt>
      <trkpt lat="43.1227" lon="-0.54414">
        <ele>409.96</ele>
        <time>2024-04-28T11:51:56.296Z</time>
      </trkpt>
      <trkpt lat="43.12268" lon="-0.54401">
        <ele>410.18</ele>
        <time>2024-04-28T11:52:02.878Z</time>
      </trkpt>
      <trkpt lat="43.12259" lon="-0.54384">
        <ele>410.36</ele>
        <time>2024-04-28T11:52:09.462Z</time>
      </trkpt>
      <trkpt lat="43.12244" lon="-0.54362">
        <ele>410.59</ele>
        <time>2024-04-28T11:52:16.048Z</time>
      </trkpt>
      <trkpt lat="43.12235" lon="-0.5434">
        <ele>411.1</ele>
        <time>2024-04-28T11:52:22.636Z</time>
      </trkpt>
      <trkpt lat="43.12233" lon="-0.54328">
        <ele>411.62</ele>
        <time>2024-04-28T11:52:29.225Z</time>
      </trkpt>
      <trkpt lat="43.12234" lon="-0.54312">
        <ele>412.23</ele>
        <time>2024-04-28T11:52:35.815Z</time>
      </trkpt>
      <trkpt lat="43.12242" lon="-0.54291">
        <ele>413.01</ele>
        <time>2024-04-28T11:52:42.407Z</time>
      </trkpt>
      <trkpt lat="43.1226" lon="-0.54269">
        <ele>413.99</ele>
        <time>2024-04-28T11:52:49.002Z</time>
      </trkpt>
      <trkpt lat="43.12272" lon="-0.54251">
        <ele>415</ele>
        <time>2024-04-28T11:52:55.599Z</time>
      </trkpt>
      <trkpt lat="43.1228" lon="-0.54229">
        <ele>416.01</ele>
        <time>2024-04-28T11:53:02.198Z</time>
      </trkpt>
      <trkpt lat="43.12285" lon="-0.54207">
        <ele>416.95</ele>
        <time>2024-04-28T11:53:08.799Z</time>
      </trkpt>
      <trkpt lat="43.12293" lon="-0.54186">
        <ele>417.85</ele>
        <time>2024-04-28T11:53:15.402Z</time>
      </trkpt>
      <trkpt lat="43.12308" lon="-0.5417">
        <ele>418.77</ele>
        <time>2024-04-28T11:53:22.007Z</time>
      </trkpt>
      <trkpt lat="43.12316" lon="-0.54161">
        <ele>419.57</ele>
        <time>2024-04-28T11:53:28.613Z</time>
      </trkpt>
      <trkpt lat="43.12326" lon="-0.54147">
        <ele>420.36</ele>
        <time>2024-04-28T11:53:35.221Z</time>
      </trkpt>
      <trkpt lat="43.12339" lon="-0.54117">
        <ele>421.03</ele>
        <time>2024-04-28T11:53:41.831Z</time>
      </trkpt>
      <trkpt lat="43.12355" lon="-0.54065">
        <ele>421.81</ele>
        <time>2024-04-28T11:53:48.446Z</time>
      </trkpt>
      <trkpt lat="43.1236" lon="-0.54039">
        <ele>422.85</ele>
        <time>2024-04-28T11:53:55.063Z</time>
      </trkpt>
      <trkpt lat="43.1236" lon="-0.54014">
        <ele>423.83</ele>
        <time>2024-04-28T11:54:01.682Z</time>
      </trkpt>
      <trkpt lat="43.12357" lon="-0.53991">
        <ele>424.73</ele>
        <time>2024-04-28T11:54:08.303Z</time>
      </trkpt>
      <trkpt lat="43.12353" lon="-0.53978">
        <ele>425.54</ele>
        <time>2024-04-28T11:54:14.925Z</time>
      </trkpt>
      <trkpt lat="43.12343" lon="-0.53957">
        <ele>426.46</ele>
        <time>2024-04-28T11:54:21.549Z</time>
      </trkpt>
      <trkpt lat="43.12329" lon="-0.53942">
        <ele>427.26</ele>
        <time>2024-04-28T11:54:28.175Z</time>
      </trkpt>
      <trkpt lat="43.123" lon="-0.5392">
        <ele>428.23</ele>
        <time>2024-04-28T11:54:34.805Z</time>
      </trkpt>
      <trkpt lat="43.12227" lon="-0.53868">
        <ele>428.99</ele>
        <time>2024-04-28T11:54:41.444Z</time>
      </trkpt>
      <trkpt lat="43.12161" lon="-0.53819">
        <ele>429.11</ele>
        <time>2024-04-28T11:54:48.091Z</time>
      </trkpt>
      <trkpt lat="43.12142" lon="-0.53809">
        <ele>429.5</ele>
        <time>2024-04-28T11:54:54.741Z</time>
      </trkpt>
      <trkpt lat="43.12123" lon="-0.53806">
        <ele>430.15</ele>
        <time>2024-04-28T11:55:01.393Z</time>
      </trkpt>
      <trkpt lat="43.12112" lon="-0.53806">
        <ele>430.72</ele>
        <time>2024-04-28T11:55:08.046Z</time>
      </trkpt>
      <trkpt lat="43.121" lon="-0.53803">
        <ele>431.19</ele>
        <time>2024-04-28T11:55:14.700Z</time>
      </trkpt>
      <trkpt lat="43.12101" lon="-0.53798">
        <ele>430.04</ele>
        <time>2024-04-28T11:55:21.355Z</time>
      </trkpt>
      <trkpt lat="43.12093" lon="-0.53794">
        <ele>430.29</ele>
        <time>2024-04-28T11:55:28.011Z</time>
      </trkpt>
      <trkpt lat="43.12084" lon="-0.53785">
        <ele>430.5</ele>
        <time>2024-04-28T11:55:34.668Z</time>
      </trkpt>
      <trkpt lat="43.12051" lon="-0.53726">
        <ele>430.81</ele>
        <time>2024-04-28T11:55:41.331Z</time>
      </trkpt>
      <trkpt lat="43.12014" lon="-0.53662">
        <ele>430.76</ele>
        <time>2024-04-28T11:55:48.001Z</time>
      </trkpt>
      <trkpt lat="43.12009" lon="-0.53647">
        <ele>430.56</ele>
        <time>2024-04-28T11:55:54.672Z</time>
      </trkpt>
      <trkpt lat="43.12009" lon="-0.53633">
        <ele>430.25</ele>
        <time>2024-04-28T11:56:01.344Z</time>
      </trkpt>
      <trkpt lat="43.12017" lon="-0.53593">
        <ele>429.5</ele>
        <time>2024-04-28T11:56:08.020Z</time>
      </trkpt>
      <trkpt lat="43.12014" lon="-0.5357">
        <ele>429.11</ele>
        <time>2024-04-28T11:56:14.697Z</time>
      </trkpt>
      <trkpt lat="43.12" lon="-0.53553">
        <ele>429.22</ele>
        <time>2024-04-28T11:56:21.376Z</time>
      </trkpt>
      <trkpt lat="43.11976" lon="-0.53537">
        <ele>429.81</ele>
        <time>2024-04-28T11:56:28.058Z</time>
      </trkpt>
      <trkpt lat="43.1197" lon="-0.5352">
        <ele>430.2</ele>
        <time>2024-04-28T11:56:34.742Z</time>
      </trkpt>
      <trkpt lat="43.11971" lon="-0.53499">
        <ele>430.4</ele>
        <time>2024-04-28T11:56:41.428Z</time>
      </trkpt>
      <trkpt lat="43.11977" lon="-0.53463">
        <ele>430.11</ele>
        <time>2024-04-28T11:56:48.117Z</time>
      </trkpt>
      <trkpt lat="43.11974" lon="-0.53431">
        <ele>430.12</ele>
        <time>2024-04-28T11:56:54.808Z</time>
      </trkpt>
      <trkpt lat="43.11963" lon="-0.53404">
        <ele>430.66</ele>
        <time>2024-04-28T11:57:01.502Z</time>
      </trkpt>
      <trkpt lat="43.11963" lon="-0.53378">
        <ele>431.16</ele>
        <time>2024-04-28T11:57:08.198Z</time>
      </trkpt>
      <trkpt lat="43.11978" lon="-0.5332">
        <ele>431.38</ele>
        <time>2024-04-28T11:57:14.899Z</time>
      </trkpt>
      <trkpt lat="43.12003" lon="-0.53243">
        <ele>431.38</ele>
        <time>2024-04-28T11:57:21.607Z</time>
      </trkpt>
      <trkpt lat="43.12008" lon="-0.53212">
        <ele>431.26</ele>
        <time>2024-04-28T11:57:28.317Z</time>
      </trkpt>
      <trkpt lat="43.12002" lon="-0.53187">
        <ele>431.13</ele>
        <time>2024-04-28T11:57:35.030Z</time>
      </trkpt>
      <trkpt lat="43.11991" lon="-0.53173">
        <ele>431.06</ele>
        <time>2024-04-28T11:57:41.744Z</time>
      </trkpt>
      <trkpt lat="43.11974" lon="-0.5317">
        <ele>431.19</ele>
        <time>2024-04-28T11:57:48.460Z</time>
      </trkpt>
      <trkpt lat="43.11957" lon="-0.53153">
        <ele>431.3</ele>
        <time>2024-04-28T11:57:55.178Z</time>
      </trkpt>
      <trkpt lat="43.11949" lon="-0.53139">
        <ele>431.4</ele>
        <time>2024-04-28T11:58:01.898Z</time>
      </trkpt>
      <trkpt lat="43.11951" lon="-0.5312">
        <ele>431.27</ele>
        <time>2024-04-28T11:58:08.619Z</time>
      </trkpt>
      <trkpt lat="43.11998" lon="-0.52997">
        <ele>431.27</ele>
        <time>2024-04-28T11:58:15.352Z</time>
      </trkpt>
      <trkpt lat="43.12019" lon="-0.52947">
        <ele>430.99</ele>
        <time>2024-04-28T11:58:22.089Z</time>
      </trkpt>
      <trkpt lat="43.12083" lon="-0.52868">
        <ele>430.3</ele>
        <time>2024-04-28T11:58:28.836Z</time>
      </trkpt>
      <trkpt lat="43.12083" lon="-0.52868">
        <ele>429.88</ele>
        <time>2024-04-28T11:58:35.583Z</time>
      </trkpt>
      <trkpt lat="43.12091" lon="-0.52849">
        <ele>429.41</ele>
        <time>2024-04-28T11:58:42.332Z</time>
      </trkpt>
      <trkpt lat="43.12093" lon="-0.52828">
        <ele>428.86</ele>
        <time>2024-04-28T11:58:49.083Z</time>
      </trkpt>
      <trkpt lat="43.12087" lon="-0.52813">
        <ele>428.24</ele>
        <time>2024-04-28T11:58:55.835Z</time>
      </trkpt>
      <trkpt lat="43.12076" lon="-0.52804">
        <ele>427.68</ele>
        <time>2024-04-28T11:59:02.588Z</time>
      </trkpt>
      <trkpt lat="43.12004" lon="-0.52791">
        <ele>427.21</ele>
        <time>2024-04-28T11:59:09.349Z</time>
      </trkpt>
      <trkpt lat="43.11987" lon="-0.52798">
        <ele>426.78</ele>
        <time>2024-04-28T11:59:16.112Z</time>
      </trkpt>
      <trkpt lat="43.11971" lon="-0.5279">
        <ele>426.12</ele>
        <time>2024-04-28T11:59:22.877Z</time>
      </trkpt>
      <trkpt lat="43.11948" lon="-0.52735">
        <ele>425.18</ele>
        <time>2024-04-28T11:59:29.647Z</time>
      </trkpt>
      <trkpt lat="43.1194" lon="-0.52724">
        <ele>424.34</ele>
        <time>2024-04-28T11:59:36.419Z</time>
      </trkpt>
      <trkpt lat="43.11929" lon="-0.52715">
        <ele>423.56</ele>
        <time>2024-04-28T11:59:43.192Z</time>
      </trkpt>
      <trkpt lat="43.11921" lon="-0.52698">
        <ele>422.72</ele>
        <time>2024-04-28T11:59:49.967Z</time>
      </trkpt>
      <trkpt lat="43.11924" lon="-0.52684">
        <ele>421.78</ele>
        <time>2024-04-28T11:59:56.743Z</time>
      </trkpt>
      <trkpt lat="43.11932" lon="-0.52671">
        <ele>420.66</ele>
        <time>2024-04-28T12:00:03.520Z</time>
      </trkpt>
      <trkpt lat="43.11963" lon="-0.52651">
        <ele>419.45</ele>
        <time>2024-04-28T12:00:10.301Z</time>
      </trkpt>
      <trkpt lat="43.12014" lon="-0.52624">
        <ele>417.88</ele>
        <time>2024-04-28T12:00:17.088Z</time>
      </trkpt>
      <trkpt lat="43.12014" lon="-0.52624">
        <ele>416.7</ele>
        <time>2024-04-28T12:00:23.875Z</time>
      </trkpt>
      <trkpt lat="43.1203" lon="-0.52609">
        <ele>415.35</ele>
        <time>2024-04-28T12:00:30.664Z</time>
      </trkpt>
      <trkpt lat="43.12045" lon="-0.52582">
        <ele>414.03</ele>
        <time>2024-04-28T12:00:37.456Z</time>
      </trkpt>
      <trkpt lat="43.12047" lon="-0.52558">
        <ele>412.74</ele>
        <time>2024-04-28T12:00:44.250Z</time>
      </trkpt>
      <trkpt lat="43.12042" lon="-0.52541">
        <ele>411.5</ele>
        <time>2024-04-28T12:00:51.046Z</time>
      </trkpt>
      <trkpt lat="43.11993" lon="-0.52506">
        <ele>410.34</ele>
        <time>2024-04-28T12:00:57.848Z</time>
      </trkpt>
      <trkpt lat="43.11967" lon="-0.52496">
        <ele>409.23</ele>
        <time>2024-04-28T12:01:04.653Z</time>
      </trkpt>
      <trkpt lat="43.11952" lon="-0.52477">
        <ele>408.18</ele>
        <time>2024-04-28T12:01:11.460Z</time>
      </trkpt>
      <trkpt lat="43.11949" lon="-0.52453">
        <ele>406.94</ele>
        <time>2024-04-28T12:01:18.269Z</time>
      </trkpt>
      <trkpt lat="43.11954" lon="-0.52435">
        <ele>405.71</ele>
        <time>2024-04-28T12:01:25.079Z</time>
      </trkpt>
      <trkpt lat="43.11986" lon="-0.52373">
        <ele>404.12</ele>
        <time>2024-04-28T12:01:31.896Z</time>
      </trkpt>
      <trkpt lat="43.1199" lon="-0.52358">
        <ele>402.85</ele>
        <time>2024-04-28T12:01:38.714Z</time>
      </trkpt>
      <trkpt lat="43.11986" lon="-0.52344">
        <ele>401.66</ele>
        <time>2024-04-28T12:01:45.533Z</time>
      </trkpt>
      <trkpt lat="43.11962" lon="-0.52298">
        <ele>400.4</ele>
        <time>2024-04-28T12:01:52.357Z</time>
      </trkpt>
      <trkpt lat="43.11957" lon="-0.52264">
        <ele>399.05</ele>
        <time>2024-04-28T12:01:59.183Z</time>
      </trkpt>
      <trkpt lat="43.11958" lon="-0.52242">
        <ele>397.79</ele>
        <time>2024-04-28T12:02:06.011Z</time>
      </trkpt>
      <trkpt lat="43.11966" lon="-0.52224">
        <ele>396.5</ele>
        <time>2024-04-28T12:02:12.841Z</time>
      </trkpt>
      <trkpt lat="43.11984" lon="-0.52215">
        <ele>395.21</ele>
        <time>2024-04-28T12:02:19.673Z</time>
      </trkpt>
      <trkpt lat="43.12" lon="-0.52222">
        <ele>393.81</ele>
        <time>2024-04-28T12:02:26.507Z</time>
      </trkpt>
      <trkpt lat="43.12032" lon="-0.52244">
        <ele>392.52</ele>
        <time>2024-04-28T12:02:33.345Z</time>
      </trkpt>
      <trkpt lat="43.12046" lon="-0.52247">
        <ele>391.22</ele>
        <time>2024-04-28T12:02:40.185Z</time>
      </trkpt>
      <trkpt lat="43.12062" lon="-0.52242">
        <ele>389.84</ele>
        <time>2024-04-28T12:02:47.026Z</time>
      </trkpt>
      <trkpt lat="43.12102" lon="-0.52211">
        <ele>388.34</ele>
        <time>2024-04-28T12:02:53.872Z</time>
      </trkpt>
      <trkpt lat="43.12122" lon="-0.52184">
        <ele>386.77</ele>
        <time>2024-04-28T12:03:00.722Z</time>
      </trkpt>
      <trkpt lat="43.12131" lon="-0.52141">
        <ele>385.4</ele>
        <time>2024-04-28T12:03:07.575Z</time>
      </trkpt>
      <trkpt lat="43.12146" lon="-0.52106">
        <ele>384.07</ele>
        <time>2024-04-28T12:03:14.432Z</time>
      </trkpt>
      <trkpt lat="43.12199" lon="-0.52071">
        <ele>382.11</ele>
        <time>2024-04-28T12:03:21.295Z</time>
      </trkpt>
      <trkpt lat="43.12206" lon="-0.52051">
        <ele>380.74</ele>
        <time>2024-04-28T12:03:28.160Z</time>
      </trkpt>
      <trkpt lat="43.12206" lon="-0.52026">
        <ele>379.48</ele>
        <time>2024-04-28T12:03:35.027Z</time>
      </trkpt>
      <trkpt lat="43.12199" lon="-0.51967">
        <ele>378.39</ele>
        <time>2024-04-28T12:03:41.899Z</time>
      </trkpt>
      <trkpt lat="43.12204" lon="-0.51954">
        <ele>377.18</ele>
        <time>2024-04-28T12:03:48.772Z</time>
      </trkpt>
      <trkpt lat="43.12211" lon="-0.51944">
        <ele>375.95</ele>
        <time>2024-04-28T12:03:55.646Z</time>
      </trkpt>
      <trkpt lat="43.12253" lon="-0.51934">
        <ele>374.51</ele>
        <time>2024-04-28T12:04:02.525Z</time>
      </trkpt>
      <trkpt lat="43.12264" lon="-0.51928">
        <ele>373.28</ele>
        <time>2024-04-28T12:04:09.405Z</time>
      </trkpt>
      <trkpt lat="43.12273" lon="-0.51917">
        <ele>372.09</ele>
        <time>2024-04-28T12:04:16.287Z</time>
      </trkpt>
      <trkpt lat="43.12295" lon="-0.51886">
        <ele>370.97</ele>
        <time>2024-04-28T12:04:23.172Z</time>
      </trkpt>
      <trkpt lat="43.1232" lon="-0.51834">
        <ele>369.74</ele>
        <time>2024-04-28T12:04:30.062Z</time>
      </trkpt>
      <trkpt lat="43.12335" lon="-0.51799">
        <ele>368.65</ele>
        <time>2024-04-28T12:04:36.955Z</time>
      </trkpt>
      <trkpt lat="43.12342" lon="-0.51772">
        <ele>367.38</ele>
        <time>2024-04-28T12:04:43.851Z</time>
      </trkpt>
      <trkpt lat="43.12316" lon="-0.51732">
        <ele>366.08</ele>
        <time>2024-04-28T12:04:50.751Z</time>
      </trkpt>
      <trkpt lat="43.12309" lon="-0.51714">
        <ele>364.84</ele>
        <time>2024-04-28T12:04:57.653Z</time>
      </trkpt>
      <trkpt lat="43.12301" lon="-0.51687">
        <ele>363.6</ele>
        <time>2024-04-28T12:05:04.557Z</time>
      </trkpt>
      <trkpt lat="43.12309" lon="-0.51614">
        <ele>362.31</ele>
        <time>2024-04-28T12:05:11.467Z</time>
      </trkpt>
      <trkpt lat="43.12332" lon="-0.51548">
        <ele>360.52</ele>
        <time>2024-04-28T12:05:18.383Z</time>
      </trkpt>
      <trkpt lat="43.1233" lon="-0.51495">
        <ele>358.91</ele>
        <time>2024-04-28T12:05:25.303Z</time>
      </trkpt>
      <trkpt lat="43.12338" lon="-0.51431">
        <ele>357.02</ele>
        <time>2024-04-28T12:05:32.229Z</time>
      </trkpt>
      <trkpt lat="43.12337" lon="-0.51419">
        <ele>355.53</ele>
        <time>2024-04-28T12:05:39.156Z</time>
      </trkpt>
      <trkpt lat="43.12332" lon="-0.51412">
        <ele>354.1</ele>
        <time>2024-04-28T12:05:46.083Z</time>
      </trkpt>
      <trkpt lat="43.12323" lon="-0.51396">
        <ele>352.66</ele>
        <time>2024-04-28T12:05:53.012Z</time>
      </trkpt>
      <trkpt lat="43.1231" lon="-0.51387">
        <ele>351.29</ele>
        <time>2024-04-28T12:05:59.943Z</time>
      </trkpt>
      <trkpt lat="43.12258" lon="-0.51353">
        <ele>349.63</ele>
        <time>2024-04-28T12:06:06.880Z</time>
      </trkpt>
      <trkpt lat="43.12245" lon="-0.51348">
        <ele>348.34</ele>
        <time>2024-04-28T12:06:13.819Z</time>
      </trkpt>
      <trkpt lat="43.12198" lon="-0.51362">
        <ele>347.1</ele>
        <time>2024-04-28T12:06:20.763Z</time>
      </trkpt>
      <trkpt lat="43.12141" lon="-0.51361">
        <ele>345.85</ele>
        <time>2024-04-28T12:06:27.713Z</time>
      </trkpt>
      <trkpt lat="43.12122" lon="-0.51353">
        <ele>344.8</ele>
        <time>2024-04-28T12:06:34.665Z</time>
      </trkpt>
      <trkpt lat="43.12109" lon="-0.51341">
        <ele>343.81</ele>
        <time>2024-04-28T12:06:41.619Z</time>
      </trkpt>
      <trkpt lat="43.12099" lon="-0.51321">
        <ele>342.94</ele>
        <time>2024-04-28T12:06:48.575Z</time>
      </trkpt>
      <trkpt lat="43.12097" lon="-0.51298">
        <ele>342.26</ele>
        <time>2024-04-28T12:06:55.533Z</time>
      </trkpt>
      <trkpt lat="43.12099" lon="-0.51268">
        <ele>341.86</ele>
        <time>2024-04-28T12:07:02.494Z</time>
      </trkpt>
      <trkpt lat="43.12164" lon="-0.51104">
        <ele>341.72</ele>
        <time>2024-04-28T12:07:09.470Z</time>
      </trkpt>
      <trkpt lat="43.12179" lon="-0.51085">
        <ele>341.46</ele>
        <time>2024-04-28T12:07:16.448Z</time>
      </trkpt>
      <trkpt lat="43.12191" lon="-0.51081">
        <ele>341.18</ele>
        <time>2024-04-28T12:07:23.427Z</time>
      </trkpt>
      <trkpt lat="43.12205" lon="-0.51085">
        <ele>340.86</ele>
        <time>2024-04-28T12:07:30.408Z</time>
      </trkpt>
      <trkpt lat="43.12268" lon="-0.51131">
        <ele>340.06</ele>
        <time>2024-04-28T12:07:37.397Z</time>
      </trkpt>
      <trkpt lat="43.12283" lon="-0.51135">
        <ele>339.93</ele>
        <time>2024-04-28T12:07:44.388Z</time>
      </trkpt>
      <trkpt lat="43.12296" lon="-0.51126">
        <ele>340.04</ele>
        <time>2024-04-28T12:07:51.380Z</time>
      </trkpt>
      <trkpt lat="43.12313" lon="-0.51105">
        <ele>340.14</ele>
        <time>2024-04-28T12:07:58.375Z</time>
      </trkpt>
      <trkpt lat="43.12319" lon="-0.51083">
        <ele>340.28</ele>
        <time>2024-04-28T12:08:05.372Z</time>
      </trkpt>
      <trkpt lat="43.12319" lon="-0.5106">
        <ele>340.5</ele>
        <time>2024-04-28T12:08:12.370Z</time>
      </trkpt>
      <trkpt lat="43.12327" lon="-0.5103">
        <ele>340.64</ele>
        <time>2024-04-28T12:08:19.371Z</time>
      </trkpt>
      <trkpt lat="43.12349" lon="-0.50992">
        <ele>340.58</ele>
        <time>2024-04-28T12:08:26.376Z</time>
      </trkpt>
      <trkpt lat="43.12352" lon="-0.50968">
        <ele>340.71</ele>
        <time>2024-04-28T12:08:33.383Z</time>
      </trkpt>
      <trkpt lat="43.12346" lon="-0.50953">
        <ele>340.93</ele>
        <time>2024-04-28T12:08:40.391Z</time>
      </trkpt>
      <trkpt lat="43.12316" lon="-0.50925">
        <ele>341.42</ele>
        <time>2024-04-28T12:08:47.403Z</time>
      </trkpt>
      <trkpt lat="43.12312" lon="-0.50906">
        <ele>341.65</ele>
        <time>2024-04-28T12:08:54.417Z</time>
      </trkpt>
      <trkpt lat="43.12315" lon="-0.50879">
        <ele>341.8</ele>
        <time>2024-04-28T12:09:01.433Z</time>
      </trkpt>
      <trkpt lat="43.1233" lon="-0.50862">
        <ele>341.7</ele>
        <time>2024-04-28T12:09:08.451Z</time>
      </trkpt>
      <trkpt lat="43.12353" lon="-0.50845">
        <ele>341.47</ele>
        <time>2024-04-28T12:09:15.472Z</time>
      </trkpt>
      <trkpt lat="43.12368" lon="-0.50779">
        <ele>341.46</ele>
        <time>2024-04-28T12:09:22.499Z</time>
      </trkpt>
      <trkpt lat="43.12379" lon="-0.50707">
        <ele>341.33</ele>
        <time>2024-04-28T12:09:29.532Z</time>
      </trkpt>
      <trkpt lat="43.12382" lon="-0.50657">
        <ele>341.24</ele>
        <time>2024-04-28T12:09:36.569Z</time>
      </trkpt>
      <trkpt lat="43.12368" lon="-0.50539">
        <ele>340.81</ele>
        <time>2024-04-28T12:09:43.616Z</time>
      </trkpt>
      <trkpt lat="43.12366" lon="-0.50519">
        <ele>340.52</ele>
        <time>2024-04-28T12:09:50.664Z</time>
      </trkpt>
      <trkpt lat="43.12359" lon="-0.50492">
        <ele>340.16</ele>
        <time>2024-04-28T12:09:57.715Z</time>
      </trkpt>
      <trkpt lat="43.12346" lon="-0.50478">
        <ele>340.02</ele>
        <time>2024-04-28T12:10:04.767Z</time>
      </trkpt>
      <trkpt lat="43.12332" lon="-0.50477">
        <ele>339.8</ele>
        <time>2024-04-28T12:10:11.821Z</time>
      </trkpt>
      <trkpt lat="43.12307" lon="-0.50482">
        <ele>339.55</ele>
        <time>2024-04-28T12:10:18.878Z</time>
      </trkpt>
      <trkpt lat="43.12294" lon="-0.50479">
        <ele>339.14</ele>
        <time>2024-04-28T12:10:25.936Z</time>
      </trkpt>
      <trkpt lat="43.12281" lon="-0.50465">
        <ele>338.59</ele>
        <time>2024-04-28T12:10:32.996Z</time>
      </trkpt>
      <trkpt lat="43.12274" lon="-0.50445">
        <ele>338.06</ele>
        <time>2024-04-28T12:10:40.058Z</time>
      </trkpt>
      <trkpt lat="43.12278" lon="-0.50419">
        <ele>337.47</ele>
        <time>2024-04-28T12:10:47.122Z</time>
      </trkpt>
      <trkpt lat="43.12295" lon="-0.50379">
        <ele>336.85</ele>
        <time>2024-04-28T12:10:54.190Z</time>
      </trkpt>
      <trkpt lat="43.12296" lon="-0.50346">
        <ele>336.3</ele>
        <time>2024-04-28T12:11:01.261Z</time>
      </trkpt>
      <trkpt lat="43.1229" lon="-0.50323">
        <ele>335.69</ele>
        <time>2024-04-28T12:11:08.334Z</time>
      </trkpt>
      <trkpt lat="43.12283" lon="-0.50314">
        <ele>335.07</ele>
        <time>2024-04-28T12:11:15.408Z</time>
      </trkpt>
      <trkpt lat="43.12276" lon="-0.50306">
        <ele>334.48</ele>
        <time>2024-04-28T12:11:22.483Z</time>
      </trkpt>
      <trkpt lat="43.12249" lon="-0.50301">
        <ele>333.94</ele>
        <time>2024-04-28T12:11:29.561Z</time>
      </trkpt>
      <trkpt lat="43.12201" lon="-0.50309">
        <ele>333.1</ele>
        <time>2024-04-28T12:11:36.644Z</time>
      </trkpt>
      <trkpt lat="43.12179" lon="-0.50306">
        <ele>332.2</ele>
        <time>2024-04-28T12:11:43.730Z</time>
      </trkpt>
      <trkpt lat="43.1216" lon="-0.50285">
        <ele>331.16</ele>
        <time>2024-04-28T12:11:50.818Z</time>
      </trkpt>
      <trkpt lat="43.1215" lon="-0.50251">
        <ele>330.2</ele>
        <time>2024-04-28T12:11:57.909Z</time>
      </trkpt>
      <trkpt lat="43.12143" lon="-0.50209">
        <ele>329.36</ele>
        <time>2024-04-28T12:12:05.004Z</time>
      </trkpt>
      <trkpt lat="43.12143" lon="-0.50167">
        <ele>328.47</ele>
        <time>2024-04-28T12:12:12.102Z</time>
      </trkpt>
      <trkpt lat="43.12155" lon="-0.50144">
        <ele>327.64</ele>
        <time>2024-04-28T12:12:19.202Z</time>
      </trkpt>
      <trkpt lat="43.12171" lon="-0.50132">
        <ele>326.9</ele>
        <time>2024-04-28T12:12:26.305Z</time>
      </trkpt>
      <trkpt lat="43.12209" lon="-0.50115">
        <ele>326.1</ele>
        <time>2024-04-28T12:12:33.412Z</time>
      </trkpt>
      <trkpt lat="43.12228" lon="-0.501">
        <ele>325.17</ele>
        <time>2024-04-28T12:12:40.521Z</time>
      </trkpt>
      <trkpt lat="43.12244" lon="-0.50075">
        <ele>324.29</ele>
        <time>2024-04-28T12:12:47.633Z</time>
      </trkpt>
      <trkpt lat="43.12256" lon="-0.50039">
        <ele>323.55</ele>
        <time>2024-04-28T12:12:54.748Z</time>
      </trkpt>
      <trkpt lat="43.12271" lon="-0.49963">
        <ele>322.81</ele>
        <time>2024-04-28T12:13:01.870Z</time>
      </trkpt>
      <trkpt lat="43.12271" lon="-0.49963">
        <ele>322.2</ele>
        <time>2024-04-28T12:13:08.992Z</time>
      </trkpt>
      <trkpt lat="43.12275" lon="-0.49931">
        <ele>321.6</ele>
        <time>2024-04-28T12:13:16.116Z</time>
      </trkpt>
      <trkpt lat="43.12271" lon="-0.49899">
        <ele>321.02</ele>
        <time>2024-04-28T12:13:23.243Z</time>
      </trkpt>
      <trkpt lat="43.12258" lon="-0.49886">
        <ele>320.55</ele>
        <time>2024-04-28T12:13:30.372Z</time>
      </trkpt>
      <trkpt lat="43.12243" lon="-0.49879">
        <ele>320.23</ele>
        <time>2024-04-28T12:13:37.503Z</time>
      </trkpt>
      <trkpt lat="43.12216" lon="-0.49884">
        <ele>320.01</ele>
        <time>2024-04-28T12:13:44.637Z</time>
      </trkpt>
      <trkpt lat="43.12197" lon="-0.49883">
        <ele>319.85</ele>
        <time>2024-04-28T12:13:51.773Z</time>
      </trkpt>
      <trkpt lat="43.12184" lon="-0.4987">
        <ele>319.79</ele>
        <time>2024-04-28T12:13:58.910Z</time>
      </trkpt>
      <trkpt lat="43.12179" lon="-0.49847">
        <ele>319.8</ele>
        <time>2024-04-28T12:14:06.049Z</time>
      </trkpt>
      <trkpt lat="43.12186" lon="-0.49823">
        <ele>319.75</ele>
        <time>2024-04-28T12:14:13.191Z</time>
      </trkpt>
      <trkpt lat="43.1221" lon="-0.49795">
        <ele>319.6</ele>
        <time>2024-04-28T12:14:20.336Z</time>
      </trkpt>
      <trkpt lat="43.12221" lon="-0.49775">
        <ele>319.55</ele>
        <time>2024-04-28T12:14:27.483Z</time>
      </trkpt>
      <trkpt lat="43.12225" lon="-0.49746">
        <ele>319.51</ele>
        <time>2024-04-28T12:14:34.632Z</time>
      </trkpt>
      <trkpt lat="43.12222" lon="-0.49717">
        <ele>319.65</ele>
        <time>2024-04-28T12:14:41.784Z</time>
      </trkpt>
      <trkpt lat="43.12206" lon="-0.49675">
        <ele>320.01</ele>
        <time>2024-04-28T12:14:48.940Z</time>
      </trkpt>
      <trkpt lat="43.12187" lon="-0.49649">
        <ele>320.5</ele>
        <time>2024-04-28T12:14:56.099Z</time>
      </trkpt>
      <trkpt lat="43.1217" lon="-0.49636">
        <ele>320.95</ele>
        <time>2024-04-28T12:15:03.260Z</time>
      </trkpt>
      <trkpt lat="43.12167" lon="-0.49634">
        <ele>321.37</ele>
        <time>2024-04-28T12:15:10.421Z</time>
      </trkpt>
      <trkpt lat="43.12167" lon="-0.49634">
        <ele>321.82</ele>
        <time>2024-04-28T12:15:17.582Z</time>
      </trkpt>
      <trkpt lat="43.12146" lon="-0.49634">
        <ele>322.36</ele>
        <time>2024-04-28T12:15:24.746Z</time>
      </trkpt>
      <trkpt lat="43.12106" lon="-0.49651">
        <ele>323.05</ele>
        <time>2024-04-28T12:15:31.914Z</time>
      </trkpt>
      <trkpt lat="43.12094" lon="-0.49652">
        <ele>323.6</ele>
        <time>2024-04-28T12:15:39.084Z</time>
      </trkpt>
      <trkpt lat="43.12081" lon="-0.49643">
        <ele>324.17</ele>
        <time>2024-04-28T12:15:46.255Z</time>
      </trkpt>
      <trkpt lat="43.12075" lon="-0.49626">
        <ele>324.76</ele>
        <time>2024-04-28T12:15:53.428Z</time>
      </trkpt>
      <trkpt lat="43.12079" lon="-0.49596">
        <ele>325.3</ele>
        <time>2024-04-28T12:16:00.603Z</time>
      </trkpt>
      <trkpt lat="43.12094" lon="-0.49563">
        <ele>325.8</ele>
        <time>2024-04-28T12:16:07.781Z</time>
      </trkpt>
      <trkpt lat="43.12095" lon="-0.49545">
        <ele>326.46</ele>
        <time>2024-04-28T12:16:14.961Z</time>
      </trkpt>
      <trkpt lat="43.12091" lon="-0.49526">
        <ele>327.21</ele>
        <time>2024-04-28T12:16:22.142Z</time>
      </trkpt>
      <trkpt lat="43.12066" lon="-0.49492">
        <ele>328.19</ele>
        <time>2024-04-28T12:16:29.327Z</time>
      </trkpt>
      <trkpt lat="43.12061" lon="-0.49477">
        <ele>328.95</ele>
        <time>2024-04-28T12:16:36.514Z</time>
      </trkpt>
      <trkpt lat="43.12063" lon="-0.49453">
        <ele>329.57</ele>
        <time>2024-04-28T12:16:43.703Z</time>
      </trkpt>
      <trkpt lat="43.12078" lon="-0.49415">
        <ele>330.01</ele>
        <time>2024-04-28T12:16:50.895Z</time>
      </trkpt>
      <trkpt lat="43.12079" lon="-0.49396">
        <ele>330.75</ele>
        <time>2024-04-28T12:16:58.089Z</time>
      </trkpt>
      <trkpt lat="43.12077" lon="-0.49377">
        <ele>331.59</ele>
        <time>2024-04-28T12:17:05.284Z</time>
      </trkpt>
      <trkpt lat="43.1206" lon="-0.49296">
        <ele>332.79</ele>
        <time>2024-04-28T12:17:12.486Z</time>
      </trkpt>
      <trkpt lat="43.12038" lon="-0.49253">
        <ele>333.7</ele>
        <time>2024-04-28T12:17:19.692Z</time>
      </trkpt>
      <trkpt lat="43.12031" lon="-0.49229">
        <ele>334.38</ele>
        <time>2024-04-28T12:17:26.900Z</time>
      </trkpt>
      <trkpt lat="43.12025" lon="-0.49182">
        <ele>334.99</ele>
        <time>2024-04-28T12:17:34.112Z</time>
      </trkpt>
      <trkpt lat="43.12019" lon="-0.4916">
        <ele>335.71</ele>
        <time>2024-04-28T12:17:41.326Z</time>
      </trkpt>
      <trkpt lat="43.12005" lon="-0.49142">
        <ele>336.49</ele>
        <time>2024-04-28T12:17:48.542Z</time>
      </trkpt>
      <trkpt lat="43.11985" lon="-0.49133">
        <ele>337.22</ele>
        <time>2024-04-28T12:17:55.761Z</time>
      </trkpt>
      <trkpt lat="43.11965" lon="-0.49132">
        <ele>337.91</ele>
        <time>2024-04-28T12:18:02.982Z</time>
      </trkpt>
      <trkpt lat="43.11933" lon="-0.49155">
        <ele>338.5</ele>
        <time>2024-04-28T12:18:10.207Z</time>
      </trkpt>
      <trkpt lat="43.11919" lon="-0.49162">
        <ele>338.91</ele>
        <time>2024-04-28T12:18:17.434Z</time>
      </trkpt>
      <trkpt lat="43.11905" lon="-0.49162">
        <ele>339.24</ele>
        <time>2024-04-28T12:18:24.662Z</time>
      </trkpt>
      <trkpt lat="43.11888" lon="-0.49149">
        <ele>339.54</ele>
        <time>2024-04-28T12:18:31.892Z</time>
      </trkpt>
      <trkpt lat="43.11888" lon="-0.49149">
        <ele>339.71</ele>
        <time>2024-04-28T12:18:39.122Z</time>
      </trkpt>
      <trkpt lat="43.11886" lon="-0.49125">
        <ele>339.9</ele>
        <time>2024-04-28T12:18:46.354Z</time>
      </trkpt>
      <trkpt lat="43.1189" lon="-0.49105">
        <ele>339.96</ele>
        <time>2024-04-28T12:18:53.588Z</time>
      </trkpt>
      <trkpt lat="43.11928" lon="-0.49053">
        <ele>339.72</ele>
        <time>2024-04-28T12:19:00.828Z</time>
      </trkpt>
      <trkpt lat="43.11934" lon="-0.4904">
        <ele>339.55</ele>
        <time>2024-04-28T12:19:08.069Z</time>
      </trkpt>
      <trkpt lat="43.11934" lon="-0.4904">
        <ele>339.35</ele>
        <time>2024-04-28T12:19:15.310Z</time>
      </trkpt>
      <trkpt lat="43.1194" lon="-0.4903">
        <ele>339.04</ele>
        <time>2024-04-28T12:19:22.552Z</time>
      </trkpt>
      <trkpt lat="43.11945" lon="-0.49009">
        <ele>338.63</ele>
        <time>2024-04-28T12:19:29.796Z</time>
      </trkpt>
      <trkpt lat="43.11944" lon="-0.48979">
        <ele>338.2</ele>
        <time>2024-04-28T12:19:37.043Z</time>
      </trkpt>
      <trkpt lat="43.11937" lon="-0.48954">
        <ele>337.76</ele>
        <time>2024-04-28T12:19:44.292Z</time>
      </trkpt>
      <trkpt lat="43.11895" lon="-0.48907">
        <ele>337.82</ele>
        <time>2024-04-28T12:19:51.547Z</time>
      </trkpt>
      <trkpt lat="43.11882" lon="-0.48887">
        <ele>337.57</ele>
        <time>2024-04-28T12:19:58.804Z</time>
      </trkpt>
      <trkpt lat="43.11859" lon="-0.48836">
        <ele>337.08</ele>
        <time>2024-04-28T12:20:06.066Z</time>
      </trkpt>
      <trkpt lat="43.11846" lon="-0.48825">
        <ele>336.87</ele>
        <time>2024-04-28T12:20:13.330Z</time>
      </trkpt>
      <trkpt lat="43.1183" lon="-0.48814">
        <ele>336.54</ele>
        <time>2024-04-28T12:20:20.596Z</time>
      </trkpt>
      <trkpt lat="43.11803" lon="-0.48826">
        <ele>336.49</ele>
        <time>2024-04-28T12:20:27.865Z</time>
      </trkpt>
      <trkpt lat="43.11783" lon="-0.48825">
        <ele>336.38</ele>
        <time>2024-04-28T12:20:35.136Z</time>
      </trkpt>
      <trkpt lat="43.11755" lon="-0.48814">
        <ele>336.27</ele>
        <time>2024-04-28T12:20:42.410Z</time>
      </trkpt>
      <trkpt lat="43.11738" lon="-0.48783">
        <ele>335.97</ele>
        <time>2024-04-28T12:20:49.687Z</time>
      </trkpt>
      <trkpt lat="43.11736" lon="-0.48758">
        <ele>335.78</ele>
        <time>2024-04-28T12:20:56.966Z</time>
      </trkpt>
      <trkpt lat="43.11759" lon="-0.48717">
        <ele>335.51</ele>
        <time>2024-04-28T12:21:04.250Z</time>
      </trkpt>
      <trkpt lat="43.11765" lon="-0.48697">
        <ele>335.58</ele>
        <time>2024-04-28T12:21:11.535Z</time>
      </trkpt>
      <trkpt lat="43.11767" lon="-0.48676">
        <ele>335.77</ele>
        <time>2024-04-28T12:21:18.822Z</time>
      </trkpt>
      <trkpt lat="43.11767" lon="-0.48642">
        <ele>336.03</ele>
        <time>2024-04-28T12:21:26.112Z</time>
      </trkpt>
      <trkpt lat="43.11777" lon="-0.48619">
        <ele>336.13</ele>
        <time>2024-04-28T12:21:33.404Z</time>
      </trkpt>
      <trkpt lat="43.11792" lon="-0.48592">
        <ele>336.23</ele>
        <time>2024-04-28T12:21:40.699Z</time>
      </trkpt>
      <trkpt lat="43.11799" lon="-0.48566">
        <ele>336.36</ele>
        <time>2024-04-28T12:21:47.996Z</time>
      </trkpt>
      <trkpt lat="43.11801" lon="-0.48533">
        <ele>336.58</ele>
        <time>2024-04-28T12:21:55.296Z</time>
      </trkpt>
      <trkpt lat="43.11796" lon="-0.48507">
        <ele>337.02</ele>
        <time>2024-04-28T12:22:02.598Z</time>
      </trkpt>
      <trkpt lat="43.11804" lon="-0.48463">
        <ele>337.23</ele>
        <time>2024-04-28T12:22:09.904Z</time>
      </trkpt>
      <trkpt lat="43.11807" lon="-0.48406">
        <ele>337.94</ele>
        <time>2024-04-28T12:22:17.214Z</time>
      </trkpt>
      <trkpt lat="43.11823" lon="-0.48376">
        <ele>337.99</ele>
        <time>2024-04-28T12:22:24.527Z</time>
      </trkpt>
      <trkpt lat="43.11823" lon="-0.48376">
        <ele>338.27</ele>
        <time>2024-04-28T12:22:31.840Z</time>
      </trkpt>
      <trkpt lat="43.11838" lon="-0.48352">
        <ele>338.47</ele>
        <time>2024-04-28T12:22:39.156Z</time>
      </trkpt>
      <trkpt lat="43.11861" lon="-0.48285">
        <ele>338.68</ele>
        <time>2024-04-28T12:22:46.478Z</time>
      </trkpt>
      <trkpt lat="43.11862" lon="-0.48259">
        <ele>339.1</ele>
        <time>2024-04-28T12:22:53.802Z</time>
      </trkpt>
      <trkpt lat="43.11857" lon="-0.48233">
        <ele>339.62</ele>
        <time>2024-04-28T12:23:01.128Z</time>
      </trkpt>
      <trkpt lat="43.11843" lon="-0.48209">
        <ele>340.19</ele>
        <time>2024-04-28T12:23:08.457Z</time>
      </trkpt>
      <trkpt lat="43.11795" lon="-0.48167">
        <ele>340.57</ele>
        <time>2024-04-28T12:23:15.792Z</time>
      </trkpt>
      <trkpt lat="43.11783" lon="-0.48147">
        <ele>341.2</ele>
        <time>2024-04-28T12:23:23.129Z</time>
      </trkpt>
      <trkpt lat="43.11778" lon="-0.48123">
        <ele>341.74</ele>
        <time>2024-04-28T12:23:30.468Z</time>
      </trkpt>
      <trkpt lat="43.11783" lon="-0.48096">
        <ele>342.39</ele>
        <time>2024-04-28T12:23:37.809Z</time>
      </trkpt>
      <trkpt lat="43.11787" lon="-0.48092">
        <ele>342.75</ele>
        <time>2024-04-28T12:23:45.151Z</time>
      </trkpt>
      <trkpt lat="43.11787" lon="-0.48092">
        <ele>342.95</ele>
        <time>2024-04-28T12:23:52.493Z</time>
      </trkpt>
      <trkpt lat="43.11795" lon="-0.4808">
        <ele>343.27</ele>
        <time>2024-04-28T12:23:59.836Z</time>
      </trkpt>
      <trkpt lat="43.1181" lon="-0.48075">
        <ele>343.46</ele>
        <time>2024-04-28T12:24:07.181Z</time>
      </trkpt>
      <trkpt lat="43.11827" lon="-0.4808">
        <ele>343.23</ele>
        <time>2024-04-28T12:24:14.528Z</time>
      </trkpt>
      <trkpt lat="43.11847" lon="-0.48096">
        <ele>342.82</ele>
        <time>2024-04-28T12:24:21.878Z</time>
      </trkpt>
      <trkpt lat="43.11869" lon="-0.48125">
        <ele>342.1</ele>
        <time>2024-04-28T12:24:29.231Z</time>
      </trkpt>
      <trkpt lat="43.11886" lon="-0.48138">
        <ele>341.7</ele>
        <time>2024-04-28T12:24:36.586Z</time>
      </trkpt>
      <trkpt lat="43.11901" lon="-0.48139">
        <ele>341.56</ele>
        <time>2024-04-28T12:24:43.943Z</time>
      </trkpt>
      <trkpt lat="43.11917" lon="-0.48132">
        <ele>341.59</ele>
        <time>2024-04-28T12:24:51.302Z</time>
      </trkpt>
      <trkpt lat="43.11929" lon="-0.48113">
        <ele>341.98</ele>
        <time>2024-04-28T12:24:58.663Z</time>
      </trkpt>
      <trkpt lat="43.11936" lon="-0.48095">
        <ele>342.39</ele>
        <time>2024-04-28T12:25:06.025Z</time>
      </trkpt>
      <trkpt lat="43.11936" lon="-0.48073">
        <ele>343.23</ele>
        <time>2024-04-28T12:25:13.389Z</time>
      </trkpt>
      <trkpt lat="43.11917" lon="-0.48001">
        <ele>344.72</ele>
        <time>2024-04-28T12:25:20.759Z</time>
      </trkpt>
      <trkpt lat="43.1191" lon="-0.4796">
        <ele>345.41</ele>
        <time>2024-04-28T12:25:28.133Z</time>
      </trkpt>
      <trkpt lat="43.11911" lon="-0.47885">
        <ele>345.46</ele>
        <time>2024-04-28T12:25:35.513Z</time>
      </trkpt>
      <trkpt lat="43.11908" lon="-0.47858">
        <ele>346.86</ele>
        <time>2024-04-28T12:25:42.895Z</time>
      </trkpt>
      <trkpt lat="43.11886" lon="-0.4781">
        <ele>349.13</ele>
        <time>2024-04-28T12:25:50.282Z</time>
      </trkpt>
      <trkpt lat="43.11874" lon="-0.47764">
        <ele>350.47</ele>
        <time>2024-04-28T12:25:57.673Z</time>
      </trkpt>
      <trkpt lat="43.11873" lon="-0.47665">
        <ele>351.46</ele>
        <time>2024-04-28T12:26:05.072Z</time>
      </trkpt>
      <trkpt lat="43.1186" lon="-0.47601">
        <ele>352.97</ele>
        <time>2024-04-28T12:26:12.476Z</time>
      </trkpt>
      <trkpt lat="43.11829" lon="-0.4752">
        <ele>355.45</ele>
        <time>2024-04-28T12:26:19.888Z</time>
      </trkpt>
      <trkpt lat="43.11829" lon="-0.47474">
        <ele>356.04</ele>
        <time>2024-04-28T12:26:27.303Z</time>
      </trkpt>
      <trkpt lat="43.11818" lon="-0.47435">
        <ele>357.6</ele>
        <time>2024-04-28T12:26:34.722Z</time>
      </trkpt>
      <trkpt lat="43.11819" lon="-0.47388">
        <ele>357.86</ele>
        <time>2024-04-28T12:26:42.145Z</time>
      </trkpt>
      <trkpt lat="43.11827" lon="-0.47352">
        <ele>357.61</ele>
        <time>2024-04-28T12:26:49.571Z</time>
      </trkpt>
      <trkpt lat="43.11826" lon="-0.47337">
        <ele>358.61</ele>
        <time>2024-04-28T12:26:56.998Z</time>
      </trkpt>
      <trkpt lat="43.11811" lon="-0.47285">
        <ele>360.44</ele>
        <time>2024-04-28T12:27:04.429Z</time>
      </trkpt>
      <trkpt lat="43.11815" lon="-0.47212">
        <ele>359.77</ele>
        <time>2024-04-28T12:27:11.866Z</time>
      </trkpt>
      <trkpt lat="43.11809" lon="-0.47152">
        <ele>359.99</ele>
        <time>2024-04-28T12:27:19.308Z</time>
      </trkpt>
      <trkpt lat="43.11805" lon="-0.47135">
        <ele>360.16</ele>
        <time>2024-04-28T12:27:26.752Z</time>
      </trkpt>
      <trkpt lat="43.11803" lon="-0.4713">
        <ele>362.71</ele>
        <time>2024-04-28T12:27:34.196Z</time>
      </trkpt>
      <trkpt lat="43.11787" lon="-0.47095">
        <ele>363.72</ele>
        <time>2024-04-28T12:27:41.644Z</time>
      </trkpt>
      <trkpt lat="43.11771" lon="-0.47081">
        <ele>365.55</ele>
        <time>2024-04-28T12:27:49.094Z</time>
      </trkpt>
      <trkpt lat="43.11755" lon="-0.47072">
        <ele>367.7</ele>
        <time>2024-04-28T12:27:56.546Z</time>
      </trkpt>
      <trkpt lat="43.11729" lon="-0.47067">
        <ele>370.45</ele>
        <time>2024-04-28T12:28:04.001Z</time>
      </trkpt>
      <trkpt lat="43.11715" lon="-0.47057">
        <ele>372.52</ele>
        <time>2024-04-28T12:28:11.457Z</time>
      </trkpt>
      <trkpt lat="43.11702" lon="-0.47041">
        <ele>374.21</ele>
        <time>2024-04-28T12:28:18.915Z</time>
      </trkpt>
      <trkpt lat="43.11695" lon="-0.47024">
        <ele>375.43</ele>
        <time>2024-04-28T12:28:26.375Z</time>
      </trkpt>
      <trkpt lat="43.11685" lon="-0.46996">
        <ele>376.09</ele>
        <time>2024-04-28T12:28:33.837Z</time>
      </trkpt>
      <trkpt lat="43.1168" lon="-0.46973">
        <ele>376.29</ele>
        <time>2024-04-28T12:28:41.301Z</time>
      </trkpt>
      <trkpt lat="43.11665" lon="-0.46946">
        <ele>376.62</ele>
        <time>2024-04-28T12:28:48.768Z</time>
      </trkpt>
      <trkpt lat="43.11653" lon="-0.46932">
        <ele>377.06</ele>
        <time>2024-04-28T12:28:56.237Z</time>
      </trkpt>
      <trkpt lat="43.11641" lon="-0.46919">
        <ele>377.45</ele>
        <time>2024-04-28T12:29:03.708Z</time>
      </trkpt>
      <trkpt lat="43.11625" lon="-0.46906">
        <ele>377.93</ele>
        <time>2024-04-28T12:29:11.181Z</time>
      </trkpt>
      <trkpt lat="43.11595" lon="-0.46901">
        <ele>379.36</ele>
        <time>2024-04-28T12:29:18.657Z</time>
      </trkpt>
      <trkpt lat="43.11583" lon="-0.46898">
        <ele>380.36</ele>
        <time>2024-04-28T12:29:26.134Z</time>
      </trkpt>
      <trkpt lat="43.11575" lon="-0.46893">
        <ele>381.2</ele>
        <time>2024-04-28T12:29:33.612Z</time>
      </trkpt>
      <trkpt lat="43.11565" lon="-0.46884">
        <ele>381.85</ele>
        <time>2024-04-28T12:29:41.092Z</time>
      </trkpt>
      <trkpt lat="43.11529" lon="-0.46835">
        <ele>381.94</ele>
        <time>2024-04-28T12:29:48.577Z</time>
      </trkpt>
      <trkpt lat="43.11504" lon="-0.46813">
        <ele>382.32</ele>
        <time>2024-04-28T12:29:56.066Z</time>
      </trkpt>
      <trkpt lat="43.11478" lon="-0.46777">
        <ele>382.89</ele>
        <time>2024-04-28T12:30:03.559Z</time>
      </trkpt>
      <trkpt lat="43.11474" lon="-0.46709">
        <ele>382.66</ele>
        <time>2024-04-28T12:30:11.057Z</time>
      </trkpt>
      <trkpt lat="43.11461" lon="-0.46662">
        <ele>382.74</ele>
        <time>2024-04-28T12:30:18.559Z</time>
      </trkpt>
      <trkpt lat="43.11445" lon="-0.46609">
        <ele>382.72</ele>
        <time>2024-04-28T12:30:26.066Z</time>
      </trkpt>
      <trkpt lat="43.11443" lon="-0.46592">
        <ele>382.67</ele>
        <time>2024-04-28T12:30:33.574Z</time>
      </trkpt>
      <trkpt lat="43.11447" lon="-0.46578">
        <ele>382.56</ele>
        <time>2024-04-28T12:30:41.084Z</time>
      </trkpt>
      <trkpt lat="43.11453" lon="-0.46571">
        <ele>382.49</ele>
        <time>2024-04-28T12:30:48.594Z</time>
      </trkpt>
      <trkpt lat="43.11457" lon="-0.46565">
        <ele>382.45</ele>
        <time>2024-04-28T12:30:56.105Z</time>
      </trkpt>
      <trkpt lat="43.11485" lon="-0.46533">
        <ele>382.33</ele>
        <time>2024-04-28T12:31:03.620Z</time>
      </trkpt>
      <trkpt lat="43.11524" lon="-0.46493">
        <ele>382.3</ele>
        <time>2024-04-28T12:31:11.141Z</time>
      </trkpt>
      <trkpt lat="43.11566" lon="-0.4645">
        <ele>382.52</ele>
        <time>2024-04-28T12:31:18.667Z</time>
      </trkpt>
      <trkpt lat="43.11574" lon="-0.46435">
        <ele>382.77</ele>
        <time>2024-04-28T12:31:26.195Z</time>
      </trkpt>
      <trkpt lat="43.1158" lon="-0.46416">
        <ele>383.06</ele>
        <time>2024-04-28T12:31:33.725Z</time>
      </trkpt>
      <trkpt lat="43.11583" lon="-0.46398">
        <ele>383.48</ele>
        <time>2024-04-28T12:31:41.256Z</time>
      </trkpt>
      <trkpt lat="43.11582" lon="-0.46378">
        <ele>384.06</ele>
        <time>2024-04-28T12:31:48.789Z</time>
      </trkpt>
      <trkpt lat="43.11575" lon="-0.46342">
        <ele>384.88</ele>
        <time>2024-04-28T12:31:56.325Z</time>
      </trkpt>
      <trkpt lat="43.11571" lon="-0.46335">
        <ele>385.75</ele>
        <time>2024-04-28T12:32:03.862Z</time>
      </trkpt>
      <trkpt lat="43.11554" lon="-0.46313">
        <ele>386.89</ele>
        <time>2024-04-28T12:32:11.401Z</time>
      </trkpt>
      <trkpt lat="43.11447" lon="-0.46232">
        <ele>388.59</ele>
        <time>2024-04-28T12:32:18.954Z</time>
      </trkpt>
      <trkpt lat="43.11428" lon="-0.46222">
        <ele>389.81</ele>
        <time>2024-04-28T12:32:26.509Z</time>
      </trkpt>
      <trkpt lat="43.11388" lon="-0.46199">
        <ele>390.61</ele>
        <time>2024-04-28T12:32:34.069Z</time>
      </trkpt>
      <trkpt lat="43.11372" lon="-0.46187">
        <ele>391.45</ele>
        <time>2024-04-28T12:32:41.631Z</time>
      </trkpt>
      <trkpt lat="43.11357" lon="-0.4617">
        <ele>392.27</ele>
        <time>2024-04-28T12:32:49.195Z</time>
      </trkpt>
      <trkpt lat="43.11357" lon="-0.4617">
        <ele>393.12</ele>
        <time>2024-04-28T12:32:56.759Z</time>
      </trkpt>
      <trkpt lat="43.11337" lon="-0.46142">
        <ele>394.02</ele>
        <time>2024-04-28T12:33:04.326Z</time>
      </trkpt>
      <trkpt lat="43.11321" lon="-0.46114">
        <ele>395.06</ele>
        <time>2024-04-28T12:33:11.896Z</time>
      </trkpt>
      <trkpt lat="43.11286" lon="-0.46035">
        <ele>396.32</ele>
        <time>2024-04-28T12:33:19.474Z</time>
      </trkpt>
      <trkpt lat="43.11221" lon="-0.45914">
        <ele>396.64</ele>
        <time>2024-04-28T12:33:27.064Z</time>
      </trkpt>
      <trkpt lat="43.11199" lon="-0.45886">
        <ele>396.85</ele>
        <time>2024-04-28T12:33:34.657Z</time>
      </trkpt>
      <trkpt lat="43.1118" lon="-0.45872">
        <ele>397.33</ele>
        <time>2024-04-28T12:33:42.253Z</time>
      </trkpt>
      <trkpt lat="43.11153" lon="-0.4586">
        <ele>398.26</ele>
        <time>2024-04-28T12:33:49.852Z</time>
      </trkpt>
      <trkpt lat="43.11133" lon="-0.45853">
        <ele>399.02</ele>
        <time>2024-04-28T12:33:57.453Z</time>
      </trkpt>
      <trkpt lat="43.1112" lon="-0.45842">
        <ele>399.53</ele>
        <time>2024-04-28T12:34:05.056Z</time>
      </trkpt>
      <trkpt lat="43.11048" lon="-0.45766">
        <ele>400.18</ele>
        <time>2024-04-28T12:34:12.669Z</time>
      </trkpt>
      <trkpt lat="43.11039" lon="-0.45732">
        <ele>400.14</ele>
        <time>2024-04-28T12:34:20.285Z</time>
      </trkpt>
      <trkpt lat="43.11039" lon="-0.45691">
        <ele>400.04</ele>
        <time>2024-04-28T12:34:27.904Z</time>
      </trkpt>
      <trkpt lat="43.11034" lon="-0.45675">
        <ele>400.29</ele>
        <time>2024-04-28T12:34:35.525Z</time>
      </trkpt>
      <trkpt lat="43.1097" lon="-0.45507">
        <ele>400.34</ele>
        <time>2024-04-28T12:34:43.161Z</time>
      </trkpt>
      <trkpt lat="43.10966" lon="-0.45487">
        <ele>400.69</ele>
        <time>2024-04-28T12:34:50.799Z</time>
      </trkpt>
      <trkpt lat="43.10967" lon="-0.45471">
        <ele>401.1</ele>
        <time>2024-04-28T12:34:58.438Z</time>
      </trkpt>
      <trkpt lat="43.10969" lon="-0.45457">
        <ele>401.58</ele>
        <time>2024-04-28T12:35:06.078Z</time>
      </trkpt>
      <trkpt lat="43.10969" lon="-0.45457">
        <ele>402.12</ele>
        <time>2024-04-28T12:35:13.718Z</time>
      </trkpt>
      <trkpt lat="43.10976" lon="-0.45427">
        <ele>402.72</ele>
        <time>2024-04-28T12:35:21.361Z</time>
      </trkpt>
      <trkpt lat="43.10998" lon="-0.45368">
        <ele>403.8</ele>
        <time>2024-04-28T12:35:29.009Z</time>
      </trkpt>
      <trkpt lat="43.11001" lon="-0.45346">
        <ele>404.6</ele>
        <time>2024-04-28T12:35:36.659Z</time>
      </trkpt>
      <trkpt lat="43.11001" lon="-0.4532">
        <ele>405.4</ele>
        <time>2024-04-28T12:35:44.311Z</time>
      </trkpt>
      <trkpt lat="43.11" lon="-0.45301">
        <ele>406.1</ele>
        <time>2024-04-28T12:35:51.965Z</time>
      </trkpt>
      <trkpt lat="43.10977" lon="-0.45234">
        <ele>406.96</ele>
        <time>2024-04-28T12:35:59.625Z</time>
      </trkpt>
      <trkpt lat="43.10978" lon="-0.45207">
        <ele>407.58</ele>
        <time>2024-04-28T12:36:07.287Z</time>
      </trkpt>
      <trkpt lat="43.10987" lon="-0.45164">
        <ele>408.15</ele>
        <time>2024-04-28T12:36:14.952Z</time>
      </trkpt>
      <trkpt lat="43.10987" lon="-0.45125">
        <ele>408.4</ele>
        <time>2024-04-28T12:36:22.621Z</time>
      </trkpt>
      <trkpt lat="43.10982" lon="-0.45081">
        <ele>408.5</ele>
        <time>2024-04-28T12:36:30.293Z</time>
      </trkpt>
      <trkpt lat="43.10975" lon="-0.45039">
        <ele>408.31</ele>
        <time>2024-04-28T12:36:37.969Z</time>
      </trkpt>
      <trkpt lat="43.10979" lon="-0.44995">
        <ele>407.67</ele>
        <time>2024-04-28T12:36:45.648Z</time>
      </trkpt>
      <trkpt lat="43.10978" lon="-0.44977">
        <ele>407.23</ele>
        <time>2024-04-28T12:36:53.329Z</time>
      </trkpt>
      <trkpt lat="43.10977" lon="-0.44969">
        <ele>406.83</ele>
        <time>2024-04-28T12:37:01.010Z</time>
      </trkpt>
      <trkpt lat="43.10966" lon="-0.44948">
        <ele>406.35</ele>
        <time>2024-04-28T12:37:08.693Z</time>
      </trkpt>
      <trkpt lat="43.10967" lon="-0.44948">
        <ele>405.85</ele>
        <time>2024-04-28T12:37:16.376Z</time>
      </trkpt>
      <trkpt lat="43.10946" lon="-0.44923">
        <ele>405.43</ele>
        <time>2024-04-28T12:37:24.063Z</time>
      </trkpt>
      <trkpt lat="43.10852" lon="-0.44847">
        <ele>404.93</ele>
        <time>2024-04-28T12:37:31.762Z</time>
      </trkpt>
      <trkpt lat="43.10832" lon="-0.44826">
        <ele>404.14</ele>
        <time>2024-04-28T12:37:39.463Z</time>
      </trkpt>
      <trkpt lat="43.10824" lon="-0.44811">
        <ele>403.07</ele>
        <time>2024-04-28T12:37:47.166Z</time>
      </trkpt>
      <trkpt lat="43.10813" lon="-0.44789">
        <ele>402.04</ele>
        <time>2024-04-28T12:37:54.871Z</time>
      </trkpt>
      <trkpt lat="43.10806" lon="-0.4476">
        <ele>401.05</ele>
        <time>2024-04-28T12:38:02.579Z</time>
      </trkpt>
      <trkpt lat="43.10791" lon="-0.44673">
        <ele>400.04</ele>
        <time>2024-04-28T12:38:10.294Z</time>
      </trkpt>
      <trkpt lat="43.10772" lon="-0.44611">
        <ele>399.16</ele>
        <time>2024-04-28T12:38:18.014Z</time>
      </trkpt>
      <trkpt lat="43.10768" lon="-0.44582">
        <ele>398.37</ele>
        <time>2024-04-28T12:38:25.737Z</time>
      </trkpt>
      <trkpt lat="43.10768" lon="-0.44553">
        <ele>397.66</ele>
        <time>2024-04-28T12:38:33.462Z</time>
      </trkpt>
      <trkpt lat="43.10774" lon="-0.44486">
        <ele>397.37</ele>
        <time>2024-04-28T12:38:41.193Z</time>
      </trkpt>
      <trkpt lat="43.10773" lon="-0.44458">
        <ele>396.89</ele>
        <time>2024-04-28T12:38:48.926Z</time>
      </trkpt>
      <trkpt lat="43.10767" lon="-0.44417">
        <ele>396.27</ele>
        <time>2024-04-28T12:38:56.662Z</time>
      </trkpt>
      <trkpt lat="43.10757" lon="-0.44385">
        <ele>395.96</ele>
        <time>2024-04-28T12:39:04.401Z</time>
      </trkpt>
      <trkpt lat="43.10748" lon="-0.44366">
        <ele>395.99</ele>
        <time>2024-04-28T12:39:12.142Z</time>
      </trkpt>
      <trkpt lat="43.10726" lon="-0.44339">
        <ele>396.33</ele>
        <time>2024-04-28T12:39:19.886Z</time>
      </trkpt>
      <trkpt lat="43.1072" lon="-0.44328">
        <ele>396.85</ele>
        <time>2024-04-28T12:39:27.631Z</time>
      </trkpt>
      <trkpt lat="43.10713" lon="-0.44318">
        <ele>397.64</ele>
        <time>2024-04-28T12:39:35.378Z</time>
      </trkpt>
      <trkpt lat="43.10693" lon="-0.44264">
        <ele>398.67</ele>
        <time>2024-04-28T12:39:43.129Z</time>
      </trkpt>
      <trkpt lat="43.1068" lon="-0.44241">
        <ele>400.3</ele>
        <time>2024-04-28T12:39:50.883Z</time>
      </trkpt>
      <trkpt lat="43.10653" lon="-0.44206">
        <ele>402.38</ele>
        <time>2024-04-28T12:39:58.641Z</time>
      </trkpt>
      <trkpt lat="43.10575" lon="-0.44117">
        <ele>404.17</ele>
        <time>2024-04-28T12:40:06.410Z</time>
      </trkpt>
      <trkpt lat="43.10565" lon="-0.441">
        <ele>406.03</ele>
        <time>2024-04-28T12:40:14.181Z</time>
      </trkpt>
      <trkpt lat="43.10562" lon="-0.44079">
        <ele>408.03</ele>
        <time>2024-04-28T12:40:21.954Z</time>
      </trkpt>
      <trkpt lat="43.10564" lon="-0.44034">
        <ele>409.91</ele>
        <time>2024-04-28T12:40:29.730Z</time>
      </trkpt>
      <trkpt lat="43.1057" lon="-0.44002">
        <ele>411.71</ele>
        <time>2024-04-28T12:40:37.509Z</time>
      </trkpt>
      <trkpt lat="43.10578" lon="-0.43944">
        <ele>413.7</ele>
        <time>2024-04-28T12:40:45.293Z</time>
      </trkpt>
      <trkpt lat="43.10588" lon="-0.43888">
        <ele>415.06</ele>
        <time>2024-04-28T12:40:53.082Z</time>
      </trkpt>
      <trkpt lat="43.10588" lon="-0.4387">
        <ele>416.24</ele>
        <time>2024-04-28T12:41:00.872Z</time>
      </trkpt>
      <trkpt lat="43.10583" lon="-0.43853">
        <ele>417.43</ele>
        <time>2024-04-28T12:41:08.664Z</time>
      </trkpt>
      <trkpt lat="43.10571" lon="-0.43823">
        <ele>418.37</ele>
        <time>2024-04-28T12:41:16.458Z</time>
      </trkpt>
      <trkpt lat="43.10539" lon="-0.43775">
        <ele>418.98</ele>
        <time>2024-04-28T12:41:24.258Z</time>
      </trkpt>
      <trkpt lat="43.10514" lon="-0.43737">
        <ele>419.68</ele>
        <time>2024-04-28T12:41:32.062Z</time>
      </trkpt>
      <trkpt lat="43.105" lon="-0.43704">
        <ele>420.02</ele>
        <time>2024-04-28T12:41:39.869Z</time>
      </trkpt>
      <trkpt lat="43.10498" lon="-0.43695">
        <ele>420.09</ele>
        <time>2024-04-28T12:41:47.677Z</time>
      </trkpt>
      <trkpt lat="43.10498" lon="-0.43695">
        <ele>419.95</ele>
        <time>2024-04-28T12:41:55.485Z</time>
      </trkpt>
      <trkpt lat="43.1049" lon="-0.43665">
        <ele>419.4</ele>
        <time>2024-04-28T12:42:03.295Z</time>
      </trkpt>
      <trkpt lat="43.10479" lon="-0.43632">
        <ele>418.8</ele>
        <time>2024-04-28T12:42:11.108Z</time>
      </trkpt>
      <trkpt lat="43.10456" lon="-0.43572">
        <ele>418.25</ele>
        <time>2024-04-28T12:42:18.927Z</time>
      </trkpt>
      <trkpt lat="43.10445" lon="-0.43543">
        <ele>417.98</ele>
        <time>2024-04-28T12:42:26.748Z</time>
      </trkpt>
      <trkpt lat="43.10461" lon="-0.43545">
        <ele>417.71</ele>
        <time>2024-04-28T12:42:34.571Z</time>
      </trkpt>
      <trkpt lat="43.10461" lon="-0.43545">
        <ele>417.39</ele>
        <time>2024-04-28T12:42:42.394Z</time>
      </trkpt>
      <trkpt lat="43.10461" lon="-0.43552">
        <ele>413.5</ele>
        <time>2024-04-28T12:42:50.218Z</time>
      </trkpt>
      <trkpt lat="43.10464" lon="-0.43552">
        <ele>413.52</ele>
        <time>2024-04-28T12:42:58.042Z</time>
      </trkpt>
      <trkpt lat="43.10448" lon="-0.4355">
        <ele>413.44</ele>
        <time>2024-04-28T12:43:05.868Z</time>
      </trkpt>
      <trkpt lat="43.10426" lon="-0.43543">
        <ele>413.41</ele>
        <time>2024-04-28T12:43:13.696Z</time>
      </trkpt>
      <trkpt lat="43.10402" lon="-0.43538">
        <ele>413.24</ele>
        <time>2024-04-28T12:43:21.527Z</time>
      </trkpt>
      <trkpt lat="43.10389" lon="-0.43539">
        <ele>413.11</ele>
        <time>2024-04-28T12:43:29.359Z</time>
      </trkpt>
      <trkpt lat="43.10388" lon="-0.4354">
        <ele>413.06</ele>
        <time>2024-04-28T12:43:37.192Z</time>
      </trkpt>
      <trkpt lat="43.10387" lon="-0.43542">
        <ele>413.05</ele>
        <time>2024-04-28T12:43:45.025Z</time>
      </trkpt>
      <trkpt lat="43.10385" lon="-0.43543">
        <ele>413.08</ele>
        <time>2024-04-28T12:43:52.858Z</time>
      </trkpt>
      <trkpt lat="43.10383" lon="-0.43544">
        <ele>413.15</ele>
        <time>2024-04-28T12:44:00.691Z</time>
      </trkpt>
      <trkpt lat="43.10382" lon="-0.43544">
        <ele>413.24</ele>
        <time>2024-04-28T12:44:08.524Z</time>
      </trkpt>
      <trkpt lat="43.1038" lon="-0.43544">
        <ele>413.35</ele>
        <time>2024-04-28T12:44:16.358Z</time>
      </trkpt>
      <trkpt lat="43.10378" lon="-0.43543">
        <ele>413.48</ele>
        <time>2024-04-28T12:44:24.192Z</time>
      </trkpt>
      <trkpt lat="43.10376" lon="-0.43537">
        <ele>413.62</ele>
        <time>2024-04-28T12:44:32.026Z</time>
      </trkpt>
      <trkpt lat="43.10376" lon="-0.43536">
        <ele>413.77</ele>
        <time>2024-04-28T12:44:39.860Z</time>
      </trkpt>
      <trkpt lat="43.10357" lon="-0.43521">
        <ele>413.93</ele>
        <time>2024-04-28T12:44:47.697Z</time>
      </trkpt>
      <trkpt lat="43.10322" lon="-0.43509">
        <ele>414.23</ele>
        <time>2024-04-28T12:44:55.538Z</time>
      </trkpt>
      <trkpt lat="43.10251" lon="-0.43485">
        <ele>414.8</ele>
        <time>2024-04-28T12:45:03.387Z</time>
      </trkpt>
      <trkpt lat="43.10238" lon="-0.43484">
        <ele>415.1</ele>
        <time>2024-04-28T12:45:11.238Z</time>
      </trkpt>
      <trkpt lat="43.10202" lon="-0.43477">
        <ele>415.23</ele>
        <time>2024-04-28T12:45:19.093Z</time>
      </trkpt>
      <trkpt lat="43.10187" lon="-0.43472">
        <ele>415.24</ele>
        <time>2024-04-28T12:45:26.949Z</time>
      </trkpt>
      <trkpt lat="43.10173" lon="-0.43463">
        <ele>415.18</ele>
        <time>2024-04-28T12:45:34.807Z</time>
      </trkpt>
      <trkpt lat="43.10163" lon="-0.43458">
        <ele>415.11</ele>
        <time>2024-04-28T12:45:42.666Z</time>
      </trkpt>
      <trkpt lat="43.10117" lon="-0.43429">
        <ele>414.98</ele>
        <time>2024-04-28T12:45:50.531Z</time>
      </trkpt>
      <trkpt lat="43.10103" lon="-0.4342">
        <ele>414.93</ele>
        <time>2024-04-28T12:45:58.398Z</time>
      </trkpt>
      <trkpt lat="43.10082" lon="-0.43398">
        <ele>414.97</ele>
        <time>2024-04-28T12:46:06.267Z</time>
      </trkpt>
      <trkpt lat="43.10074" lon="-0.43387">
        <ele>415.03</ele>
        <time>2024-04-28T12:46:14.138Z</time>
      </trkpt>
      <trkpt lat="43.10071" lon="-0.43386">
        <ele>415.12</ele>
        <time>2024-04-28T12:46:22.009Z</time>
      </trkpt>
      <trkpt lat="43.10065" lon="-0.43383">
        <ele>415.27</ele>
        <time>2024-04-28T12:46:29.881Z</time>
      </trkpt>
      <trkpt lat="43.10059" lon="-0.43374">
        <ele>415.48</ele>
        <time>2024-04-28T12:46:37.754Z</time>
      </trkpt>
      <trkpt lat="43.10056" lon="-0.43364">
        <ele>415.68</ele>
        <time>2024-04-28T12:46:45.628Z</time>
      </trkpt>
      <trkpt lat="43.10021" lon="-0.43342">
        <ele>415.83</ele>
        <time>2024-04-28T12:46:53.506Z</time>
      </trkpt>
      <trkpt lat="43.09987" lon="-0.43332">
        <ele>415.88</ele>
        <time>2024-04-28T12:47:01.388Z</time>
      </trkpt>
      <trkpt lat="43.09968" lon="-0.43326">
        <ele>416.09</ele>
        <time>2024-04-28T12:47:09.272Z</time>
      </trkpt>
      <trkpt lat="43.09942" lon="-0.43318">
        <ele>416.4</ele>
        <time>2024-04-28T12:47:17.159Z</time>
      </trkpt>
      <trkpt lat="43.099" lon="-0.43308">
        <ele>416.78</ele>
        <time>2024-04-28T12:47:25.051Z</time>
      </trkpt>
      <trkpt lat="43.0987" lon="-0.43302">
        <ele>417.01</ele>
        <time>2024-04-28T12:47:32.946Z</time>
      </trkpt>
      <trkpt lat="43.09839" lon="-0.43299">
        <ele>417.12</ele>
        <time>2024-04-28T12:47:40.844Z</time>
      </trkpt>
      <trkpt lat="43.09775" lon="-0.43294">
        <ele>417.14</ele>
        <time>2024-04-28T12:47:48.750Z</time>
      </trkpt>
      <trkpt lat="43.09724" lon="-0.4329">
        <ele>416.96</ele>
        <time>2024-04-28T12:47:56.661Z</time>
      </trkpt>
      <trkpt lat="43.09617" lon="-0.43282">
        <ele>416.88</ele>
        <time>2024-04-28T12:48:04.584Z</time>
      </trkpt>
      <trkpt lat="43.0951" lon="-0.43274">
        <ele>416.67</ele>
        <time>2024-04-28T12:48:12.519Z</time>
      </trkpt>
      <trkpt lat="43.09475" lon="-0.43268">
        <ele>416.64</ele>
        <time>2024-04-28T12:48:20.458Z</time>
      </trkpt>
      <trkpt lat="43.0945" lon="-0.43262">
        <ele>416.59</ele>
        <time>2024-04-28T12:48:28.400Z</time>
      </trkpt>
      <trkpt lat="43.09422" lon="-0.43253">
        <ele>416.49</ele>
        <time>2024-04-28T12:48:36.345Z</time>
      </trkpt>
      <trkpt lat="43.09388" lon="-0.43239">
        <ele>416.57</ele>
        <time>2024-04-28T12:48:44.294Z</time>
      </trkpt>
      <trkpt lat="43.09355" lon="-0.4322">
        <ele>416.54</ele>
        <time>2024-04-28T12:48:52.247Z</time>
      </trkpt>
      <trkpt lat="43.09324" lon="-0.43199">
        <ele>416.57</ele>
        <time>2024-04-28T12:49:00.204Z</time>
      </trkpt>
      <trkpt lat="43.09297" lon="-0.43177">
        <ele>416.71</ele>
        <time>2024-04-28T12:49:08.164Z</time>
      </trkpt>
      <trkpt lat="43.09251" lon="-0.43133">
        <ele>416.82</ele>
        <time>2024-04-28T12:49:16.131Z</time>
      </trkpt>
      <trkpt lat="43.09221" lon="-0.43109">
        <ele>416.87</ele>
        <time>2024-04-28T12:49:24.101Z</time>
      </trkpt>
      <trkpt lat="43.09201" lon="-0.43095">
        <ele>416.8</ele>
        <time>2024-04-28T12:49:32.074Z</time>
      </trkpt>
      <trkpt lat="43.09161" lon="-0.43069">
        <ele>416.65</ele>
        <time>2024-04-28T12:49:40.052Z</time>
      </trkpt>
      <trkpt lat="43.09132" lon="-0.43048">
        <ele>416.81</ele>
        <time>2024-04-28T12:49:48.033Z</time>
      </trkpt>
      <trkpt lat="43.09106" lon="-0.43025">
        <ele>417.06</ele>
        <time>2024-04-28T12:49:56.018Z</time>
      </trkpt>
      <trkpt lat="43.09067" lon="-0.42989">
        <ele>417.33</ele>
        <time>2024-04-28T12:50:04.008Z</time>
      </trkpt>
      <trkpt lat="43.09049" lon="-0.42977">
        <ele>417.71</ele>
        <time>2024-04-28T12:50:12.000Z</time>
      </trkpt>
      <trkpt lat="43.0904" lon="-0.42978">
        <ele>418.22</ele>
        <time>2024-04-28T12:50:19.993Z</time>
      </trkpt>
      <trkpt lat="43.09033" lon="-0.42974">
        <ele>418.91</ele>
        <time>2024-04-28T12:50:27.987Z</time>
      </trkpt>
      <trkpt lat="43.09029" lon="-0.42963">
        <ele>419.78</ele>
        <time>2024-04-28T12:50:35.982Z</time>
      </trkpt>
      <trkpt lat="43.09029" lon="-0.4295">
        <ele>420.82</ele>
        <time>2024-04-28T12:50:43.978Z</time>
      </trkpt>
      <trkpt lat="43.09013" lon="-0.42916">
        <ele>422.18</ele>
        <time>2024-04-28T12:50:51.978Z</time>
      </trkpt>
      <trkpt lat="43.09004" lon="-0.42899">
        <ele>423.67</ele>
        <time>2024-04-28T12:50:59.979Z</time>
      </trkpt>
      <trkpt lat="43.08977" lon="-0.42839">
        <ele>425.65</ele>
        <time>2024-04-28T12:51:07.986Z</time>
      </trkpt>
      <trkpt lat="43.08954" lon="-0.42788">
        <ele>427.54</ele>
        <time>2024-04-28T12:51:15.998Z</time>
      </trkpt>
      <trkpt lat="43.08932" lon="-0.42749">
        <ele>429.08</ele>
        <time>2024-04-28T12:51:24.014Z</time>
      </trkpt>
      <trkpt lat="43.08907" lon="-0.42714">
        <ele>430.95</ele>
        <time>2024-04-28T12:51:32.034Z</time>
      </trkpt>
      <trkpt lat="43.08872" lon="-0.42673">
        <ele>432.98</ele>
        <time>2024-04-28T12:51:40.059Z</time>
      </trkpt>
      <trkpt lat="43.08842" lon="-0.42641">
        <ele>434.56</ele>
        <time>2024-04-28T12:51:48.088Z</time>
      </trkpt>
      <trkpt lat="43.08813" lon="-0.42618">
        <ele>435.94</ele>
        <time>2024-04-28T12:51:56.121Z</time>
      </trkpt>
      <trkpt lat="43.0878" lon="-0.42599">
        <ele>437.37</ele>
        <time>2024-04-28T12:52:04.158Z</time>
      </trkpt>
      <trkpt lat="43.08764" lon="-0.42592">
        <ele>438.2</ele>
        <time>2024-04-28T12:52:12.197Z</time>
      </trkpt>
      <trkpt lat="43.08735" lon="-0.42584">
        <ele>438.69</ele>
        <time>2024-04-28T12:52:20.239Z</time>
      </trkpt>
      <trkpt lat="43.08711" lon="-0.4258">
        <ele>438.73</ele>
        <time>2024-04-28T12:52:28.284Z</time>
      </trkpt>
      <trkpt lat="43.08673" lon="-0.42578">
        <ele>438.12</ele>
        <time>2024-04-28T12:52:36.333Z</time>
      </trkpt>
      <trkpt lat="43.08646" lon="-0.42576">
        <ele>436.7</ele>
        <time>2024-04-28T12:52:44.385Z</time>
      </trkpt>
      <trkpt lat="43.08612" lon="-0.42566">
        <ele>434.16</ele>
        <time>2024-04-28T12:52:52.441Z</time>
      </trkpt>
      <trkpt lat="43.08596" lon="-0.42558">
        <ele>431.95</ele>
        <time>2024-04-28T12:53:00.499Z</time>
      </trkpt>
      <trkpt lat="43.08572" lon="-0.42542">
        <ele>429.95</ele>
        <time>2024-04-28T12:53:08.560Z</time>
      </trkpt>
      <trkpt lat="43.0855" lon="-0.42521">
        <ele>428.52</ele>
        <time>2024-04-28T12:53:16.624Z</time>
      </trkpt>
      <trkpt lat="43.08541" lon="-0.42509">
        <ele>427.57</ele>
        <time>2024-04-28T12:53:24.689Z</time>
      </trkpt>
      <trkpt lat="43.08517" lon="-0.4247">
        <ele>422.71</ele>
        <time>2024-04-28T12:53:32.758Z</time>
      </trkpt>
      <trkpt lat="43.08515" lon="-0.42467">
        <ele>422.27</ele>
        <time>2024-04-28T12:53:40.828Z</time>
      </trkpt>
      <trkpt lat="43.08483" lon="-0.42396">
        <ele>422.05</ele>
        <time>2024-04-28T12:53:48.904Z</time>
      </trkpt>
      <trkpt lat="43.08478" lon="-0.42397">
        <ele>421.84</ele>
        <time>2024-04-28T12:53:56.981Z</time>
      </trkpt>
      <trkpt lat="43.08469" lon="-0.42394">
        <ele>421.62</ele>
        <time>2024-04-28T12:54:05.059Z</time>
      </trkpt>
      <trkpt lat="43.08462" lon="-0.42387">
        <ele>421.43</ele>
        <time>2024-04-28T12:54:13.138Z</time>
      </trkpt>
      <trkpt lat="43.08458" lon="-0.42377">
        <ele>421.27</ele>
        <time>2024-04-28T12:54:21.218Z</time>
      </trkpt>
      <trkpt lat="43.08457" lon="-0.42363">
        <ele>421.12</ele>
        <time>2024-04-28T12:54:29.299Z</time>
      </trkpt>
      <trkpt lat="43.08459" lon="-0.42354">
        <ele>420.9</ele>
        <time>2024-04-28T12:54:37.381Z</time>
      </trkpt>
      <trkpt lat="43.08463" lon="-0.42346">
        <ele>420.58</ele>
        <time>2024-04-28T12:54:45.464Z</time>
      </trkpt>
      <trkpt lat="43.08468" lon="-0.4234">
        <ele>420.15</ele>
        <time>2024-04-28T12:54:53.547Z</time>
      </trkpt>
      <trkpt lat="43.08475" lon="-0.42337">
        <ele>419.61</ele>
        <time>2024-04-28T12:55:01.631Z</time>
      </trkpt>
      <trkpt lat="43.08493" lon="-0.42268">
        <ele>418.51</ele>
        <time>2024-04-28T12:55:09.721Z</time>
      </trkpt>
      <trkpt lat="43.08512" lon="-0.42224">
        <ele>417.7</ele>
        <time>2024-04-28T12:55:17.815Z</time>
      </trkpt>
      <trkpt lat="43.08514" lon="-0.42216">
        <ele>417.11</ele>
        <time>2024-04-28T12:55:25.910Z</time>
      </trkpt>
      <trkpt lat="43.08513" lon="-0.42213">
        <ele>416.65</ele>
        <time>2024-04-28T12:55:34.005Z</time>
      </trkpt>
      <trkpt lat="43.08512" lon="-0.42208">
        <ele>416.3</ele>
        <time>2024-04-28T12:55:42.101Z</time>
      </trkpt>
      <trkpt lat="43.08513" lon="-0.42203">
        <ele>416.06</ele>
        <time>2024-04-28T12:55:50.197Z</time>
      </trkpt>
      <trkpt lat="43.08518" lon="-0.42195">
        <ele>415.93</ele>
        <time>2024-04-28T12:55:58.294Z</time>
      </trkpt>
      <trkpt lat="43.08525" lon="-0.42195">
        <ele>415.89</ele>
        <time>2024-04-28T12:56:06.392Z</time>
      </trkpt>
      <trkpt lat="43.08531" lon="-0.42201">
        <ele>415.93</ele>
        <time>2024-04-28T12:56:14.490Z</time>
      </trkpt>
      <trkpt lat="43.08533" lon="-0.42206">
        <ele>416</ele>
        <time>2024-04-28T12:56:22.589Z</time>
      </trkpt>
      <trkpt lat="43.08533" lon="-0.42207">
        <ele>416.12</ele>
        <time>2024-04-28T12:56:30.688Z</time>
      </trkpt>
      <trkpt lat="43.08544" lon="-0.42207">
        <ele>416.31</ele>
        <time>2024-04-28T12:56:38.788Z</time>
      </trkpt>
      <trkpt lat="43.0857" lon="-0.42214">
        <ele>416.58</ele>
        <time>2024-04-28T12:56:46.891Z</time>
      </trkpt>
      <trkpt lat="43.08577" lon="-0.42213">
        <ele>416.74</ele>
        <time>2024-04-28T12:56:54.995Z</time>
      </trkpt>
      <trkpt lat="43.08584" lon="-0.42209">
        <ele>416.91</ele>
        <time>2024-04-28T12:57:03.100Z</time>
      </trkpt>
      <trkpt lat="43.08588" lon="-0.42205">
        <ele>417.09</ele>
        <time>2024-04-28T12:57:11.205Z</time>
      </trkpt>
      <trkpt lat="43.08603" lon="-0.42173">
        <ele>417.24</ele>
        <time>2024-04-28T12:57:19.313Z</time>
      </trkpt>
      <trkpt lat="43.08627" lon="-0.42126">
        <ele>417.51</ele>
        <time>2024-04-28T12:57:27.426Z</time>
      </trkpt>
      <trkpt lat="43.08638" lon="-0.42115">
        <ele>418.04</ele>
        <time>2024-04-28T12:57:35.541Z</time>
      </trkpt>
      <trkpt lat="43.08628" lon="-0.42059">
        <ele>419</ele>
        <time>2024-04-28T12:57:43.660Z</time>
      </trkpt>
      <trkpt lat="43.08623" lon="-0.42027">
        <ele>419.53</ele>
        <time>2024-04-28T12:57:51.782Z</time>
      </trkpt>
      <trkpt lat="43.08623" lon="-0.4201">
        <ele>419.79</ele>
        <time>2024-04-28T12:57:59.905Z</time>
      </trkpt>
      <trkpt lat="43.08631" lon="-0.41962">
        <ele>419.96</ele>
        <time>2024-04-28T12:58:08.032Z</time>
      </trkpt>
      <trkpt lat="43.08622" lon="-0.41961">
        <ele>419.72</ele>
        <time>2024-04-28T12:58:16.160Z</time>
      </trkpt>
      <trkpt lat="43.08619" lon="-0.4196">
        <ele>419.63</ele>
        <time>2024-04-28T12:58:24.289Z</time>
      </trkpt>
      <trkpt lat="43.08411" lon="-0.41936">
        <ele>419.46</ele>
        <time>2024-04-28T12:58:32.441Z</time>
      </trkpt>
      <trkpt lat="43.0835" lon="-0.41928">
        <ele>420.11</ele>
        <time>2024-04-28T12:58:40.600Z</time>
      </trkpt>
      <trkpt lat="43.08326" lon="-0.41917">
        <ele>420.59</ele>
        <time>2024-04-28T12:58:48.762Z</time>
      </trkpt>
      <trkpt lat="43.08322" lon="-0.41915">
        <ele>420.88</ele>
        <time>2024-04-28T12:58:56.924Z</time>
      </trkpt>
      <trkpt lat="43.08272" lon="-0.41878">
        <ele>420.57</ele>
        <time>2024-04-28T12:59:05.092Z</time>
      </trkpt>
      <trkpt lat="43.08264" lon="-0.41875">
        <ele>420.52</ele>
        <time>2024-04-28T12:59:13.261Z</time>
      </trkpt>
      <trkpt lat="43.08253" lon="-0.41875">
        <ele>420.68</ele>
        <time>2024-04-28T12:59:21.431Z</time>
      </trkpt>
      <trkpt lat="43.08228" lon="-0.41879">
        <ele>421</ele>
        <time>2024-04-28T12:59:29.604Z</time>
      </trkpt>
      <trkpt lat="43.08192" lon="-0.41885">
        <ele>421.49</ele>
        <time>2024-04-28T12:59:37.781Z</time>
      </trkpt>
      <trkpt lat="43.08114" lon="-0.41905">
        <ele>421.96</ele>
        <time>2024-04-28T12:59:45.967Z</time>
      </trkpt>
      <trkpt lat="43.08009" lon="-0.41934">
        <ele>422.87</ele>
        <time>2024-04-28T12:59:54.165Z</time>
      </trkpt>
      <trkpt lat="43.07976" lon="-0.41938">
        <ele>423.64</ele>
        <time>2024-04-28T13:00:02.367Z</time>
      </trkpt>
      <trkpt lat="43.07919" lon="-0.41938">
        <ele>424.34</ele>
        <time>2024-04-28T13:00:10.575Z</time>
      </trkpt>
      <trkpt lat="43.07901" lon="-0.41942">
        <ele>425.01</ele>
        <time>2024-04-28T13:00:18.785Z</time>
      </trkpt>
      <trkpt lat="43.07843" lon="-0.41957">
        <ele>425.55</ele>
        <time>2024-04-28T13:00:27.002Z</time>
      </trkpt>
      <trkpt lat="43.07817" lon="-0.41955">
        <ele>426.39</ele>
        <time>2024-04-28T13:00:35.221Z</time>
      </trkpt>
      <trkpt lat="43.07778" lon="-0.41936">
        <ele>427.37</ele>
        <time>2024-04-28T13:00:43.445Z</time>
      </trkpt>
      <trkpt lat="43.07718" lon="-0.41904">
        <ele>428.7</ele>
        <time>2024-04-28T13:00:51.676Z</time>
      </trkpt>
      <trkpt lat="43.07699" lon="-0.41891">
        <ele>429.7</ele>
        <time>2024-04-28T13:00:59.910Z</time>
      </trkpt>
      <trkpt lat="43.0769" lon="-0.41881">
        <ele>430.48</ele>
        <time>2024-04-28T13:01:08.145Z</time>
      </trkpt>
      <trkpt lat="43.07676" lon="-0.41867">
        <ele>431.06</ele>
        <time>2024-04-28T13:01:16.382Z</time>
      </trkpt>
      <trkpt lat="43.07669" lon="-0.41865">
        <ele>431.17</ele>
        <time>2024-04-28T13:01:24.620Z</time>
      </trkpt>
      <trkpt lat="43.07657" lon="-0.41865">
        <ele>430.99</ele>
        <time>2024-04-28T13:01:32.859Z</time>
      </trkpt>
      <trkpt lat="43.07639" lon="-0.41872">
        <ele>430.61</ele>
        <time>2024-04-28T13:01:41.100Z</time>
      </trkpt>
      <trkpt lat="43.07625" lon="-0.4187">
        <ele>430.43</ele>
        <time>2024-04-28T13:01:49.343Z</time>
      </trkpt>
      <trkpt lat="43.07612" lon="-0.41865">
        <ele>430.58</ele>
        <time>2024-04-28T13:01:57.587Z</time>
      </trkpt>
      <trkpt lat="43.07588" lon="-0.41855">
        <ele>430.95</ele>
        <time>2024-04-28T13:02:05.834Z</time>
      </trkpt>
      <trkpt lat="43.07567" lon="-0.41851">
        <ele>431.44</ele>
        <time>2024-04-28T13:02:14.083Z</time>
      </trkpt>
      <trkpt lat="43.07555" lon="-0.41849">
        <ele>431.97</ele>
        <time>2024-04-28T13:02:22.334Z</time>
      </trkpt>
      <trkpt lat="43.07545" lon="-0.41843">
        <ele>432.68</ele>
        <time>2024-04-28T13:02:30.586Z</time>
      </trkpt>
      <trkpt lat="43.07516" lon="-0.41819">
        <ele>433.87</ele>
        <time>2024-04-28T13:02:38.842Z</time>
      </trkpt>
      <trkpt lat="43.0748" lon="-0.41775">
        <ele>435.72</ele>
        <time>2024-04-28T13:02:47.103Z</time>
      </trkpt>
      <trkpt lat="43.07454" lon="-0.4175">
        <ele>436.41</ele>
        <time>2024-04-28T13:02:55.367Z</time>
      </trkpt>
      <trkpt lat="43.07435" lon="-0.41733">
        <ele>437.04</ele>
        <time>2024-04-28T13:03:03.634Z</time>
      </trkpt>
      <trkpt lat="43.07416" lon="-0.41708">
        <ele>438.27</ele>
        <time>2024-04-28T13:03:11.904Z</time>
      </trkpt>
      <trkpt lat="43.07392" lon="-0.41677">
        <ele>439.33</ele>
        <time>2024-04-28T13:03:20.178Z</time>
      </trkpt>
      <trkpt lat="43.07365" lon="-0.41647">
        <ele>440.07</ele>
        <time>2024-04-28T13:03:28.455Z</time>
      </trkpt>
      <trkpt lat="43.07347" lon="-0.41632">
        <ele>440.25</ele>
        <time>2024-04-28T13:03:36.735Z</time>
      </trkpt>
      <trkpt lat="43.07333" lon="-0.41629">
        <ele>440.24</ele>
        <time>2024-04-28T13:03:45.016Z</time>
      </trkpt>
      <trkpt lat="43.0733" lon="-0.41629">
        <ele>439.81</ele>
        <time>2024-04-28T13:03:53.298Z</time>
      </trkpt>
      <trkpt lat="43.07327" lon="-0.4163">
        <ele>439.27</ele>
        <time>2024-04-28T13:04:01.580Z</time>
      </trkpt>
      <trkpt lat="43.07273" lon="-0.4165">
        <ele>437.89</ele>
        <time>2024-04-28T13:04:09.868Z</time>
      </trkpt>
      <trkpt lat="43.07225" lon="-0.41659">
        <ele>437.09</ele>
        <time>2024-04-28T13:04:18.162Z</time>
      </trkpt>
      <trkpt lat="43.07113" lon="-0.41667">
        <ele>436.98</ele>
        <time>2024-04-28T13:04:26.468Z</time>
      </trkpt>
      <trkpt lat="43.07032" lon="-0.41682">
        <ele>437</ele>
        <time>2024-04-28T13:04:34.783Z</time>
      </trkpt>
      <trkpt lat="43.06994" lon="-0.4169">
        <ele>436.95</ele>
        <time>2024-04-28T13:04:43.102Z</time>
      </trkpt>
      <trkpt lat="43.06971" lon="-0.41691">
        <ele>436.98</ele>
        <time>2024-04-28T13:04:51.424Z</time>
      </trkpt>
      <trkpt lat="43.0696" lon="-0.4169">
        <ele>436.94</ele>
        <time>2024-04-28T13:04:59.747Z</time>
      </trkpt>
      <trkpt lat="43.06933" lon="-0.41679">
        <ele>436.89</ele>
        <time>2024-04-28T13:05:08.073Z</time>
      </trkpt>
      <trkpt lat="43.06922" lon="-0.41671">
        <ele>436.71</ele>
        <time>2024-04-28T13:05:16.401Z</time>
      </trkpt>
      <trkpt lat="43.06906" lon="-0.41656">
        <ele>436.38</ele>
        <time>2024-04-28T13:05:24.731Z</time>
      </trkpt>
      <trkpt lat="43.06889" lon="-0.41648">
        <ele>436.02</ele>
        <time>2024-04-28T13:05:33.063Z</time>
      </trkpt>
      <trkpt lat="43.06868" lon="-0.41646">
        <ele>435.46</ele>
        <time>2024-04-28T13:05:41.397Z</time>
      </trkpt>
      <trkpt lat="43.06859" lon="-0.41648">
        <ele>434.72</ele>
        <time>2024-04-28T13:05:49.732Z</time>
      </trkpt>
      <trkpt lat="43.06836" lon="-0.4166">
        <ele>433.58</ele>
        <time>2024-04-28T13:05:58.070Z</time>
      </trkpt>
      <trkpt lat="43.068" lon="-0.41671">
        <ele>432.02</ele>
        <time>2024-04-28T13:06:06.412Z</time>
      </trkpt>
      <trkpt lat="43.06773" lon="-0.4168">
        <ele>430.87</ele>
        <time>2024-04-28T13:06:14.757Z</time>
      </trkpt>
      <trkpt lat="43.06667" lon="-0.41712">
        <ele>430.02</ele>
        <time>2024-04-28T13:06:23.114Z</time>
      </trkpt>
      <trkpt lat="43.06653" lon="-0.41715">
        <ele>429.32</ele>
        <time>2024-04-28T13:06:31.473Z</time>
      </trkpt>
      <trkpt lat="43.06637" lon="-0.41715">
        <ele>428.7</ele>
        <time>2024-04-28T13:06:39.834Z</time>
      </trkpt>
      <trkpt lat="43.06624" lon="-0.41711">
        <ele>428.27</ele>
        <time>2024-04-28T13:06:48.196Z</time>
      </trkpt>
      <trkpt lat="43.06604" lon="-0.41697">
        <ele>428.06</ele>
        <time>2024-04-28T13:06:56.561Z</time>
      </trkpt>
      <trkpt lat="43.06589" lon="-0.41678">
        <ele>427.89</ele>
        <time>2024-04-28T13:07:04.928Z</time>
      </trkpt>
      <trkpt lat="43.06565" lon="-0.4164">
        <ele>427.85</ele>
        <time>2024-04-28T13:07:13.299Z</time>
      </trkpt>
      <trkpt lat="43.06555" lon="-0.41629">
        <ele>427.97</ele>
        <time>2024-04-28T13:07:21.671Z</time>
      </trkpt>
      <trkpt lat="43.06543" lon="-0.41623">
        <ele>428.1</ele>
        <time>2024-04-28T13:07:30.045Z</time>
      </trkpt>
      <trkpt lat="43.06524" lon="-0.41623">
        <ele>428.3</ele>
        <time>2024-04-28T13:07:38.421Z</time>
      </trkpt>
      <trkpt lat="43.06495" lon="-0.41631">
        <ele>428.66</ele>
        <time>2024-04-28T13:07:46.800Z</time>
      </trkpt>
      <trkpt lat="43.06457" lon="-0.41637">
        <ele>428.89</ele>
        <time>2024-04-28T13:07:55.183Z</time>
      </trkpt>
      <trkpt lat="43.06426" lon="-0.4164">
        <ele>428.88</ele>
        <time>2024-04-28T13:08:03.570Z</time>
      </trkpt>
      <trkpt lat="43.06409" lon="-0.41646">
        <ele>428.92</ele>
        <time>2024-04-28T13:08:11.959Z</time>
      </trkpt>
      <trkpt lat="43.06397" lon="-0.41653">
        <ele>428.97</ele>
        <time>2024-04-28T13:08:20.349Z</time>
      </trkpt>
      <trkpt lat="43.06371" lon="-0.41675">
        <ele>428.99</ele>
        <time>2024-04-28T13:08:28.743Z</time>
      </trkpt>
      <trkpt lat="43.06333" lon="-0.41702">
        <ele>429.07</ele>
        <time>2024-04-28T13:08:37.141Z</time>
      </trkpt>
      <trkpt lat="43.06315" lon="-0.41711">
        <ele>429.14</ele>
        <time>2024-04-28T13:08:45.542Z</time>
      </trkpt>
      <trkpt lat="43.06304" lon="-0.41713">
        <ele>429.19</ele>
        <time>2024-04-28T13:08:53.944Z</time>
      </trkpt>
      <trkpt lat="43.06273" lon="-0.4171">
        <ele>429.23</ele>
        <time>2024-04-28T13:09:02.349Z</time>
      </trkpt>
      <trkpt lat="43.06261" lon="-0.41708">
        <ele>429.3</ele>
        <time>2024-04-28T13:09:10.756Z</time>
      </trkpt>
      <trkpt lat="43.06249" lon="-0.41711">
        <ele>429.36</ele>
        <time>2024-04-28T13:09:19.164Z</time>
      </trkpt>
      <trkpt lat="43.06237" lon="-0.41722">
        <ele>429.42</ele>
        <time>2024-04-28T13:09:27.574Z</time>
      </trkpt>
      <trkpt lat="43.06152" lon="-0.41832">
        <ele>429.34</ele>
        <time>2024-04-28T13:09:35.997Z</time>
      </trkpt>
      <trkpt lat="43.06132" lon="-0.41856">
        <ele>429.48</ele>
        <time>2024-04-28T13:09:44.423Z</time>
      </trkpt>
      <trkpt lat="43.06116" lon="-0.41865">
        <ele>429.66</ele>
        <time>2024-04-28T13:09:52.850Z</time>
      </trkpt>
      <trkpt lat="43.06058" lon="-0.41878">
        <ele>429.9</ele>
        <time>2024-04-28T13:10:01.284Z</time>
      </trkpt>
      <trkpt lat="43.06022" lon="-0.41896">
        <ele>430.07</ele>
        <time>2024-04-28T13:10:09.722Z</time>
      </trkpt>
      <trkpt lat="43.06011" lon="-0.41899">
        <ele>430.26</ele>
        <time>2024-04-28T13:10:18.162Z</time>
      </trkpt>
      <trkpt lat="43.06002" lon="-0.41898">
        <ele>430.47</ele>
        <time>2024-04-28T13:10:26.603Z</time>
      </trkpt>
      <trkpt lat="43.05948" lon="-0.41872">
        <ele>430.64</ele>
        <time>2024-04-28T13:10:35.050Z</time>
      </trkpt>
      <trkpt lat="43.05936" lon="-0.41868">
        <ele>430.94</ele>
        <time>2024-04-28T13:10:43.498Z</time>
      </trkpt>
      <trkpt lat="43.05919" lon="-0.41869">
        <ele>431.27</ele>
        <time>2024-04-28T13:10:51.948Z</time>
      </trkpt>
      <trkpt lat="43.05905" lon="-0.41877">
        <ele>431.6</ele>
        <time>2024-04-28T13:11:00.400Z</time>
      </trkpt>
      <trkpt lat="43.05894" lon="-0.41891">
        <ele>432.01</ele>
        <time>2024-04-28T13:11:08.853Z</time>
      </trkpt>
      <trkpt lat="43.05881" lon="-0.41909">
        <ele>432.42</ele>
        <time>2024-04-28T13:11:17.309Z</time>
      </trkpt>
      <trkpt lat="43.05866" lon="-0.41922">
        <ele>432.88</ele>
        <time>2024-04-28T13:11:25.767Z</time>
      </trkpt>
      <trkpt lat="43.05848" lon="-0.41928">
        <ele>433.43</ele>
        <time>2024-04-28T13:11:34.227Z</time>
      </trkpt>
      <trkpt lat="43.05783" lon="-0.41939">
        <ele>433.98</ele>
        <time>2024-04-28T13:11:42.694Z</time>
      </trkpt>
      <trkpt lat="43.05729" lon="-0.41955">
        <ele>434.39</ele>
        <time>2024-04-28T13:11:51.167Z</time>
      </trkpt>
      <trkpt lat="43.05675" lon="-0.41979">
        <ele>434.88</ele>
        <time>2024-04-28T13:11:59.646Z</time>
      </trkpt>
      <trkpt lat="43.05627" lon="-0.42005">
        <ele>435.59</ele>
        <time>2024-04-28T13:12:08.131Z</time>
      </trkpt>
      <trkpt lat="43.05598" lon="-0.42024">
        <ele>435.79</ele>
        <time>2024-04-28T13:12:16.620Z</time>
      </trkpt>
      <trkpt lat="43.05575" lon="-0.42042">
        <ele>436.33</ele>
        <time>2024-04-28T13:12:25.112Z</time>
      </trkpt>
      <trkpt lat="43.05534" lon="-0.42084">
        <ele>436.87</ele>
        <time>2024-04-28T13:12:33.609Z</time>
      </trkpt>
      <trkpt lat="43.05507" lon="-0.42116">
        <ele>437.16</ele>
        <time>2024-04-28T13:12:42.110Z</time>
      </trkpt>
      <trkpt lat="43.05496" lon="-0.42128">
        <ele>437.7</ele>
        <time>2024-04-28T13:12:50.613Z</time>
      </trkpt>
      <trkpt lat="43.05482" lon="-0.42136">
        <ele>438.31</ele>
        <time>2024-04-28T13:12:59.117Z</time>
      </trkpt>
      <trkpt lat="43.05458" lon="-0.42146">
        <ele>439.04</ele>
        <time>2024-04-28T13:13:07.624Z</time>
      </trkpt>
      <trkpt lat="43.05387" lon="-0.42159">
        <ele>439.84</ele>
        <time>2024-04-28T13:13:16.139Z</time>
      </trkpt>
      <trkpt lat="43.05352" lon="-0.42164">
        <ele>440.61</ele>
        <time>2024-04-28T13:13:24.658Z</time>
      </trkpt>
      <trkpt lat="43.05343" lon="-0.42163">
        <ele>441.42</ele>
        <time>2024-04-28T13:13:33.178Z</time>
      </trkpt>
      <trkpt lat="43.05317" lon="-0.42151">
        <ele>442.36</ele>
        <time>2024-04-28T13:13:41.701Z</time>
      </trkpt>
      <trkpt lat="43.053" lon="-0.42142">
        <ele>443.41</ele>
        <time>2024-04-28T13:13:50.226Z</time>
      </trkpt>
      <trkpt lat="43.05218" lon="-0.42093">
        <ele>444.6</ele>
        <time>2024-04-28T13:13:58.761Z</time>
      </trkpt>
      <trkpt lat="43.05144" lon="-0.42049">
        <ele>445.59</ele>
        <time>2024-04-28T13:14:07.305Z</time>
      </trkpt>
      <trkpt lat="43.05106" lon="-0.42042">
        <ele>446.64</ele>
        <time>2024-04-28T13:14:15.853Z</time>
      </trkpt>
      <trkpt lat="43.0509" lon="-0.42044">
        <ele>447.65</ele>
        <time>2024-04-28T13:14:24.403Z</time>
      </trkpt>
      <trkpt lat="43.05076" lon="-0.4205">
        <ele>448.63</ele>
        <time>2024-04-28T13:14:32.955Z</time>
      </trkpt>
      <trkpt lat="43.05058" lon="-0.4205">
        <ele>449.72</ele>
        <time>2024-04-28T13:14:41.509Z</time>
      </trkpt>
      <trkpt lat="43.05003" lon="-0.42029">
        <ele>450.79</ele>
        <time>2024-04-28T13:14:50.069Z</time>
      </trkpt>
      <trkpt lat="43.04968" lon="-0.42017">
        <ele>452.19</ele>
        <time>2024-04-28T13:14:58.633Z</time>
      </trkpt>
      <trkpt lat="43.04936" lon="-0.42011">
        <ele>453.47</ele>
        <time>2024-04-28T13:15:07.201Z</time>
      </trkpt>
      <trkpt lat="43.0492" lon="-0.42005">
        <ele>454.4</ele>
        <time>2024-04-28T13:15:15.771Z</time>
      </trkpt>
      <trkpt lat="43.04899" lon="-0.41984">
        <ele>455.25</ele>
        <time>2024-04-28T13:15:24.343Z</time>
      </trkpt>
      <trkpt lat="43.04866" lon="-0.41955">
        <ele>455.66</ele>
        <time>2024-04-28T13:15:32.920Z</time>
      </trkpt>
      <trkpt lat="43.0485" lon="-0.41946">
        <ele>456.01</ele>
        <time>2024-04-28T13:15:41.499Z</time>
      </trkpt>
      <trkpt lat="43.04823" lon="-0.41936">
        <ele>456.27</ele>
        <time>2024-04-28T13:15:50.081Z</time>
      </trkpt>
      <trkpt lat="43.04787" lon="-0.4193">
        <ele>456.46</ele>
        <time>2024-04-28T13:15:58.667Z</time>
      </trkpt>
      <trkpt lat="43.0475" lon="-0.41926">
        <ele>456.77</ele>
        <time>2024-04-28T13:16:07.257Z</time>
      </trkpt>
      <trkpt lat="43.04687" lon="-0.41904">
        <ele>456.56</ele>
        <time>2024-04-28T13:16:15.854Z</time>
      </trkpt>
      <trkpt lat="43.04654" lon="-0.41879">
        <ele>456.65</ele>
        <time>2024-04-28T13:16:24.455Z</time>
      </trkpt>
      <trkpt lat="43.0462" lon="-0.41851">
        <ele>456.76</ele>
        <time>2024-04-28T13:16:33.061Z</time>
      </trkpt>
      <trkpt lat="43.04608" lon="-0.41832">
        <ele>456.85</ele>
        <time>2024-04-28T13:16:41.669Z</time>
      </trkpt>
      <trkpt lat="43.04596" lon="-0.41808">
        <ele>456.82</ele>
        <time>2024-04-28T13:16:50.279Z</time>
      </trkpt>
      <trkpt lat="43.04583" lon="-0.41793">
        <ele>456.69</ele>
        <time>2024-04-28T13:16:58.891Z</time>
      </trkpt>
      <trkpt lat="43.04565" lon="-0.41781">
        <ele>456.42</ele>
        <time>2024-04-28T13:17:07.505Z</time>
      </trkpt>
      <trkpt lat="43.04547" lon="-0.4177">
        <ele>456.41</ele>
        <time>2024-04-28T13:17:16.122Z</time>
      </trkpt>
      <trkpt lat="43.04536" lon="-0.41768">
        <ele>456.29</ele>
        <time>2024-04-28T13:17:24.740Z</time>
      </trkpt>
      <trkpt lat="43.04511" lon="-0.41774">
        <ele>456.23</ele>
        <time>2024-04-28T13:17:33.361Z</time>
      </trkpt>
      <trkpt lat="43.04477" lon="-0.41788">
        <ele>455.63</ele>
        <time>2024-04-28T13:17:41.986Z</time>
      </trkpt>
      <trkpt lat="43.04455" lon="-0.41795">
        <ele>455.13</ele>
        <time>2024-04-28T13:17:50.613Z</time>
      </trkpt>
      <trkpt lat="43.04424" lon="-0.418">
        <ele>454.34</ele>
        <time>2024-04-28T13:17:59.244Z</time>
      </trkpt>
      <trkpt lat="43.04365" lon="-0.41805">
        <ele>454.18</ele>
        <time>2024-04-28T13:18:07.881Z</time>
      </trkpt>
      <trkpt lat="43.04331" lon="-0.41813">
        <ele>453.51</ele>
        <time>2024-04-28T13:18:16.522Z</time>
      </trkpt>
      <trkpt lat="43.04285" lon="-0.41841">
        <ele>452.47</ele>
        <time>2024-04-28T13:18:25.169Z</time>
      </trkpt>
      <trkpt lat="43.04248" lon="-0.41855">
        <ele>451.7</ele>
        <time>2024-04-28T13:18:33.820Z</time>
      </trkpt>
      <trkpt lat="43.04225" lon="-0.41858">
        <ele>451.42</ele>
        <time>2024-04-28T13:18:42.473Z</time>
      </trkpt>
      <trkpt lat="43.0421" lon="-0.41849">
        <ele>451.29</ele>
        <time>2024-04-28T13:18:51.128Z</time>
      </trkpt>
      <trkpt lat="43.042" lon="-0.4184">
        <ele>451.18</ele>
        <time>2024-04-28T13:18:59.785Z</time>
      </trkpt>
      <trkpt lat="43.04175" lon="-0.41804">
        <ele>451.35</ele>
        <time>2024-04-28T13:19:08.446Z</time>
      </trkpt>
      <trkpt lat="43.04161" lon="-0.41789">
        <ele>451.4</ele>
        <time>2024-04-28T13:19:17.109Z</time>
      </trkpt>
      <trkpt lat="43.04151" lon="-0.41782">
        <ele>451.46</ele>
        <time>2024-04-28T13:19:25.773Z</time>
      </trkpt>
      <trkpt lat="43.04127" lon="-0.41778">
        <ele>451.56</ele>
        <time>2024-04-28T13:19:34.440Z</time>
      </trkpt>
      <trkpt lat="43.04096" lon="-0.41775">
        <ele>451.81</ele>
        <time>2024-04-28T13:19:43.110Z</time>
      </trkpt>
      <trkpt lat="43.04088" lon="-0.41772">
        <ele>452.05</ele>
        <time>2024-04-28T13:19:51.781Z</time>
      </trkpt>
      <trkpt lat="43.04081" lon="-0.41768">
        <ele>452.31</ele>
        <time>2024-04-28T13:20:00.453Z</time>
      </trkpt>
      <trkpt lat="43.0406" lon="-0.4175">
        <ele>452.62</ele>
        <time>2024-04-28T13:20:09.127Z</time>
      </trkpt>
      <trkpt lat="43.04043" lon="-0.41739">
        <ele>452.83</ele>
        <time>2024-04-28T13:20:17.804Z</time>
      </trkpt>
      <trkpt lat="43.04017" lon="-0.41726">
        <ele>452.87</ele>
        <time>2024-04-28T13:20:26.484Z</time>
      </trkpt>
      <trkpt lat="43.03992" lon="-0.41718">
        <ele>452.82</ele>
        <time>2024-04-28T13:20:35.166Z</time>
      </trkpt>
      <trkpt lat="43.03952" lon="-0.41713">
        <ele>453.06</ele>
        <time>2024-04-28T13:20:43.853Z</time>
      </trkpt>
      <trkpt lat="43.0392" lon="-0.41715">
        <ele>452.91</ele>
        <time>2024-04-28T13:20:52.544Z</time>
      </trkpt>
      <trkpt lat="43.03874" lon="-0.41719">
        <ele>452.63</ele>
        <time>2024-04-28T13:21:01.240Z</time>
      </trkpt>
      <trkpt lat="43.03855" lon="-0.41721">
        <ele>452.35</ele>
        <time>2024-04-28T13:21:09.938Z</time>
      </trkpt>
      <trkpt lat="43.03838" lon="-0.41726">
        <ele>452.06</ele>
        <time>2024-04-28T13:21:18.638Z</time>
      </trkpt>
      <trkpt lat="43.03804" lon="-0.41742">
        <ele>451.71</ele>
        <time>2024-04-28T13:21:27.342Z</time>
      </trkpt>
      <trkpt lat="43.03771" lon="-0.4176">
        <ele>451.26</ele>
        <time>2024-04-28T13:21:36.050Z</time>
      </trkpt>
      <trkpt lat="43.03733" lon="-0.41782">
        <ele>450.87</ele>
        <time>2024-04-28T13:21:44.762Z</time>
      </trkpt>
      <trkpt lat="43.03721" lon="-0.41787">
        <ele>450.64</ele>
        <time>2024-04-28T13:21:53.476Z</time>
      </trkpt>
      <trkpt lat="43.03707" lon="-0.4179">
        <ele>450.44</ele>
        <time>2024-04-28T13:22:02.191Z</time>
      </trkpt>
      <trkpt lat="43.03685" lon="-0.41795">
        <ele>450.23</ele>
        <time>2024-04-28T13:22:10.909Z</time>
      </trkpt>
      <trkpt lat="43.03664" lon="-0.41806">
        <ele>449.97</ele>
        <time>2024-04-28T13:22:19.629Z</time>
      </trkpt>
      <trkpt lat="43.03636" lon="-0.4182">
        <ele>449.76</ele>
        <time>2024-04-28T13:22:28.352Z</time>
      </trkpt>
      <trkpt lat="43.03617" lon="-0.41826">
        <ele>449.65</ele>
        <time>2024-04-28T13:22:37.078Z</time>
      </trkpt>
      <trkpt lat="43.03589" lon="-0.41832">
        <ele>449.65</ele>
        <time>2024-04-28T13:22:45.807Z</time>
      </trkpt>
      <trkpt lat="43.03564" lon="-0.41834">
        <ele>449.8</ele>
        <time>2024-04-28T13:22:54.539Z</time>
      </trkpt>
      <trkpt lat="43.03539" lon="-0.41839">
        <ele>450.04</ele>
        <time>2024-04-28T13:23:03.273Z</time>
      </trkpt>
      <trkpt lat="43.03526" lon="-0.41835">
        <ele>450.37</ele>
        <time>2024-04-28T13:23:12.009Z</time>
      </trkpt>
      <trkpt lat="43.03519" lon="-0.4183">
        <ele>450.81</ele>
        <time>2024-04-28T13:23:20.746Z</time>
      </trkpt>
      <trkpt lat="43.03515" lon="-0.41824">
        <ele>451.38</ele>
        <time>2024-04-28T13:23:29.483Z</time>
      </trkpt>
      <trkpt lat="43.0351" lon="-0.41807">
        <ele>452.11</ele>
        <time>2024-04-28T13:23:38.222Z</time>
      </trkpt>
      <trkpt lat="43.03506" lon="-0.41799">
        <ele>452.94</ele>
        <time>2024-04-28T13:23:46.962Z</time>
      </trkpt>
      <trkpt lat="43.03491" lon="-0.41787">
        <ele>453.91</ele>
        <time>2024-04-28T13:23:55.704Z</time>
      </trkpt>
      <trkpt lat="43.03471" lon="-0.41774">
        <ele>455.1</ele>
        <time>2024-04-28T13:24:04.448Z</time>
      </trkpt>
      <trkpt lat="43.0346" lon="-0.41773">
        <ele>456.37</ele>
        <time>2024-04-28T13:24:13.193Z</time>
      </trkpt>
      <trkpt lat="43.03426" lon="-0.41773">
        <ele>457.85</ele>
        <time>2024-04-28T13:24:21.942Z</time>
      </trkpt>
      <trkpt lat="43.03407" lon="-0.4177">
        <ele>459.34</ele>
        <time>2024-04-28T13:24:30.693Z</time>
      </trkpt>
      <trkpt lat="43.03392" lon="-0.4177">
        <ele>460.76</ele>
        <time>2024-04-28T13:24:39.446Z</time>
      </trkpt>
      <trkpt lat="43.03385" lon="-0.4177">
        <ele>462.3</ele>
        <time>2024-04-28T13:24:48.200Z</time>
      </trkpt>
      <trkpt lat="43.03371" lon="-0.41764">
        <ele>464</ele>
        <time>2024-04-28T13:24:56.955Z</time>
      </trkpt>
      <trkpt lat="43.03354" lon="-0.41756">
        <ele>465.71</ele>
        <time>2024-04-28T13:25:05.712Z</time>
      </trkpt>
      <trkpt lat="43.03337" lon="-0.41742">
        <ele>467.57</ele>
        <time>2024-04-28T13:25:14.471Z</time>
      </trkpt>
      <trkpt lat="43.03315" lon="-0.41721">
        <ele>469.55</ele>
        <time>2024-04-28T13:25:23.233Z</time>
      </trkpt>
      <trkpt lat="43.03282" lon="-0.41687">
        <ele>472.03</ele>
        <time>2024-04-28T13:25:32.000Z</time>
      </trkpt>
      <trkpt lat="43.03264" lon="-0.41672">
        <ele>473.99</ele>
        <time>2024-04-28T13:25:40.769Z</time>
      </trkpt>
      <trkpt lat="43.03209" lon="-0.41632">
        <ele>476.12</ele>
        <time>2024-04-28T13:25:49.545Z</time>
      </trkpt>
      <trkpt lat="43.03169" lon="-0.41613">
        <ele>477.7</ele>
        <time>2024-04-28T13:25:58.326Z</time>
      </trkpt>
      <trkpt lat="43.03135" lon="-0.41591">
        <ele>478.93</ele>
        <time>2024-04-28T13:26:07.111Z</time>
      </trkpt>
      <trkpt lat="43.03055" lon="-0.41538">
        <ele>480.81</ele>
        <time>2024-04-28T13:26:15.906Z</time>
      </trkpt>
      <trkpt lat="43.03015" lon="-0.41514">
        <ele>482.23</ele>
        <time>2024-04-28T13:26:24.706Z</time>
      </trkpt>
      <trkpt lat="43.02989" lon="-0.41506">
        <ele>483.25</ele>
        <time>2024-04-28T13:26:33.509Z</time>
      </trkpt>
      <trkpt lat="43.02937" lon="-0.41491">
        <ele>483.72</ele>
        <time>2024-04-28T13:26:42.318Z</time>
      </trkpt>
      <trkpt lat="43.02925" lon="-0.41483">
        <ele>484.87</ele>
        <time>2024-04-28T13:26:51.128Z</time>
      </trkpt>
      <trkpt lat="43.02918" lon="-0.41473">
        <ele>485.9</ele>
        <time>2024-04-28T13:26:59.939Z</time>
      </trkpt>
      <trkpt lat="43.02906" lon="-0.41464">
        <ele>486.67</ele>
        <time>2024-04-28T13:27:08.752Z</time>
      </trkpt>
      <trkpt lat="43.02902" lon="-0.41461">
        <ele>487.26</ele>
        <time>2024-04-28T13:27:17.565Z</time>
      </trkpt>
      <trkpt lat="43.0289" lon="-0.41461">
        <ele>487.65</ele>
        <time>2024-04-28T13:27:26.380Z</time>
      </trkpt>
      <trkpt lat="43.0287" lon="-0.41466">
        <ele>487.78</ele>
        <time>2024-04-28T13:27:35.197Z</time>
      </trkpt>
      <trkpt lat="43.0284" lon="-0.41478">
        <ele>487.91</ele>
        <time>2024-04-28T13:27:44.018Z</time>
      </trkpt>
      <trkpt lat="43.02817" lon="-0.41481">
        <ele>488.05</ele>
        <time>2024-04-28T13:27:52.841Z</time>
      </trkpt>
      <trkpt lat="43.02787" lon="-0.41474">
        <ele>488.46</ele>
        <time>2024-04-28T13:28:01.667Z</time>
      </trkpt>
      <trkpt lat="43.02765" lon="-0.41465">
        <ele>488.65</ele>
        <time>2024-04-28T13:28:10.496Z</time>
      </trkpt>
      <trkpt lat="43.02694" lon="-0.41419">
        <ele>488.93</ele>
        <time>2024-04-28T13:28:19.334Z</time>
      </trkpt>
      <trkpt lat="43.02683" lon="-0.41415">
        <ele>489.04</ele>
        <time>2024-04-28T13:28:28.173Z</time>
      </trkpt>
      <trkpt lat="43.02667" lon="-0.41411">
        <ele>489.17</ele>
        <time>2024-04-28T13:28:37.014Z</time>
      </trkpt>
      <trkpt lat="43.02643" lon="-0.4141">
        <ele>489.08</ele>
        <time>2024-04-28T13:28:45.857Z</time>
      </trkpt>
      <trkpt lat="43.02629" lon="-0.41406">
        <ele>489.19</ele>
        <time>2024-04-28T13:28:54.702Z</time>
      </trkpt>
      <trkpt lat="43.02622" lon="-0.41403">
        <ele>489.52</ele>
        <time>2024-04-28T13:29:03.548Z</time>
      </trkpt>
      <trkpt lat="43.02613" lon="-0.41397">
        <ele>490.06</ele>
        <time>2024-04-28T13:29:12.395Z</time>
      </trkpt>
      <trkpt lat="43.02596" lon="-0.41382">
        <ele>490.87</ele>
        <time>2024-04-28T13:29:21.244Z</time>
      </trkpt>
      <trkpt lat="43.02573" lon="-0.41359">
        <ele>491.52</ele>
        <time>2024-04-28T13:29:30.096Z</time>
      </trkpt>
      <trkpt lat="43.02538" lon="-0.41334">
        <ele>491.92</ele>
        <time>2024-04-28T13:29:38.953Z</time>
      </trkpt>
      <trkpt lat="43.02519" lon="-0.41325">
        <ele>492.77</ele>
        <time>2024-04-28T13:29:47.812Z</time>
      </trkpt>
      <trkpt lat="43.02503" lon="-0.41318">
        <ele>493.37</ele>
        <time>2024-04-28T13:29:56.673Z</time>
      </trkpt>
      <trkpt lat="43.02482" lon="-0.41312">
        <ele>493.96</ele>
        <time>2024-04-28T13:30:05.536Z</time>
      </trkpt>
      <trkpt lat="43.02446" lon="-0.41307">
        <ele>494.56</ele>
        <time>2024-04-28T13:30:14.403Z</time>
      </trkpt>
      <trkpt lat="43.0244" lon="-0.41305">
        <ele>495.24</ele>
        <time>2024-04-28T13:30:23.271Z</time>
      </trkpt>
      <trkpt lat="43.02421" lon="-0.41296">
        <ele>496.02</ele>
        <time>2024-04-28T13:30:32.141Z</time>
      </trkpt>
      <trkpt lat="43.02396" lon="-0.4128">
        <ele>496.86</ele>
        <time>2024-04-28T13:30:41.014Z</time>
      </trkpt>
      <trkpt lat="43.02384" lon="-0.41275">
        <ele>497.58</ele>
        <time>2024-04-28T13:30:49.889Z</time>
      </trkpt>
      <trkpt lat="43.02359" lon="-0.41271">
        <ele>498.25</ele>
        <time>2024-04-28T13:30:58.767Z</time>
      </trkpt>
      <trkpt lat="43.02326" lon="-0.41269">
        <ele>499.02</ele>
        <time>2024-04-28T13:31:07.648Z</time>
      </trkpt>
      <trkpt lat="43.02319" lon="-0.4127">
        <ele>499.5</ele>
        <time>2024-04-28T13:31:16.530Z</time>
      </trkpt>
      <trkpt lat="43.02306" lon="-0.4128">
        <ele>499.85</ele>
        <time>2024-04-28T13:31:25.414Z</time>
      </trkpt>
      <trkpt lat="43.02265" lon="-0.41309">
        <ele>500.06</ele>
        <time>2024-04-28T13:31:34.303Z</time>
      </trkpt>
      <trkpt lat="43.02254" lon="-0.41325">
        <ele>500.17</ele>
        <time>2024-04-28T13:31:43.194Z</time>
      </trkpt>
      <trkpt lat="43.02247" lon="-0.41338">
        <ele>500.18</ele>
        <time>2024-04-28T13:31:52.086Z</time>
      </trkpt>
      <trkpt lat="43.02242" lon="-0.41342">
        <ele>500.11</ele>
        <time>2024-04-28T13:32:00.978Z</time>
      </trkpt>
      <trkpt lat="43.02238" lon="-0.41347">
        <ele>499.91</ele>
        <time>2024-04-28T13:32:09.871Z</time>
      </trkpt>
      <trkpt lat="43.02234" lon="-0.41356">
        <ele>499.58</ele>
        <time>2024-04-28T13:32:18.765Z</time>
      </trkpt>
      <trkpt lat="43.02227" lon="-0.41398">
        <ele>499</ele>
        <time>2024-04-28T13:32:27.662Z</time>
      </trkpt>
      <trkpt lat="43.02226" lon="-0.41419">
        <ele>498.36</ele>
        <time>2024-04-28T13:32:36.561Z</time>
      </trkpt>
      <trkpt lat="43.02221" lon="-0.41429">
        <ele>497.71</ele>
        <time>2024-04-28T13:32:45.461Z</time>
      </trkpt>
      <trkpt lat="43.02211" lon="-0.41438">
        <ele>497.01</ele>
        <time>2024-04-28T13:32:54.363Z</time>
      </trkpt>
      <trkpt lat="43.02173" lon="-0.41452">
        <ele>496.2</ele>
        <time>2024-04-28T13:33:03.269Z</time>
      </trkpt>
      <trkpt lat="43.0216" lon="-0.41456">
        <ele>495.3</ele>
        <time>2024-04-28T13:33:12.176Z</time>
      </trkpt>
      <trkpt lat="43.02151" lon="-0.41464">
        <ele>494.28</ele>
        <time>2024-04-28T13:33:21.085Z</time>
      </trkpt>
      <trkpt lat="43.02135" lon="-0.41488">
        <ele>493.07</ele>
        <time>2024-04-28T13:33:29.996Z</time>
      </trkpt>
      <trkpt lat="43.02119" lon="-0.41507">
        <ele>491.82</ele>
        <time>2024-04-28T13:33:38.910Z</time>
      </trkpt>
      <trkpt lat="43.0209" lon="-0.41527">
        <ele>490.53</ele>
        <time>2024-04-28T13:33:47.827Z</time>
      </trkpt>
      <trkpt lat="43.02049" lon="-0.41539">
        <ele>489.2</ele>
        <time>2024-04-28T13:33:56.749Z</time>
      </trkpt>
      <trkpt lat="43.02005" lon="-0.41544">
        <ele>487.96</ele>
        <time>2024-04-28T13:34:05.676Z</time>
      </trkpt>
      <trkpt lat="43.01975" lon="-0.41544">
        <ele>486.7</ele>
        <time>2024-04-28T13:34:14.606Z</time>
      </trkpt>
      <trkpt lat="43.01969" lon="-0.41542">
        <ele>485.63</ele>
        <time>2024-04-28T13:34:23.537Z</time>
      </trkpt>
      <trkpt lat="43.01964" lon="-0.41538">
        <ele>484.6</ele>
        <time>2024-04-28T13:34:32.468Z</time>
      </trkpt>
      <trkpt lat="43.01958" lon="-0.41521">
        <ele>483.71</ele>
        <time>2024-04-28T13:34:41.401Z</time>
      </trkpt>
      <trkpt lat="43.01948" lon="-0.41477">
        <ele>482.81</ele>
        <time>2024-04-28T13:34:50.338Z</time>
      </trkpt>
      <trkpt lat="43.01943" lon="-0.41464">
        <ele>481.85</ele>
        <time>2024-04-28T13:34:59.276Z</time>
      </trkpt>
      <trkpt lat="43.01937" lon="-0.41454">
        <ele>480.9</ele>
        <time>2024-04-28T13:35:08.215Z</time>
      </trkpt>
      <trkpt lat="43.01929" lon="-0.41448">
        <ele>479.98</ele>
        <time>2024-04-28T13:35:17.155Z</time>
      </trkpt>
      <trkpt lat="43.01922" lon="-0.41447">
        <ele>479.1</ele>
        <time>2024-04-28T13:35:26.096Z</time>
      </trkpt>
      <trkpt lat="43.01918" lon="-0.41448">
        <ele>478.17</ele>
        <time>2024-04-28T13:35:35.037Z</time>
      </trkpt>
      <trkpt lat="43.01912" lon="-0.41455">
        <ele>477.19</ele>
        <time>2024-04-28T13:35:43.979Z</time>
      </trkpt>
      <trkpt lat="43.01904" lon="-0.41482">
        <ele>476.01</ele>
        <time>2024-04-28T13:35:52.923Z</time>
      </trkpt>
      <trkpt lat="43.01895" lon="-0.41543">
        <ele>474.58</ele>
        <time>2024-04-28T13:36:01.872Z</time>
      </trkpt>
      <trkpt lat="43.01881" lon="-0.41574">
        <ele>473.44</ele>
        <time>2024-04-28T13:36:10.824Z</time>
      </trkpt>
      <trkpt lat="43.01868" lon="-0.41598">
        <ele>472.41</ele>
        <time>2024-04-28T13:36:19.779Z</time>
      </trkpt>
      <trkpt lat="43.01857" lon="-0.41609">
        <ele>471.5</ele>
        <time>2024-04-28T13:36:28.735Z</time>
      </trkpt>
      <trkpt lat="43.01786" lon="-0.4164">
        <ele>470.47</ele>
        <time>2024-04-28T13:36:37.700Z</time>
      </trkpt>
      <trkpt lat="43.01773" lon="-0.41647">
        <ele>469.75</ele>
        <time>2024-04-28T13:36:46.666Z</time>
      </trkpt>
      <trkpt lat="43.01757" lon="-0.41664">
        <ele>468.96</ele>
        <time>2024-04-28T13:36:55.635Z</time>
      </trkpt>
      <trkpt lat="43.01715" lon="-0.41708">
        <ele>468.28</ele>
        <time>2024-04-28T13:37:04.609Z</time>
      </trkpt>
      <trkpt lat="43.01705" lon="-0.41715">
        <ele>467.77</ele>
        <time>2024-04-28T13:37:13.585Z</time>
      </trkpt>
      <trkpt lat="43.0167" lon="-0.41725">
        <ele>467.43</ele>
        <time>2024-04-28T13:37:22.565Z</time>
      </trkpt>
      <trkpt lat="43.01659" lon="-0.41721">
        <ele>467.11</ele>
        <time>2024-04-28T13:37:31.546Z</time>
      </trkpt>
      <trkpt lat="43.01626" lon="-0.41699">
        <ele>466.97</ele>
        <time>2024-04-28T13:37:40.531Z</time>
      </trkpt>
      <trkpt lat="43.01609" lon="-0.417">
        <ele>466.84</ele>
        <time>2024-04-28T13:37:49.518Z</time>
      </trkpt>
      <trkpt lat="43.01578" lon="-0.41713">
        <ele>466.54</ele>
        <time>2024-04-28T13:37:58.508Z</time>
      </trkpt>
      <trkpt lat="43.01545" lon="-0.41726">
        <ele>466.13</ele>
        <time>2024-04-28T13:38:07.502Z</time>
      </trkpt>
      <trkpt lat="43.01516" lon="-0.41746">
        <ele>465.91</ele>
        <time>2024-04-28T13:38:16.500Z</time>
      </trkpt>
      <trkpt lat="43.01472" lon="-0.41757">
        <ele>465.88</ele>
        <time>2024-04-28T13:38:25.503Z</time>
      </trkpt>
      <trkpt lat="43.01428" lon="-0.41773">
        <ele>465.66</ele>
        <time>2024-04-28T13:38:34.511Z</time>
      </trkpt>
      <trkpt lat="43.01405" lon="-0.41793">
        <ele>465.72</ele>
        <time>2024-04-28T13:38:43.522Z</time>
      </trkpt>
      <trkpt lat="43.01379" lon="-0.41812">
        <ele>465.83</ele>
        <time>2024-04-28T13:38:52.536Z</time>
      </trkpt>
      <trkpt lat="43.01319" lon="-0.41841">
        <ele>466.01</ele>
        <time>2024-04-28T13:39:01.557Z</time>
      </trkpt>
      <trkpt lat="43.01298" lon="-0.41843">
        <ele>466.06</ele>
        <time>2024-04-28T13:39:10.581Z</time>
      </trkpt>
      <trkpt lat="43.01263" lon="-0.41835">
        <ele>466.15</ele>
        <time>2024-04-28T13:39:19.609Z</time>
      </trkpt>
      <trkpt lat="43.01252" lon="-0.41836">
        <ele>466.26</ele>
        <time>2024-04-28T13:39:28.638Z</time>
      </trkpt>
      <trkpt lat="43.01243" lon="-0.4184">
        <ele>466.41</ele>
        <time>2024-04-28T13:39:37.668Z</time>
      </trkpt>
      <trkpt lat="43.01218" lon="-0.41862">
        <ele>466.6</ele>
        <time>2024-04-28T13:39:46.701Z</time>
      </trkpt>
      <trkpt lat="43.01194" lon="-0.41881">
        <ele>466.89</ele>
        <time>2024-04-28T13:39:55.737Z</time>
      </trkpt>
      <trkpt lat="43.01157" lon="-0.41896">
        <ele>467.35</ele>
        <time>2024-04-28T13:40:04.778Z</time>
      </trkpt>
      <trkpt lat="43.01094" lon="-0.41922">
        <ele>467.74</ele>
        <time>2024-04-28T13:40:13.826Z</time>
      </trkpt>
      <trkpt lat="43.01066" lon="-0.41936">
        <ele>468.22</ele>
        <time>2024-04-28T13:40:22.877Z</time>
      </trkpt>
      <trkpt lat="43.01038" lon="-0.41951">
        <ele>468.67</ele>
        <time>2024-04-28T13:40:31.931Z</time>
      </trkpt>
      <trkpt lat="43.01018" lon="-0.41956">
        <ele>469.13</ele>
        <time>2024-04-28T13:40:40.988Z</time>
      </trkpt>
      <trkpt lat="43.01" lon="-0.41966">
        <ele>469.6</ele>
        <time>2024-04-28T13:40:50.047Z</time>
      </trkpt>
      <trkpt lat="43.00988" lon="-0.4198">
        <ele>470.15</ele>
        <time>2024-04-28T13:40:59.108Z</time>
      </trkpt>
      <trkpt lat="43.00977" lon="-0.41995">
        <ele>470.85</ele>
        <time>2024-04-28T13:41:08.170Z</time>
      </trkpt>
      <trkpt lat="43.00962" lon="-0.4201">
        <ele>471.62</ele>
        <time>2024-04-28T13:41:17.234Z</time>
      </trkpt>
      <trkpt lat="43.00933" lon="-0.42028">
        <ele>472.48</ele>
        <time>2024-04-28T13:41:26.302Z</time>
      </trkpt>
      <trkpt lat="43.00925" lon="-0.42029">
        <ele>473.48</ele>
        <time>2024-04-28T13:41:35.371Z</time>
      </trkpt>
      <trkpt lat="43.00915" lon="-0.42028">
        <ele>474.56</ele>
        <time>2024-04-28T13:41:44.441Z</time>
      </trkpt>
      <trkpt lat="43.00901" lon="-0.4202">
        <ele>475.73</ele>
        <time>2024-04-28T13:41:53.513Z</time>
      </trkpt>
      <trkpt lat="43.00848" lon="-0.41979">
        <ele>477.25</ele>
        <time>2024-04-28T13:42:02.591Z</time>
      </trkpt>
      <trkpt lat="43.00788" lon="-0.41926">
        <ele>478.74</ele>
        <time>2024-04-28T13:42:11.677Z</time>
      </trkpt>
      <trkpt lat="43.00708" lon="-0.4186">
        <ele>480.35</ele>
        <time>2024-04-28T13:42:20.774Z</time>
      </trkpt>
      <trkpt lat="43.0065" lon="-0.41799">
        <ele>481.68</ele>
        <time>2024-04-28T13:42:29.879Z</time>
      </trkpt>
      <trkpt lat="43.00625" lon="-0.41771">
        <ele>482.79</ele>
        <time>2024-04-28T13:42:38.988Z</time>
      </trkpt>
      <trkpt lat="43.00614" lon="-0.41752">
        <ele>483.7</ele>
        <time>2024-04-28T13:42:48.099Z</time>
      </trkpt>
      <trkpt lat="43.00591" lon="-0.41721">
        <ele>484.28</ele>
        <time>2024-04-28T13:42:57.213Z</time>
      </trkpt>
      <trkpt lat="43.00571" lon="-0.41705">
        <ele>484.63</ele>
        <time>2024-04-28T13:43:06.330Z</time>
      </trkpt>
      <trkpt lat="43.00556" lon="-0.41697">
        <ele>485</ele>
        <time>2024-04-28T13:43:15.448Z</time>
      </trkpt>
      <trkpt lat="43.00538" lon="-0.41693">
        <ele>485.27</ele>
        <time>2024-04-28T13:43:24.568Z</time>
      </trkpt>
      <trkpt lat="43.00494" lon="-0.41685">
        <ele>485.48</ele>
        <time>2024-04-28T13:43:33.693Z</time>
      </trkpt>
      <trkpt lat="43.00456" lon="-0.41679">
        <ele>486.03</ele>
        <time>2024-04-28T13:43:42.823Z</time>
      </trkpt>
      <trkpt lat="43.00445" lon="-0.4168">
        <ele>486.67</ele>
        <time>2024-04-28T13:43:51.954Z</time>
      </trkpt>
      <trkpt lat="43.00425" lon="-0.41688">
        <ele>487.42</ele>
        <time>2024-04-28T13:44:01.087Z</time>
      </trkpt>
      <trkpt lat="43.00368" lon="-0.41728">
        <ele>488.15</ele>
        <time>2024-04-28T13:44:10.227Z</time>
      </trkpt>
      <trkpt lat="43.00271" lon="-0.41794">
        <ele>489.08</ele>
        <time>2024-04-28T13:44:19.379Z</time>
      </trkpt>
      <trkpt lat="43.0024" lon="-0.41812">
        <ele>489.84</ele>
        <time>2024-04-28T13:44:28.535Z</time>
      </trkpt>
      <trkpt lat="43.00211" lon="-0.41828">
        <ele>490.23</ele>
        <time>2024-04-28T13:44:37.695Z</time>
      </trkpt>
      <trkpt lat="43.00186" lon="-0.41832">
        <ele>490.98</ele>
        <time>2024-04-28T13:44:46.857Z</time>
      </trkpt>
      <trkpt lat="43.00172" lon="-0.41837">
        <ele>491.03</ele>
        <time>2024-04-28T13:44:56.021Z</time>
      </trkpt>
      <trkpt lat="43.00154" lon="-0.41848">
        <ele>490.75</ele>
        <time>2024-04-28T13:45:05.187Z</time>
      </trkpt>
      <trkpt lat="43.00135" lon="-0.41865">
        <ele>489.89</ele>
        <time>2024-04-28T13:45:14.356Z</time>
      </trkpt>
      <trkpt lat="43.00123" lon="-0.41876">
        <ele>489.3</ele>
        <time>2024-04-28T13:45:23.526Z</time>
      </trkpt>
      <trkpt lat="43.00107" lon="-0.41884">
        <ele>488.67</ele>
        <time>2024-04-28T13:45:32.698Z</time>
      </trkpt>
      <trkpt lat="43.00082" lon="-0.41893">
        <ele>488.33</ele>
        <time>2024-04-28T13:45:41.873Z</time>
      </trkpt>
      <trkpt lat="42.99916" lon="-0.41958">
        <ele>487.91</ele>
        <time>2024-04-28T13:45:51.067Z</time>
      </trkpt>
      <trkpt lat="42.99876" lon="-0.41978">
        <ele>487.58</ele>
        <time>2024-04-28T13:46:00.266Z</time>
      </trkpt>
      <trkpt lat="42.99792" lon="-0.42017">
        <ele>487.21</ele>
        <time>2024-04-28T13:46:09.475Z</time>
      </trkpt>
      <trkpt lat="42.9973" lon="-0.42043">
        <ele>487.59</ele>
        <time>2024-04-28T13:46:18.691Z</time>
      </trkpt>
      <trkpt lat="42.99703" lon="-0.42052">
        <ele>487.6</ele>
        <time>2024-04-28T13:46:27.910Z</time>
      </trkpt>
      <trkpt lat="42.9964" lon="-0.42055">
        <ele>487.27</ele>
        <time>2024-04-28T13:46:37.136Z</time>
      </trkpt>
      <trkpt lat="42.99537" lon="-0.42049">
        <ele>487.53</ele>
        <time>2024-04-28T13:46:46.374Z</time>
      </trkpt>
      <trkpt lat="42.99508" lon="-0.4204">
        <ele>487.65</ele>
        <time>2024-04-28T13:46:55.615Z</time>
      </trkpt>
      <trkpt lat="42.99484" lon="-0.42027">
        <ele>487.74</ele>
        <time>2024-04-28T13:47:04.859Z</time>
      </trkpt>
      <trkpt lat="42.99471" lon="-0.42008">
        <ele>487.92</ele>
        <time>2024-04-28T13:47:14.105Z</time>
      </trkpt>
      <trkpt lat="42.99462" lon="-0.41985">
        <ele>488.25</ele>
        <time>2024-04-28T13:47:23.353Z</time>
      </trkpt>
      <trkpt lat="42.99452" lon="-0.41967">
        <ele>488.67</ele>
        <time>2024-04-28T13:47:32.603Z</time>
      </trkpt>
      <trkpt lat="42.99441" lon="-0.41948">
        <ele>489.16</ele>
        <time>2024-04-28T13:47:41.855Z</time>
      </trkpt>
      <trkpt lat="42.99435" lon="-0.41944">
        <ele>489.6</ele>
        <time>2024-04-28T13:47:51.108Z</time>
      </trkpt>
      <trkpt lat="42.994" lon="-0.41935">
        <ele>490.27</ele>
        <time>2024-04-28T13:48:00.365Z</time>
      </trkpt>
      <trkpt lat="42.99378" lon="-0.41931">
        <ele>490.88</ele>
        <time>2024-04-28T13:48:09.624Z</time>
      </trkpt>
      <trkpt lat="42.99368" lon="-0.41931">
        <ele>491.42</ele>
        <time>2024-04-28T13:48:18.884Z</time>
      </trkpt>
      <trkpt lat="42.99369" lon="-0.4186">
        <ele>492.88</ele>
        <time>2024-04-28T13:48:28.150Z</time>
      </trkpt>
      <trkpt lat="42.99369" lon="-0.41856">
        <ele>492.98</ele>
        <time>2024-04-28T13:48:37.416Z</time>
      </trkpt>
      <trkpt lat="42.99371" lon="-0.41812">
        <ele>493.88</ele>
        <time>2024-04-28T13:48:46.686Z</time>
      </trkpt>
      <trkpt lat="42.99367" lon="-0.41798">
        <ele>494.86</ele>
        <time>2024-04-28T13:48:55.957Z</time>
      </trkpt>
      <trkpt lat="42.99358" lon="-0.41784">
        <ele>495.97</ele>
        <time>2024-04-28T13:49:05.230Z</time>
      </trkpt>
      <trkpt lat="42.99301" lon="-0.4173">
        <ele>497.25</ele>
        <time>2024-04-28T13:49:14.510Z</time>
      </trkpt>
      <trkpt lat="42.99275" lon="-0.41706">
        <ele>498.9</ele>
        <time>2024-04-28T13:49:23.794Z</time>
      </trkpt>
      <trkpt lat="42.99261" lon="-0.41696">
        <ele>500.83</ele>
        <time>2024-04-28T13:49:33.080Z</time>
      </trkpt>
      <trkpt lat="42.99258" lon="-0.41693">
        <ele>502.66</ele>
        <time>2024-04-28T13:49:42.366Z</time>
      </trkpt>
      <trkpt lat="42.99253" lon="-0.41685">
        <ele>504.66</ele>
        <time>2024-04-28T13:49:51.653Z</time>
      </trkpt>
      <trkpt lat="42.9925" lon="-0.41677">
        <ele>506.72</ele>
        <time>2024-04-28T13:50:00.941Z</time>
      </trkpt>
      <trkpt lat="42.99251" lon="-0.41658">
        <ele>509.01</ele>
        <time>2024-04-28T13:50:10.230Z</time>
      </trkpt>
      <trkpt lat="42.99263" lon="-0.41645">
        <ele>511.27</ele>
        <time>2024-04-28T13:50:19.521Z</time>
      </trkpt>
      <trkpt lat="42.99283" lon="-0.41628">
        <ele>513.42</ele>
        <time>2024-04-28T13:50:28.814Z</time>
      </trkpt>
      <trkpt lat="42.99293" lon="-0.41609">
        <ele>515.54</ele>
        <time>2024-04-28T13:50:38.109Z</time>
      </trkpt>
      <trkpt lat="42.99316" lon="-0.41538">
        <ele>518.24</ele>
        <time>2024-04-28T13:50:47.411Z</time>
      </trkpt>
      <trkpt lat="42.99326" lon="-0.41491">
        <ele>520.57</ele>
        <time>2024-04-28T13:50:56.717Z</time>
      </trkpt>
      <trkpt lat="42.99328" lon="-0.41453">
        <ele>522.64</ele>
        <time>2024-04-28T13:51:06.026Z</time>
      </trkpt>
      <trkpt lat="42.99331" lon="-0.41425">
        <ele>524.53</ele>
        <time>2024-04-28T13:51:15.337Z</time>
      </trkpt>
      <trkpt lat="42.99306" lon="-0.41412">
        <ele>526.18</ele>
        <time>2024-04-28T13:51:24.651Z</time>
      </trkpt>
      <trkpt lat="42.9926" lon="-0.41385">
        <ele>527.46</ele>
        <time>2024-04-28T13:51:33.971Z</time>
      </trkpt>
      <trkpt lat="42.99222" lon="-0.4136">
        <ele>528.36</ele>
        <time>2024-04-28T13:51:43.295Z</time>
      </trkpt>
      <trkpt lat="42.99155" lon="-0.41322">
        <ele>529.41</ele>
        <time>2024-04-28T13:51:52.627Z</time>
      </trkpt>
      <trkpt lat="42.99123" lon="-0.41304">
        <ele>530.47</ele>
        <time>2024-04-28T13:52:01.963Z</time>
      </trkpt>
      <trkpt lat="42.99053" lon="-0.41277">
        <ele>531.64</ele>
        <time>2024-04-28T13:52:11.307Z</time>
      </trkpt>
      <trkpt lat="42.99028" lon="-0.41269">
        <ele>532.8</ele>
        <time>2024-04-28T13:52:20.654Z</time>
      </trkpt>
      <trkpt lat="42.99" lon="-0.41261">
        <ele>533.92</ele>
        <time>2024-04-28T13:52:30.004Z</time>
      </trkpt>
      <trkpt lat="42.98966" lon="-0.41263">
        <ele>534.92</ele>
        <time>2024-04-28T13:52:39.358Z</time>
      </trkpt>
      <trkpt lat="42.98948" lon="-0.41265">
        <ele>536</ele>
        <time>2024-04-28T13:52:48.714Z</time>
      </trkpt>
      <trkpt lat="42.98939" lon="-0.41267">
        <ele>536.98</ele>
        <time>2024-04-28T13:52:58.071Z</time>
      </trkpt>
      <trkpt lat="42.98926" lon="-0.41276">
        <ele>537.96</ele>
        <time>2024-04-28T13:53:07.430Z</time>
      </trkpt>
      <trkpt lat="42.98918" lon="-0.41289">
        <ele>538.73</ele>
        <time>2024-04-28T13:53:16.790Z</time>
      </trkpt>
      <trkpt lat="42.98915" lon="-0.41295">
        <ele>539.44</ele>
        <time>2024-04-28T13:53:26.151Z</time>
      </trkpt>
      <trkpt lat="42.98906" lon="-0.4135">
        <ele>539.88</ele>
        <time>2024-04-28T13:53:35.516Z</time>
      </trkpt>
      <trkpt lat="42.98898" lon="-0.41382">
        <ele>540.86</ele>
        <time>2024-04-28T13:53:44.884Z</time>
      </trkpt>
      <trkpt lat="42.98876" lon="-0.41441">
        <ele>542.02</ele>
        <time>2024-04-28T13:53:54.257Z</time>
      </trkpt>
      <trkpt lat="42.98871" lon="-0.41449">
        <ele>542.59</ele>
        <time>2024-04-28T13:54:03.631Z</time>
      </trkpt>
      <trkpt lat="42.98867" lon="-0.41456">
        <ele>543.07</ele>
        <time>2024-04-28T13:54:13.006Z</time>
      </trkpt>
      <trkpt lat="42.98847" lon="-0.41473">
        <ele>543.52</ele>
        <time>2024-04-28T13:54:22.384Z</time>
      </trkpt>
      <trkpt lat="42.98838" lon="-0.41474">
        <ele>543.94</ele>
        <time>2024-04-28T13:54:31.763Z</time>
      </trkpt>
      <trkpt lat="42.98821" lon="-0.41492">
        <ele>544.27</ele>
        <time>2024-04-28T13:54:41.144Z</time>
      </trkpt>
      <trkpt lat="42.98799" lon="-0.41522">
        <ele>544.35</ele>
        <time>2024-04-28T13:54:50.529Z</time>
      </trkpt>
      <trkpt lat="42.98793" lon="-0.41528">
        <ele>544.62</ele>
        <time>2024-04-28T13:54:59.914Z</time>
      </trkpt>
      <trkpt lat="42.98785" lon="-0.4153">
        <ele>545</ele>
        <time>2024-04-28T13:55:09.300Z</time>
      </trkpt>
      <trkpt lat="42.98778" lon="-0.41532">
        <ele>545.44</ele>
        <time>2024-04-28T13:55:18.687Z</time>
      </trkpt>
      <trkpt lat="42.98768" lon="-0.4153">
        <ele>546.02</ele>
        <time>2024-04-28T13:55:28.075Z</time>
      </trkpt>
      <trkpt lat="42.98754" lon="-0.4152">
        <ele>546.71</ele>
        <time>2024-04-28T13:55:37.465Z</time>
      </trkpt>
      <trkpt lat="42.98726" lon="-0.41489">
        <ele>547.62</ele>
        <time>2024-04-28T13:55:46.859Z</time>
      </trkpt>
      <trkpt lat="42.98716" lon="-0.41473">
        <ele>548.65</ele>
        <time>2024-04-28T13:55:56.255Z</time>
      </trkpt>
      <trkpt lat="42.98703" lon="-0.41441">
        <ele>550.07</ele>
        <time>2024-04-28T13:56:05.654Z</time>
      </trkpt>
      <trkpt lat="42.9869" lon="-0.41418">
        <ele>551.46</ele>
        <time>2024-04-28T13:56:15.055Z</time>
      </trkpt>
      <trkpt lat="42.98683" lon="-0.41408">
        <ele>552.74</ele>
        <time>2024-04-28T13:56:24.457Z</time>
      </trkpt>
      <trkpt lat="42.98675" lon="-0.41402">
        <ele>553.96</ele>
        <time>2024-04-28T13:56:33.860Z</time>
      </trkpt>
      <trkpt lat="42.98654" lon="-0.41396">
        <ele>555.18</ele>
        <time>2024-04-28T13:56:43.266Z</time>
      </trkpt>
      <trkpt lat="42.98626" lon="-0.41394">
        <ele>556.41</ele>
        <time>2024-04-28T13:56:52.675Z</time>
      </trkpt>
      <trkpt lat="42.98611" lon="-0.41391">
        <ele>557.8</ele>
        <time>2024-04-28T13:57:02.085Z</time>
      </trkpt>
      <trkpt lat="42.98591" lon="-0.41372">
        <ele>559.53</ele>
        <time>2024-04-28T13:57:11.498Z</time>
      </trkpt>
      <trkpt lat="42.98555" lon="-0.41324">
        <ele>561.44</ele>
        <time>2024-04-28T13:57:20.917Z</time>
      </trkpt>
      <trkpt lat="42.98526" lon="-0.41274">
        <ele>563.72</ele>
        <time>2024-04-28T13:57:30.341Z</time>
      </trkpt>
      <trkpt lat="42.98518" lon="-0.4126">
        <ele>565.75</ele>
        <time>2024-04-28T13:57:39.766Z</time>
      </trkpt>
      <trkpt lat="42.98509" lon="-0.41241">
        <ele>567.92</ele>
        <time>2024-04-28T13:57:49.193Z</time>
      </trkpt>
      <trkpt lat="42.98501" lon="-0.41218">
        <ele>570.15</ele>
        <time>2024-04-28T13:57:58.622Z</time>
      </trkpt>
      <trkpt lat="42.98483" lon="-0.41196">
        <ele>572.05</ele>
        <time>2024-04-28T13:58:08.054Z</time>
      </trkpt>
      <trkpt lat="42.98454" lon="-0.41166">
        <ele>573.91</ele>
        <time>2024-04-28T13:58:17.490Z</time>
      </trkpt>
      <trkpt lat="42.98429" lon="-0.41145">
        <ele>576.03</ele>
        <time>2024-04-28T13:58:26.929Z</time>
      </trkpt>
      <trkpt lat="42.98424" lon="-0.41141">
        <ele>577.29</ele>
        <time>2024-04-28T13:58:36.369Z</time>
      </trkpt>
      <trkpt lat="42.98408" lon="-0.41135">
        <ele>578.4</ele>
        <time>2024-04-28T13:58:45.811Z</time>
      </trkpt>
      <trkpt lat="42.98394" lon="-0.41137">
        <ele>579.05</ele>
        <time>2024-04-28T13:58:55.254Z</time>
      </trkpt>
      <trkpt lat="42.98378" lon="-0.41147">
        <ele>579.38</ele>
        <time>2024-04-28T13:59:04.699Z</time>
      </trkpt>
      <trkpt lat="42.98366" lon="-0.41154">
        <ele>580.01</ele>
        <time>2024-04-28T13:59:14.146Z</time>
      </trkpt>
      <trkpt lat="42.98353" lon="-0.41156">
        <ele>580.9</ele>
        <time>2024-04-28T13:59:23.594Z</time>
      </trkpt>
      <trkpt lat="42.98338" lon="-0.4115">
        <ele>581.97</ele>
        <time>2024-04-28T13:59:33.044Z</time>
      </trkpt>
      <trkpt lat="42.98329" lon="-0.41138">
        <ele>583.3</ele>
        <time>2024-04-28T13:59:42.495Z</time>
      </trkpt>
      <trkpt lat="42.98326" lon="-0.41124">
        <ele>584.61</ele>
        <time>2024-04-28T13:59:51.947Z</time>
      </trkpt>
      <trkpt lat="42.98319" lon="-0.41096">
        <ele>585.93</ele>
        <time>2024-04-28T14:00:01.402Z</time>
      </trkpt>
      <trkpt lat="42.98314" lon="-0.41086">
        <ele>586.81</ele>
        <time>2024-04-28T14:00:10.858Z</time>
      </trkpt>
      <trkpt lat="42.98298" lon="-0.41077">
        <ele>587.69</ele>
        <time>2024-04-28T14:00:20.316Z</time>
      </trkpt>
      <trkpt lat="42.98287" lon="-0.41067">
        <ele>588.79</ele>
        <time>2024-04-28T14:00:29.775Z</time>
      </trkpt>
      <trkpt lat="42.9828" lon="-0.41055">
        <ele>590.18</ele>
        <time>2024-04-28T14:00:39.235Z</time>
      </trkpt>
      <trkpt lat="42.9827" lon="-0.41046">
        <ele>591.63</ele>
        <time>2024-04-28T14:00:48.697Z</time>
      </trkpt>
      <trkpt lat="42.98252" lon="-0.41033">
        <ele>593.06</ele>
        <time>2024-04-28T14:00:58.161Z</time>
      </trkpt>
      <trkpt lat="42.98246" lon="-0.41028">
        <ele>594.15</ele>
        <time>2024-04-28T14:01:07.626Z</time>
      </trkpt>
      <trkpt lat="42.98236" lon="-0.41018">
        <ele>595.17</ele>
        <time>2024-04-28T14:01:17.092Z</time>
      </trkpt>
      <trkpt lat="42.98233" lon="-0.41012">
        <ele>595.92</ele>
        <time>2024-04-28T14:01:26.559Z</time>
      </trkpt>
      <trkpt lat="42.98233" lon="-0.4101">
        <ele>596.5</ele>
        <time>2024-04-28T14:01:36.026Z</time>
      </trkpt>
      <trkpt lat="42.98232" lon="-0.41006">
        <ele>598.24</ele>
        <time>2024-04-28T14:01:45.493Z</time>
      </trkpt>
      <trkpt lat="42.98233" lon="-0.40989">
        <ele>598.85</ele>
        <time>2024-04-28T14:01:54.962Z</time>
      </trkpt>
      <trkpt lat="42.98233" lon="-0.40984">
        <ele>599.34</ele>
        <time>2024-04-28T14:02:04.431Z</time>
      </trkpt>
      <trkpt lat="42.98228" lon="-0.40979">
        <ele>599.67</ele>
        <time>2024-04-28T14:02:13.901Z</time>
      </trkpt>
      <trkpt lat="42.982" lon="-0.40964">
        <ele>599.96</ele>
        <time>2024-04-28T14:02:23.374Z</time>
      </trkpt>
      <trkpt lat="42.98177" lon="-0.40957">
        <ele>600.22</ele>
        <time>2024-04-28T14:02:32.850Z</time>
      </trkpt>
      <trkpt lat="42.98169" lon="-0.40955">
        <ele>600.43</ele>
        <time>2024-04-28T14:02:42.327Z</time>
      </trkpt>
      <trkpt lat="42.98139" lon="-0.40957">
        <ele>600.75</ele>
        <time>2024-04-28T14:02:51.807Z</time>
      </trkpt>
      <trkpt lat="42.98107" lon="-0.40956">
        <ele>601</ele>
        <time>2024-04-28T14:03:01.291Z</time>
      </trkpt>
      <trkpt lat="42.98067" lon="-0.40951">
        <ele>599.88</ele>
        <time>2024-04-28T14:03:10.779Z</time>
      </trkpt>
      <trkpt lat="42.98053" lon="-0.40944">
        <ele>598.95</ele>
        <time>2024-04-28T14:03:20.269Z</time>
      </trkpt>
      <trkpt lat="42.98041" lon="-0.40928">
        <ele>598.23</ele>
        <time>2024-04-28T14:03:29.761Z</time>
      </trkpt>
      <trkpt lat="42.98029" lon="-0.40906">
        <ele>598.01</ele>
        <time>2024-04-28T14:03:39.255Z</time>
      </trkpt>
      <trkpt lat="42.98013" lon="-0.40872">
        <ele>598.04</ele>
        <time>2024-04-28T14:03:48.752Z</time>
      </trkpt>
      <trkpt lat="42.98009" lon="-0.40866">
        <ele>598.22</ele>
        <time>2024-04-28T14:03:58.250Z</time>
      </trkpt>
      <trkpt lat="42.97997" lon="-0.40852">
        <ele>598.52</ele>
        <time>2024-04-28T14:04:07.749Z</time>
      </trkpt>
      <trkpt lat="42.97985" lon="-0.40831">
        <ele>599.07</ele>
        <time>2024-04-28T14:04:17.251Z</time>
      </trkpt>
      <trkpt lat="42.97977" lon="-0.40808">
        <ele>599.76</ele>
        <time>2024-04-28T14:04:26.755Z</time>
      </trkpt>
      <trkpt lat="42.97974" lon="-0.40799">
        <ele>600.3</ele>
        <time>2024-04-28T14:04:36.260Z</time>
      </trkpt>
      <trkpt lat="42.97967" lon="-0.40761">
        <ele>600.78</ele>
        <time>2024-04-28T14:04:45.768Z</time>
      </trkpt>
      <trkpt lat="42.97959" lon="-0.40733">
        <ele>601.2</ele>
        <time>2024-04-28T14:04:55.278Z</time>
      </trkpt>
      <trkpt lat="42.97944" lon="-0.40711">
        <ele>601.81</ele>
        <time>2024-04-28T14:05:04.791Z</time>
      </trkpt>
      <trkpt lat="42.97936" lon="-0.40702">
        <ele>602.23</ele>
        <time>2024-04-28T14:05:14.305Z</time>
      </trkpt>
      <trkpt lat="42.97921" lon="-0.40693">
        <ele>602.54</ele>
        <time>2024-04-28T14:05:23.821Z</time>
      </trkpt>
      <trkpt lat="42.97902" lon="-0.40686">
        <ele>602.92</ele>
        <time>2024-04-28T14:05:33.339Z</time>
      </trkpt>
      <trkpt lat="42.97885" lon="-0.40681">
        <ele>603.38</ele>
        <time>2024-04-28T14:05:42.859Z</time>
      </trkpt>
      <trkpt lat="42.97868" lon="-0.40677">
        <ele>603.61</ele>
        <time>2024-04-28T14:05:52.381Z</time>
      </trkpt>
      <trkpt lat="42.97856" lon="-0.40672">
        <ele>603.92</ele>
        <time>2024-04-28T14:06:01.904Z</time>
      </trkpt>
      <trkpt lat="42.97844" lon="-0.40661">
        <ele>604.18</ele>
        <time>2024-04-28T14:06:11.429Z</time>
      </trkpt>
      <trkpt lat="42.97839" lon="-0.40652">
        <ele>604.55</ele>
        <time>2024-04-28T14:06:20.955Z</time>
      </trkpt>
      <trkpt lat="42.97836" lon="-0.40644">
        <ele>604.9</ele>
        <time>2024-04-28T14:06:30.481Z</time>
      </trkpt>
      <trkpt lat="42.97834" lon="-0.40625">
        <ele>605.25</ele>
        <time>2024-04-28T14:06:40.009Z</time>
      </trkpt>
      <trkpt lat="42.97832" lon="-0.40596">
        <ele>605.72</ele>
        <time>2024-04-28T14:06:49.539Z</time>
      </trkpt>
      <trkpt lat="42.97829" lon="-0.40588">
        <ele>606.16</ele>
        <time>2024-04-28T14:06:59.070Z</time>
      </trkpt>
      <trkpt lat="42.97801" lon="-0.40546">
        <ele>607.16</ele>
        <time>2024-04-28T14:07:08.606Z</time>
      </trkpt>
      <trkpt lat="42.97789" lon="-0.40528">
        <ele>608.36</ele>
        <time>2024-04-28T14:07:18.144Z</time>
      </trkpt>
      <trkpt lat="42.97783" lon="-0.40517">
        <ele>609.53</ele>
        <time>2024-04-28T14:07:27.683Z</time>
      </trkpt>
      <trkpt lat="42.97781" lon="-0.40509">
        <ele>610.62</ele>
        <time>2024-04-28T14:07:37.222Z</time>
      </trkpt>
      <trkpt lat="42.97783" lon="-0.405">
        <ele>611.56</ele>
        <time>2024-04-28T14:07:46.762Z</time>
      </trkpt>
      <trkpt lat="42.9779" lon="-0.40491">
        <ele>612.39</ele>
        <time>2024-04-28T14:07:56.303Z</time>
      </trkpt>
      <trkpt lat="42.97796" lon="-0.40482">
        <ele>613.44</ele>
        <time>2024-04-28T14:08:05.845Z</time>
      </trkpt>
      <trkpt lat="42.97797" lon="-0.40473">
        <ele>614.63</ele>
        <time>2024-04-28T14:08:15.388Z</time>
      </trkpt>
      <trkpt lat="42.97795" lon="-0.40465">
        <ele>616</ele>
        <time>2024-04-28T14:08:24.932Z</time>
      </trkpt>
      <trkpt lat="42.9778" lon="-0.40453">
        <ele>617.73</ele>
        <time>2024-04-28T14:08:34.478Z</time>
      </trkpt>
      <trkpt lat="42.97766" lon="-0.40449">
        <ele>619.41</ele>
        <time>2024-04-28T14:08:44.025Z</time>
      </trkpt>
      <trkpt lat="42.97748" lon="-0.40449">
        <ele>621.21</ele>
        <time>2024-04-28T14:08:53.574Z</time>
      </trkpt>
      <trkpt lat="42.97733" lon="-0.40449">
        <ele>623.04</ele>
        <time>2024-04-28T14:09:03.125Z</time>
      </trkpt>
      <trkpt lat="42.97713" lon="-0.40457">
        <ele>625.16</ele>
        <time>2024-04-28T14:09:12.678Z</time>
      </trkpt>
      <trkpt lat="42.97701" lon="-0.4046">
        <ele>627.32</ele>
        <time>2024-04-28T14:09:22.232Z</time>
      </trkpt>
      <trkpt lat="42.97689" lon="-0.4046">
        <ele>629.57</ele>
        <time>2024-04-28T14:09:31.788Z</time>
      </trkpt>
      <trkpt lat="42.97664" lon="-0.40438">
        <ele>631.95</ele>
        <time>2024-04-28T14:09:41.347Z</time>
      </trkpt>
      <trkpt lat="42.97634" lon="-0.4041">
        <ele>634.6</ele>
        <time>2024-04-28T14:09:50.910Z</time>
      </trkpt>
      <trkpt lat="42.97606" lon="-0.4038">
        <ele>637.11</ele>
        <time>2024-04-28T14:10:00.477Z</time>
      </trkpt>
      <trkpt lat="42.97599" lon="-0.40368">
        <ele>639.27</ele>
        <time>2024-04-28T14:10:10.045Z</time>
      </trkpt>
      <trkpt lat="42.97596" lon="-0.40354">
        <ele>641.27</ele>
        <time>2024-04-28T14:10:19.615Z</time>
      </trkpt>
      <trkpt lat="42.97592" lon="-0.40327">
        <ele>643.15</ele>
        <time>2024-04-28T14:10:29.187Z</time>
      </trkpt>
      <trkpt lat="42.97584" lon="-0.4031">
        <ele>644.98</ele>
        <time>2024-04-28T14:10:38.760Z</time>
      </trkpt>
      <trkpt lat="42.97579" lon="-0.40305">
        <ele>646.85</ele>
        <time>2024-04-28T14:10:48.334Z</time>
      </trkpt>
      <trkpt lat="42.97571" lon="-0.40301">
        <ele>648.69</ele>
        <time>2024-04-28T14:10:57.909Z</time>
      </trkpt>
      <trkpt lat="42.97563" lon="-0.40301">
        <ele>650.41</ele>
        <time>2024-04-28T14:11:07.485Z</time>
      </trkpt>
      <trkpt lat="42.97557" lon="-0.40305">
        <ele>651.98</ele>
        <time>2024-04-28T14:11:17.062Z</time>
      </trkpt>
      <trkpt lat="42.97552" lon="-0.40315">
        <ele>653.44</ele>
        <time>2024-04-28T14:11:26.640Z</time>
      </trkpt>
      <trkpt lat="42.97551" lon="-0.40324">
        <ele>654.72</ele>
        <time>2024-04-28T14:11:36.218Z</time>
      </trkpt>
      <trkpt lat="42.97553" lon="-0.40334">
        <ele>655.89</ele>
        <time>2024-04-28T14:11:45.797Z</time>
      </trkpt>
      <trkpt lat="42.9756" lon="-0.4035">
        <ele>656.96</ele>
        <time>2024-04-28T14:11:55.378Z</time>
      </trkpt>
      <trkpt lat="42.97561" lon="-0.40359">
        <ele>658.01</ele>
        <time>2024-04-28T14:12:04.960Z</time>
      </trkpt>
      <trkpt lat="42.97558" lon="-0.40367">
        <ele>659.12</ele>
        <time>2024-04-28T14:12:14.542Z</time>
      </trkpt>
      <trkpt lat="42.97553" lon="-0.40371">
        <ele>660.19</ele>
        <time>2024-04-28T14:12:24.125Z</time>
      </trkpt>
      <trkpt lat="42.97543" lon="-0.40372">
        <ele>661.31</ele>
        <time>2024-04-28T14:12:33.709Z</time>
      </trkpt>
      <trkpt lat="42.97533" lon="-0.40363">
        <ele>662.38</ele>
        <time>2024-04-28T14:12:43.294Z</time>
      </trkpt>
      <trkpt lat="42.97528" lon="-0.40352">
        <ele>663.22</ele>
        <time>2024-04-28T14:12:52.880Z</time>
      </trkpt>
      <trkpt lat="42.97527" lon="-0.40345">
        <ele>663.85</ele>
        <time>2024-04-28T14:13:02.467Z</time>
      </trkpt>
      <trkpt lat="42.97528" lon="-0.4032">
        <ele>664.37</ele>
        <time>2024-04-28T14:13:12.056Z</time>
      </trkpt>
      <trkpt lat="42.97534" lon="-0.40295">
        <ele>664.73</ele>
        <time>2024-04-28T14:13:21.647Z</time>
      </trkpt>
      <trkpt lat="42.97533" lon="-0.40283">
        <ele>665.66</ele>
        <time>2024-04-28T14:13:31.239Z</time>
      </trkpt>
      <trkpt lat="42.9753" lon="-0.40278">
        <ele>666.66</ele>
        <time>2024-04-28T14:13:40.832Z</time>
      </trkpt>
      <trkpt lat="42.97525" lon="-0.40276">
        <ele>667.9</ele>
        <time>2024-04-28T14:13:50.425Z</time>
      </trkpt>
      <trkpt lat="42.97517" lon="-0.40274">
        <ele>669.34</ele>
        <time>2024-04-28T14:14:00.019Z</time>
      </trkpt>
      <trkpt lat="42.97505" lon="-0.40276">
        <ele>671.11</ele>
        <time>2024-04-28T14:14:09.615Z</time>
      </trkpt>
      <trkpt lat="42.97499" lon="-0.40275">
        <ele>672.76</ele>
        <time>2024-04-28T14:14:19.211Z</time>
      </trkpt>
      <trkpt lat="42.97495" lon="-0.40272">
        <ele>674.44</ele>
        <time>2024-04-28T14:14:28.808Z</time>
      </trkpt>
      <trkpt lat="42.97489" lon="-0.40261">
        <ele>676.25</ele>
        <time>2024-04-28T14:14:38.406Z</time>
      </trkpt>
      <trkpt lat="42.97487" lon="-0.40251">
        <ele>678.02</ele>
        <time>2024-04-28T14:14:48.005Z</time>
      </trkpt>
      <trkpt lat="42.97487" lon="-0.40214">
        <ele>680.12</ele>
        <time>2024-04-28T14:14:57.607Z</time>
      </trkpt>
      <trkpt lat="42.97487" lon="-0.40161">
        <ele>682.29</ele>
        <time>2024-04-28T14:15:07.213Z</time>
      </trkpt>
      <trkpt lat="42.97478" lon="-0.40116">
        <ele>684.31</ele>
        <time>2024-04-28T14:15:16.823Z</time>
      </trkpt>
      <trkpt lat="42.97476" lon="-0.40078">
        <ele>685.73</ele>
        <time>2024-04-28T14:15:26.436Z</time>
      </trkpt>
      <trkpt lat="42.97472" lon="-0.40034">
        <ele>687.36</ele>
        <time>2024-04-28T14:15:36.053Z</time>
      </trkpt>
      <trkpt lat="42.9747" lon="-0.40001">
        <ele>689.07</ele>
        <time>2024-04-28T14:15:45.672Z</time>
      </trkpt>
      <trkpt lat="42.97469" lon="-0.3996">
        <ele>690.91</ele>
        <time>2024-04-28T14:15:55.295Z</time>
      </trkpt>
      <trkpt lat="42.97467" lon="-0.39918">
        <ele>692.53</ele>
        <time>2024-04-28T14:16:04.921Z</time>
      </trkpt>
      <trkpt lat="42.97457" lon="-0.39883">
        <ele>694.42</ele>
        <time>2024-04-28T14:16:14.550Z</time>
      </trkpt>
      <trkpt lat="42.97453" lon="-0.39862">
        <ele>695.79</ele>
        <time>2024-04-28T14:16:24.181Z</time>
      </trkpt>
      <trkpt lat="42.97451" lon="-0.39823">
        <ele>696.49</ele>
        <time>2024-04-28T14:16:33.815Z</time>
      </trkpt>
      <trkpt lat="42.97448" lon="-0.3981">
        <ele>697.72</ele>
        <time>2024-04-28T14:16:43.450Z</time>
      </trkpt>
      <trkpt lat="42.97443" lon="-0.39795">
        <ele>699.13</ele>
        <time>2024-04-28T14:16:53.087Z</time>
      </trkpt>
      <trkpt lat="42.97435" lon="-0.39779">
        <ele>700.54</ele>
        <time>2024-04-28T14:17:02.725Z</time>
      </trkpt>
      <trkpt lat="42.97425" lon="-0.39765">
        <ele>701.89</ele>
        <time>2024-04-28T14:17:12.365Z</time>
      </trkpt>
      <trkpt lat="42.97414" lon="-0.39754">
        <ele>703.2</ele>
        <time>2024-04-28T14:17:22.006Z</time>
      </trkpt>
      <trkpt lat="42.97403" lon="-0.39733">
        <ele>704.55</ele>
        <time>2024-04-28T14:17:31.649Z</time>
      </trkpt>
      <trkpt lat="42.974" lon="-0.39724">
        <ele>705.6</ele>
        <time>2024-04-28T14:17:41.293Z</time>
      </trkpt>
      <trkpt lat="42.97401" lon="-0.39714">
        <ele>706.51</ele>
        <time>2024-04-28T14:17:50.938Z</time>
      </trkpt>
      <trkpt lat="42.97413" lon="-0.39684">
        <ele>707.22</ele>
        <time>2024-04-28T14:18:00.586Z</time>
      </trkpt>
      <trkpt lat="42.97418" lon="-0.39662">
        <ele>708.61</ele>
        <time>2024-04-28T14:18:10.236Z</time>
      </trkpt>
      <trkpt lat="42.97418" lon="-0.39622">
        <ele>710.7</ele>
        <time>2024-04-28T14:18:19.889Z</time>
      </trkpt>
      <trkpt lat="42.97422" lon="-0.39599">
        <ele>712.02</ele>
        <time>2024-04-28T14:18:29.544Z</time>
      </trkpt>
      <trkpt lat="42.9743" lon="-0.39575">
        <ele>713.52</ele>
        <time>2024-04-28T14:18:39.201Z</time>
      </trkpt>
      <trkpt lat="42.97432" lon="-0.39559">
        <ele>715.85</ele>
        <time>2024-04-28T14:18:48.859Z</time>
      </trkpt>
      <trkpt lat="42.97431" lon="-0.39544">
        <ele>718.42</ele>
        <time>2024-04-28T14:18:58.519Z</time>
      </trkpt>
      <trkpt lat="42.97427" lon="-0.39525">
        <ele>721.13</ele>
        <time>2024-04-28T14:19:08.180Z</time>
      </trkpt>
      <trkpt lat="42.97418" lon="-0.39507">
        <ele>723.54</ele>
        <time>2024-04-28T14:19:17.843Z</time>
      </trkpt>
      <trkpt lat="42.97409" lon="-0.39499">
        <ele>725.25</ele>
        <time>2024-04-28T14:19:27.507Z</time>
      </trkpt>
      <trkpt lat="42.97406" lon="-0.39487">
        <ele>725.65</ele>
        <time>2024-04-28T14:19:37.172Z</time>
      </trkpt>
      <trkpt lat="42.97403" lon="-0.39439">
        <ele>725.19</ele>
        <time>2024-04-28T14:19:46.841Z</time>
      </trkpt>
      <trkpt lat="42.97402" lon="-0.39423">
        <ele>726.78</ele>
        <time>2024-04-28T14:19:56.511Z</time>
      </trkpt>
      <trkpt lat="42.97402" lon="-0.39418">
        <ele>727.23</ele>
        <time>2024-04-28T14:20:06.182Z</time>
      </trkpt>
      <trkpt lat="42.97401" lon="-0.39412">
        <ele>728.76</ele>
        <time>2024-04-28T14:20:15.853Z</time>
      </trkpt>
      <trkpt lat="42.97391" lon="-0.39392">
        <ele>730.6</ele>
        <time>2024-04-28T14:20:25.526Z</time>
      </trkpt>
      <trkpt lat="42.97383" lon="-0.39382">
        <ele>732.91</ele>
        <time>2024-04-28T14:20:35.200Z</time>
      </trkpt>
      <trkpt lat="42.97376" lon="-0.39377">
        <ele>735.46</ele>
        <time>2024-04-28T14:20:44.875Z</time>
      </trkpt>
      <trkpt lat="42.97323" lon="-0.3935">
        <ele>739.09</ele>
        <time>2024-04-28T14:20:54.557Z</time>
      </trkpt>
      <trkpt lat="42.97301" lon="-0.39334">
        <ele>743.01</ele>
        <time>2024-04-28T14:21:04.241Z</time>
      </trkpt>
      <trkpt lat="42.97268" lon="-0.39296">
        <ele>747.1</ele>
        <time>2024-04-28T14:21:13.930Z</time>
      </trkpt>
      <trkpt lat="42.97252" lon="-0.39276">
        <ele>749.44</ele>
        <time>2024-04-28T14:21:23.622Z</time>
      </trkpt>
      <trkpt lat="42.97196" lon="-0.39196">
        <ele>750.62</ele>
        <time>2024-04-28T14:21:33.323Z</time>
      </trkpt>
      <trkpt lat="42.97193" lon="-0.3918">
        <ele>751.15</ele>
        <time>2024-04-28T14:21:43.025Z</time>
      </trkpt>
      <trkpt lat="42.97198" lon="-0.39161">
        <ele>750.69</ele>
        <time>2024-04-28T14:21:52.729Z</time>
      </trkpt>
      <trkpt lat="42.97209" lon="-0.3913">
        <ele>750.03</ele>
        <time>2024-04-28T14:22:02.435Z</time>
      </trkpt>
      <trkpt lat="42.97213" lon="-0.39123">
        <ele>749.26</ele>
        <time>2024-04-28T14:22:12.142Z</time>
      </trkpt>
      <trkpt lat="42.97219" lon="-0.39128">
        <ele>748.04</ele>
        <time>2024-04-28T14:22:21.850Z</time>
      </trkpt>
      <trkpt lat="42.9726" lon="-0.39191">
        <ele>745.93</ele>
        <time>2024-04-28T14:22:31.565Z</time>
      </trkpt>
      <trkpt lat="42.97272" lon="-0.39209">
        <ele>744.94</ele>
        <time>2024-04-28T14:22:41.282Z</time>
      </trkpt>
      <trkpt lat="42.97281" lon="-0.39198">
        <ele>743.72</ele>
        <time>2024-04-28T14:22:51.000Z</time>
      </trkpt>
      <trkpt lat="42.97306" lon="-0.39167">
        <ele>742.63</ele>
        <time>2024-04-28T14:23:00.722Z</time>
      </trkpt>
      <trkpt lat="42.97323" lon="-0.39143">
        <ele>741.53</ele>
        <time>2024-04-28T14:23:10.447Z</time>
      </trkpt>
      <trkpt lat="42.97324" lon="-0.39122">
        <ele>740.54</ele>
        <time>2024-04-28T14:23:20.173Z</time>
      </trkpt>
      <trkpt lat="42.97317" lon="-0.391">
        <ele>739.99</ele>
        <time>2024-04-28T14:23:29.901Z</time>
      </trkpt>
      <trkpt lat="42.97316" lon="-0.39096">
        <ele>746.32</ele>
        <time>2024-04-28T14:23:39.630Z</time>
      </trkpt>
      <trkpt lat="42.97314" lon="-0.39092">
        <ele>752.99</ele>
        <time>2024-04-28T14:23:49.359Z</time>
      </trkpt>
      <trkpt lat="42.97297" lon="-0.39052">
        <ele>757.16</ele>
        <time>2024-04-28T14:23:59.092Z</time>
      </trkpt>
      <trkpt lat="42.97282" lon="-0.39004">
        <ele>761.99</ele>
        <time>2024-04-28T14:24:08.829Z</time>
      </trkpt>
      <trkpt lat="42.97262" lon="-0.38932">
        <ele>767.2</ele>
        <time>2024-04-28T14:24:18.572Z</time>
      </trkpt>
      <trkpt lat="42.97248" lon="-0.38896">
        <ele>771.66</ele>
        <time>2024-04-28T14:24:28.319Z</time>
      </trkpt>
      <trkpt lat="42.97231" lon="-0.38857">
        <ele>776.39</ele>
        <time>2024-04-28T14:24:38.069Z</time>
      </trkpt>
      <trkpt lat="42.97219" lon="-0.38821">
        <ele>781.19</ele>
        <time>2024-04-28T14:24:47.823Z</time>
      </trkpt>
      <trkpt lat="42.97216" lon="-0.38794">
        <ele>785.29</ele>
        <time>2024-04-28T14:24:57.579Z</time>
      </trkpt>
      <trkpt lat="42.97207" lon="-0.38753">
        <ele>789.19</ele>
        <time>2024-04-28T14:25:07.338Z</time>
      </trkpt>
      <trkpt lat="42.97179" lon="-0.38646">
        <ele>793.65</ele>
        <time>2024-04-28T14:25:17.107Z</time>
      </trkpt>
      <trkpt lat="42.97176" lon="-0.38635">
        <ele>796.87</ele>
        <time>2024-04-28T14:25:26.876Z</time>
      </trkpt>
      <trkpt lat="42.97176" lon="-0.38617">
        <ele>799.14</ele>
        <time>2024-04-28T14:25:36.647Z</time>
      </trkpt>
      <trkpt lat="42.97184" lon="-0.38564">
        <ele>800.07</ele>
        <time>2024-04-28T14:25:46.422Z</time>
      </trkpt>
      <trkpt lat="42.97189" lon="-0.38522">
        <ele>800.95</ele>
        <time>2024-04-28T14:25:56.201Z</time>
      </trkpt>
      <trkpt lat="42.97188" lon="-0.385">
        <ele>801.85</ele>
        <time>2024-04-28T14:26:05.982Z</time>
      </trkpt>
      <trkpt lat="42.97186" lon="-0.38487">
        <ele>802.68</ele>
        <time>2024-04-28T14:26:15.764Z</time>
      </trkpt>
      <trkpt lat="42.97177" lon="-0.38458">
        <ele>803.71</ele>
        <time>2024-04-28T14:26:25.548Z</time>
      </trkpt>
      <trkpt lat="42.9717" lon="-0.38443">
        <ele>804.84</ele>
        <time>2024-04-28T14:26:35.334Z</time>
      </trkpt>
      <trkpt lat="42.97151" lon="-0.38407">
        <ele>806.06</ele>
        <time>2024-04-28T14:26:45.123Z</time>
      </trkpt>
      <trkpt lat="42.97126" lon="-0.38342">
        <ele>807.33</ele>
        <time>2024-04-28T14:26:54.918Z</time>
      </trkpt>
      <trkpt lat="42.97108" lon="-0.38293">
        <ele>808.72</ele>
        <time>2024-04-28T14:27:04.718Z</time>
      </trkpt>
      <trkpt lat="42.97099" lon="-0.38278">
        <ele>809.79</ele>
        <time>2024-04-28T14:27:14.519Z</time>
      </trkpt>
      <trkpt lat="42.97095" lon="-0.38273">
        <ele>810.84</ele>
        <time>2024-04-28T14:27:24.321Z</time>
      </trkpt>
      <trkpt lat="42.97085" lon="-0.38264">
        <ele>812.06</ele>
        <time>2024-04-28T14:27:34.124Z</time>
      </trkpt>
      <trkpt lat="42.97069" lon="-0.38253">
        <ele>813.31</ele>
        <time>2024-04-28T14:27:43.929Z</time>
      </trkpt>
      <trkpt lat="42.9704" lon="-0.38231">
        <ele>814.58</ele>
        <time>2024-04-28T14:27:53.738Z</time>
      </trkpt>
      <trkpt lat="42.97028" lon="-0.38216">
        <ele>815.83</ele>
        <time>2024-04-28T14:28:03.549Z</time>
      </trkpt>
      <trkpt lat="42.97024" lon="-0.38207">
        <ele>816.91</ele>
        <time>2024-04-28T14:28:13.361Z</time>
      </trkpt>
      <trkpt lat="42.96999" lon="-0.38099">
        <ele>817.69</ele>
        <time>2024-04-28T14:28:23.182Z</time>
      </trkpt>
      <trkpt lat="42.96995" lon="-0.38088">
        <ele>818.42</ele>
        <time>2024-04-28T14:28:33.004Z</time>
      </trkpt>
      <trkpt lat="42.96985" lon="-0.38072">
        <ele>819.09</ele>
        <time>2024-04-28T14:28:42.828Z</time>
      </trkpt>
      <trkpt lat="42.96974" lon="-0.38054">
        <ele>819.76</ele>
        <time>2024-04-28T14:28:52.654Z</time>
      </trkpt>
      <trkpt lat="42.9697" lon="-0.38054">
        <ele>820.49</ele>
        <time>2024-04-28T14:29:02.480Z</time>
      </trkpt>
      <trkpt lat="42.96966" lon="-0.38064">
        <ele>821.29</ele>
        <time>2024-04-28T14:29:12.307Z</time>
      </trkpt>
      <trkpt lat="42.96966" lon="-0.3807">
        <ele>821.99</ele>
        <time>2024-04-28T14:29:22.134Z</time>
      </trkpt>
      <trkpt lat="42.96968" lon="-0.38081">
        <ele>822.71</ele>
        <time>2024-04-28T14:29:31.962Z</time>
      </trkpt>
      <trkpt lat="42.96974" lon="-0.381">
        <ele>823.45</ele>
        <time>2024-04-28T14:29:41.792Z</time>
      </trkpt>
      <trkpt lat="42.9699" lon="-0.38133">
        <ele>824.3</ele>
        <time>2024-04-28T14:29:51.625Z</time>
      </trkpt>
      <trkpt lat="42.96996" lon="-0.38146">
        <ele>824.92</ele>
        <time>2024-04-28T14:30:01.460Z</time>
      </trkpt>
      <trkpt lat="42.96997" lon="-0.38162">
        <ele>825.6</ele>
        <time>2024-04-28T14:30:11.296Z</time>
      </trkpt>
      <trkpt lat="42.96996" lon="-0.38191">
        <ele>826.35</ele>
        <time>2024-04-28T14:30:21.134Z</time>
      </trkpt>
      <trkpt lat="42.97" lon="-0.38216">
        <ele>826.9</ele>
        <time>2024-04-28T14:30:30.974Z</time>
      </trkpt>
      <trkpt lat="42.97003" lon="-0.38236">
        <ele>827.39</ele>
        <time>2024-04-28T14:30:40.816Z</time>
      </trkpt>
      <trkpt lat="42.97001" lon="-0.38242">
        <ele>827.93</ele>
        <time>2024-04-28T14:30:50.658Z</time>
      </trkpt>
      <trkpt lat="42.96998" lon="-0.38245">
        <ele>828.46</ele>
        <time>2024-04-28T14:31:00.501Z</time>
      </trkpt>
      <trkpt lat="42.9699" lon="-0.38244">
        <ele>829.01</ele>
        <time>2024-04-28T14:31:10.345Z</time>
      </trkpt>
      <trkpt lat="42.96987" lon="-0.38241">
        <ele>829.52</ele>
        <time>2024-04-28T14:31:20.189Z</time>
      </trkpt>
      <trkpt lat="42.96986" lon="-0.38233">
        <ele>830</ele>
        <time>2024-04-28T14:31:30.034Z</time>
      </trkpt>
      <trkpt lat="42.96984" lon="-0.38193">
        <ele>830.49</ele>
        <time>2024-04-28T14:31:39.882Z</time>
      </trkpt>
      <trkpt lat="42.96981" lon="-0.38167">
        <ele>830.84</ele>
        <time>2024-04-28T14:31:49.732Z</time>
      </trkpt>
      <trkpt lat="42.96976" lon="-0.38153">
        <ele>831.22</ele>
        <time>2024-04-28T14:31:59.584Z</time>
      </trkpt>
      <trkpt lat="42.96971" lon="-0.38146">
        <ele>831.64</ele>
        <time>2024-04-28T14:32:09.436Z</time>
      </trkpt>
      <trkpt lat="42.96954" lon="-0.38133">
        <ele>832.1</ele>
        <time>2024-04-28T14:32:19.291Z</time>
      </trkpt>
      <trkpt lat="42.96945" lon="-0.38116">
        <ele>832.39</ele>
        <time>2024-04-28T14:32:29.147Z</time>
      </trkpt>
      <trkpt lat="42.96936" lon="-0.38096">
        <ele>832.75</ele>
        <time>2024-04-28T14:32:39.005Z</time>
      </trkpt>
      <trkpt lat="42.9693" lon="-0.3809">
        <ele>833.19</ele>
        <time>2024-04-28T14:32:48.864Z</time>
      </trkpt>
      <trkpt lat="42.96924" lon="-0.38088">
        <ele>833.73</ele>
        <time>2024-04-28T14:32:58.724Z</time>
      </trkpt>
      <trkpt lat="42.96914" lon="-0.3809">
        <ele>834.39</ele>
        <time>2024-04-28T14:33:08.585Z</time>
      </trkpt>
      <trkpt lat="42.96896" lon="-0.38093">
        <ele>835.31</ele>
        <time>2024-04-28T14:33:18.448Z</time>
      </trkpt>
      <trkpt lat="42.96886" lon="-0.38091">
        <ele>836.31</ele>
        <time>2024-04-28T14:33:28.312Z</time>
      </trkpt>
      <trkpt lat="42.96873" lon="-0.38076">
        <ele>837.39</ele>
        <time>2024-04-28T14:33:38.178Z</time>
      </trkpt>
      <trkpt lat="42.96866" lon="-0.38059">
        <ele>838.42</ele>
        <time>2024-04-28T14:33:48.045Z</time>
      </trkpt>
      <trkpt lat="42.96865" lon="-0.38048">
        <ele>839.33</ele>
        <time>2024-04-28T14:33:57.913Z</time>
      </trkpt>
      <trkpt lat="42.96871" lon="-0.38033">
        <ele>839.94</ele>
        <time>2024-04-28T14:34:07.783Z</time>
      </trkpt>
      <trkpt lat="42.9688" lon="-0.38022">
        <ele>840.44</ele>
        <time>2024-04-28T14:34:17.654Z</time>
      </trkpt>
      <trkpt lat="42.96886" lon="-0.38005">
        <ele>841.02</ele>
        <time>2024-04-28T14:34:27.527Z</time>
      </trkpt>
      <trkpt lat="42.96887" lon="-0.37988">
        <ele>841.72</ele>
        <time>2024-04-28T14:34:37.401Z</time>
      </trkpt>
      <trkpt lat="42.96882" lon="-0.37964">
        <ele>842.58</ele>
        <time>2024-04-28T14:34:47.277Z</time>
      </trkpt>
      <trkpt lat="42.96871" lon="-0.37949">
        <ele>843.57</ele>
        <time>2024-04-28T14:34:57.155Z</time>
      </trkpt>
      <trkpt lat="42.96862" lon="-0.37944">
        <ele>844.54</ele>
        <time>2024-04-28T14:35:07.034Z</time>
      </trkpt>
      <trkpt lat="42.96836" lon="-0.37941">
        <ele>846.02</ele>
        <time>2024-04-28T14:35:16.916Z</time>
      </trkpt>
      <trkpt lat="42.9683" lon="-0.37938">
        <ele>847.15</ele>
        <time>2024-04-28T14:35:26.798Z</time>
      </trkpt>
      <trkpt lat="42.96823" lon="-0.37931">
        <ele>848.24</ele>
        <time>2024-04-28T14:35:36.681Z</time>
      </trkpt>
      <trkpt lat="42.96818" lon="-0.37915">
        <ele>849.07</ele>
        <time>2024-04-28T14:35:46.566Z</time>
      </trkpt>
      <trkpt lat="42.96819" lon="-0.37884">
        <ele>849.66</ele>
        <time>2024-04-28T14:35:56.453Z</time>
      </trkpt>
      <trkpt lat="42.9682" lon="-0.37873">
        <ele>850.35</ele>
        <time>2024-04-28T14:36:06.341Z</time>
      </trkpt>
      <trkpt lat="42.96817" lon="-0.37856">
        <ele>851.11</ele>
        <time>2024-04-28T14:36:16.231Z</time>
      </trkpt>
      <trkpt lat="42.96811" lon="-0.37839">
        <ele>851.91</ele>
        <time>2024-04-28T14:36:26.122Z</time>
      </trkpt>
      <trkpt lat="42.96801" lon="-0.37818">
        <ele>852.77</ele>
        <time>2024-04-28T14:36:36.015Z</time>
      </trkpt>
      <trkpt lat="42.96797" lon="-0.37791">
        <ele>853.26</ele>
        <time>2024-04-28T14:36:45.910Z</time>
      </trkpt>
      <trkpt lat="42.96796" lon="-0.37757">
        <ele>853.37</ele>
        <time>2024-04-28T14:36:55.808Z</time>
      </trkpt>
      <trkpt lat="42.96792" lon="-0.37741">
        <ele>853.77</ele>
        <time>2024-04-28T14:37:05.708Z</time>
      </trkpt>
      <trkpt lat="42.96788" lon="-0.37733">
        <ele>854.24</ele>
        <time>2024-04-28T14:37:15.608Z</time>
      </trkpt>
      <trkpt lat="42.96768" lon="-0.37706">
        <ele>855.47</ele>
        <time>2024-04-28T14:37:25.512Z</time>
      </trkpt>
      <trkpt lat="42.96759" lon="-0.3769">
        <ele>856.02</ele>
        <time>2024-04-28T14:37:35.417Z</time>
      </trkpt>
      <trkpt lat="42.96755" lon="-0.3768">
        <ele>856.41</ele>
        <time>2024-04-28T14:37:45.323Z</time>
      </trkpt>
      <trkpt lat="42.96753" lon="-0.37661">
        <ele>856.65</ele>
        <time>2024-04-28T14:37:55.231Z</time>
      </trkpt>
      <trkpt lat="42.96754" lon="-0.37648">
        <ele>856.85</ele>
        <time>2024-04-28T14:38:05.140Z</time>
      </trkpt>
      <trkpt lat="42.96761" lon="-0.37633">
        <ele>856.7</ele>
        <time>2024-04-28T14:38:15.050Z</time>
      </trkpt>
      <trkpt lat="42.96789" lon="-0.37608">
        <ele>856.26</ele>
        <time>2024-04-28T14:38:24.964Z</time>
      </trkpt>
      <trkpt lat="42.96797" lon="-0.37599">
        <ele>856.45</ele>
        <time>2024-04-28T14:38:34.879Z</time>
      </trkpt>
      <trkpt lat="42.968" lon="-0.3759">
        <ele>856.73</ele>
        <time>2024-04-28T14:38:44.795Z</time>
      </trkpt>
      <trkpt lat="42.96799" lon="-0.37577">
        <ele>857.09</ele>
        <time>2024-04-28T14:38:54.712Z</time>
      </trkpt>
      <trkpt lat="42.96795" lon="-0.37567">
        <ele>857.5</ele>
        <time>2024-04-28T14:39:04.630Z</time>
      </trkpt>
      <trkpt lat="42.96781" lon="-0.37552">
        <ele>858.03</ele>
        <time>2024-04-28T14:39:14.550Z</time>
      </trkpt>
      <trkpt lat="42.96771" lon="-0.37538">
        <ele>858.5</ele>
        <time>2024-04-28T14:39:24.471Z</time>
      </trkpt>
      <trkpt lat="42.96769" lon="-0.37532">
        <ele>859</ele>
        <time>2024-04-28T14:39:34.393Z</time>
      </trkpt>
      <trkpt lat="42.96764" lon="-0.3751">
        <ele>859.6</ele>
        <time>2024-04-28T14:39:44.317Z</time>
      </trkpt>
      <trkpt lat="42.9676" lon="-0.375">
        <ele>860.33</ele>
        <time>2024-04-28T14:39:54.242Z</time>
      </trkpt>
      <trkpt lat="42.96752" lon="-0.3745">
        <ele>861.66</ele>
        <time>2024-04-28T14:40:04.171Z</time>
      </trkpt>
      <trkpt lat="42.9675" lon="-0.37439">
        <ele>862.51</ele>
        <time>2024-04-28T14:40:14.101Z</time>
      </trkpt>
      <trkpt lat="42.96749" lon="-0.37422">
        <ele>863.32</ele>
        <time>2024-04-28T14:40:24.032Z</time>
      </trkpt>
      <trkpt lat="42.9675" lon="-0.3739">
        <ele>864.13</ele>
        <time>2024-04-28T14:40:33.966Z</time>
      </trkpt>
      <trkpt lat="42.96752" lon="-0.37365">
        <ele>865.14</ele>
        <time>2024-04-28T14:40:43.902Z</time>
      </trkpt>
      <trkpt lat="42.96751" lon="-0.37341">
        <ele>866.12</ele>
        <time>2024-04-28T14:40:53.840Z</time>
      </trkpt>
      <trkpt lat="42.96745" lon="-0.37285">
        <ele>867.08</ele>
        <time>2024-04-28T14:41:03.783Z</time>
      </trkpt>
      <trkpt lat="42.96738" lon="-0.3723">
        <ele>868.25</ele>
        <time>2024-04-28T14:41:13.730Z</time>
      </trkpt>
      <trkpt lat="42.96737" lon="-0.37204">
        <ele>869.55</ele>
        <time>2024-04-28T14:41:23.679Z</time>
      </trkpt>
      <trkpt lat="42.9674" lon="-0.37185">
        <ele>870.89</ele>
        <time>2024-04-28T14:41:33.630Z</time>
      </trkpt>
      <trkpt lat="42.96745" lon="-0.37176">
        <ele>872.24</ele>
        <time>2024-04-28T14:41:43.582Z</time>
      </trkpt>
      <trkpt lat="42.96756" lon="-0.37166">
        <ele>873.67</ele>
        <time>2024-04-28T14:41:53.535Z</time>
      </trkpt>
      <trkpt lat="42.96765" lon="-0.37162">
        <ele>875.09</ele>
        <time>2024-04-28T14:42:03.489Z</time>
      </trkpt>
      <trkpt lat="42.96778" lon="-0.37166">
        <ele>876.53</ele>
        <time>2024-04-28T14:42:13.445Z</time>
      </trkpt>
      <trkpt lat="42.96788" lon="-0.37176">
        <ele>878.01</ele>
        <time>2024-04-28T14:42:23.402Z</time>
      </trkpt>
      <trkpt lat="42.9681" lon="-0.37221">
        <ele>879.59</ele>
        <time>2024-04-28T14:42:33.364Z</time>
      </trkpt>
      <trkpt lat="42.9682" lon="-0.37236">
        <ele>881.08</ele>
        <time>2024-04-28T14:42:43.327Z</time>
      </trkpt>
      <trkpt lat="42.96833" lon="-0.37252">
        <ele>882.66</ele>
        <time>2024-04-28T14:42:53.292Z</time>
      </trkpt>
      <trkpt lat="42.96846" lon="-0.37259">
        <ele>884.31</ele>
        <time>2024-04-28T14:43:03.259Z</time>
      </trkpt>
      <trkpt lat="42.96852" lon="-0.37261">
        <ele>885.89</ele>
        <time>2024-04-28T14:43:13.226Z</time>
      </trkpt>
      <trkpt lat="42.96868" lon="-0.37262">
        <ele>887.58</ele>
        <time>2024-04-28T14:43:23.195Z</time>
      </trkpt>
      <trkpt lat="42.96888" lon="-0.37254">
        <ele>889.28</ele>
        <time>2024-04-28T14:43:33.166Z</time>
      </trkpt>
      <trkpt lat="42.969" lon="-0.37242">
        <ele>890.94</ele>
        <time>2024-04-28T14:43:43.139Z</time>
      </trkpt>
      <trkpt lat="42.96906" lon="-0.37229">
        <ele>892.57</ele>
        <time>2024-04-28T14:43:53.113Z</time>
      </trkpt>
      <trkpt lat="42.96908" lon="-0.3722">
        <ele>894.17</ele>
        <time>2024-04-28T14:44:03.088Z</time>
      </trkpt>
      <trkpt lat="42.96907" lon="-0.37207">
        <ele>895.81</ele>
        <time>2024-04-28T14:44:13.064Z</time>
      </trkpt>
      <trkpt lat="42.96901" lon="-0.37183">
        <ele>897.53</ele>
        <time>2024-04-28T14:44:23.042Z</time>
      </trkpt>
      <trkpt lat="42.96895" lon="-0.37171">
        <ele>899.11</ele>
        <time>2024-04-28T14:44:33.021Z</time>
      </trkpt>
      <trkpt lat="42.96886" lon="-0.37148">
        <ele>900.55</ele>
        <time>2024-04-28T14:44:43.003Z</time>
      </trkpt>
      <trkpt lat="42.96886" lon="-0.37128">
        <ele>902.11</ele>
        <time>2024-04-28T14:44:52.986Z</time>
      </trkpt>
      <trkpt lat="42.96893" lon="-0.37093">
        <ele>903.82</ele>
        <time>2024-04-28T14:45:02.972Z</time>
      </trkpt>
      <trkpt lat="42.96892" lon="-0.37079">
        <ele>905.47</ele>
        <time>2024-04-28T14:45:12.959Z</time>
      </trkpt>
      <trkpt lat="42.96888" lon="-0.37059">
        <ele>907.19</ele>
        <time>2024-04-28T14:45:22.948Z</time>
      </trkpt>
      <trkpt lat="42.96879" lon="-0.37036">
        <ele>909</ele>
        <time>2024-04-28T14:45:32.939Z</time>
      </trkpt>
      <trkpt lat="42.96872" lon="-0.37024">
        <ele>910.74</ele>
        <time>2024-04-28T14:45:42.931Z</time>
      </trkpt>
      <trkpt lat="42.96839" lon="-0.36967">
        <ele>912.77</ele>
        <time>2024-04-28T14:45:52.929Z</time>
      </trkpt>
      <trkpt lat="42.96827" lon="-0.36936">
        <ele>914.61</ele>
        <time>2024-04-28T14:46:02.930Z</time>
      </trkpt>
      <trkpt lat="42.96821" lon="-0.36911">
        <ele>916.53</ele>
        <time>2024-04-28T14:46:12.933Z</time>
      </trkpt>
      <trkpt lat="42.96805" lon="-0.36868">
        <ele>918.53</ele>
        <time>2024-04-28T14:46:22.940Z</time>
      </trkpt>
      <trkpt lat="42.96785" lon="-0.36814">
        <ele>920.71</ele>
        <time>2024-04-28T14:46:32.952Z</time>
      </trkpt>
      <trkpt lat="42.96774" lon="-0.36764">
        <ele>922.83</ele>
        <time>2024-04-28T14:46:42.968Z</time>
      </trkpt>
      <trkpt lat="42.96771" lon="-0.36733">
        <ele>924.9</ele>
        <time>2024-04-28T14:46:52.987Z</time>
      </trkpt>
      <trkpt lat="42.96772" lon="-0.36716">
        <ele>927.01</ele>
        <time>2024-04-28T14:47:03.007Z</time>
      </trkpt>
      <trkpt lat="42.96766" lon="-0.36676">
        <ele>928.92</ele>
        <time>2024-04-28T14:47:13.031Z</time>
      </trkpt>
      <trkpt lat="42.96761" lon="-0.36644">
        <ele>931.32</ele>
        <time>2024-04-28T14:47:23.057Z</time>
      </trkpt>
      <trkpt lat="42.96751" lon="-0.36609">
        <ele>933.7</ele>
        <time>2024-04-28T14:47:33.086Z</time>
      </trkpt>
      <trkpt lat="42.96733" lon="-0.36564">
        <ele>935.85</ele>
        <time>2024-04-28T14:47:43.120Z</time>
      </trkpt>
      <trkpt lat="42.96729" lon="-0.36551">
        <ele>938.18</ele>
        <time>2024-04-28T14:47:53.155Z</time>
      </trkpt>
      <trkpt lat="42.96726" lon="-0.36525">
        <ele>940.62</ele>
        <time>2024-04-28T14:48:03.192Z</time>
      </trkpt>
      <trkpt lat="42.96722" lon="-0.36478">
        <ele>943.23</ele>
        <time>2024-04-28T14:48:13.233Z</time>
      </trkpt>
      <trkpt lat="42.96717" lon="-0.36452">
        <ele>946.01</ele>
        <time>2024-04-28T14:48:23.276Z</time>
      </trkpt>
      <trkpt lat="42.96712" lon="-0.36437">
        <ele>948.55</ele>
        <time>2024-04-28T14:48:33.320Z</time>
      </trkpt>
      <trkpt lat="42.96704" lon="-0.36414">
        <ele>951.06</ele>
        <time>2024-04-28T14:48:43.366Z</time>
      </trkpt>
      <trkpt lat="42.96698" lon="-0.36348">
        <ele>954.04</ele>
        <time>2024-04-28T14:48:53.418Z</time>
      </trkpt>
      <trkpt lat="42.96692" lon="-0.36307">
        <ele>957.11</ele>
        <time>2024-04-28T14:49:03.473Z</time>
      </trkpt>
      <trkpt lat="42.96687" lon="-0.36286">
        <ele>959.85</ele>
        <time>2024-04-28T14:49:13.530Z</time>
      </trkpt>
      <trkpt lat="42.96673" lon="-0.3623">
        <ele>962.62</ele>
        <time>2024-04-28T14:49:23.592Z</time>
      </trkpt>
      <trkpt lat="42.96656" lon="-0.36153">
        <ele>965.4</ele>
        <time>2024-04-28T14:49:33.660Z</time>
      </trkpt>
      <trkpt lat="42.96647" lon="-0.36111">
        <ele>968.07</ele>
        <time>2024-04-28T14:49:43.732Z</time>
      </trkpt>
      <trkpt lat="42.96647" lon="-0.36084">
        <ele>970.94</ele>
        <time>2024-04-28T14:49:53.806Z</time>
      </trkpt>
      <trkpt lat="42.96645" lon="-0.36054">
        <ele>973.82</ele>
        <time>2024-04-28T14:50:03.883Z</time>
      </trkpt>
      <trkpt lat="42.96641" lon="-0.36035">
        <ele>976.53</ele>
        <time>2024-04-28T14:50:13.961Z</time>
      </trkpt>
      <trkpt lat="42.9663" lon="-0.35991">
        <ele>979.32</ele>
        <time>2024-04-28T14:50:24.043Z</time>
      </trkpt>
      <trkpt lat="42.96627" lon="-0.35965">
        <ele>982.11</ele>
        <time>2024-04-28T14:50:34.127Z</time>
      </trkpt>
      <trkpt lat="42.96627" lon="-0.3594">
        <ele>984.78</ele>
        <time>2024-04-28T14:50:44.213Z</time>
      </trkpt>
      <trkpt lat="42.96623" lon="-0.35863">
        <ele>987.6</ele>
        <time>2024-04-28T14:50:54.306Z</time>
      </trkpt>
      <trkpt lat="42.96618" lon="-0.35819">
        <ele>990.66</ele>
        <time>2024-04-28T14:51:04.402Z</time>
      </trkpt>
      <trkpt lat="42.96601" lon="-0.35739">
        <ele>994.01</ele>
        <time>2024-04-28T14:51:14.505Z</time>
      </trkpt>
      <trkpt lat="42.96582" lon="-0.3566">
        <ele>996.76</ele>
        <time>2024-04-28T14:51:24.615Z</time>
      </trkpt>
      <trkpt lat="42.96573" lon="-0.35626">
        <ele>999.54</ele>
        <time>2024-04-28T14:51:34.728Z</time>
      </trkpt>
      <trkpt lat="42.96556" lon="-0.35598">
        <ele>1002.67</ele>
        <time>2024-04-28T14:51:44.844Z</time>
      </trkpt>
      <trkpt lat="42.96528" lon="-0.35573">
        <ele>1005.83</ele>
        <time>2024-04-28T14:51:54.963Z</time>
      </trkpt>
      <trkpt lat="42.96501" lon="-0.35538">
        <ele>1008.53</ele>
        <time>2024-04-28T14:52:05.087Z</time>
      </trkpt>
      <trkpt lat="42.96479" lon="-0.35515">
        <ele>1011.27</ele>
        <time>2024-04-28T14:52:15.214Z</time>
      </trkpt>
      <trkpt lat="42.96457" lon="-0.3549">
        <ele>1014.13</ele>
        <time>2024-04-28T14:52:25.344Z</time>
      </trkpt>
      <trkpt lat="42.96423" lon="-0.35433">
        <ele>1017.5</ele>
        <time>2024-04-28T14:52:35.480Z</time>
      </trkpt>
      <trkpt lat="42.96413" lon="-0.35411">
        <ele>1020.61</ele>
        <time>2024-04-28T14:52:45.618Z</time>
      </trkpt>
      <trkpt lat="42.96406" lon="-0.35381">
        <ele>1023.84</ele>
        <time>2024-04-28T14:52:55.758Z</time>
      </trkpt>
      <trkpt lat="42.96402" lon="-0.35366">
        <ele>1027.3</ele>
        <time>2024-04-28T14:53:05.900Z</time>
      </trkpt>
      <trkpt lat="42.96387" lon="-0.35378">
        <ele>1030.6</ele>
        <time>2024-04-28T14:53:16.044Z</time>
      </trkpt>
      <trkpt lat="42.96372" lon="-0.3539">
        <ele>1034.08</ele>
        <time>2024-04-28T14:53:26.190Z</time>
      </trkpt>
      <trkpt lat="42.96355" lon="-0.35381">
        <ele>1037.99</ele>
        <time>2024-04-28T14:53:36.338Z</time>
      </trkpt>
      <trkpt lat="42.96339" lon="-0.35368">
        <ele>1042.22</ele>
        <time>2024-04-28T14:53:46.488Z</time>
      </trkpt>
      <trkpt lat="42.9632" lon="-0.35348">
        <ele>1046.61</ele>
        <time>2024-04-28T14:53:56.640Z</time>
      </trkpt>
      <trkpt lat="42.96285" lon="-0.35292">
        <ele>1051.72</ele>
        <time>2024-04-28T14:54:06.798Z</time>
      </trkpt>
      <trkpt lat="42.96237" lon="-0.35292">
        <ele>1056.71</ele>
        <time>2024-04-28T14:54:16.962Z</time>
      </trkpt>
      <trkpt lat="42.9624" lon="-0.35268">
        <ele>1062.34</ele>
        <time>2024-04-28T14:54:27.128Z</time>
      </trkpt>
      <trkpt lat="42.96245" lon="-0.35245">
        <ele>1068.56</ele>
        <time>2024-04-28T14:54:37.296Z</time>
      </trkpt>
      <trkpt lat="42.96235" lon="-0.35225">
        <ele>1075.08</ele>
        <time>2024-04-28T14:54:47.466Z</time>
      </trkpt>
      <trkpt lat="42.96229" lon="-0.35216">
        <ele>1081.25</ele>
        <time>2024-04-28T14:54:57.637Z</time>
      </trkpt>
      <trkpt lat="42.9622" lon="-0.35212">
        <ele>1087.38</ele>
        <time>2024-04-28T14:55:07.809Z</time>
      </trkpt>
      <trkpt lat="42.96211" lon="-0.35209">
        <ele>1093.71</ele>
        <time>2024-04-28T14:55:17.982Z</time>
      </trkpt>
      <trkpt lat="42.96203" lon="-0.35216">
        <ele>1099.95</ele>
        <time>2024-04-28T14:55:28.156Z</time>
      </trkpt>
      <trkpt lat="42.96177" lon="-0.35203">
        <ele>1108.05</ele>
        <time>2024-04-28T14:55:38.333Z</time>
      </trkpt>
      <trkpt lat="42.96174" lon="-0.3519">
        <ele>1114.25</ele>
        <time>2024-04-28T14:55:48.511Z</time>
      </trkpt>
      <trkpt lat="42.96181" lon="-0.35121">
        <ele>1120.26</ele>
        <time>2024-04-28T14:55:58.695Z</time>
      </trkpt>
      <trkpt lat="42.96189" lon="-0.35048">
        <ele>1126.15</ele>
        <time>2024-04-28T14:56:08.885Z</time>
      </trkpt>
      <trkpt lat="42.96205" lon="-0.35001">
        <ele>1131.1</ele>
        <time>2024-04-28T14:56:19.079Z</time>
      </trkpt>
      <trkpt lat="42.96222" lon="-0.34967">
        <ele>1135.62</ele>
        <time>2024-04-28T14:56:29.276Z</time>
      </trkpt>
      <trkpt lat="42.96222" lon="-0.34962">
        <ele>1140.39</ele>
        <time>2024-04-28T14:56:39.474Z</time>
      </trkpt>
      <trkpt lat="42.96219" lon="-0.34955">
        <ele>1145.03</ele>
        <time>2024-04-28T14:56:49.672Z</time>
      </trkpt>
      <trkpt lat="42.96223" lon="-0.34917">
        <ele>1149.26</ele>
        <time>2024-04-28T14:56:59.873Z</time>
      </trkpt>
      <trkpt lat="42.96227" lon="-0.34866">
        <ele>1153.35</ele>
        <time>2024-04-28T14:57:10.079Z</time>
      </trkpt>
      <trkpt lat="42.96233" lon="-0.34805">
        <ele>1157.72</ele>
        <time>2024-04-28T14:57:20.290Z</time>
      </trkpt>
      <trkpt lat="42.96246" lon="-0.34749">
        <ele>1160.93</ele>
        <time>2024-04-28T14:57:30.505Z</time>
      </trkpt>
      <trkpt lat="42.96254" lon="-0.34701">
        <ele>1164.29</ele>
        <time>2024-04-28T14:57:40.724Z</time>
      </trkpt>
      <trkpt lat="42.96255" lon="-0.34681">
        <ele>1167.11</ele>
        <time>2024-04-28T14:57:50.945Z</time>
      </trkpt>
      <trkpt lat="42.96252" lon="-0.34656">
        <ele>1169.82</ele>
        <time>2024-04-28T14:58:01.168Z</time>
      </trkpt>
      <trkpt lat="42.96249" lon="-0.34621">
        <ele>1172.34</ele>
        <time>2024-04-28T14:58:11.394Z</time>
      </trkpt>
      <trkpt lat="42.9625" lon="-0.34603">
        <ele>1174.14</ele>
        <time>2024-04-28T14:58:21.621Z</time>
      </trkpt>
      <trkpt lat="42.96254" lon="-0.3458">
        <ele>1175.62</ele>
        <time>2024-04-28T14:58:31.850Z</time>
      </trkpt>
      <trkpt lat="42.96264" lon="-0.34563">
        <ele>1176.36</ele>
        <time>2024-04-28T14:58:42.081Z</time>
      </trkpt>
      <trkpt lat="42.9627" lon="-0.34559">
        <ele>1177.24</ele>
        <time>2024-04-28T14:58:52.313Z</time>
      </trkpt>
      <trkpt lat="42.96288" lon="-0.34557">
        <ele>1177.61</ele>
        <time>2024-04-28T14:59:02.547Z</time>
      </trkpt>
      <trkpt lat="42.96297" lon="-0.34553">
        <ele>1178.26</ele>
        <time>2024-04-28T14:59:12.782Z</time>
      </trkpt>
      <trkpt lat="42.96302" lon="-0.34546">
        <ele>1178.92</ele>
        <time>2024-04-28T14:59:23.018Z</time>
      </trkpt>
      <trkpt lat="42.96306" lon="-0.34527">
        <ele>1179.59</ele>
        <time>2024-04-28T14:59:33.255Z</time>
      </trkpt>
      <trkpt lat="42.96309" lon="-0.34514">
        <ele>1180.13</ele>
        <time>2024-04-28T14:59:43.494Z</time>
      </trkpt>
      <trkpt lat="42.96311" lon="-0.34475">
        <ele>1180.76</ele>
        <time>2024-04-28T14:59:53.736Z</time>
      </trkpt>
      <trkpt lat="42.9631" lon="-0.34456">
        <ele>1181.29</ele>
        <time>2024-04-28T15:00:03.979Z</time>
      </trkpt>
      <trkpt lat="42.96308" lon="-0.34448">
        <ele>1181.77</ele>
        <time>2024-04-28T15:00:14.223Z</time>
      </trkpt>
      <trkpt lat="42.96306" lon="-0.34431">
        <ele>1182.38</ele>
        <time>2024-04-28T15:00:24.468Z</time>
      </trkpt>
      <trkpt lat="42.96307" lon="-0.34425">
        <ele>1182.79</ele>
        <time>2024-04-28T15:00:34.714Z</time>
      </trkpt>
      <trkpt lat="42.9632" lon="-0.34388">
        <ele>1183.36</ele>
        <time>2024-04-28T15:00:44.963Z</time>
      </trkpt>
      <trkpt lat="42.96321" lon="-0.3436">
        <ele>1183.94</ele>
        <time>2024-04-28T15:00:55.214Z</time>
      </trkpt>
      <trkpt lat="42.96321" lon="-0.34336">
        <ele>1184.39</ele>
        <time>2024-04-28T15:01:05.467Z</time>
      </trkpt>
      <trkpt lat="42.96324" lon="-0.34312">
        <ele>1184.62</ele>
        <time>2024-04-28T15:01:15.722Z</time>
      </trkpt>
      <trkpt lat="42.96334" lon="-0.34265">
        <ele>1184.76</ele>
        <time>2024-04-28T15:01:25.981Z</time>
      </trkpt>
      <trkpt lat="42.96339" lon="-0.34229">
        <ele>1184.96</ele>
        <time>2024-04-28T15:01:36.243Z</time>
      </trkpt>
      <trkpt lat="42.96347" lon="-0.34195">
        <ele>1185.35</ele>
        <time>2024-04-28T15:01:46.508Z</time>
      </trkpt>
      <trkpt lat="42.96353" lon="-0.34144">
        <ele>1186.16</ele>
        <time>2024-04-28T15:01:56.778Z</time>
      </trkpt>
      <trkpt lat="42.9635" lon="-0.34118">
        <ele>1186.71</ele>
        <time>2024-04-28T15:02:07.050Z</time>
      </trkpt>
      <trkpt lat="42.96336" lon="-0.34078">
        <ele>1186.95</ele>
        <time>2024-04-28T15:02:17.325Z</time>
      </trkpt>
      <trkpt lat="42.96306" lon="-0.34002">
        <ele>1187.65</ele>
        <time>2024-04-28T15:02:27.607Z</time>
      </trkpt>
      <trkpt lat="42.96302" lon="-0.33983">
        <ele>1188.61</ele>
        <time>2024-04-28T15:02:37.891Z</time>
      </trkpt>
      <trkpt lat="42.96302" lon="-0.33971">
        <ele>1189.64</ele>
        <time>2024-04-28T15:02:48.176Z</time>
      </trkpt>
      <trkpt lat="42.96304" lon="-0.33958">
        <ele>1190.8</ele>
        <time>2024-04-28T15:02:58.462Z</time>
      </trkpt>
      <trkpt lat="42.96309" lon="-0.33948">
        <ele>1192.04</ele>
        <time>2024-04-28T15:03:08.749Z</time>
      </trkpt>
      <trkpt lat="42.96319" lon="-0.3394">
        <ele>1193.39</ele>
        <time>2024-04-28T15:03:19.037Z</time>
      </trkpt>
      <trkpt lat="42.96355" lon="-0.33933">
        <ele>1195.11</ele>
        <time>2024-04-28T15:03:29.329Z</time>
      </trkpt>
      <trkpt lat="42.96374" lon="-0.33933">
        <ele>1196.64</ele>
        <time>2024-04-28T15:03:39.623Z</time>
      </trkpt>
      <trkpt lat="42.96384" lon="-0.33935">
        <ele>1198.03</ele>
        <time>2024-04-28T15:03:49.919Z</time>
      </trkpt>
      <trkpt lat="42.96394" lon="-0.33941">
        <ele>1199.34</ele>
        <time>2024-04-28T15:04:00.216Z</time>
      </trkpt>
      <trkpt lat="42.96402" lon="-0.33951">
        <ele>1200.6</ele>
        <time>2024-04-28T15:04:10.514Z</time>
      </trkpt>
      <trkpt lat="42.96406" lon="-0.33959">
        <ele>1201.84</ele>
        <time>2024-04-28T15:04:20.813Z</time>
      </trkpt>
      <trkpt lat="42.96412" lon="-0.33978">
        <ele>1203</ele>
        <time>2024-04-28T15:04:31.113Z</time>
      </trkpt>
      <trkpt lat="42.96414" lon="-0.34029">
        <ele>1204.01</ele>
        <time>2024-04-28T15:04:41.418Z</time>
      </trkpt>
      <trkpt lat="42.96416" lon="-0.34081">
        <ele>1205.61</ele>
        <time>2024-04-28T15:04:51.727Z</time>
      </trkpt>
      <trkpt lat="42.96419" lon="-0.34129">
        <ele>1207.45</ele>
        <time>2024-04-28T15:05:02.040Z</time>
      </trkpt>
      <trkpt lat="42.96436" lon="-0.342">
        <ele>1208.92</ele>
        <time>2024-04-28T15:05:12.359Z</time>
      </trkpt>
      <trkpt lat="42.96466" lon="-0.34315">
        <ele>1210.93</ele>
        <time>2024-04-28T15:05:22.688Z</time>
      </trkpt>
      <trkpt lat="42.96476" lon="-0.34337">
        <ele>1212.51</ele>
        <time>2024-04-28T15:05:33.019Z</time>
      </trkpt>
      <trkpt lat="42.96483" lon="-0.34344">
        <ele>1214.32</ele>
        <time>2024-04-28T15:05:43.351Z</time>
      </trkpt>
      <trkpt lat="42.96487" lon="-0.34346">
        <ele>1216.25</ele>
        <time>2024-04-28T15:05:53.683Z</time>
      </trkpt>
      <trkpt lat="42.96494" lon="-0.34345">
        <ele>1218.33</ele>
        <time>2024-04-28T15:06:04.016Z</time>
      </trkpt>
      <trkpt lat="42.96498" lon="-0.34343">
        <ele>1220.51</ele>
        <time>2024-04-28T15:06:14.350Z</time>
      </trkpt>
      <trkpt lat="42.96505" lon="-0.34332">
        <ele>1222.95</ele>
        <time>2024-04-28T15:06:24.685Z</time>
      </trkpt>
      <trkpt lat="42.9651" lon="-0.34306">
        <ele>1225.46</ele>
        <time>2024-04-28T15:06:35.022Z</time>
      </trkpt>
      <trkpt lat="42.9651" lon="-0.34268">
        <ele>1227.96</ele>
        <time>2024-04-28T15:06:45.362Z</time>
      </trkpt>
      <trkpt lat="42.96505" lon="-0.3421">
        <ele>1230.58</ele>
        <time>2024-04-28T15:06:55.707Z</time>
      </trkpt>
      <trkpt lat="42.96495" lon="-0.34093">
        <ele>1233.53</ele>
        <time>2024-04-28T15:07:06.062Z</time>
      </trkpt>
      <trkpt lat="42.96488" lon="-0.34057">
        <ele>1235.64</ele>
        <time>2024-04-28T15:07:16.420Z</time>
      </trkpt>
      <trkpt lat="42.96481" lon="-0.34034">
        <ele>1237.71</ele>
        <time>2024-04-28T15:07:26.780Z</time>
      </trkpt>
      <trkpt lat="42.96475" lon="-0.33987">
        <ele>1239.97</ele>
        <time>2024-04-28T15:07:37.143Z</time>
      </trkpt>
      <trkpt lat="42.96472" lon="-0.33942">
        <ele>1242.52</ele>
        <time>2024-04-28T15:07:47.510Z</time>
      </trkpt>
      <trkpt lat="42.96463" lon="-0.33907">
        <ele>1245.11</ele>
        <time>2024-04-28T15:07:57.880Z</time>
      </trkpt>
      <trkpt lat="42.96462" lon="-0.33894">
        <ele>1248.17</ele>
        <time>2024-04-28T15:08:08.251Z</time>
      </trkpt>
      <trkpt lat="42.96466" lon="-0.33857">
        <ele>1251.48</ele>
        <time>2024-04-28T15:08:18.625Z</time>
      </trkpt>
      <trkpt lat="42.96465" lon="-0.33846">
        <ele>1254.8</ele>
        <time>2024-04-28T15:08:29.000Z</time>
      </trkpt>
      <trkpt lat="42.9646" lon="-0.33824">
        <ele>1258.26</ele>
        <time>2024-04-28T15:08:39.377Z</time>
      </trkpt>
      <trkpt lat="42.9645" lon="-0.33786">
        <ele>1262.63</ele>
        <time>2024-04-28T15:08:49.757Z</time>
      </trkpt>
      <trkpt lat="42.96449" lon="-0.33761">
        <ele>1266.94</ele>
        <time>2024-04-28T15:09:00.139Z</time>
      </trkpt>
      <trkpt lat="42.96449" lon="-0.33716">
        <ele>1271.23</ele>
        <time>2024-04-28T15:09:10.525Z</time>
      </trkpt>
      <trkpt lat="42.96436" lon="-0.33618">
        <ele>1275.72</ele>
        <time>2024-04-28T15:09:20.919Z</time>
      </trkpt>
      <trkpt lat="42.96431" lon="-0.33584">
        <ele>1279.17</ele>
        <time>2024-04-28T15:09:31.316Z</time>
      </trkpt>
      <trkpt lat="42.96423" lon="-0.33554">
        <ele>1282.78</ele>
        <time>2024-04-28T15:09:41.716Z</time>
      </trkpt>
      <trkpt lat="42.96405" lon="-0.33511">
        <ele>1286.69</ele>
        <time>2024-04-28T15:09:52.120Z</time>
      </trkpt>
      <trkpt lat="42.96378" lon="-0.33455">
        <ele>1290.96</ele>
        <time>2024-04-28T15:10:02.529Z</time>
      </trkpt>
      <trkpt lat="42.96358" lon="-0.33407">
        <ele>1295.42</ele>
        <time>2024-04-28T15:10:12.943Z</time>
      </trkpt>
      <trkpt lat="42.96335" lon="-0.33369">
        <ele>1299.53</ele>
        <time>2024-04-28T15:10:23.361Z</time>
      </trkpt>
      <trkpt lat="42.9632" lon="-0.33346">
        <ele>1303.23</ele>
        <time>2024-04-28T15:10:33.781Z</time>
      </trkpt>
      <trkpt lat="42.9631" lon="-0.33335">
        <ele>1307.31</ele>
        <time>2024-04-28T15:10:44.203Z</time>
      </trkpt>
      <trkpt lat="42.96284" lon="-0.33311">
        <ele>1311.63</ele>
        <time>2024-04-28T15:10:54.628Z</time>
      </trkpt>
      <trkpt lat="42.96245" lon="-0.33278">
        <ele>1316.44</ele>
        <time>2024-04-28T15:11:05.058Z</time>
      </trkpt>
      <trkpt lat="42.96201" lon="-0.33268">
        <ele>1320.43</ele>
        <time>2024-04-28T15:11:15.493Z</time>
      </trkpt>
      <trkpt lat="42.96183" lon="-0.33265">
        <ele>1323.42</ele>
        <time>2024-04-28T15:11:25.930Z</time>
      </trkpt>
      <trkpt lat="42.96162" lon="-0.33266">
        <ele>1326.64</ele>
        <time>2024-04-28T15:11:36.370Z</time>
      </trkpt>
      <trkpt lat="42.9615" lon="-0.33271">
        <ele>1329.42</ele>
        <time>2024-04-28T15:11:46.811Z</time>
      </trkpt>
      <trkpt lat="42.9614" lon="-0.3328">
        <ele>1331.88</ele>
        <time>2024-04-28T15:11:57.253Z</time>
      </trkpt>
      <trkpt lat="42.96127" lon="-0.33294">
        <ele>1334.25</ele>
        <time>2024-04-28T15:12:07.697Z</time>
      </trkpt>
      <trkpt lat="42.96116" lon="-0.33304">
        <ele>1336.53</ele>
        <time>2024-04-28T15:12:18.143Z</time>
      </trkpt>
      <trkpt lat="42.96108" lon="-0.33305">
        <ele>1339.05</ele>
        <time>2024-04-28T15:12:28.589Z</time>
      </trkpt>
      <trkpt lat="42.96104" lon="-0.33304">
        <ele>1341.64</ele>
        <time>2024-04-28T15:12:39.036Z</time>
      </trkpt>
      <trkpt lat="42.96091" lon="-0.33297">
        <ele>1344.37</ele>
        <time>2024-04-28T15:12:49.484Z</time>
      </trkpt>
      <trkpt lat="42.96076" lon="-0.33285">
        <ele>1347.06</ele>
        <time>2024-04-28T15:12:59.934Z</time>
      </trkpt>
      <trkpt lat="42.96064" lon="-0.33277">
        <ele>1349.37</ele>
        <time>2024-04-28T15:13:10.386Z</time>
      </trkpt>
      <trkpt lat="42.96055" lon="-0.33277">
        <ele>1351.1</ele>
        <time>2024-04-28T15:13:20.839Z</time>
      </trkpt>
      <trkpt lat="42.96044" lon="-0.33279">
        <ele>1352.54</ele>
        <time>2024-04-28T15:13:31.293Z</time>
      </trkpt>
      <trkpt lat="42.96038" lon="-0.33282">
        <ele>1353.6</ele>
        <time>2024-04-28T15:13:41.748Z</time>
      </trkpt>
      <trkpt lat="42.96019" lon="-0.33294">
        <ele>1354.47</ele>
        <time>2024-04-28T15:13:52.205Z</time>
      </trkpt>
      <trkpt lat="42.95998" lon="-0.33304">
        <ele>1354.94</ele>
        <time>2024-04-28T15:14:02.665Z</time>
      </trkpt>
      <trkpt lat="42.95988" lon="-0.33305">
        <ele>1355.28</ele>
        <time>2024-04-28T15:14:13.126Z</time>
      </trkpt>
    </trkseg>
  </trk>
</gpx>